<?xml version="1.0" encoding="UTF-8" standalone="no" ?>
<gpx xmlns="http://www.topografix.com/GPX/1/1" xmlns:xsi="http://www.w3.org/2001/XMLSchema-instance" xsi:schemaLocation="http://www.topografix.com/GPX/1/1 http://www.topografix.com/GPX/1/1/gpx.xsd" version="1.1" creator="VisuGPX - https://www.visugpx.com">
  <metadata>
    <name>Morbier-Tancua-Chalet Mayet-La Madone....</name>
  </metadata>
  <trk>
    <name><![CDATA[Morbier-Tancua-Chalet Mayet-La Madone...._1]]></name>
    <extensions>
      <line xmlns="http://www.topografix.com/GPX/gpx_style/0/2">
        <color>0000FF</color>
        <width>4</width>
      </line>
    </extensions>
    <trkseg>
      <trkpt lat="46.53541" lon="6.01528">
        <ele>821.3</ele>
        <time>2021-10-14T07:03:45Z</time>
      </trkpt>
      <trkpt lat="46.53544" lon="6.01535">
        <ele>820.4</ele>
        <time>2021-10-14T07:03:51Z</time>
      </trkpt>
      <trkpt lat="46.53545" lon="6.01542">
        <ele>819.3</ele>
        <time>2021-10-14T07:03:56Z</time>
      </trkpt>
      <trkpt lat="46.53542" lon="6.01547">
        <ele>816.8</ele>
        <time>2021-10-14T07:04:11Z</time>
      </trkpt>
      <trkpt lat="46.53547" lon="6.01549">
        <ele>818.1</ele>
        <time>2021-10-14T07:04:26Z</time>
      </trkpt>
      <trkpt lat="46.53546" lon="6.01556">
        <ele>815.7</ele>
        <time>2021-10-14T07:04:51Z</time>
      </trkpt>
      <trkpt lat="46.53544" lon="6.01563">
        <ele>815.2</ele>
        <time>2021-10-14T07:04:54Z</time>
      </trkpt>
      <trkpt lat="46.53542" lon="6.01569">
        <ele>814.5</ele>
        <time>2021-10-14T07:04:58Z</time>
      </trkpt>
      <trkpt lat="46.5354" lon="6.01576">
        <ele>813.7</ele>
        <time>2021-10-14T07:05:03Z</time>
      </trkpt>
      <trkpt lat="46.53535" lon="6.01578">
        <ele>814</ele>
        <time>2021-10-14T07:05:09Z</time>
      </trkpt>
      <trkpt lat="46.53529" lon="6.01579">
        <ele>814.8</ele>
        <time>2021-10-14T07:05:14Z</time>
      </trkpt>
      <trkpt lat="46.53525" lon="6.01582">
        <ele>815.2</ele>
        <time>2021-10-14T07:05:18Z</time>
      </trkpt>
      <trkpt lat="46.5352" lon="6.01585">
        <ele>815.6</ele>
        <time>2021-10-14T07:05:22Z</time>
      </trkpt>
      <trkpt lat="46.53515" lon="6.01587">
        <ele>815.8</ele>
        <time>2021-10-14T07:05:26Z</time>
      </trkpt>
      <trkpt lat="46.53509" lon="6.01588">
        <ele>816.1</ele>
        <time>2021-10-14T07:05:30Z</time>
      </trkpt>
      <trkpt lat="46.53505" lon="6.0159">
        <ele>816.6</ele>
        <time>2021-10-14T07:05:34Z</time>
      </trkpt>
      <trkpt lat="46.535" lon="6.01591">
        <ele>817.8</ele>
        <time>2021-10-14T07:05:41Z</time>
      </trkpt>
      <trkpt lat="46.53495" lon="6.0159">
        <ele>818.6</ele>
        <time>2021-10-14T07:05:46Z</time>
      </trkpt>
      <trkpt lat="46.53491" lon="6.01588">
        <ele>819</ele>
        <time>2021-10-14T07:05:50Z</time>
      </trkpt>
      <trkpt lat="46.53486" lon="6.01587">
        <ele>819.7</ele>
        <time>2021-10-14T07:05:56Z</time>
      </trkpt>
      <trkpt lat="46.53481" lon="6.01589">
        <ele>820.6</ele>
        <time>2021-10-14T07:06:02Z</time>
      </trkpt>
      <trkpt lat="46.53476" lon="6.0159">
        <ele>821.1</ele>
        <time>2021-10-14T07:06:07Z</time>
      </trkpt>
      <trkpt lat="46.53471" lon="6.01591">
        <ele>822</ele>
        <time>2021-10-14T07:06:15Z</time>
      </trkpt>
      <trkpt lat="46.53465" lon="6.01591">
        <ele>821.8</ele>
        <time>2021-10-14T07:06:19Z</time>
      </trkpt>
      <trkpt lat="46.5346" lon="6.01591">
        <ele>821.1</ele>
        <time>2021-10-14T07:06:23Z</time>
      </trkpt>
      <trkpt lat="46.53455" lon="6.01591">
        <ele>820.2</ele>
        <time>2021-10-14T07:06:27Z</time>
      </trkpt>
      <trkpt lat="46.5345" lon="6.01591">
        <ele>819.2</ele>
        <time>2021-10-14T07:06:32Z</time>
      </trkpt>
      <trkpt lat="46.53445" lon="6.01592">
        <ele>818.6</ele>
        <time>2021-10-14T07:06:37Z</time>
      </trkpt>
      <trkpt lat="46.5344" lon="6.01593">
        <ele>818.3</ele>
        <time>2021-10-14T07:06:41Z</time>
      </trkpt>
      <trkpt lat="46.53434" lon="6.01594">
        <ele>818.2</ele>
        <time>2021-10-14T07:06:45Z</time>
      </trkpt>
      <trkpt lat="46.5343" lon="6.01595">
        <ele>818.6</ele>
        <time>2021-10-14T07:06:50Z</time>
      </trkpt>
      <trkpt lat="46.53425" lon="6.01594">
        <ele>817.3</ele>
        <time>2021-10-14T07:07:00Z</time>
      </trkpt>
      <trkpt lat="46.53421" lon="6.0159">
        <ele>815.9</ele>
        <time>2021-10-14T07:07:08Z</time>
      </trkpt>
      <trkpt lat="46.5342" lon="6.01583">
        <ele>815.3</ele>
        <time>2021-10-14T07:07:13Z</time>
      </trkpt>
      <trkpt lat="46.53417" lon="6.01578">
        <ele>815.2</ele>
        <time>2021-10-14T07:07:18Z</time>
      </trkpt>
      <trkpt lat="46.53413" lon="6.01573">
        <ele>815</ele>
        <time>2021-10-14T07:07:23Z</time>
      </trkpt>
      <trkpt lat="46.53411" lon="6.01566">
        <ele>814.1</ele>
        <time>2021-10-14T07:07:28Z</time>
      </trkpt>
      <trkpt lat="46.53411" lon="6.01558">
        <ele>813.4</ele>
        <time>2021-10-14T07:07:32Z</time>
      </trkpt>
      <trkpt lat="46.53412" lon="6.0155">
        <ele>812.7</ele>
        <time>2021-10-14T07:07:36Z</time>
      </trkpt>
      <trkpt lat="46.53413" lon="6.01542">
        <ele>812.1</ele>
        <time>2021-10-14T07:07:40Z</time>
      </trkpt>
      <trkpt lat="46.53414" lon="6.01535">
        <ele>811.5</ele>
        <time>2021-10-14T07:07:44Z</time>
      </trkpt>
      <trkpt lat="46.53416" lon="6.01528">
        <ele>811.2</ele>
        <time>2021-10-14T07:07:48Z</time>
      </trkpt>
      <trkpt lat="46.53416" lon="6.01521">
        <ele>810.7</ele>
        <time>2021-10-14T07:07:52Z</time>
      </trkpt>
      <trkpt lat="46.53415" lon="6.01513">
        <ele>810.3</ele>
        <time>2021-10-14T07:07:56Z</time>
      </trkpt>
      <trkpt lat="46.53416" lon="6.01505">
        <ele>810.1</ele>
        <time>2021-10-14T07:08:00Z</time>
      </trkpt>
      <trkpt lat="46.53417" lon="6.01499">
        <ele>809.7</ele>
        <time>2021-10-14T07:08:04Z</time>
      </trkpt>
      <trkpt lat="46.53418" lon="6.01492">
        <ele>809.1</ele>
        <time>2021-10-14T07:08:08Z</time>
      </trkpt>
      <trkpt lat="46.53419" lon="6.01485">
        <ele>808.3</ele>
        <time>2021-10-14T07:08:12Z</time>
      </trkpt>
      <trkpt lat="46.5342" lon="6.01479">
        <ele>807.5</ele>
        <time>2021-10-14T07:08:16Z</time>
      </trkpt>
      <trkpt lat="46.5342" lon="6.01472">
        <ele>806.9</ele>
        <time>2021-10-14T07:08:20Z</time>
      </trkpt>
      <trkpt lat="46.53421" lon="6.01465">
        <ele>806.5</ele>
        <time>2021-10-14T07:08:24Z</time>
      </trkpt>
      <trkpt lat="46.53422" lon="6.01458">
        <ele>806.1</ele>
        <time>2021-10-14T07:08:28Z</time>
      </trkpt>
      <trkpt lat="46.53422" lon="6.01451">
        <ele>805.5</ele>
        <time>2021-10-14T07:08:32Z</time>
      </trkpt>
      <trkpt lat="46.53422" lon="6.01444">
        <ele>804.9</ele>
        <time>2021-10-14T07:08:37Z</time>
      </trkpt>
      <trkpt lat="46.53423" lon="6.01437">
        <ele>804.1</ele>
        <time>2021-10-14T07:08:42Z</time>
      </trkpt>
      <trkpt lat="46.53422" lon="6.01429">
        <ele>803.2</ele>
        <time>2021-10-14T07:08:47Z</time>
      </trkpt>
      <trkpt lat="46.53423" lon="6.01423">
        <ele>802.4</ele>
        <time>2021-10-14T07:08:52Z</time>
      </trkpt>
      <trkpt lat="46.53424" lon="6.01415">
        <ele>801.6</ele>
        <time>2021-10-14T07:08:57Z</time>
      </trkpt>
      <trkpt lat="46.53423" lon="6.01409">
        <ele>801.2</ele>
        <time>2021-10-14T07:09:05Z</time>
      </trkpt>
      <trkpt lat="46.53424" lon="6.01401">
        <ele>801.1</ele>
        <time>2021-10-14T07:09:09Z</time>
      </trkpt>
      <trkpt lat="46.53423" lon="6.01393">
        <ele>801.2</ele>
        <time>2021-10-14T07:09:13Z</time>
      </trkpt>
      <trkpt lat="46.53424" lon="6.01386">
        <ele>801.1</ele>
        <time>2021-10-14T07:09:17Z</time>
      </trkpt>
      <trkpt lat="46.53424" lon="6.01379">
        <ele>801</ele>
        <time>2021-10-14T07:09:21Z</time>
      </trkpt>
      <trkpt lat="46.53424" lon="6.0137">
        <ele>801.1</ele>
        <time>2021-10-14T07:09:25Z</time>
      </trkpt>
      <trkpt lat="46.53425" lon="6.01363">
        <ele>801</ele>
        <time>2021-10-14T07:09:29Z</time>
      </trkpt>
      <trkpt lat="46.53426" lon="6.01354">
        <ele>800.6</ele>
        <time>2021-10-14T07:09:32Z</time>
      </trkpt>
      <trkpt lat="46.53426" lon="6.01348">
        <ele>800.2</ele>
        <time>2021-10-14T07:09:36Z</time>
      </trkpt>
      <trkpt lat="46.53427" lon="6.0134">
        <ele>799.9</ele>
        <time>2021-10-14T07:09:41Z</time>
      </trkpt>
      <trkpt lat="46.53427" lon="6.01332">
        <ele>800</ele>
        <time>2021-10-14T07:09:46Z</time>
      </trkpt>
      <trkpt lat="46.53427" lon="6.01325">
        <ele>800.4</ele>
        <time>2021-10-14T07:09:51Z</time>
      </trkpt>
      <trkpt lat="46.53429" lon="6.01319">
        <ele>800.4</ele>
        <time>2021-10-14T07:09:57Z</time>
      </trkpt>
      <trkpt lat="46.5343" lon="6.01311">
        <ele>800.1</ele>
        <time>2021-10-14T07:10:02Z</time>
      </trkpt>
      <trkpt lat="46.53432" lon="6.01305">
        <ele>799.8</ele>
        <time>2021-10-14T07:10:06Z</time>
      </trkpt>
      <trkpt lat="46.53434" lon="6.01297">
        <ele>799.5</ele>
        <time>2021-10-14T07:10:11Z</time>
      </trkpt>
      <trkpt lat="46.53435" lon="6.01288">
        <ele>799.4</ele>
        <time>2021-10-14T07:10:15Z</time>
      </trkpt>
      <trkpt lat="46.53436" lon="6.01282">
        <ele>799.5</ele>
        <time>2021-10-14T07:10:19Z</time>
      </trkpt>
      <trkpt lat="46.53438" lon="6.01276">
        <ele>799.6</ele>
        <time>2021-10-14T07:10:23Z</time>
      </trkpt>
      <trkpt lat="46.53439" lon="6.01269">
        <ele>799.4</ele>
        <time>2021-10-14T07:10:27Z</time>
      </trkpt>
      <trkpt lat="46.53441" lon="6.01262">
        <ele>798.4</ele>
        <time>2021-10-14T07:10:31Z</time>
      </trkpt>
      <trkpt lat="46.53442" lon="6.01256">
        <ele>797</ele>
        <time>2021-10-14T07:10:35Z</time>
      </trkpt>
      <trkpt lat="46.53444" lon="6.01249">
        <ele>795</ele>
        <time>2021-10-14T07:10:39Z</time>
      </trkpt>
      <trkpt lat="46.53447" lon="6.01243">
        <ele>793.1</ele>
        <time>2021-10-14T07:10:44Z</time>
      </trkpt>
      <trkpt lat="46.5345" lon="6.01238">
        <ele>791.3</ele>
        <time>2021-10-14T07:10:49Z</time>
      </trkpt>
      <trkpt lat="46.53454" lon="6.01232">
        <ele>789.8</ele>
        <time>2021-10-14T07:10:54Z</time>
      </trkpt>
      <trkpt lat="46.53459" lon="6.0123">
        <ele>788.2</ele>
        <time>2021-10-14T07:10:59Z</time>
      </trkpt>
      <trkpt lat="46.53464" lon="6.01226">
        <ele>786.8</ele>
        <time>2021-10-14T07:11:03Z</time>
      </trkpt>
      <trkpt lat="46.53467" lon="6.01221">
        <ele>785.7</ele>
        <time>2021-10-14T07:11:07Z</time>
      </trkpt>
      <trkpt lat="46.53472" lon="6.01218">
        <ele>784.4</ele>
        <time>2021-10-14T07:11:12Z</time>
      </trkpt>
      <trkpt lat="46.53477" lon="6.01217">
        <ele>783.7</ele>
        <time>2021-10-14T07:11:17Z</time>
      </trkpt>
      <trkpt lat="46.53482" lon="6.01215">
        <ele>783.4</ele>
        <time>2021-10-14T07:11:22Z</time>
      </trkpt>
      <trkpt lat="46.53487" lon="6.01216">
        <ele>783</ele>
        <time>2021-10-14T07:11:27Z</time>
      </trkpt>
      <trkpt lat="46.53491" lon="6.01217">
        <ele>783</ele>
        <time>2021-10-14T07:11:31Z</time>
      </trkpt>
      <trkpt lat="46.53496" lon="6.01219">
        <ele>782.7</ele>
        <time>2021-10-14T07:11:36Z</time>
      </trkpt>
      <trkpt lat="46.53501" lon="6.01221">
        <ele>782.3</ele>
        <time>2021-10-14T07:11:42Z</time>
      </trkpt>
      <trkpt lat="46.53506" lon="6.01223">
        <ele>781.6</ele>
        <time>2021-10-14T07:11:47Z</time>
      </trkpt>
      <trkpt lat="46.53512" lon="6.01227">
        <ele>781.2</ele>
        <time>2021-10-14T07:11:51Z</time>
      </trkpt>
      <trkpt lat="46.53517" lon="6.01229">
        <ele>780.8</ele>
        <time>2021-10-14T07:11:55Z</time>
      </trkpt>
      <trkpt lat="46.53521" lon="6.01233">
        <ele>780.5</ele>
        <time>2021-10-14T07:12:00Z</time>
      </trkpt>
      <trkpt lat="46.53526" lon="6.01237">
        <ele>780.4</ele>
        <time>2021-10-14T07:12:05Z</time>
      </trkpt>
      <trkpt lat="46.53531" lon="6.01241">
        <ele>780.5</ele>
        <time>2021-10-14T07:12:10Z</time>
      </trkpt>
      <trkpt lat="46.53535" lon="6.01244">
        <ele>780.6</ele>
        <time>2021-10-14T07:12:15Z</time>
      </trkpt>
      <trkpt lat="46.53539" lon="6.01248">
        <ele>780.7</ele>
        <time>2021-10-14T07:12:20Z</time>
      </trkpt>
      <trkpt lat="46.53544" lon="6.01252">
        <ele>780.7</ele>
        <time>2021-10-14T07:12:24Z</time>
      </trkpt>
      <trkpt lat="46.53548" lon="6.01256">
        <ele>780.8</ele>
        <time>2021-10-14T07:12:29Z</time>
      </trkpt>
      <trkpt lat="46.53552" lon="6.0126">
        <ele>781.1</ele>
        <time>2021-10-14T07:12:34Z</time>
      </trkpt>
      <trkpt lat="46.53556" lon="6.01265">
        <ele>781.5</ele>
        <time>2021-10-14T07:12:40Z</time>
      </trkpt>
      <trkpt lat="46.5356" lon="6.0127">
        <ele>781.6</ele>
        <time>2021-10-14T07:12:45Z</time>
      </trkpt>
      <trkpt lat="46.53564" lon="6.01275">
        <ele>781.4</ele>
        <time>2021-10-14T07:12:50Z</time>
      </trkpt>
      <trkpt lat="46.53567" lon="6.01282">
        <ele>781.4</ele>
        <time>2021-10-14T07:12:55Z</time>
      </trkpt>
      <trkpt lat="46.53569" lon="6.01289">
        <ele>781.5</ele>
        <time>2021-10-14T07:12:59Z</time>
      </trkpt>
      <trkpt lat="46.53571" lon="6.01296">
        <ele>781.8</ele>
        <time>2021-10-14T07:13:03Z</time>
      </trkpt>
      <trkpt lat="46.53573" lon="6.01304">
        <ele>782.1</ele>
        <time>2021-10-14T07:13:07Z</time>
      </trkpt>
      <trkpt lat="46.53575" lon="6.0131">
        <ele>782</ele>
        <time>2021-10-14T07:13:11Z</time>
      </trkpt>
      <trkpt lat="46.53578" lon="6.01317">
        <ele>781.4</ele>
        <time>2021-10-14T07:13:16Z</time>
      </trkpt>
      <trkpt lat="46.53578" lon="6.01324">
        <ele>781</ele>
        <time>2021-10-14T07:13:21Z</time>
      </trkpt>
      <trkpt lat="46.53576" lon="6.01332">
        <ele>781</ele>
        <time>2021-10-14T07:13:25Z</time>
      </trkpt>
      <trkpt lat="46.53577" lon="6.01339">
        <ele>781</ele>
        <time>2021-10-14T07:13:29Z</time>
      </trkpt>
      <trkpt lat="46.53579" lon="6.01346">
        <ele>781.1</ele>
        <time>2021-10-14T07:13:33Z</time>
      </trkpt>
      <trkpt lat="46.53581" lon="6.01353">
        <ele>781.3</ele>
        <time>2021-10-14T07:13:38Z</time>
      </trkpt>
      <trkpt lat="46.53584" lon="6.01359">
        <ele>781.4</ele>
        <time>2021-10-14T07:13:43Z</time>
      </trkpt>
      <trkpt lat="46.53588" lon="6.01363">
        <ele>781.3</ele>
        <time>2021-10-14T07:13:48Z</time>
      </trkpt>
      <trkpt lat="46.53592" lon="6.01359">
        <ele>782.9</ele>
        <time>2021-10-14T07:14:28Z</time>
      </trkpt>
      <trkpt lat="46.53587" lon="6.0136">
        <ele>785.4</ele>
        <time>2021-10-14T07:14:46Z</time>
      </trkpt>
      <trkpt lat="46.53584" lon="6.01353">
        <ele>785.2</ele>
        <time>2021-10-14T07:14:50Z</time>
      </trkpt>
      <trkpt lat="46.53582" lon="6.01346">
        <ele>785.3</ele>
        <time>2021-10-14T07:14:53Z</time>
      </trkpt>
      <trkpt lat="46.5358" lon="6.01338">
        <ele>785.8</ele>
        <time>2021-10-14T07:14:56Z</time>
      </trkpt>
      <trkpt lat="46.5358" lon="6.01332">
        <ele>787</ele>
        <time>2021-10-14T07:14:59Z</time>
      </trkpt>
      <trkpt lat="46.5358" lon="6.01324">
        <ele>789</ele>
        <time>2021-10-14T07:15:03Z</time>
      </trkpt>
      <trkpt lat="46.53579" lon="6.01316">
        <ele>791.1</ele>
        <time>2021-10-14T07:15:07Z</time>
      </trkpt>
      <trkpt lat="46.53579" lon="6.01309">
        <ele>792.7</ele>
        <time>2021-10-14T07:15:10Z</time>
      </trkpt>
      <trkpt lat="46.53578" lon="6.01301">
        <ele>795.3</ele>
        <time>2021-10-14T07:15:14Z</time>
      </trkpt>
      <trkpt lat="46.53577" lon="6.01294">
        <ele>797.3</ele>
        <time>2021-10-14T07:15:17Z</time>
      </trkpt>
      <trkpt lat="46.53576" lon="6.01288">
        <ele>799</ele>
        <time>2021-10-14T07:15:20Z</time>
      </trkpt>
      <trkpt lat="46.53575" lon="6.01281">
        <ele>799.6</ele>
        <time>2021-10-14T07:15:25Z</time>
      </trkpt>
      <trkpt lat="46.53572" lon="6.01276">
        <ele>797.7</ele>
        <time>2021-10-14T07:15:29Z</time>
      </trkpt>
      <trkpt lat="46.53568" lon="6.01271">
        <ele>795.3</ele>
        <time>2021-10-14T07:15:33Z</time>
      </trkpt>
      <trkpt lat="46.53565" lon="6.01265">
        <ele>793.6</ele>
        <time>2021-10-14T07:15:37Z</time>
      </trkpt>
      <trkpt lat="46.5356" lon="6.01262">
        <ele>793.4</ele>
        <time>2021-10-14T07:15:42Z</time>
      </trkpt>
      <trkpt lat="46.53556" lon="6.0126">
        <ele>794.1</ele>
        <time>2021-10-14T07:15:46Z</time>
      </trkpt>
      <trkpt lat="46.53551" lon="6.01255">
        <ele>794.8</ele>
        <time>2021-10-14T07:15:50Z</time>
      </trkpt>
      <trkpt lat="46.53547" lon="6.01251">
        <ele>795.4</ele>
        <time>2021-10-14T07:15:54Z</time>
      </trkpt>
      <trkpt lat="46.53542" lon="6.01247">
        <ele>795.9</ele>
        <time>2021-10-14T07:15:58Z</time>
      </trkpt>
      <trkpt lat="46.53537" lon="6.01244">
        <ele>796.3</ele>
        <time>2021-10-14T07:16:02Z</time>
      </trkpt>
      <trkpt lat="46.53533" lon="6.01241">
        <ele>797.3</ele>
        <time>2021-10-14T07:16:06Z</time>
      </trkpt>
      <trkpt lat="46.53528" lon="6.01238">
        <ele>799.2</ele>
        <time>2021-10-14T07:16:10Z</time>
      </trkpt>
      <trkpt lat="46.53524" lon="6.01236">
        <ele>802.1</ele>
        <time>2021-10-14T07:16:15Z</time>
      </trkpt>
      <trkpt lat="46.53519" lon="6.01234">
        <ele>804.3</ele>
        <time>2021-10-14T07:16:20Z</time>
      </trkpt>
      <trkpt lat="46.53514" lon="6.01232">
        <ele>805.9</ele>
        <time>2021-10-14T07:16:24Z</time>
      </trkpt>
      <trkpt lat="46.53509" lon="6.0123">
        <ele>807.5</ele>
        <time>2021-10-14T07:16:28Z</time>
      </trkpt>
      <trkpt lat="46.53504" lon="6.01228">
        <ele>808.8</ele>
        <time>2021-10-14T07:16:33Z</time>
      </trkpt>
      <trkpt lat="46.53501" lon="6.01222">
        <ele>809.4</ele>
        <time>2021-10-14T07:16:39Z</time>
      </trkpt>
      <trkpt lat="46.53497" lon="6.01218">
        <ele>809.3</ele>
        <time>2021-10-14T07:16:45Z</time>
      </trkpt>
      <trkpt lat="46.53492" lon="6.01215">
        <ele>809.1</ele>
        <time>2021-10-14T07:16:51Z</time>
      </trkpt>
      <trkpt lat="46.53487" lon="6.01213">
        <ele>808.7</ele>
        <time>2021-10-14T07:16:57Z</time>
      </trkpt>
      <trkpt lat="46.53484" lon="6.01209">
        <ele>804.4</ele>
        <time>2021-10-14T07:17:15Z</time>
      </trkpt>
      <trkpt lat="46.5348" lon="6.01204">
        <ele>801.9</ele>
        <time>2021-10-14T07:17:26Z</time>
      </trkpt>
      <trkpt lat="46.53477" lon="6.01199">
        <ele>799.1</ele>
        <time>2021-10-14T07:17:38Z</time>
      </trkpt>
      <trkpt lat="46.53473" lon="6.01195">
        <ele>797.2</ele>
        <time>2021-10-14T07:17:53Z</time>
      </trkpt>
      <trkpt lat="46.53469" lon="6.01194">
        <ele>795.2</ele>
        <time>2021-10-14T07:18:09Z</time>
      </trkpt>
      <trkpt lat="46.53464" lon="6.01193">
        <ele>793.8</ele>
        <time>2021-10-14T07:18:15Z</time>
      </trkpt>
      <trkpt lat="46.53459" lon="6.01192">
        <ele>791</ele>
        <time>2021-10-14T07:18:23Z</time>
      </trkpt>
      <trkpt lat="46.53454" lon="6.01192">
        <ele>788.3</ele>
        <time>2021-10-14T07:18:30Z</time>
      </trkpt>
      <trkpt lat="46.5345" lon="6.01194">
        <ele>786.5</ele>
        <time>2021-10-14T07:18:35Z</time>
      </trkpt>
      <trkpt lat="46.53445" lon="6.01195">
        <ele>784.7</ele>
        <time>2021-10-14T07:18:41Z</time>
      </trkpt>
      <trkpt lat="46.53439" lon="6.01197">
        <ele>783.1</ele>
        <time>2021-10-14T07:18:47Z</time>
      </trkpt>
      <trkpt lat="46.53435" lon="6.01201">
        <ele>781.8</ele>
        <time>2021-10-14T07:18:51Z</time>
      </trkpt>
      <trkpt lat="46.53431" lon="6.01206">
        <ele>780.1</ele>
        <time>2021-10-14T07:18:56Z</time>
      </trkpt>
      <trkpt lat="46.53428" lon="6.01211">
        <ele>778.7</ele>
        <time>2021-10-14T07:19:00Z</time>
      </trkpt>
      <trkpt lat="46.53425" lon="6.01215">
        <ele>777</ele>
        <time>2021-10-14T07:19:06Z</time>
      </trkpt>
      <trkpt lat="46.5342" lon="6.01221">
        <ele>775.2</ele>
        <time>2021-10-14T07:19:17Z</time>
      </trkpt>
      <trkpt lat="46.53417" lon="6.01227">
        <ele>774.3</ele>
        <time>2021-10-14T07:19:21Z</time>
      </trkpt>
      <trkpt lat="46.53413" lon="6.01232">
        <ele>773.2</ele>
        <time>2021-10-14T07:19:29Z</time>
      </trkpt>
      <trkpt lat="46.53412" lon="6.01239">
        <ele>772.5</ele>
        <time>2021-10-14T07:19:38Z</time>
      </trkpt>
      <trkpt lat="46.53407" lon="6.01242">
        <ele>771.6</ele>
        <time>2021-10-14T07:19:44Z</time>
      </trkpt>
      <trkpt lat="46.53405" lon="6.01235">
        <ele>770.1</ele>
        <time>2021-10-14T07:20:03Z</time>
      </trkpt>
      <trkpt lat="46.53404" lon="6.01229">
        <ele>769.6</ele>
        <time>2021-10-14T07:20:10Z</time>
      </trkpt>
      <trkpt lat="46.53404" lon="6.01222">
        <ele>768.7</ele>
        <time>2021-10-14T07:20:18Z</time>
      </trkpt>
      <trkpt lat="46.53403" lon="6.01214">
        <ele>767.6</ele>
        <time>2021-10-14T07:20:25Z</time>
      </trkpt>
      <trkpt lat="46.53403" lon="6.01207">
        <ele>766.9</ele>
        <time>2021-10-14T07:20:29Z</time>
      </trkpt>
      <trkpt lat="46.53404" lon="6.01201">
        <ele>765.6</ele>
        <time>2021-10-14T07:20:34Z</time>
      </trkpt>
      <trkpt lat="46.53406" lon="6.01194">
        <ele>764.1</ele>
        <time>2021-10-14T07:20:40Z</time>
      </trkpt>
      <trkpt lat="46.53406" lon="6.01188">
        <ele>762.9</ele>
        <time>2021-10-14T07:20:46Z</time>
      </trkpt>
      <trkpt lat="46.53407" lon="6.01181">
        <ele>761.6</ele>
        <time>2021-10-14T07:20:53Z</time>
      </trkpt>
      <trkpt lat="46.53408" lon="6.01174">
        <ele>759.7</ele>
        <time>2021-10-14T07:21:01Z</time>
      </trkpt>
      <trkpt lat="46.53408" lon="6.01167">
        <ele>758.2</ele>
        <time>2021-10-14T07:21:08Z</time>
      </trkpt>
      <trkpt lat="46.53408" lon="6.0116">
        <ele>756</ele>
        <time>2021-10-14T07:21:19Z</time>
      </trkpt>
      <trkpt lat="46.53409" lon="6.01153">
        <ele>754.7</ele>
        <time>2021-10-14T07:21:28Z</time>
      </trkpt>
      <trkpt lat="46.5341" lon="6.01146">
        <ele>753.7</ele>
        <time>2021-10-14T07:21:37Z</time>
      </trkpt>
      <trkpt lat="46.53413" lon="6.01141">
        <ele>751</ele>
        <time>2021-10-14T07:21:48Z</time>
      </trkpt>
      <trkpt lat="46.53417" lon="6.01137">
        <ele>749.6</ele>
        <time>2021-10-14T07:21:58Z</time>
      </trkpt>
      <trkpt lat="46.53416" lon="6.0113">
        <ele>748</ele>
        <time>2021-10-14T07:22:06Z</time>
      </trkpt>
      <trkpt lat="46.53415" lon="6.01124">
        <ele>746.4</ele>
        <time>2021-10-14T07:22:14Z</time>
      </trkpt>
      <trkpt lat="46.53416" lon="6.01117">
        <ele>744.6</ele>
        <time>2021-10-14T07:22:33Z</time>
      </trkpt>
      <trkpt lat="46.5342" lon="6.01113">
        <ele>744.3</ele>
        <time>2021-10-14T07:22:43Z</time>
      </trkpt>
      <trkpt lat="46.53425" lon="6.01112">
        <ele>743.8</ele>
        <time>2021-10-14T07:22:48Z</time>
      </trkpt>
      <trkpt lat="46.53429" lon="6.01108">
        <ele>743.1</ele>
        <time>2021-10-14T07:22:58Z</time>
      </trkpt>
      <trkpt lat="46.53434" lon="6.01106">
        <ele>741.9</ele>
        <time>2021-10-14T07:23:07Z</time>
      </trkpt>
      <trkpt lat="46.53434" lon="6.01099">
        <ele>739.6</ele>
        <time>2021-10-14T07:23:15Z</time>
      </trkpt>
      <trkpt lat="46.53431" lon="6.01093">
        <ele>737.8</ele>
        <time>2021-10-14T07:23:20Z</time>
      </trkpt>
      <trkpt lat="46.53428" lon="6.01089">
        <ele>736.1</ele>
        <time>2021-10-14T07:23:26Z</time>
      </trkpt>
      <trkpt lat="46.53423" lon="6.01089">
        <ele>734.8</ele>
        <time>2021-10-14T07:23:33Z</time>
      </trkpt>
      <trkpt lat="46.53418" lon="6.01087">
        <ele>733.4</ele>
        <time>2021-10-14T07:23:39Z</time>
      </trkpt>
      <trkpt lat="46.53415" lon="6.01092">
        <ele>732.5</ele>
        <time>2021-10-14T07:23:45Z</time>
      </trkpt>
      <trkpt lat="46.53411" lon="6.01095">
        <ele>729.4</ele>
        <time>2021-10-14T07:24:40Z</time>
      </trkpt>
      <trkpt lat="46.53406" lon="6.01098">
        <ele>728.6</ele>
        <time>2021-10-14T07:25:06Z</time>
      </trkpt>
      <trkpt lat="46.53403" lon="6.01103">
        <ele>728.4</ele>
        <time>2021-10-14T07:25:12Z</time>
      </trkpt>
      <trkpt lat="46.53399" lon="6.01108">
        <ele>729.3</ele>
        <time>2021-10-14T07:25:17Z</time>
      </trkpt>
      <trkpt lat="46.53395" lon="6.01111">
        <ele>731.6</ele>
        <time>2021-10-14T07:25:22Z</time>
      </trkpt>
      <trkpt lat="46.53392" lon="6.01116">
        <ele>738.2</ele>
        <time>2021-10-14T07:25:33Z</time>
      </trkpt>
      <trkpt lat="46.53389" lon="6.0111">
        <ele>742.6</ele>
        <time>2021-10-14T07:25:44Z</time>
      </trkpt>
      <trkpt lat="46.53387" lon="6.01102">
        <ele>742.2</ele>
        <time>2021-10-14T07:25:48Z</time>
      </trkpt>
      <trkpt lat="46.53385" lon="6.01095">
        <ele>741.5</ele>
        <time>2021-10-14T07:25:52Z</time>
      </trkpt>
      <trkpt lat="46.53384" lon="6.01088">
        <ele>740.8</ele>
        <time>2021-10-14T07:25:57Z</time>
      </trkpt>
      <trkpt lat="46.53387" lon="6.01082">
        <ele>740.5</ele>
        <time>2021-10-14T07:26:07Z</time>
      </trkpt>
      <trkpt lat="46.53392" lon="6.01081">
        <ele>740</ele>
        <time>2021-10-14T07:26:12Z</time>
      </trkpt>
      <trkpt lat="46.53396" lon="6.01079">
        <ele>739.5</ele>
        <time>2021-10-14T07:26:17Z</time>
      </trkpt>
      <trkpt lat="46.53401" lon="6.01077">
        <ele>738.8</ele>
        <time>2021-10-14T07:26:21Z</time>
      </trkpt>
      <trkpt lat="46.53406" lon="6.01077">
        <ele>738</ele>
        <time>2021-10-14T07:26:25Z</time>
      </trkpt>
      <trkpt lat="46.53411" lon="6.01076">
        <ele>735.5</ele>
        <time>2021-10-14T07:26:33Z</time>
      </trkpt>
      <trkpt lat="46.53415" lon="6.01071">
        <ele>731.5</ele>
        <time>2021-10-14T07:26:42Z</time>
      </trkpt>
      <trkpt lat="46.53418" lon="6.01066">
        <ele>729.7</ele>
        <time>2021-10-14T07:26:47Z</time>
      </trkpt>
      <trkpt lat="46.53421" lon="6.01061">
        <ele>726.4</ele>
        <time>2021-10-14T07:26:57Z</time>
      </trkpt>
      <trkpt lat="46.53418" lon="6.01055">
        <ele>724.5</ele>
        <time>2021-10-14T07:27:07Z</time>
      </trkpt>
      <trkpt lat="46.53414" lon="6.01052">
        <ele>723.5</ele>
        <time>2021-10-14T07:27:14Z</time>
      </trkpt>
      <trkpt lat="46.53407" lon="6.0105">
        <ele>721.2</ele>
        <time>2021-10-14T07:27:23Z</time>
      </trkpt>
      <trkpt lat="46.53402" lon="6.0105">
        <ele>719.5</ele>
        <time>2021-10-14T07:27:27Z</time>
      </trkpt>
      <trkpt lat="46.53397" lon="6.0105">
        <ele>717.4</ele>
        <time>2021-10-14T07:27:32Z</time>
      </trkpt>
      <trkpt lat="46.53393" lon="6.01046">
        <ele>716.1</ele>
        <time>2021-10-14T07:27:37Z</time>
      </trkpt>
      <trkpt lat="46.53396" lon="6.01041">
        <ele>709.7</ele>
        <time>2021-10-14T07:28:30Z</time>
      </trkpt>
      <trkpt lat="46.534" lon="6.01037">
        <ele>709.5</ele>
        <time>2021-10-14T07:28:34Z</time>
      </trkpt>
      <trkpt lat="46.53404" lon="6.01033">
        <ele>709.3</ele>
        <time>2021-10-14T07:28:40Z</time>
      </trkpt>
      <trkpt lat="46.53409" lon="6.01034">
        <ele>709.1</ele>
        <time>2021-10-14T07:28:44Z</time>
      </trkpt>
      <trkpt lat="46.53414" lon="6.01037">
        <ele>708.9</ele>
        <time>2021-10-14T07:28:47Z</time>
      </trkpt>
      <trkpt lat="46.53418" lon="6.01039">
        <ele>708.7</ele>
        <time>2021-10-14T07:28:50Z</time>
      </trkpt>
      <trkpt lat="46.53423" lon="6.01037">
        <ele>707.9</ele>
        <time>2021-10-14T07:28:54Z</time>
      </trkpt>
      <trkpt lat="46.53427" lon="6.01035">
        <ele>706.7</ele>
        <time>2021-10-14T07:28:59Z</time>
      </trkpt>
      <trkpt lat="46.53432" lon="6.01035">
        <ele>705.2</ele>
        <time>2021-10-14T07:29:04Z</time>
      </trkpt>
      <trkpt lat="46.53438" lon="6.01037">
        <ele>704.1</ele>
        <time>2021-10-14T07:29:10Z</time>
      </trkpt>
      <trkpt lat="46.53442" lon="6.0104">
        <ele>702.4</ele>
        <time>2021-10-14T07:29:18Z</time>
      </trkpt>
      <trkpt lat="46.53447" lon="6.01044">
        <ele>701.5</ele>
        <time>2021-10-14T07:29:22Z</time>
      </trkpt>
      <trkpt lat="46.53451" lon="6.0104">
        <ele>700.3</ele>
        <time>2021-10-14T07:29:28Z</time>
      </trkpt>
      <trkpt lat="46.53453" lon="6.01028">
        <ele>700.4</ele>
        <time>2021-10-14T07:29:31Z</time>
      </trkpt>
      <trkpt lat="46.53456" lon="6.01018">
        <ele>700.7</ele>
        <time>2021-10-14T07:29:34Z</time>
      </trkpt>
      <trkpt lat="46.53457" lon="6.01008">
        <ele>701.3</ele>
        <time>2021-10-14T07:29:37Z</time>
      </trkpt>
      <trkpt lat="46.53457" lon="6.01001">
        <ele>702.7</ele>
        <time>2021-10-14T07:29:44Z</time>
      </trkpt>
      <trkpt lat="46.53455" lon="6.00995">
        <ele>703.7</ele>
        <time>2021-10-14T07:29:48Z</time>
      </trkpt>
      <trkpt lat="46.53455" lon="6.00987">
        <ele>705</ele>
        <time>2021-10-14T07:29:53Z</time>
      </trkpt>
      <trkpt lat="46.53456" lon="6.0098">
        <ele>704.9</ele>
        <time>2021-10-14T07:30:03Z</time>
      </trkpt>
      <trkpt lat="46.53452" lon="6.00977">
        <ele>704.2</ele>
        <time>2021-10-14T07:30:08Z</time>
      </trkpt>
      <trkpt lat="46.53447" lon="6.00976">
        <ele>702.9</ele>
        <time>2021-10-14T07:30:13Z</time>
      </trkpt>
      <trkpt lat="46.53442" lon="6.00973">
        <ele>701.7</ele>
        <time>2021-10-14T07:30:17Z</time>
      </trkpt>
      <trkpt lat="46.53441" lon="6.00966">
        <ele>701.7</ele>
        <time>2021-10-14T07:30:23Z</time>
      </trkpt>
      <trkpt lat="46.53437" lon="6.0096">
        <ele>702.6</ele>
        <time>2021-10-14T07:30:28Z</time>
      </trkpt>
      <trkpt lat="46.53435" lon="6.00955">
        <ele>702.9</ele>
        <time>2021-10-14T07:30:32Z</time>
      </trkpt>
      <trkpt lat="46.53431" lon="6.0095">
        <ele>703.2</ele>
        <time>2021-10-14T07:30:38Z</time>
      </trkpt>
      <trkpt lat="46.53427" lon="6.00946">
        <ele>703.5</ele>
        <time>2021-10-14T07:30:41Z</time>
      </trkpt>
      <trkpt lat="46.53422" lon="6.00942">
        <ele>704.2</ele>
        <time>2021-10-14T07:30:45Z</time>
      </trkpt>
      <trkpt lat="46.53418" lon="6.00939">
        <ele>704.9</ele>
        <time>2021-10-14T07:30:49Z</time>
      </trkpt>
      <trkpt lat="46.53414" lon="6.00933">
        <ele>705.9</ele>
        <time>2021-10-14T07:30:54Z</time>
      </trkpt>
      <trkpt lat="46.53412" lon="6.00928">
        <ele>707.3</ele>
        <time>2021-10-14T07:30:59Z</time>
      </trkpt>
      <trkpt lat="46.53407" lon="6.00924">
        <ele>708.3</ele>
        <time>2021-10-14T07:31:05Z</time>
      </trkpt>
      <trkpt lat="46.53406" lon="6.00917">
        <ele>708.8</ele>
        <time>2021-10-14T07:31:11Z</time>
      </trkpt>
      <trkpt lat="46.53406" lon="6.0091">
        <ele>709.3</ele>
        <time>2021-10-14T07:31:18Z</time>
      </trkpt>
      <trkpt lat="46.53404" lon="6.00904">
        <ele>710.1</ele>
        <time>2021-10-14T07:31:23Z</time>
      </trkpt>
      <trkpt lat="46.53404" lon="6.00897">
        <ele>710.3</ele>
        <time>2021-10-14T07:31:27Z</time>
      </trkpt>
      <trkpt lat="46.53402" lon="6.00889">
        <ele>710.8</ele>
        <time>2021-10-14T07:31:32Z</time>
      </trkpt>
      <trkpt lat="46.53401" lon="6.00882">
        <ele>711.3</ele>
        <time>2021-10-14T07:31:37Z</time>
      </trkpt>
      <trkpt lat="46.53401" lon="6.00875">
        <ele>711.8</ele>
        <time>2021-10-14T07:31:41Z</time>
      </trkpt>
      <trkpt lat="46.53399" lon="6.00868">
        <ele>712.5</ele>
        <time>2021-10-14T07:31:46Z</time>
      </trkpt>
      <trkpt lat="46.53398" lon="6.00861">
        <ele>713.2</ele>
        <time>2021-10-14T07:31:51Z</time>
      </trkpt>
      <trkpt lat="46.53395" lon="6.00854">
        <ele>713.8</ele>
        <time>2021-10-14T07:31:56Z</time>
      </trkpt>
      <trkpt lat="46.53393" lon="6.00848">
        <ele>714.2</ele>
        <time>2021-10-14T07:32:00Z</time>
      </trkpt>
      <trkpt lat="46.53391" lon="6.00841">
        <ele>714.5</ele>
        <time>2021-10-14T07:32:04Z</time>
      </trkpt>
      <trkpt lat="46.53389" lon="6.00835">
        <ele>714.3</ele>
        <time>2021-10-14T07:32:07Z</time>
      </trkpt>
      <trkpt lat="46.53387" lon="6.00827">
        <ele>714.5</ele>
        <time>2021-10-14T07:32:11Z</time>
      </trkpt>
      <trkpt lat="46.53389" lon="6.00821">
        <ele>714.2</ele>
        <time>2021-10-14T07:32:21Z</time>
      </trkpt>
      <trkpt lat="46.53393" lon="6.00818">
        <ele>713.5</ele>
        <time>2021-10-14T07:32:57Z</time>
      </trkpt>
      <trkpt lat="46.53397" lon="6.00813">
        <ele>712.3</ele>
        <time>2021-10-14T07:33:04Z</time>
      </trkpt>
      <trkpt lat="46.53395" lon="6.00806">
        <ele>710.7</ele>
        <time>2021-10-14T07:33:10Z</time>
      </trkpt>
      <trkpt lat="46.53392" lon="6.00801">
        <ele>709.2</ele>
        <time>2021-10-14T07:33:14Z</time>
      </trkpt>
      <trkpt lat="46.53389" lon="6.00795">
        <ele>707.6</ele>
        <time>2021-10-14T07:33:18Z</time>
      </trkpt>
      <trkpt lat="46.53385" lon="6.00788">
        <ele>706.1</ele>
        <time>2021-10-14T07:33:22Z</time>
      </trkpt>
      <trkpt lat="46.53383" lon="6.00782">
        <ele>704.5</ele>
        <time>2021-10-14T07:33:26Z</time>
      </trkpt>
      <trkpt lat="46.53381" lon="6.00776">
        <ele>703.4</ele>
        <time>2021-10-14T07:33:30Z</time>
      </trkpt>
      <trkpt lat="46.53378" lon="6.0077">
        <ele>702.9</ele>
        <time>2021-10-14T07:33:33Z</time>
      </trkpt>
      <trkpt lat="46.53376" lon="6.00763">
        <ele>702.4</ele>
        <time>2021-10-14T07:33:37Z</time>
      </trkpt>
      <trkpt lat="46.53375" lon="6.00757">
        <ele>701.5</ele>
        <time>2021-10-14T07:33:42Z</time>
      </trkpt>
      <trkpt lat="46.53373" lon="6.0075">
        <ele>700.6</ele>
        <time>2021-10-14T07:33:48Z</time>
      </trkpt>
      <trkpt lat="46.53371" lon="6.00744">
        <ele>699.7</ele>
        <time>2021-10-14T07:33:53Z</time>
      </trkpt>
      <trkpt lat="46.53369" lon="6.00737">
        <ele>698.4</ele>
        <time>2021-10-14T07:33:58Z</time>
      </trkpt>
      <trkpt lat="46.5337" lon="6.00728">
        <ele>697.1</ele>
        <time>2021-10-14T07:34:03Z</time>
      </trkpt>
      <trkpt lat="46.5337" lon="6.0072">
        <ele>696.1</ele>
        <time>2021-10-14T07:34:07Z</time>
      </trkpt>
      <trkpt lat="46.53369" lon="6.00712">
        <ele>695.2</ele>
        <time>2021-10-14T07:34:11Z</time>
      </trkpt>
      <trkpt lat="46.53368" lon="6.00706">
        <ele>694.2</ele>
        <time>2021-10-14T07:34:15Z</time>
      </trkpt>
      <trkpt lat="46.53367" lon="6.00699">
        <ele>692.9</ele>
        <time>2021-10-14T07:34:19Z</time>
      </trkpt>
      <trkpt lat="46.53365" lon="6.0069">
        <ele>691.6</ele>
        <time>2021-10-14T07:34:23Z</time>
      </trkpt>
      <trkpt lat="46.53362" lon="6.00684">
        <ele>690.4</ele>
        <time>2021-10-14T07:34:27Z</time>
      </trkpt>
      <trkpt lat="46.53358" lon="6.00679">
        <ele>689.8</ele>
        <time>2021-10-14T07:34:30Z</time>
      </trkpt>
      <trkpt lat="46.53353" lon="6.00674">
        <ele>689.7</ele>
        <time>2021-10-14T07:34:33Z</time>
      </trkpt>
      <trkpt lat="46.5335" lon="6.00668">
        <ele>689.4</ele>
        <time>2021-10-14T07:34:37Z</time>
      </trkpt>
      <trkpt lat="46.53347" lon="6.00662">
        <ele>689.8</ele>
        <time>2021-10-14T07:34:42Z</time>
      </trkpt>
      <trkpt lat="46.53343" lon="6.00658">
        <ele>690.2</ele>
        <time>2021-10-14T07:34:46Z</time>
      </trkpt>
      <trkpt lat="46.5334" lon="6.00653">
        <ele>690.4</ele>
        <time>2021-10-14T07:34:50Z</time>
      </trkpt>
      <trkpt lat="46.53336" lon="6.00648">
        <ele>690.7</ele>
        <time>2021-10-14T07:34:54Z</time>
      </trkpt>
      <trkpt lat="46.53333" lon="6.00643">
        <ele>691</ele>
        <time>2021-10-14T07:34:58Z</time>
      </trkpt>
      <trkpt lat="46.53331" lon="6.00635">
        <ele>691.1</ele>
        <time>2021-10-14T07:35:02Z</time>
      </trkpt>
      <trkpt lat="46.53329" lon="6.00628">
        <ele>691.3</ele>
        <time>2021-10-14T07:35:06Z</time>
      </trkpt>
      <trkpt lat="46.53326" lon="6.00623">
        <ele>691.7</ele>
        <time>2021-10-14T07:35:10Z</time>
      </trkpt>
      <trkpt lat="46.5332" lon="6.00622">
        <ele>692.2</ele>
        <time>2021-10-14T07:35:14Z</time>
      </trkpt>
      <trkpt lat="46.53315" lon="6.00618">
        <ele>692.6</ele>
        <time>2021-10-14T07:35:18Z</time>
      </trkpt>
      <trkpt lat="46.5331" lon="6.00615">
        <ele>693.4</ele>
        <time>2021-10-14T07:35:23Z</time>
      </trkpt>
      <trkpt lat="46.53305" lon="6.00614">
        <ele>694</ele>
        <time>2021-10-14T07:35:27Z</time>
      </trkpt>
      <trkpt lat="46.533" lon="6.00613">
        <ele>694.2</ele>
        <time>2021-10-14T07:35:31Z</time>
      </trkpt>
      <trkpt lat="46.53296" lon="6.00608">
        <ele>694.1</ele>
        <time>2021-10-14T07:35:35Z</time>
      </trkpt>
      <trkpt lat="46.53292" lon="6.00602">
        <ele>693.8</ele>
        <time>2021-10-14T07:35:39Z</time>
      </trkpt>
      <trkpt lat="46.53288" lon="6.00597">
        <ele>693.5</ele>
        <time>2021-10-14T07:35:43Z</time>
      </trkpt>
      <trkpt lat="46.53285" lon="6.00591">
        <ele>693.2</ele>
        <time>2021-10-14T07:35:47Z</time>
      </trkpt>
      <trkpt lat="46.53283" lon="6.00584">
        <ele>693.1</ele>
        <time>2021-10-14T07:35:51Z</time>
      </trkpt>
      <trkpt lat="46.53282" lon="6.00576">
        <ele>692.6</ele>
        <time>2021-10-14T07:35:55Z</time>
      </trkpt>
      <trkpt lat="46.53281" lon="6.00569">
        <ele>692.3</ele>
        <time>2021-10-14T07:36:00Z</time>
      </trkpt>
      <trkpt lat="46.53279" lon="6.00561">
        <ele>692.4</ele>
        <time>2021-10-14T07:36:07Z</time>
      </trkpt>
      <trkpt lat="46.53278" lon="6.00555">
        <ele>693</ele>
        <time>2021-10-14T07:36:12Z</time>
      </trkpt>
      <trkpt lat="46.53279" lon="6.00548">
        <ele>693.4</ele>
        <time>2021-10-14T07:36:17Z</time>
      </trkpt>
      <trkpt lat="46.53278" lon="6.00541">
        <ele>694.2</ele>
        <time>2021-10-14T07:36:23Z</time>
      </trkpt>
      <trkpt lat="46.53276" lon="6.00534">
        <ele>694.4</ele>
        <time>2021-10-14T07:36:26Z</time>
      </trkpt>
      <trkpt lat="46.53274" lon="6.00528">
        <ele>694.6</ele>
        <time>2021-10-14T07:36:29Z</time>
      </trkpt>
      <trkpt lat="46.53271" lon="6.00521">
        <ele>694.8</ele>
        <time>2021-10-14T07:36:32Z</time>
      </trkpt>
      <trkpt lat="46.53269" lon="6.00515">
        <ele>694.7</ele>
        <time>2021-10-14T07:36:35Z</time>
      </trkpt>
      <trkpt lat="46.53266" lon="6.00507">
        <ele>694.5</ele>
        <time>2021-10-14T07:36:39Z</time>
      </trkpt>
      <trkpt lat="46.53263" lon="6.00501">
        <ele>694.1</ele>
        <time>2021-10-14T07:36:43Z</time>
      </trkpt>
      <trkpt lat="46.53258" lon="6.00498">
        <ele>693.8</ele>
        <time>2021-10-14T07:36:47Z</time>
      </trkpt>
      <trkpt lat="46.53253" lon="6.00492">
        <ele>693.4</ele>
        <time>2021-10-14T07:36:51Z</time>
      </trkpt>
      <trkpt lat="46.53249" lon="6.00487">
        <ele>693.2</ele>
        <time>2021-10-14T07:36:54Z</time>
      </trkpt>
      <trkpt lat="46.53246" lon="6.00481">
        <ele>693</ele>
        <time>2021-10-14T07:36:57Z</time>
      </trkpt>
      <trkpt lat="46.53243" lon="6.00476">
        <ele>693.1</ele>
        <time>2021-10-14T07:37:00Z</time>
      </trkpt>
      <trkpt lat="46.5324" lon="6.00471">
        <ele>693.2</ele>
        <time>2021-10-14T07:37:03Z</time>
      </trkpt>
      <trkpt lat="46.53237" lon="6.00464">
        <ele>693.5</ele>
        <time>2021-10-14T07:37:07Z</time>
      </trkpt>
      <trkpt lat="46.53236" lon="6.00456">
        <ele>693.9</ele>
        <time>2021-10-14T07:37:11Z</time>
      </trkpt>
      <trkpt lat="46.53235" lon="6.00449">
        <ele>694.4</ele>
        <time>2021-10-14T07:37:15Z</time>
      </trkpt>
      <trkpt lat="46.53234" lon="6.00441">
        <ele>695.1</ele>
        <time>2021-10-14T07:37:20Z</time>
      </trkpt>
      <trkpt lat="46.53232" lon="6.00434">
        <ele>695.9</ele>
        <time>2021-10-14T07:37:26Z</time>
      </trkpt>
      <trkpt lat="46.53232" lon="6.00426">
        <ele>696.5</ele>
        <time>2021-10-14T07:37:30Z</time>
      </trkpt>
      <trkpt lat="46.53232" lon="6.00418">
        <ele>696.9</ele>
        <time>2021-10-14T07:37:34Z</time>
      </trkpt>
      <trkpt lat="46.53232" lon="6.00411">
        <ele>697.9</ele>
        <time>2021-10-14T07:37:38Z</time>
      </trkpt>
      <trkpt lat="46.53235" lon="6.00405">
        <ele>699.3</ele>
        <time>2021-10-14T07:37:44Z</time>
      </trkpt>
      <trkpt lat="46.53239" lon="6.00401">
        <ele>699.8</ele>
        <time>2021-10-14T07:37:49Z</time>
      </trkpt>
      <trkpt lat="46.5324" lon="6.00394">
        <ele>700</ele>
        <time>2021-10-14T07:37:53Z</time>
      </trkpt>
      <trkpt lat="46.5324" lon="6.00387">
        <ele>700.3</ele>
        <time>2021-10-14T07:37:56Z</time>
      </trkpt>
      <trkpt lat="46.5324" lon="6.00378">
        <ele>700.8</ele>
        <time>2021-10-14T07:37:59Z</time>
      </trkpt>
      <trkpt lat="46.53239" lon="6.00371">
        <ele>701.3</ele>
        <time>2021-10-14T07:38:02Z</time>
      </trkpt>
      <trkpt lat="46.53237" lon="6.00363">
        <ele>702.5</ele>
        <time>2021-10-14T07:38:06Z</time>
      </trkpt>
      <trkpt lat="46.53237" lon="6.00355">
        <ele>704.2</ele>
        <time>2021-10-14T07:38:10Z</time>
      </trkpt>
      <trkpt lat="46.53239" lon="6.00349">
        <ele>706</ele>
        <time>2021-10-14T07:38:15Z</time>
      </trkpt>
      <trkpt lat="46.53238" lon="6.00342">
        <ele>707</ele>
        <time>2021-10-14T07:38:21Z</time>
      </trkpt>
      <trkpt lat="46.5324" lon="6.00334">
        <ele>708</ele>
        <time>2021-10-14T07:38:28Z</time>
      </trkpt>
      <trkpt lat="46.5324" lon="6.00328">
        <ele>708.5</ele>
        <time>2021-10-14T07:38:31Z</time>
      </trkpt>
      <trkpt lat="46.53241" lon="6.0032">
        <ele>709.3</ele>
        <time>2021-10-14T07:38:35Z</time>
      </trkpt>
      <trkpt lat="46.53241" lon="6.00313">
        <ele>710.4</ele>
        <time>2021-10-14T07:38:40Z</time>
      </trkpt>
      <trkpt lat="46.53243" lon="6.00306">
        <ele>711.4</ele>
        <time>2021-10-14T07:39:53Z</time>
      </trkpt>
      <trkpt lat="46.53245" lon="6.003">
        <ele>711.2</ele>
        <time>2021-10-14T07:39:58Z</time>
      </trkpt>
      <trkpt lat="46.53247" lon="6.00292">
        <ele>711.2</ele>
        <time>2021-10-14T07:40:02Z</time>
      </trkpt>
      <trkpt lat="46.53248" lon="6.00285">
        <ele>711</ele>
        <time>2021-10-14T07:40:08Z</time>
      </trkpt>
      <trkpt lat="46.5325" lon="6.00279">
        <ele>710.3</ele>
        <time>2021-10-14T07:40:18Z</time>
      </trkpt>
      <trkpt lat="46.53251" lon="6.00272">
        <ele>708.8</ele>
        <time>2021-10-14T07:40:27Z</time>
      </trkpt>
      <trkpt lat="46.53252" lon="6.00266">
        <ele>707.8</ele>
        <time>2021-10-14T07:40:33Z</time>
      </trkpt>
      <trkpt lat="46.53248" lon="6.00261">
        <ele>707.6</ele>
        <time>2021-10-14T07:40:38Z</time>
      </trkpt>
      <trkpt lat="46.53246" lon="6.00255">
        <ele>708.8</ele>
        <time>2021-10-14T07:40:44Z</time>
      </trkpt>
      <trkpt lat="46.53244" lon="6.00248">
        <ele>709.6</ele>
        <time>2021-10-14T07:40:48Z</time>
      </trkpt>
      <trkpt lat="46.53242" lon="6.00241">
        <ele>709.1</ele>
        <time>2021-10-14T07:40:54Z</time>
      </trkpt>
      <trkpt lat="46.53238" lon="6.00236">
        <ele>708.8</ele>
        <time>2021-10-14T07:41:00Z</time>
      </trkpt>
      <trkpt lat="46.53235" lon="6.00231">
        <ele>708.6</ele>
        <time>2021-10-14T07:41:06Z</time>
      </trkpt>
      <trkpt lat="46.5323" lon="6.00228">
        <ele>708.9</ele>
        <time>2021-10-14T07:41:11Z</time>
      </trkpt>
      <trkpt lat="46.53225" lon="6.00225">
        <ele>709.4</ele>
        <time>2021-10-14T07:41:15Z</time>
      </trkpt>
      <trkpt lat="46.5322" lon="6.00224">
        <ele>709.9</ele>
        <time>2021-10-14T07:41:19Z</time>
      </trkpt>
      <trkpt lat="46.53214" lon="6.00223">
        <ele>711.1</ele>
        <time>2021-10-14T07:41:23Z</time>
      </trkpt>
      <trkpt lat="46.53209" lon="6.00225">
        <ele>711.9</ele>
        <time>2021-10-14T07:41:27Z</time>
      </trkpt>
      <trkpt lat="46.53204" lon="6.00224">
        <ele>712.3</ele>
        <time>2021-10-14T07:41:32Z</time>
      </trkpt>
      <trkpt lat="46.53199" lon="6.00224">
        <ele>712.3</ele>
        <time>2021-10-14T07:41:36Z</time>
      </trkpt>
      <trkpt lat="46.53194" lon="6.00221">
        <ele>712.1</ele>
        <time>2021-10-14T07:41:42Z</time>
      </trkpt>
      <trkpt lat="46.53192" lon="6.00215">
        <ele>711.9</ele>
        <time>2021-10-14T07:41:46Z</time>
      </trkpt>
      <trkpt lat="46.53188" lon="6.00208">
        <ele>712.2</ele>
        <time>2021-10-14T07:41:51Z</time>
      </trkpt>
      <trkpt lat="46.53185" lon="6.00202">
        <ele>712.9</ele>
        <time>2021-10-14T07:41:55Z</time>
      </trkpt>
      <trkpt lat="46.53183" lon="6.00195">
        <ele>713</ele>
        <time>2021-10-14T07:42:00Z</time>
      </trkpt>
      <trkpt lat="46.53181" lon="6.00189">
        <ele>713.4</ele>
        <time>2021-10-14T07:42:06Z</time>
      </trkpt>
      <trkpt lat="46.53179" lon="6.00183">
        <ele>714</ele>
        <time>2021-10-14T07:42:11Z</time>
      </trkpt>
      <trkpt lat="46.53177" lon="6.00175">
        <ele>715.5</ele>
        <time>2021-10-14T07:42:17Z</time>
      </trkpt>
      <trkpt lat="46.53176" lon="6.00168">
        <ele>717.3</ele>
        <time>2021-10-14T07:42:24Z</time>
      </trkpt>
      <trkpt lat="46.53176" lon="6.0016">
        <ele>718.2</ele>
        <time>2021-10-14T07:42:27Z</time>
      </trkpt>
      <trkpt lat="46.53175" lon="6.00152">
        <ele>719</ele>
        <time>2021-10-14T07:42:30Z</time>
      </trkpt>
      <trkpt lat="46.53174" lon="6.00142">
        <ele>719.9</ele>
        <time>2021-10-14T07:42:33Z</time>
      </trkpt>
      <trkpt lat="46.53175" lon="6.00136">
        <ele>720.6</ele>
        <time>2021-10-14T07:42:36Z</time>
      </trkpt>
      <trkpt lat="46.53177" lon="6.00127">
        <ele>721.4</ele>
        <time>2021-10-14T07:42:40Z</time>
      </trkpt>
      <trkpt lat="46.53178" lon="6.0012">
        <ele>721.9</ele>
        <time>2021-10-14T07:42:44Z</time>
      </trkpt>
      <trkpt lat="46.53178" lon="6.00113">
        <ele>722.9</ele>
        <time>2021-10-14T07:42:49Z</time>
      </trkpt>
      <trkpt lat="46.53178" lon="6.00106">
        <ele>723.5</ele>
        <time>2021-10-14T07:42:54Z</time>
      </trkpt>
      <trkpt lat="46.53183" lon="6.00109">
        <ele>724.5</ele>
        <time>2021-10-14T07:43:03Z</time>
      </trkpt>
      <trkpt lat="46.53186" lon="6.00114">
        <ele>725.1</ele>
        <time>2021-10-14T07:43:08Z</time>
      </trkpt>
      <trkpt lat="46.53188" lon="6.0012">
        <ele>724.3</ele>
        <time>2021-10-14T07:43:13Z</time>
      </trkpt>
      <trkpt lat="46.53191" lon="6.00127">
        <ele>723.1</ele>
        <time>2021-10-14T07:43:19Z</time>
      </trkpt>
      <trkpt lat="46.53193" lon="6.00134">
        <ele>721.5</ele>
        <time>2021-10-14T07:43:24Z</time>
      </trkpt>
      <trkpt lat="46.53194" lon="6.0014">
        <ele>720.2</ele>
        <time>2021-10-14T07:43:29Z</time>
      </trkpt>
      <trkpt lat="46.53194" lon="6.00147">
        <ele>718.2</ele>
        <time>2021-10-14T07:43:37Z</time>
      </trkpt>
      <trkpt lat="46.53198" lon="6.00153">
        <ele>715.7</ele>
        <time>2021-10-14T07:43:46Z</time>
      </trkpt>
      <trkpt lat="46.53201" lon="6.00159">
        <ele>715.2</ele>
        <time>2021-10-14T07:43:51Z</time>
      </trkpt>
      <trkpt lat="46.53205" lon="6.00163">
        <ele>715</ele>
        <time>2021-10-14T07:43:59Z</time>
      </trkpt>
      <trkpt lat="46.5321" lon="6.00165">
        <ele>714.7</ele>
        <time>2021-10-14T07:44:07Z</time>
      </trkpt>
      <trkpt lat="46.53216" lon="6.00167">
        <ele>715.5</ele>
        <time>2021-10-14T07:44:22Z</time>
      </trkpt>
      <trkpt lat="46.53221" lon="6.00166">
        <ele>715.9</ele>
        <time>2021-10-14T07:44:27Z</time>
      </trkpt>
      <trkpt lat="46.53225" lon="6.00165">
        <ele>716.8</ele>
        <time>2021-10-14T07:44:33Z</time>
      </trkpt>
      <trkpt lat="46.53229" lon="6.00161">
        <ele>717.7</ele>
        <time>2021-10-14T07:44:41Z</time>
      </trkpt>
      <trkpt lat="46.53234" lon="6.00161">
        <ele>717.7</ele>
        <time>2021-10-14T07:44:57Z</time>
      </trkpt>
      <trkpt lat="46.53239" lon="6.00162">
        <ele>716.7</ele>
        <time>2021-10-14T07:45:09Z</time>
      </trkpt>
      <trkpt lat="46.53244" lon="6.00161">
        <ele>716.8</ele>
        <time>2021-10-14T07:45:16Z</time>
      </trkpt>
      <trkpt lat="46.53248" lon="6.00161">
        <ele>717</ele>
        <time>2021-10-14T07:45:28Z</time>
      </trkpt>
      <trkpt lat="46.53252" lon="6.00158">
        <ele>717.2</ele>
        <time>2021-10-14T07:45:32Z</time>
      </trkpt>
      <trkpt lat="46.53257" lon="6.00158">
        <ele>718</ele>
        <time>2021-10-14T07:45:45Z</time>
      </trkpt>
      <trkpt lat="46.53262" lon="6.00157">
        <ele>718.9</ele>
        <time>2021-10-14T07:45:56Z</time>
      </trkpt>
      <trkpt lat="46.53266" lon="6.00152">
        <ele>720.5</ele>
        <time>2021-10-14T07:46:04Z</time>
      </trkpt>
      <trkpt lat="46.53269" lon="6.00145">
        <ele>721.5</ele>
        <time>2021-10-14T07:46:08Z</time>
      </trkpt>
      <trkpt lat="46.53272" lon="6.00151">
        <ele>724</ele>
        <time>2021-10-14T07:46:17Z</time>
      </trkpt>
      <trkpt lat="46.53277" lon="6.0015">
        <ele>727.6</ele>
        <time>2021-10-14T07:46:30Z</time>
      </trkpt>
      <trkpt lat="46.53281" lon="6.00153">
        <ele>730.7</ele>
        <time>2021-10-14T07:46:52Z</time>
      </trkpt>
      <trkpt lat="46.53286" lon="6.00153">
        <ele>730.8</ele>
        <time>2021-10-14T07:46:57Z</time>
      </trkpt>
      <trkpt lat="46.53291" lon="6.00154">
        <ele>731</ele>
        <time>2021-10-14T07:47:02Z</time>
      </trkpt>
      <trkpt lat="46.53296" lon="6.00155">
        <ele>731.3</ele>
        <time>2021-10-14T07:47:08Z</time>
      </trkpt>
      <trkpt lat="46.53301" lon="6.00158">
        <ele>731.2</ele>
        <time>2021-10-14T07:47:12Z</time>
      </trkpt>
      <trkpt lat="46.53307" lon="6.00159">
        <ele>730.9</ele>
        <time>2021-10-14T07:47:17Z</time>
      </trkpt>
      <trkpt lat="46.53312" lon="6.0016">
        <ele>730.9</ele>
        <time>2021-10-14T07:47:21Z</time>
      </trkpt>
      <trkpt lat="46.53317" lon="6.00164">
        <ele>730.3</ele>
        <time>2021-10-14T07:47:26Z</time>
      </trkpt>
      <trkpt lat="46.5332" lon="6.00168">
        <ele>728.7</ele>
        <time>2021-10-14T07:47:34Z</time>
      </trkpt>
      <trkpt lat="46.53324" lon="6.0017">
        <ele>727.7</ele>
        <time>2021-10-14T07:47:40Z</time>
      </trkpt>
      <trkpt lat="46.53329" lon="6.00173">
        <ele>726.8</ele>
        <time>2021-10-14T07:47:45Z</time>
      </trkpt>
      <trkpt lat="46.53335" lon="6.00174">
        <ele>725.8</ele>
        <time>2021-10-14T07:47:50Z</time>
      </trkpt>
      <trkpt lat="46.53339" lon="6.00174">
        <ele>725.5</ele>
        <time>2021-10-14T07:47:55Z</time>
      </trkpt>
      <trkpt lat="46.53343" lon="6.00178">
        <ele>725.5</ele>
        <time>2021-10-14T07:48:01Z</time>
      </trkpt>
      <trkpt lat="46.53347" lon="6.00182">
        <ele>725.9</ele>
        <time>2021-10-14T07:48:11Z</time>
      </trkpt>
      <trkpt lat="46.53347" lon="6.0019">
        <ele>726.5</ele>
        <time>2021-10-14T07:48:15Z</time>
      </trkpt>
      <trkpt lat="46.53348" lon="6.00197">
        <ele>727.6</ele>
        <time>2021-10-14T07:48:20Z</time>
      </trkpt>
      <trkpt lat="46.53351" lon="6.00203">
        <ele>728.4</ele>
        <time>2021-10-14T07:48:24Z</time>
      </trkpt>
      <trkpt lat="46.53354" lon="6.00209">
        <ele>729.2</ele>
        <time>2021-10-14T07:48:28Z</time>
      </trkpt>
      <trkpt lat="46.53357" lon="6.00215">
        <ele>730.6</ele>
        <time>2021-10-14T07:48:35Z</time>
      </trkpt>
      <trkpt lat="46.5336" lon="6.00225">
        <ele>732</ele>
        <time>2021-10-14T07:48:41Z</time>
      </trkpt>
      <trkpt lat="46.53359" lon="6.00231">
        <ele>732.8</ele>
        <time>2021-10-14T07:48:45Z</time>
      </trkpt>
      <trkpt lat="46.53355" lon="6.00237">
        <ele>735.5</ele>
        <time>2021-10-14T07:48:54Z</time>
      </trkpt>
      <trkpt lat="46.53351" lon="6.00242">
        <ele>737.8</ele>
        <time>2021-10-14T07:49:00Z</time>
      </trkpt>
      <trkpt lat="46.53349" lon="6.00248">
        <ele>739.2</ele>
        <time>2021-10-14T07:49:05Z</time>
      </trkpt>
      <trkpt lat="46.53348" lon="6.00254">
        <ele>740</ele>
        <time>2021-10-14T07:49:09Z</time>
      </trkpt>
      <trkpt lat="46.53345" lon="6.00259">
        <ele>741.3</ele>
        <time>2021-10-14T07:49:15Z</time>
      </trkpt>
      <trkpt lat="46.53342" lon="6.00265">
        <ele>742.4</ele>
        <time>2021-10-14T07:49:21Z</time>
      </trkpt>
      <trkpt lat="46.53339" lon="6.00271">
        <ele>743.1</ele>
        <time>2021-10-14T07:49:26Z</time>
      </trkpt>
      <trkpt lat="46.53338" lon="6.00277">
        <ele>743.8</ele>
        <time>2021-10-14T07:49:31Z</time>
      </trkpt>
      <trkpt lat="46.53336" lon="6.00283">
        <ele>744.8</ele>
        <time>2021-10-14T07:49:37Z</time>
      </trkpt>
      <trkpt lat="46.53333" lon="6.00289">
        <ele>746</ele>
        <time>2021-10-14T07:49:43Z</time>
      </trkpt>
      <trkpt lat="46.53331" lon="6.00296">
        <ele>747.3</ele>
        <time>2021-10-14T07:49:50Z</time>
      </trkpt>
      <trkpt lat="46.53329" lon="6.00302">
        <ele>748.1</ele>
        <time>2021-10-14T07:49:54Z</time>
      </trkpt>
      <trkpt lat="46.53328" lon="6.00309">
        <ele>749.1</ele>
        <time>2021-10-14T07:50:00Z</time>
      </trkpt>
      <trkpt lat="46.53328" lon="6.00317">
        <ele>750.3</ele>
        <time>2021-10-14T07:50:05Z</time>
      </trkpt>
      <trkpt lat="46.53327" lon="6.00324">
        <ele>752</ele>
        <time>2021-10-14T07:50:10Z</time>
      </trkpt>
      <trkpt lat="46.53327" lon="6.00332">
        <ele>754.1</ele>
        <time>2021-10-14T07:50:16Z</time>
      </trkpt>
      <trkpt lat="46.53327" lon="6.00338">
        <ele>756.1</ele>
        <time>2021-10-14T07:50:21Z</time>
      </trkpt>
      <trkpt lat="46.53326" lon="6.00345">
        <ele>758</ele>
        <time>2021-10-14T07:50:27Z</time>
      </trkpt>
      <trkpt lat="46.53327" lon="6.00352">
        <ele>758.9</ele>
        <time>2021-10-14T07:50:33Z</time>
      </trkpt>
      <trkpt lat="46.53327" lon="6.00359">
        <ele>759.5</ele>
        <time>2021-10-14T07:50:39Z</time>
      </trkpt>
      <trkpt lat="46.53329" lon="6.00366">
        <ele>759.8</ele>
        <time>2021-10-14T07:50:46Z</time>
      </trkpt>
      <trkpt lat="46.5333" lon="6.00372">
        <ele>761</ele>
        <time>2021-10-14T07:50:53Z</time>
      </trkpt>
      <trkpt lat="46.5333" lon="6.0038">
        <ele>761.8</ele>
        <time>2021-10-14T07:51:00Z</time>
      </trkpt>
      <trkpt lat="46.53332" lon="6.00387">
        <ele>762.2</ele>
        <time>2021-10-14T07:51:05Z</time>
      </trkpt>
      <trkpt lat="46.53334" lon="6.00394">
        <ele>762.6</ele>
        <time>2021-10-14T07:51:12Z</time>
      </trkpt>
      <trkpt lat="46.53336" lon="6.00401">
        <ele>763.1</ele>
        <time>2021-10-14T07:51:19Z</time>
      </trkpt>
      <trkpt lat="46.53339" lon="6.00405">
        <ele>764</ele>
        <time>2021-10-14T07:51:26Z</time>
      </trkpt>
      <trkpt lat="46.53342" lon="6.0041">
        <ele>764.4</ele>
        <time>2021-10-14T07:51:31Z</time>
      </trkpt>
      <trkpt lat="46.53344" lon="6.00416">
        <ele>764.5</ele>
        <time>2021-10-14T07:51:38Z</time>
      </trkpt>
      <trkpt lat="46.53346" lon="6.00422">
        <ele>765.4</ele>
        <time>2021-10-14T07:51:48Z</time>
      </trkpt>
      <trkpt lat="46.53349" lon="6.00427">
        <ele>766.4</ele>
        <time>2021-10-14T07:51:54Z</time>
      </trkpt>
      <trkpt lat="46.53352" lon="6.00433">
        <ele>766.6</ele>
        <time>2021-10-14T07:52:02Z</time>
      </trkpt>
      <trkpt lat="46.53356" lon="6.00437">
        <ele>766.7</ele>
        <time>2021-10-14T07:52:08Z</time>
      </trkpt>
      <trkpt lat="46.5336" lon="6.00442">
        <ele>767.3</ele>
        <time>2021-10-14T07:52:14Z</time>
      </trkpt>
      <trkpt lat="46.53363" lon="6.00447">
        <ele>767.7</ele>
        <time>2021-10-14T07:52:19Z</time>
      </trkpt>
      <trkpt lat="46.53365" lon="6.00454">
        <ele>768.6</ele>
        <time>2021-10-14T07:52:26Z</time>
      </trkpt>
      <trkpt lat="46.53367" lon="6.0046">
        <ele>769.6</ele>
        <time>2021-10-14T07:52:32Z</time>
      </trkpt>
      <trkpt lat="46.53366" lon="6.00468">
        <ele>771</ele>
        <time>2021-10-14T07:52:39Z</time>
      </trkpt>
      <trkpt lat="46.53365" lon="6.00475">
        <ele>772.1</ele>
        <time>2021-10-14T07:52:44Z</time>
      </trkpt>
      <trkpt lat="46.53366" lon="6.00481">
        <ele>773.4</ele>
        <time>2021-10-14T07:52:52Z</time>
      </trkpt>
      <trkpt lat="46.53368" lon="6.00489">
        <ele>773.9</ele>
        <time>2021-10-14T07:53:00Z</time>
      </trkpt>
      <trkpt lat="46.53369" lon="6.00496">
        <ele>774</ele>
        <time>2021-10-14T07:53:05Z</time>
      </trkpt>
      <trkpt lat="46.53371" lon="6.00502">
        <ele>773.3</ele>
        <time>2021-10-14T07:53:13Z</time>
      </trkpt>
      <trkpt lat="46.53374" lon="6.00507">
        <ele>771.1</ele>
        <time>2021-10-14T07:53:20Z</time>
      </trkpt>
      <trkpt lat="46.53376" lon="6.00513">
        <ele>769.6</ele>
        <time>2021-10-14T07:53:25Z</time>
      </trkpt>
      <trkpt lat="46.53377" lon="6.00519">
        <ele>768.6</ele>
        <time>2021-10-14T07:53:30Z</time>
      </trkpt>
      <trkpt lat="46.5338" lon="6.00526">
        <ele>768</ele>
        <time>2021-10-14T07:53:37Z</time>
      </trkpt>
      <trkpt lat="46.53383" lon="6.00531">
        <ele>767.9</ele>
        <time>2021-10-14T07:53:42Z</time>
      </trkpt>
      <trkpt lat="46.53386" lon="6.00536">
        <ele>767.7</ele>
        <time>2021-10-14T07:53:48Z</time>
      </trkpt>
      <trkpt lat="46.53388" lon="6.00543">
        <ele>768.1</ele>
        <time>2021-10-14T07:53:57Z</time>
      </trkpt>
      <trkpt lat="46.53392" lon="6.00546">
        <ele>768.8</ele>
        <time>2021-10-14T07:54:02Z</time>
      </trkpt>
      <trkpt lat="46.53396" lon="6.00551">
        <ele>769.4</ele>
        <time>2021-10-14T07:54:06Z</time>
      </trkpt>
      <trkpt lat="46.53398" lon="6.00557">
        <ele>770.2</ele>
        <time>2021-10-14T07:54:12Z</time>
      </trkpt>
      <trkpt lat="46.53402" lon="6.00561">
        <ele>770.8</ele>
        <time>2021-10-14T07:54:19Z</time>
      </trkpt>
      <trkpt lat="46.53406" lon="6.00565">
        <ele>771.9</ele>
        <time>2021-10-14T07:54:26Z</time>
      </trkpt>
      <trkpt lat="46.53411" lon="6.00567">
        <ele>773.4</ele>
        <time>2021-10-14T07:54:32Z</time>
      </trkpt>
      <trkpt lat="46.53415" lon="6.0057">
        <ele>775.2</ele>
        <time>2021-10-14T07:54:38Z</time>
      </trkpt>
      <trkpt lat="46.5342" lon="6.00572">
        <ele>776.4</ele>
        <time>2021-10-14T07:54:45Z</time>
      </trkpt>
      <trkpt lat="46.53424" lon="6.00574">
        <ele>777.9</ele>
        <time>2021-10-14T07:54:52Z</time>
      </trkpt>
      <trkpt lat="46.53429" lon="6.00575">
        <ele>780</ele>
        <time>2021-10-14T07:54:59Z</time>
      </trkpt>
      <trkpt lat="46.53433" lon="6.00578">
        <ele>781.5</ele>
        <time>2021-10-14T07:55:05Z</time>
      </trkpt>
      <trkpt lat="46.53438" lon="6.00577">
        <ele>783.3</ele>
        <time>2021-10-14T07:55:12Z</time>
      </trkpt>
      <trkpt lat="46.53441" lon="6.00572">
        <ele>784.7</ele>
        <time>2021-10-14T07:55:19Z</time>
      </trkpt>
      <trkpt lat="46.53446" lon="6.00572">
        <ele>785.5</ele>
        <time>2021-10-14T07:55:27Z</time>
      </trkpt>
      <trkpt lat="46.53451" lon="6.00574">
        <ele>785.9</ele>
        <time>2021-10-14T07:55:37Z</time>
      </trkpt>
      <trkpt lat="46.53456" lon="6.00572">
        <ele>786.2</ele>
        <time>2021-10-14T07:55:42Z</time>
      </trkpt>
      <trkpt lat="46.53462" lon="6.00572">
        <ele>786.8</ele>
        <time>2021-10-14T07:55:48Z</time>
      </trkpt>
      <trkpt lat="46.53467" lon="6.00573">
        <ele>787.7</ele>
        <time>2021-10-14T07:55:55Z</time>
      </trkpt>
      <trkpt lat="46.53469" lon="6.00579">
        <ele>788.2</ele>
        <time>2021-10-14T07:56:02Z</time>
      </trkpt>
      <trkpt lat="46.53469" lon="6.00585">
        <ele>788.5</ele>
        <time>2021-10-14T07:56:07Z</time>
      </trkpt>
      <trkpt lat="46.53471" lon="6.00591">
        <ele>789</ele>
        <time>2021-10-14T07:56:13Z</time>
      </trkpt>
      <trkpt lat="46.53474" lon="6.00596">
        <ele>789.9</ele>
        <time>2021-10-14T07:56:20Z</time>
      </trkpt>
      <trkpt lat="46.53477" lon="6.00602">
        <ele>790.3</ele>
        <time>2021-10-14T07:56:25Z</time>
      </trkpt>
      <trkpt lat="46.5348" lon="6.00607">
        <ele>790.7</ele>
        <time>2021-10-14T07:56:31Z</time>
      </trkpt>
      <trkpt lat="46.53483" lon="6.00614">
        <ele>792.8</ele>
        <time>2021-10-14T07:56:46Z</time>
      </trkpt>
      <trkpt lat="46.53486" lon="6.00619">
        <ele>792</ele>
        <time>2021-10-14T07:56:52Z</time>
      </trkpt>
      <trkpt lat="46.53489" lon="6.00626">
        <ele>791.7</ele>
        <time>2021-10-14T07:56:57Z</time>
      </trkpt>
      <trkpt lat="46.53492" lon="6.00632">
        <ele>791.4</ele>
        <time>2021-10-14T07:57:02Z</time>
      </trkpt>
      <trkpt lat="46.53495" lon="6.00637">
        <ele>792.2</ele>
        <time>2021-10-14T07:57:09Z</time>
      </trkpt>
      <trkpt lat="46.53496" lon="6.00644">
        <ele>794.4</ele>
        <time>2021-10-14T07:57:17Z</time>
      </trkpt>
      <trkpt lat="46.53498" lon="6.0065">
        <ele>796.6</ele>
        <time>2021-10-14T07:57:25Z</time>
      </trkpt>
      <trkpt lat="46.53502" lon="6.00655">
        <ele>798</ele>
        <time>2021-10-14T07:57:32Z</time>
      </trkpt>
      <trkpt lat="46.53507" lon="6.00656">
        <ele>799.3</ele>
        <time>2021-10-14T07:57:38Z</time>
      </trkpt>
      <trkpt lat="46.53512" lon="6.00654">
        <ele>801</ele>
        <time>2021-10-14T07:57:55Z</time>
      </trkpt>
      <trkpt lat="46.53514" lon="6.00648">
        <ele>801.6</ele>
        <time>2021-10-14T07:58:00Z</time>
      </trkpt>
      <trkpt lat="46.53517" lon="6.00642">
        <ele>802.8</ele>
        <time>2021-10-14T07:58:07Z</time>
      </trkpt>
      <trkpt lat="46.5352" lon="6.00636">
        <ele>803.6</ele>
        <time>2021-10-14T07:58:19Z</time>
      </trkpt>
      <trkpt lat="46.5352" lon="6.0063">
        <ele>805.2</ele>
        <time>2021-10-14T07:58:36Z</time>
      </trkpt>
      <trkpt lat="46.53516" lon="6.00627">
        <ele>806.9</ele>
        <time>2021-10-14T08:00:32Z</time>
      </trkpt>
      <trkpt lat="46.53516" lon="6.0062">
        <ele>814.7</ele>
        <time>2021-10-14T08:03:33Z</time>
      </trkpt>
      <trkpt lat="46.53518" lon="6.00613">
        <ele>815.4</ele>
        <time>2021-10-14T08:03:45Z</time>
      </trkpt>
      <trkpt lat="46.5352" lon="6.00607">
        <ele>815.8</ele>
        <time>2021-10-14T08:03:52Z</time>
      </trkpt>
      <trkpt lat="46.53522" lon="6.006">
        <ele>815.5</ele>
        <time>2021-10-14T08:04:00Z</time>
      </trkpt>
      <trkpt lat="46.53523" lon="6.00593">
        <ele>815.3</ele>
        <time>2021-10-14T08:04:05Z</time>
      </trkpt>
      <trkpt lat="46.53524" lon="6.00585">
        <ele>815.3</ele>
        <time>2021-10-14T08:04:10Z</time>
      </trkpt>
      <trkpt lat="46.53524" lon="6.00578">
        <ele>815.3</ele>
        <time>2021-10-14T08:04:16Z</time>
      </trkpt>
      <trkpt lat="46.53524" lon="6.00571">
        <ele>815.3</ele>
        <time>2021-10-14T08:04:20Z</time>
      </trkpt>
      <trkpt lat="46.53525" lon="6.00564">
        <ele>815.3</ele>
        <time>2021-10-14T08:04:24Z</time>
      </trkpt>
      <trkpt lat="46.53525" lon="6.00558">
        <ele>815.8</ele>
        <time>2021-10-14T08:04:28Z</time>
      </trkpt>
      <trkpt lat="46.53524" lon="6.00551">
        <ele>816.1</ele>
        <time>2021-10-14T08:04:33Z</time>
      </trkpt>
      <trkpt lat="46.53523" lon="6.00545">
        <ele>816.4</ele>
        <time>2021-10-14T08:04:38Z</time>
      </trkpt>
      <trkpt lat="46.53523" lon="6.00538">
        <ele>816.8</ele>
        <time>2021-10-14T08:04:43Z</time>
      </trkpt>
      <trkpt lat="46.53524" lon="6.00531">
        <ele>817.3</ele>
        <time>2021-10-14T08:04:48Z</time>
      </trkpt>
      <trkpt lat="46.53525" lon="6.00524">
        <ele>817.7</ele>
        <time>2021-10-14T08:04:53Z</time>
      </trkpt>
      <trkpt lat="46.53525" lon="6.00517">
        <ele>818</ele>
        <time>2021-10-14T08:04:58Z</time>
      </trkpt>
      <trkpt lat="46.53525" lon="6.00509">
        <ele>818.5</ele>
        <time>2021-10-14T08:05:03Z</time>
      </trkpt>
      <trkpt lat="46.53525" lon="6.00502">
        <ele>818.9</ele>
        <time>2021-10-14T08:05:07Z</time>
      </trkpt>
      <trkpt lat="46.53525" lon="6.00493">
        <ele>819.2</ele>
        <time>2021-10-14T08:05:11Z</time>
      </trkpt>
      <trkpt lat="46.53525" lon="6.00485">
        <ele>819.6</ele>
        <time>2021-10-14T08:05:15Z</time>
      </trkpt>
      <trkpt lat="46.53526" lon="6.00478">
        <ele>819.6</ele>
        <time>2021-10-14T08:05:21Z</time>
      </trkpt>
      <trkpt lat="46.53526" lon="6.00471">
        <ele>819.4</ele>
        <time>2021-10-14T08:05:27Z</time>
      </trkpt>
      <trkpt lat="46.53528" lon="6.00464">
        <ele>819.1</ele>
        <time>2021-10-14T08:05:34Z</time>
      </trkpt>
      <trkpt lat="46.53528" lon="6.00456">
        <ele>818.7</ele>
        <time>2021-10-14T08:05:39Z</time>
      </trkpt>
      <trkpt lat="46.53529" lon="6.00449">
        <ele>818.6</ele>
        <time>2021-10-14T08:05:43Z</time>
      </trkpt>
      <trkpt lat="46.53531" lon="6.00442">
        <ele>818.7</ele>
        <time>2021-10-14T08:05:49Z</time>
      </trkpt>
      <trkpt lat="46.53533" lon="6.00436">
        <ele>818.9</ele>
        <time>2021-10-14T08:05:54Z</time>
      </trkpt>
      <trkpt lat="46.53534" lon="6.00429">
        <ele>819</ele>
        <time>2021-10-14T08:05:58Z</time>
      </trkpt>
      <trkpt lat="46.53534" lon="6.00422">
        <ele>819.1</ele>
        <time>2021-10-14T08:06:03Z</time>
      </trkpt>
      <trkpt lat="46.53536" lon="6.00415">
        <ele>819.4</ele>
        <time>2021-10-14T08:06:08Z</time>
      </trkpt>
      <trkpt lat="46.53536" lon="6.00408">
        <ele>819.5</ele>
        <time>2021-10-14T08:06:13Z</time>
      </trkpt>
      <trkpt lat="46.53537" lon="6.00402">
        <ele>819.7</ele>
        <time>2021-10-14T08:06:18Z</time>
      </trkpt>
      <trkpt lat="46.53538" lon="6.00395">
        <ele>819.8</ele>
        <time>2021-10-14T08:06:24Z</time>
      </trkpt>
      <trkpt lat="46.53538" lon="6.00388">
        <ele>819.8</ele>
        <time>2021-10-14T08:06:29Z</time>
      </trkpt>
      <trkpt lat="46.53538" lon="6.00381">
        <ele>820.1</ele>
        <time>2021-10-14T08:06:34Z</time>
      </trkpt>
      <trkpt lat="46.53538" lon="6.00374">
        <ele>820.6</ele>
        <time>2021-10-14T08:06:39Z</time>
      </trkpt>
      <trkpt lat="46.53538" lon="6.00367">
        <ele>821.3</ele>
        <time>2021-10-14T08:06:44Z</time>
      </trkpt>
      <trkpt lat="46.53538" lon="6.0036">
        <ele>822.1</ele>
        <time>2021-10-14T08:06:49Z</time>
      </trkpt>
      <trkpt lat="46.53539" lon="6.00353">
        <ele>822.9</ele>
        <time>2021-10-14T08:06:54Z</time>
      </trkpt>
      <trkpt lat="46.5354" lon="6.00346">
        <ele>824</ele>
        <time>2021-10-14T08:07:00Z</time>
      </trkpt>
      <trkpt lat="46.5354" lon="6.00338">
        <ele>824.7</ele>
        <time>2021-10-14T08:07:06Z</time>
      </trkpt>
      <trkpt lat="46.53539" lon="6.00331">
        <ele>824.9</ele>
        <time>2021-10-14T08:07:11Z</time>
      </trkpt>
      <trkpt lat="46.53539" lon="6.00325">
        <ele>824.9</ele>
        <time>2021-10-14T08:07:15Z</time>
      </trkpt>
      <trkpt lat="46.5354" lon="6.00318">
        <ele>824.8</ele>
        <time>2021-10-14T08:07:19Z</time>
      </trkpt>
      <trkpt lat="46.5354" lon="6.00311">
        <ele>824.8</ele>
        <time>2021-10-14T08:07:23Z</time>
      </trkpt>
      <trkpt lat="46.53541" lon="6.00305">
        <ele>824.9</ele>
        <time>2021-10-14T08:07:28Z</time>
      </trkpt>
      <trkpt lat="46.53538" lon="6.003">
        <ele>826.4</ele>
        <time>2021-10-14T08:07:40Z</time>
      </trkpt>
      <trkpt lat="46.53533" lon="6.00298">
        <ele>827.2</ele>
        <time>2021-10-14T08:07:52Z</time>
      </trkpt>
      <trkpt lat="46.53528" lon="6.00295">
        <ele>826.9</ele>
        <time>2021-10-14T08:08:00Z</time>
      </trkpt>
      <trkpt lat="46.53526" lon="6.00289">
        <ele>826.3</ele>
        <time>2021-10-14T08:08:05Z</time>
      </trkpt>
      <trkpt lat="46.53525" lon="6.00282">
        <ele>825.7</ele>
        <time>2021-10-14T08:08:10Z</time>
      </trkpt>
      <trkpt lat="46.53524" lon="6.00275">
        <ele>824.9</ele>
        <time>2021-10-14T08:08:14Z</time>
      </trkpt>
      <trkpt lat="46.53525" lon="6.00267">
        <ele>823.9</ele>
        <time>2021-10-14T08:08:20Z</time>
      </trkpt>
      <trkpt lat="46.53525" lon="6.0026">
        <ele>823.1</ele>
        <time>2021-10-14T08:08:25Z</time>
      </trkpt>
      <trkpt lat="46.53523" lon="6.00253">
        <ele>822</ele>
        <time>2021-10-14T08:08:36Z</time>
      </trkpt>
      <trkpt lat="46.53523" lon="6.00246">
        <ele>821.6</ele>
        <time>2021-10-14T08:08:41Z</time>
      </trkpt>
      <trkpt lat="46.53522" lon="6.00238">
        <ele>821.1</ele>
        <time>2021-10-14T08:08:45Z</time>
      </trkpt>
      <trkpt lat="46.53522" lon="6.0023">
        <ele>820.3</ele>
        <time>2021-10-14T08:08:50Z</time>
      </trkpt>
      <trkpt lat="46.53521" lon="6.00223">
        <ele>819.9</ele>
        <time>2021-10-14T08:08:55Z</time>
      </trkpt>
      <trkpt lat="46.5352" lon="6.00216">
        <ele>819.5</ele>
        <time>2021-10-14T08:09:00Z</time>
      </trkpt>
      <trkpt lat="46.53518" lon="6.0021">
        <ele>819.3</ele>
        <time>2021-10-14T08:09:04Z</time>
      </trkpt>
      <trkpt lat="46.53516" lon="6.00204">
        <ele>819.2</ele>
        <time>2021-10-14T08:09:08Z</time>
      </trkpt>
      <trkpt lat="46.53514" lon="6.00197">
        <ele>819.4</ele>
        <time>2021-10-14T08:09:13Z</time>
      </trkpt>
      <trkpt lat="46.53512" lon="6.0019">
        <ele>818.8</ele>
        <time>2021-10-14T08:09:19Z</time>
      </trkpt>
      <trkpt lat="46.5351" lon="6.00184">
        <ele>818.7</ele>
        <time>2021-10-14T08:09:25Z</time>
      </trkpt>
      <trkpt lat="46.53508" lon="6.00177">
        <ele>818.5</ele>
        <time>2021-10-14T08:09:31Z</time>
      </trkpt>
      <trkpt lat="46.53505" lon="6.00172">
        <ele>818.1</ele>
        <time>2021-10-14T08:09:37Z</time>
      </trkpt>
      <trkpt lat="46.53501" lon="6.00166">
        <ele>817.2</ele>
        <time>2021-10-14T08:09:42Z</time>
      </trkpt>
      <trkpt lat="46.53497" lon="6.0016">
        <ele>816.1</ele>
        <time>2021-10-14T08:09:47Z</time>
      </trkpt>
      <trkpt lat="46.53494" lon="6.00154">
        <ele>814.9</ele>
        <time>2021-10-14T08:09:53Z</time>
      </trkpt>
      <trkpt lat="46.53491" lon="6.00149">
        <ele>814.1</ele>
        <time>2021-10-14T08:09:58Z</time>
      </trkpt>
      <trkpt lat="46.53488" lon="6.00144">
        <ele>813.4</ele>
        <time>2021-10-14T08:10:03Z</time>
      </trkpt>
      <trkpt lat="46.53486" lon="6.00138">
        <ele>813</ele>
        <time>2021-10-14T08:10:07Z</time>
      </trkpt>
      <trkpt lat="46.53483" lon="6.00132">
        <ele>812.8</ele>
        <time>2021-10-14T08:10:11Z</time>
      </trkpt>
      <trkpt lat="46.5348" lon="6.00126">
        <ele>812.9</ele>
        <time>2021-10-14T08:10:15Z</time>
      </trkpt>
      <trkpt lat="46.53477" lon="6.00121">
        <ele>813.1</ele>
        <time>2021-10-14T08:10:21Z</time>
      </trkpt>
      <trkpt lat="46.53473" lon="6.00118">
        <ele>813.3</ele>
        <time>2021-10-14T08:10:29Z</time>
      </trkpt>
      <trkpt lat="46.53468" lon="6.00114">
        <ele>813.4</ele>
        <time>2021-10-14T08:10:37Z</time>
      </trkpt>
      <trkpt lat="46.53463" lon="6.00111">
        <ele>813.3</ele>
        <time>2021-10-14T08:10:43Z</time>
      </trkpt>
      <trkpt lat="46.53459" lon="6.00109">
        <ele>813.3</ele>
        <time>2021-10-14T08:10:47Z</time>
      </trkpt>
      <trkpt lat="46.53454" lon="6.00107">
        <ele>813.2</ele>
        <time>2021-10-14T08:10:51Z</time>
      </trkpt>
      <trkpt lat="46.53448" lon="6.00106">
        <ele>813.5</ele>
        <time>2021-10-14T08:10:55Z</time>
      </trkpt>
      <trkpt lat="46.53443" lon="6.00105">
        <ele>813.6</ele>
        <time>2021-10-14T08:10:59Z</time>
      </trkpt>
      <trkpt lat="46.53439" lon="6.00104">
        <ele>814.1</ele>
        <time>2021-10-14T08:11:05Z</time>
      </trkpt>
      <trkpt lat="46.53436" lon="6.00099">
        <ele>814.1</ele>
        <time>2021-10-14T08:11:10Z</time>
      </trkpt>
      <trkpt lat="46.53433" lon="6.00093">
        <ele>814</ele>
        <time>2021-10-14T08:11:15Z</time>
      </trkpt>
      <trkpt lat="46.53428" lon="6.0009">
        <ele>813.7</ele>
        <time>2021-10-14T08:11:20Z</time>
      </trkpt>
      <trkpt lat="46.53423" lon="6.00089">
        <ele>812.9</ele>
        <time>2021-10-14T08:11:25Z</time>
      </trkpt>
      <trkpt lat="46.53418" lon="6.00088">
        <ele>812</ele>
        <time>2021-10-14T08:11:29Z</time>
      </trkpt>
      <trkpt lat="46.53413" lon="6.00087">
        <ele>811</ele>
        <time>2021-10-14T08:11:34Z</time>
      </trkpt>
      <trkpt lat="46.53408" lon="6.00084">
        <ele>809.8</ele>
        <time>2021-10-14T08:11:39Z</time>
      </trkpt>
      <trkpt lat="46.53405" lon="6.00079">
        <ele>808.7</ele>
        <time>2021-10-14T08:11:44Z</time>
      </trkpt>
      <trkpt lat="46.53402" lon="6.00074">
        <ele>808</ele>
        <time>2021-10-14T08:11:48Z</time>
      </trkpt>
      <trkpt lat="46.53398" lon="6.00069">
        <ele>807.7</ele>
        <time>2021-10-14T08:11:53Z</time>
      </trkpt>
      <trkpt lat="46.53396" lon="6.00063">
        <ele>807.5</ele>
        <time>2021-10-14T08:11:58Z</time>
      </trkpt>
      <trkpt lat="46.53393" lon="6.00057">
        <ele>807.3</ele>
        <time>2021-10-14T08:12:02Z</time>
      </trkpt>
      <trkpt lat="46.5339" lon="6.00051">
        <ele>807.1</ele>
        <time>2021-10-14T08:12:06Z</time>
      </trkpt>
      <trkpt lat="46.53387" lon="6.00046">
        <ele>807.3</ele>
        <time>2021-10-14T08:12:11Z</time>
      </trkpt>
      <trkpt lat="46.53384" lon="6.0004">
        <ele>807</ele>
        <time>2021-10-14T08:12:16Z</time>
      </trkpt>
      <trkpt lat="46.53381" lon="6.00034">
        <ele>806.8</ele>
        <time>2021-10-14T08:12:22Z</time>
      </trkpt>
      <trkpt lat="46.53381" lon="6.00027">
        <ele>806.5</ele>
        <time>2021-10-14T08:12:27Z</time>
      </trkpt>
      <trkpt lat="46.53379" lon="6.00019">
        <ele>805.9</ele>
        <time>2021-10-14T08:12:33Z</time>
      </trkpt>
      <trkpt lat="46.53378" lon="6.00013">
        <ele>805.1</ele>
        <time>2021-10-14T08:12:41Z</time>
      </trkpt>
      <trkpt lat="46.53377" lon="6.00006">
        <ele>804.9</ele>
        <time>2021-10-14T08:12:47Z</time>
      </trkpt>
      <trkpt lat="46.53375" lon="6">
        <ele>804.9</ele>
        <time>2021-10-14T08:12:54Z</time>
      </trkpt>
      <trkpt lat="46.53374" lon="5.99993">
        <ele>804.9</ele>
        <time>2021-10-14T08:12:59Z</time>
      </trkpt>
      <trkpt lat="46.53373" lon="5.99986">
        <ele>804.7</ele>
        <time>2021-10-14T08:13:04Z</time>
      </trkpt>
      <trkpt lat="46.53372" lon="5.99978">
        <ele>804</ele>
        <time>2021-10-14T08:13:10Z</time>
      </trkpt>
      <trkpt lat="46.5337" lon="5.99971">
        <ele>803.2</ele>
        <time>2021-10-14T08:13:14Z</time>
      </trkpt>
      <trkpt lat="46.53369" lon="5.99965">
        <ele>802</ele>
        <time>2021-10-14T08:13:18Z</time>
      </trkpt>
      <trkpt lat="46.53369" lon="5.99958">
        <ele>800.4</ele>
        <time>2021-10-14T08:13:24Z</time>
      </trkpt>
      <trkpt lat="46.53369" lon="5.99951">
        <ele>799</ele>
        <time>2021-10-14T08:13:30Z</time>
      </trkpt>
      <trkpt lat="46.53367" lon="5.99944">
        <ele>797.8</ele>
        <time>2021-10-14T08:13:35Z</time>
      </trkpt>
      <trkpt lat="46.53366" lon="5.99938">
        <ele>797.4</ele>
        <time>2021-10-14T08:13:40Z</time>
      </trkpt>
      <trkpt lat="46.53366" lon="5.99931">
        <ele>797.2</ele>
        <time>2021-10-14T08:13:44Z</time>
      </trkpt>
      <trkpt lat="46.53366" lon="5.99924">
        <ele>797</ele>
        <time>2021-10-14T08:13:48Z</time>
      </trkpt>
      <trkpt lat="46.53366" lon="5.99917">
        <ele>796.6</ele>
        <time>2021-10-14T08:13:52Z</time>
      </trkpt>
      <trkpt lat="46.53365" lon="5.9991">
        <ele>795.9</ele>
        <time>2021-10-14T08:13:57Z</time>
      </trkpt>
      <trkpt lat="46.53362" lon="5.99902">
        <ele>795.6</ele>
        <time>2021-10-14T08:14:02Z</time>
      </trkpt>
      <trkpt lat="46.5336" lon="5.99895">
        <ele>795.3</ele>
        <time>2021-10-14T08:14:06Z</time>
      </trkpt>
      <trkpt lat="46.53358" lon="5.99889">
        <ele>795</ele>
        <time>2021-10-14T08:14:10Z</time>
      </trkpt>
      <trkpt lat="46.53357" lon="5.99882">
        <ele>794.6</ele>
        <time>2021-10-14T08:14:14Z</time>
      </trkpt>
      <trkpt lat="46.53355" lon="5.99875">
        <ele>794.2</ele>
        <time>2021-10-14T08:14:18Z</time>
      </trkpt>
      <trkpt lat="46.53354" lon="5.99869">
        <ele>794.1</ele>
        <time>2021-10-14T08:14:22Z</time>
      </trkpt>
      <trkpt lat="46.53353" lon="5.99861">
        <ele>794.8</ele>
        <time>2021-10-14T08:14:27Z</time>
      </trkpt>
      <trkpt lat="46.53352" lon="5.99854">
        <ele>796.2</ele>
        <time>2021-10-14T08:14:32Z</time>
      </trkpt>
      <trkpt lat="46.53351" lon="5.99846">
        <ele>797.2</ele>
        <time>2021-10-14T08:14:36Z</time>
      </trkpt>
      <trkpt lat="46.5335" lon="5.99839">
        <ele>798.8</ele>
        <time>2021-10-14T08:14:42Z</time>
      </trkpt>
      <trkpt lat="46.5335" lon="5.99832">
        <ele>799.9</ele>
        <time>2021-10-14T08:14:49Z</time>
      </trkpt>
      <trkpt lat="46.53349" lon="5.99825">
        <ele>800.7</ele>
        <time>2021-10-14T08:14:55Z</time>
      </trkpt>
      <trkpt lat="46.53349" lon="5.99817">
        <ele>801.5</ele>
        <time>2021-10-14T08:15:01Z</time>
      </trkpt>
      <trkpt lat="46.53348" lon="5.99809">
        <ele>802.3</ele>
        <time>2021-10-14T08:15:05Z</time>
      </trkpt>
      <trkpt lat="46.53347" lon="5.99802">
        <ele>802.8</ele>
        <time>2021-10-14T08:15:09Z</time>
      </trkpt>
      <trkpt lat="46.53348" lon="5.99795">
        <ele>803</ele>
        <time>2021-10-14T08:15:14Z</time>
      </trkpt>
      <trkpt lat="46.53349" lon="5.99789">
        <ele>802.8</ele>
        <time>2021-10-14T08:15:19Z</time>
      </trkpt>
      <trkpt lat="46.5335" lon="5.99782">
        <ele>803</ele>
        <time>2021-10-14T08:15:28Z</time>
      </trkpt>
      <trkpt lat="46.53349" lon="5.99775">
        <ele>803.1</ele>
        <time>2021-10-14T08:15:34Z</time>
      </trkpt>
      <trkpt lat="46.53349" lon="5.99767">
        <ele>803.8</ele>
        <time>2021-10-14T08:15:39Z</time>
      </trkpt>
      <trkpt lat="46.5335" lon="5.9976">
        <ele>804.5</ele>
        <time>2021-10-14T08:15:44Z</time>
      </trkpt>
      <trkpt lat="46.5335" lon="5.99752">
        <ele>805.1</ele>
        <time>2021-10-14T08:15:49Z</time>
      </trkpt>
      <trkpt lat="46.5335" lon="5.99745">
        <ele>805.5</ele>
        <time>2021-10-14T08:15:53Z</time>
      </trkpt>
      <trkpt lat="46.5335" lon="5.99738">
        <ele>805.8</ele>
        <time>2021-10-14T08:15:57Z</time>
      </trkpt>
      <trkpt lat="46.53351" lon="5.99731">
        <ele>806.4</ele>
        <time>2021-10-14T08:16:03Z</time>
      </trkpt>
      <trkpt lat="46.5335" lon="5.99722">
        <ele>806.7</ele>
        <time>2021-10-14T08:16:08Z</time>
      </trkpt>
      <trkpt lat="46.53349" lon="5.99716">
        <ele>806.7</ele>
        <time>2021-10-14T08:16:11Z</time>
      </trkpt>
      <trkpt lat="46.53348" lon="5.99707">
        <ele>806.9</ele>
        <time>2021-10-14T08:16:15Z</time>
      </trkpt>
      <trkpt lat="46.53348" lon="5.997">
        <ele>806.9</ele>
        <time>2021-10-14T08:16:19Z</time>
      </trkpt>
      <trkpt lat="46.53346" lon="5.99692">
        <ele>807.2</ele>
        <time>2021-10-14T08:16:24Z</time>
      </trkpt>
      <trkpt lat="46.53345" lon="5.99686">
        <ele>807.3</ele>
        <time>2021-10-14T08:16:29Z</time>
      </trkpt>
      <trkpt lat="46.53343" lon="5.9968">
        <ele>807.4</ele>
        <time>2021-10-14T08:16:34Z</time>
      </trkpt>
      <trkpt lat="46.53341" lon="5.99674">
        <ele>807.5</ele>
        <time>2021-10-14T08:16:39Z</time>
      </trkpt>
      <trkpt lat="46.53336" lon="5.9967">
        <ele>807.8</ele>
        <time>2021-10-14T08:16:44Z</time>
      </trkpt>
      <trkpt lat="46.53332" lon="5.99666">
        <ele>807.9</ele>
        <time>2021-10-14T08:16:49Z</time>
      </trkpt>
      <trkpt lat="46.53327" lon="5.99664">
        <ele>808</ele>
        <time>2021-10-14T08:16:54Z</time>
      </trkpt>
      <trkpt lat="46.53323" lon="5.99662">
        <ele>807.7</ele>
        <time>2021-10-14T08:16:58Z</time>
      </trkpt>
      <trkpt lat="46.53317" lon="5.99662">
        <ele>807.3</ele>
        <time>2021-10-14T08:17:02Z</time>
      </trkpt>
      <trkpt lat="46.53313" lon="5.9966">
        <ele>806.6</ele>
        <time>2021-10-14T08:17:08Z</time>
      </trkpt>
      <trkpt lat="46.53309" lon="5.99655">
        <ele>805.6</ele>
        <time>2021-10-14T08:17:15Z</time>
      </trkpt>
      <trkpt lat="46.53304" lon="5.99652">
        <ele>804.5</ele>
        <time>2021-10-14T08:17:20Z</time>
      </trkpt>
      <trkpt lat="46.53299" lon="5.99652">
        <ele>803</ele>
        <time>2021-10-14T08:17:24Z</time>
      </trkpt>
      <trkpt lat="46.53294" lon="5.99653">
        <ele>799.2</ele>
        <time>2021-10-14T08:17:32Z</time>
      </trkpt>
      <trkpt lat="46.53288" lon="5.99653">
        <ele>796.4</ele>
        <time>2021-10-14T08:17:39Z</time>
      </trkpt>
      <trkpt lat="46.53283" lon="5.99652">
        <ele>795</ele>
        <time>2021-10-14T08:17:43Z</time>
      </trkpt>
      <trkpt lat="46.53279" lon="5.99649">
        <ele>794</ele>
        <time>2021-10-14T08:17:46Z</time>
      </trkpt>
      <trkpt lat="46.53274" lon="5.99644">
        <ele>792.9</ele>
        <time>2021-10-14T08:17:49Z</time>
      </trkpt>
      <trkpt lat="46.5327" lon="5.99639">
        <ele>791.9</ele>
        <time>2021-10-14T08:17:52Z</time>
      </trkpt>
      <trkpt lat="46.53268" lon="5.99633">
        <ele>791.1</ele>
        <time>2021-10-14T08:17:55Z</time>
      </trkpt>
      <trkpt lat="46.53265" lon="5.99627">
        <ele>790.1</ele>
        <time>2021-10-14T08:17:59Z</time>
      </trkpt>
      <trkpt lat="46.53262" lon="5.9962">
        <ele>789.3</ele>
        <time>2021-10-14T08:18:04Z</time>
      </trkpt>
      <trkpt lat="46.53258" lon="5.99615">
        <ele>788.7</ele>
        <time>2021-10-14T08:18:09Z</time>
      </trkpt>
      <trkpt lat="46.53254" lon="5.99614">
        <ele>788.3</ele>
        <time>2021-10-14T08:18:15Z</time>
      </trkpt>
      <trkpt lat="46.53252" lon="5.99607">
        <ele>788.4</ele>
        <time>2021-10-14T08:18:21Z</time>
      </trkpt>
      <trkpt lat="46.53248" lon="5.99604">
        <ele>788.9</ele>
        <time>2021-10-14T08:18:28Z</time>
      </trkpt>
      <trkpt lat="46.53245" lon="5.99598">
        <ele>789.6</ele>
        <time>2021-10-14T08:18:35Z</time>
      </trkpt>
      <trkpt lat="46.53242" lon="5.99593">
        <ele>790.1</ele>
        <time>2021-10-14T08:18:41Z</time>
      </trkpt>
      <trkpt lat="46.53237" lon="5.99591">
        <ele>790.3</ele>
        <time>2021-10-14T08:18:45Z</time>
      </trkpt>
      <trkpt lat="46.53233" lon="5.99588">
        <ele>790.7</ele>
        <time>2021-10-14T08:18:52Z</time>
      </trkpt>
      <trkpt lat="46.5323" lon="5.99582">
        <ele>791.3</ele>
        <time>2021-10-14T08:18:59Z</time>
      </trkpt>
      <trkpt lat="46.53228" lon="5.99575">
        <ele>791.6</ele>
        <time>2021-10-14T08:19:03Z</time>
      </trkpt>
      <trkpt lat="46.53224" lon="5.99569">
        <ele>791.7</ele>
        <time>2021-10-14T08:19:07Z</time>
      </trkpt>
      <trkpt lat="46.53221" lon="5.99564">
        <ele>791.5</ele>
        <time>2021-10-14T08:19:11Z</time>
      </trkpt>
      <trkpt lat="46.53216" lon="5.99561">
        <ele>791.1</ele>
        <time>2021-10-14T08:19:16Z</time>
      </trkpt>
      <trkpt lat="46.53214" lon="5.99554">
        <ele>790.7</ele>
        <time>2021-10-14T08:19:22Z</time>
      </trkpt>
      <trkpt lat="46.53212" lon="5.99547">
        <ele>790.4</ele>
        <time>2021-10-14T08:19:26Z</time>
      </trkpt>
      <trkpt lat="46.53209" lon="5.99541">
        <ele>790.2</ele>
        <time>2021-10-14T08:19:31Z</time>
      </trkpt>
      <trkpt lat="46.53208" lon="5.99533">
        <ele>790.2</ele>
        <time>2021-10-14T08:19:37Z</time>
      </trkpt>
      <trkpt lat="46.53205" lon="5.99527">
        <ele>790.6</ele>
        <time>2021-10-14T08:19:40Z</time>
      </trkpt>
      <trkpt lat="46.53203" lon="5.99521">
        <ele>791.1</ele>
        <time>2021-10-14T08:19:45Z</time>
      </trkpt>
      <trkpt lat="46.53201" lon="5.99514">
        <ele>791.3</ele>
        <time>2021-10-14T08:19:51Z</time>
      </trkpt>
      <trkpt lat="46.53198" lon="5.99508">
        <ele>791.1</ele>
        <time>2021-10-14T08:19:55Z</time>
      </trkpt>
      <trkpt lat="46.53195" lon="5.99502">
        <ele>791</ele>
        <time>2021-10-14T08:20:00Z</time>
      </trkpt>
      <trkpt lat="46.53192" lon="5.99497">
        <ele>790.9</ele>
        <time>2021-10-14T08:20:05Z</time>
      </trkpt>
      <trkpt lat="46.53189" lon="5.99492">
        <ele>790.4</ele>
        <time>2021-10-14T08:20:10Z</time>
      </trkpt>
      <trkpt lat="46.53185" lon="5.99487">
        <ele>789.9</ele>
        <time>2021-10-14T08:20:16Z</time>
      </trkpt>
      <trkpt lat="46.53183" lon="5.9948">
        <ele>789.7</ele>
        <time>2021-10-14T08:20:22Z</time>
      </trkpt>
      <trkpt lat="46.53181" lon="5.99473">
        <ele>789.9</ele>
        <time>2021-10-14T08:20:25Z</time>
      </trkpt>
      <trkpt lat="46.53179" lon="5.99466">
        <ele>789.7</ele>
        <time>2021-10-14T08:20:28Z</time>
      </trkpt>
      <trkpt lat="46.53178" lon="5.99459">
        <ele>789.7</ele>
        <time>2021-10-14T08:20:33Z</time>
      </trkpt>
      <trkpt lat="46.53177" lon="5.99452">
        <ele>790.1</ele>
        <time>2021-10-14T08:20:40Z</time>
      </trkpt>
      <trkpt lat="46.53176" lon="5.99445">
        <ele>791.3</ele>
        <time>2021-10-14T08:20:46Z</time>
      </trkpt>
      <trkpt lat="46.53173" lon="5.99439">
        <ele>792.3</ele>
        <time>2021-10-14T08:20:52Z</time>
      </trkpt>
      <trkpt lat="46.53171" lon="5.99432">
        <ele>792.7</ele>
        <time>2021-10-14T08:20:55Z</time>
      </trkpt>
      <trkpt lat="46.53168" lon="5.99425">
        <ele>793.1</ele>
        <time>2021-10-14T08:20:58Z</time>
      </trkpt>
      <trkpt lat="46.53166" lon="5.9942">
        <ele>793.6</ele>
        <time>2021-10-14T08:21:01Z</time>
      </trkpt>
      <trkpt lat="46.53162" lon="5.99415">
        <ele>794.3</ele>
        <time>2021-10-14T08:21:05Z</time>
      </trkpt>
      <trkpt lat="46.53158" lon="5.9941">
        <ele>794.9</ele>
        <time>2021-10-14T08:21:11Z</time>
      </trkpt>
      <trkpt lat="46.53154" lon="5.99405">
        <ele>795.3</ele>
        <time>2021-10-14T08:21:16Z</time>
      </trkpt>
      <trkpt lat="46.53151" lon="5.99398">
        <ele>796</ele>
        <time>2021-10-14T08:21:22Z</time>
      </trkpt>
      <trkpt lat="46.53149" lon="5.99392">
        <ele>797.1</ele>
        <time>2021-10-14T08:21:29Z</time>
      </trkpt>
      <trkpt lat="46.53146" lon="5.99385">
        <ele>797.8</ele>
        <time>2021-10-14T08:21:34Z</time>
      </trkpt>
      <trkpt lat="46.53144" lon="5.99378">
        <ele>798.1</ele>
        <time>2021-10-14T08:21:38Z</time>
      </trkpt>
      <trkpt lat="46.53144" lon="5.99371">
        <ele>798.5</ele>
        <time>2021-10-14T08:21:42Z</time>
      </trkpt>
      <trkpt lat="46.53143" lon="5.99363">
        <ele>798.9</ele>
        <time>2021-10-14T08:21:47Z</time>
      </trkpt>
      <trkpt lat="46.5314" lon="5.99356">
        <ele>799.4</ele>
        <time>2021-10-14T08:21:52Z</time>
      </trkpt>
      <trkpt lat="46.53139" lon="5.9935">
        <ele>800</ele>
        <time>2021-10-14T08:21:56Z</time>
      </trkpt>
      <trkpt lat="46.53135" lon="5.99345">
        <ele>800.8</ele>
        <time>2021-10-14T08:22:01Z</time>
      </trkpt>
      <trkpt lat="46.53131" lon="5.9934">
        <ele>801.3</ele>
        <time>2021-10-14T08:22:06Z</time>
      </trkpt>
      <trkpt lat="46.53128" lon="5.99335">
        <ele>801.5</ele>
        <time>2021-10-14T08:22:11Z</time>
      </trkpt>
      <trkpt lat="46.53124" lon="5.99329">
        <ele>802</ele>
        <time>2021-10-14T08:22:17Z</time>
      </trkpt>
      <trkpt lat="46.53122" lon="5.99323">
        <ele>802.4</ele>
        <time>2021-10-14T08:22:22Z</time>
      </trkpt>
      <trkpt lat="46.53121" lon="5.99316">
        <ele>802.7</ele>
        <time>2021-10-14T08:22:27Z</time>
      </trkpt>
      <trkpt lat="46.53121" lon="5.99308">
        <ele>802.9</ele>
        <time>2021-10-14T08:22:31Z</time>
      </trkpt>
      <trkpt lat="46.5312" lon="5.993">
        <ele>803.4</ele>
        <time>2021-10-14T08:22:36Z</time>
      </trkpt>
      <trkpt lat="46.53119" lon="5.99293">
        <ele>804.1</ele>
        <time>2021-10-14T08:22:41Z</time>
      </trkpt>
      <trkpt lat="46.53118" lon="5.99286">
        <ele>804.4</ele>
        <time>2021-10-14T08:22:45Z</time>
      </trkpt>
      <trkpt lat="46.53116" lon="5.99279">
        <ele>804.7</ele>
        <time>2021-10-14T08:22:50Z</time>
      </trkpt>
      <trkpt lat="46.53115" lon="5.99272">
        <ele>804.9</ele>
        <time>2021-10-14T08:22:56Z</time>
      </trkpt>
      <trkpt lat="46.53112" lon="5.99266">
        <ele>805</ele>
        <time>2021-10-14T08:23:02Z</time>
      </trkpt>
      <trkpt lat="46.53111" lon="5.99259">
        <ele>805.3</ele>
        <time>2021-10-14T08:23:07Z</time>
      </trkpt>
      <trkpt lat="46.5311" lon="5.99253">
        <ele>805.8</ele>
        <time>2021-10-14T08:23:12Z</time>
      </trkpt>
      <trkpt lat="46.53107" lon="5.99247">
        <ele>806.6</ele>
        <time>2021-10-14T08:23:19Z</time>
      </trkpt>
      <trkpt lat="46.53105" lon="5.9924">
        <ele>807.4</ele>
        <time>2021-10-14T08:23:23Z</time>
      </trkpt>
      <trkpt lat="46.53102" lon="5.99233">
        <ele>808.6</ele>
        <time>2021-10-14T08:23:26Z</time>
      </trkpt>
      <trkpt lat="46.53099" lon="5.99227">
        <ele>810.2</ele>
        <time>2021-10-14T08:23:29Z</time>
      </trkpt>
      <trkpt lat="46.53096" lon="5.99222">
        <ele>812.5</ele>
        <time>2021-10-14T08:23:34Z</time>
      </trkpt>
      <trkpt lat="46.53093" lon="5.99215">
        <ele>814.6</ele>
        <time>2021-10-14T08:23:40Z</time>
      </trkpt>
      <trkpt lat="46.5309" lon="5.99211">
        <ele>817.3</ele>
        <time>2021-10-14T08:23:49Z</time>
      </trkpt>
      <trkpt lat="46.53087" lon="5.99206">
        <ele>820</ele>
        <time>2021-10-14T08:23:56Z</time>
      </trkpt>
      <trkpt lat="46.53085" lon="5.99199">
        <ele>822.4</ele>
        <time>2021-10-14T08:24:10Z</time>
      </trkpt>
      <trkpt lat="46.53085" lon="5.99192">
        <ele>823.1</ele>
        <time>2021-10-14T08:24:15Z</time>
      </trkpt>
      <trkpt lat="46.53085" lon="5.99185">
        <ele>823.8</ele>
        <time>2021-10-14T08:24:20Z</time>
      </trkpt>
      <trkpt lat="46.53084" lon="5.99177">
        <ele>824.9</ele>
        <time>2021-10-14T08:24:24Z</time>
      </trkpt>
      <trkpt lat="46.53083" lon="5.99171">
        <ele>826.7</ele>
        <time>2021-10-14T08:24:30Z</time>
      </trkpt>
      <trkpt lat="46.53087" lon="5.99172">
        <ele>828.5</ele>
        <time>2021-10-14T08:24:48Z</time>
      </trkpt>
      <trkpt lat="46.53092" lon="5.9917">
        <ele>829</ele>
        <time>2021-10-14T08:24:53Z</time>
      </trkpt>
      <trkpt lat="46.53096" lon="5.99167">
        <ele>829.6</ele>
        <time>2021-10-14T08:25:00Z</time>
      </trkpt>
      <trkpt lat="46.53097" lon="5.9916">
        <ele>830.1</ele>
        <time>2021-10-14T08:25:07Z</time>
      </trkpt>
      <trkpt lat="46.53097" lon="5.99153">
        <ele>830.3</ele>
        <time>2021-10-14T08:25:12Z</time>
      </trkpt>
      <trkpt lat="46.53097" lon="5.99146">
        <ele>830.4</ele>
        <time>2021-10-14T08:25:16Z</time>
      </trkpt>
      <trkpt lat="46.53094" lon="5.9914">
        <ele>829.9</ele>
        <time>2021-10-14T08:25:22Z</time>
      </trkpt>
      <trkpt lat="46.53092" lon="5.99134">
        <ele>829.3</ele>
        <time>2021-10-14T08:25:26Z</time>
      </trkpt>
      <trkpt lat="46.53089" lon="5.99129">
        <ele>828.4</ele>
        <time>2021-10-14T08:25:31Z</time>
      </trkpt>
      <trkpt lat="46.53086" lon="5.99123">
        <ele>827.3</ele>
        <time>2021-10-14T08:25:37Z</time>
      </trkpt>
      <trkpt lat="46.53084" lon="5.99117">
        <ele>826.5</ele>
        <time>2021-10-14T08:25:42Z</time>
      </trkpt>
      <trkpt lat="46.53081" lon="5.99112">
        <ele>825.7</ele>
        <time>2021-10-14T08:25:46Z</time>
      </trkpt>
      <trkpt lat="46.53078" lon="5.99107">
        <ele>824.8</ele>
        <time>2021-10-14T08:25:50Z</time>
      </trkpt>
      <trkpt lat="46.53074" lon="5.99102">
        <ele>823.9</ele>
        <time>2021-10-14T08:25:55Z</time>
      </trkpt>
      <trkpt lat="46.53069" lon="5.99098">
        <ele>822.3</ele>
        <time>2021-10-14T08:26:02Z</time>
      </trkpt>
      <trkpt lat="46.53064" lon="5.99098">
        <ele>820.6</ele>
        <time>2021-10-14T08:26:08Z</time>
      </trkpt>
      <trkpt lat="46.5306" lon="5.99103">
        <ele>819.7</ele>
        <time>2021-10-14T08:26:13Z</time>
      </trkpt>
      <trkpt lat="46.53055" lon="5.99103">
        <ele>818</ele>
        <time>2021-10-14T08:26:24Z</time>
      </trkpt>
      <trkpt lat="46.5305" lon="5.99104">
        <ele>817.8</ele>
        <time>2021-10-14T08:26:30Z</time>
      </trkpt>
      <trkpt lat="46.53044" lon="5.99102">
        <ele>817.8</ele>
        <time>2021-10-14T08:26:35Z</time>
      </trkpt>
      <trkpt lat="46.5304" lon="5.99099">
        <ele>817.9</ele>
        <time>2021-10-14T08:26:38Z</time>
      </trkpt>
      <trkpt lat="46.53035" lon="5.99095">
        <ele>818.1</ele>
        <time>2021-10-14T08:26:42Z</time>
      </trkpt>
      <trkpt lat="46.5303" lon="5.99092">
        <ele>818.2</ele>
        <time>2021-10-14T08:26:47Z</time>
      </trkpt>
      <trkpt lat="46.53026" lon="5.99087">
        <ele>818.3</ele>
        <time>2021-10-14T08:26:54Z</time>
      </trkpt>
      <trkpt lat="46.53022" lon="5.99083">
        <ele>818.3</ele>
        <time>2021-10-14T08:26:59Z</time>
      </trkpt>
      <trkpt lat="46.53018" lon="5.99081">
        <ele>818.7</ele>
        <time>2021-10-14T08:27:03Z</time>
      </trkpt>
      <trkpt lat="46.53013" lon="5.99078">
        <ele>819.2</ele>
        <time>2021-10-14T08:27:08Z</time>
      </trkpt>
      <trkpt lat="46.53008" lon="5.99075">
        <ele>819.7</ele>
        <time>2021-10-14T08:27:13Z</time>
      </trkpt>
      <trkpt lat="46.53004" lon="5.9907">
        <ele>819.9</ele>
        <time>2021-10-14T08:27:19Z</time>
      </trkpt>
      <trkpt lat="46.53002" lon="5.99064">
        <ele>819.9</ele>
        <time>2021-10-14T08:27:23Z</time>
      </trkpt>
      <trkpt lat="46.52998" lon="5.99059">
        <ele>819.8</ele>
        <time>2021-10-14T08:27:28Z</time>
      </trkpt>
      <trkpt lat="46.52996" lon="5.99053">
        <ele>819.6</ele>
        <time>2021-10-14T08:27:33Z</time>
      </trkpt>
      <trkpt lat="46.52995" lon="5.99046">
        <ele>819.7</ele>
        <time>2021-10-14T08:27:39Z</time>
      </trkpt>
      <trkpt lat="46.5299" lon="5.99044">
        <ele>819.9</ele>
        <time>2021-10-14T08:27:46Z</time>
      </trkpt>
      <trkpt lat="46.52985" lon="5.99043">
        <ele>820.3</ele>
        <time>2021-10-14T08:27:56Z</time>
      </trkpt>
      <trkpt lat="46.5298" lon="5.99041">
        <ele>820.6</ele>
        <time>2021-10-14T08:28:00Z</time>
      </trkpt>
      <trkpt lat="46.52977" lon="5.99035">
        <ele>820.8</ele>
        <time>2021-10-14T08:28:04Z</time>
      </trkpt>
      <trkpt lat="46.52974" lon="5.99029">
        <ele>820.8</ele>
        <time>2021-10-14T08:28:07Z</time>
      </trkpt>
      <trkpt lat="46.52969" lon="5.99024">
        <ele>820.7</ele>
        <time>2021-10-14T08:28:11Z</time>
      </trkpt>
      <trkpt lat="46.52964" lon="5.99019">
        <ele>820.7</ele>
        <time>2021-10-14T08:28:16Z</time>
      </trkpt>
      <trkpt lat="46.52961" lon="5.99013">
        <ele>821.4</ele>
        <time>2021-10-14T08:28:20Z</time>
      </trkpt>
      <trkpt lat="46.52958" lon="5.99007">
        <ele>822.9</ele>
        <time>2021-10-14T08:28:25Z</time>
      </trkpt>
      <trkpt lat="46.52954" lon="5.99002">
        <ele>824.5</ele>
        <time>2021-10-14T08:28:32Z</time>
      </trkpt>
      <trkpt lat="46.5295" lon="5.99">
        <ele>825.3</ele>
        <time>2021-10-14T08:28:42Z</time>
      </trkpt>
      <trkpt lat="46.52947" lon="5.98993">
        <ele>827.2</ele>
        <time>2021-10-14T08:28:55Z</time>
      </trkpt>
      <trkpt lat="46.52944" lon="5.98988">
        <ele>828.2</ele>
        <time>2021-10-14T08:28:59Z</time>
      </trkpt>
      <trkpt lat="46.5294" lon="5.98982">
        <ele>829</ele>
        <time>2021-10-14T08:29:04Z</time>
      </trkpt>
      <trkpt lat="46.52937" lon="5.98978">
        <ele>829.5</ele>
        <time>2021-10-14T08:29:08Z</time>
      </trkpt>
      <trkpt lat="46.52934" lon="5.98973">
        <ele>830</ele>
        <time>2021-10-14T08:29:13Z</time>
      </trkpt>
      <trkpt lat="46.52931" lon="5.98967">
        <ele>830.5</ele>
        <time>2021-10-14T08:29:19Z</time>
      </trkpt>
      <trkpt lat="46.52929" lon="5.98961">
        <ele>830.8</ele>
        <time>2021-10-14T08:29:28Z</time>
      </trkpt>
      <trkpt lat="46.52925" lon="5.98957">
        <ele>830.6</ele>
        <time>2021-10-14T08:29:31Z</time>
      </trkpt>
      <trkpt lat="46.52921" lon="5.98954">
        <ele>830.8</ele>
        <time>2021-10-14T08:29:35Z</time>
      </trkpt>
      <trkpt lat="46.52921" lon="5.98947">
        <ele>829.6</ele>
        <time>2021-10-14T08:29:48Z</time>
      </trkpt>
      <trkpt lat="46.52917" lon="5.98943">
        <ele>829.1</ele>
        <time>2021-10-14T08:29:55Z</time>
      </trkpt>
      <trkpt lat="46.52914" lon="5.98939">
        <ele>829.6</ele>
        <time>2021-10-14T08:29:58Z</time>
      </trkpt>
      <trkpt lat="46.52908" lon="5.98932">
        <ele>830.9</ele>
        <time>2021-10-14T08:30:01Z</time>
      </trkpt>
      <trkpt lat="46.52904" lon="5.98924">
        <ele>833.4</ele>
        <time>2021-10-14T08:30:04Z</time>
      </trkpt>
      <trkpt lat="46.529" lon="5.98914">
        <ele>836.7</ele>
        <time>2021-10-14T08:30:07Z</time>
      </trkpt>
      <trkpt lat="46.52897" lon="5.98908">
        <ele>840.6</ele>
        <time>2021-10-14T08:30:10Z</time>
      </trkpt>
      <trkpt lat="46.52893" lon="5.98903">
        <ele>845.1</ele>
        <time>2021-10-14T08:30:14Z</time>
      </trkpt>
      <trkpt lat="46.5289" lon="5.98897">
        <ele>849.4</ele>
        <time>2021-10-14T08:30:19Z</time>
      </trkpt>
      <trkpt lat="46.52887" lon="5.98892">
        <ele>853</ele>
        <time>2021-10-14T08:30:25Z</time>
      </trkpt>
      <trkpt lat="46.52882" lon="5.98889">
        <ele>855.3</ele>
        <time>2021-10-14T08:30:30Z</time>
      </trkpt>
      <trkpt lat="46.52877" lon="5.98885">
        <ele>857.2</ele>
        <time>2021-10-14T08:30:35Z</time>
      </trkpt>
      <trkpt lat="46.52873" lon="5.98882">
        <ele>858.8</ele>
        <time>2021-10-14T08:30:39Z</time>
      </trkpt>
      <trkpt lat="46.52868" lon="5.9888">
        <ele>860.1</ele>
        <time>2021-10-14T08:30:44Z</time>
      </trkpt>
      <trkpt lat="46.52863" lon="5.98877">
        <ele>861</ele>
        <time>2021-10-14T08:30:49Z</time>
      </trkpt>
      <trkpt lat="46.52859" lon="5.98873">
        <ele>861.8</ele>
        <time>2021-10-14T08:30:54Z</time>
      </trkpt>
      <trkpt lat="46.52854" lon="5.98869">
        <ele>862.4</ele>
        <time>2021-10-14T08:30:59Z</time>
      </trkpt>
      <trkpt lat="46.5285" lon="5.98865">
        <ele>862.6</ele>
        <time>2021-10-14T08:31:05Z</time>
      </trkpt>
      <trkpt lat="46.52846" lon="5.9886">
        <ele>862.6</ele>
        <time>2021-10-14T08:31:10Z</time>
      </trkpt>
      <trkpt lat="46.52842" lon="5.98856">
        <ele>862.4</ele>
        <time>2021-10-14T08:31:15Z</time>
      </trkpt>
      <trkpt lat="46.52838" lon="5.98852">
        <ele>862.1</ele>
        <time>2021-10-14T08:31:19Z</time>
      </trkpt>
      <trkpt lat="46.52834" lon="5.98848">
        <ele>861.1</ele>
        <time>2021-10-14T08:31:24Z</time>
      </trkpt>
      <trkpt lat="46.5283" lon="5.98844">
        <ele>860.1</ele>
        <time>2021-10-14T08:31:29Z</time>
      </trkpt>
      <trkpt lat="46.52825" lon="5.98841">
        <ele>859.7</ele>
        <time>2021-10-14T08:31:33Z</time>
      </trkpt>
      <trkpt lat="46.52821" lon="5.98837">
        <ele>859.1</ele>
        <time>2021-10-14T08:31:39Z</time>
      </trkpt>
      <trkpt lat="46.52816" lon="5.98834">
        <ele>858.6</ele>
        <time>2021-10-14T08:31:45Z</time>
      </trkpt>
      <trkpt lat="46.52812" lon="5.98831">
        <ele>858.5</ele>
        <time>2021-10-14T08:31:52Z</time>
      </trkpt>
      <trkpt lat="46.52808" lon="5.98826">
        <ele>858.2</ele>
        <time>2021-10-14T08:31:58Z</time>
      </trkpt>
      <trkpt lat="46.52804" lon="5.98821">
        <ele>857.8</ele>
        <time>2021-10-14T08:32:03Z</time>
      </trkpt>
      <trkpt lat="46.528" lon="5.98816">
        <ele>857.6</ele>
        <time>2021-10-14T08:32:08Z</time>
      </trkpt>
      <trkpt lat="46.52798" lon="5.9881">
        <ele>858.1</ele>
        <time>2021-10-14T08:32:14Z</time>
      </trkpt>
      <trkpt lat="46.52794" lon="5.98805">
        <ele>857.9</ele>
        <time>2021-10-14T08:32:20Z</time>
      </trkpt>
      <trkpt lat="46.52791" lon="5.98799">
        <ele>857.4</ele>
        <time>2021-10-14T08:32:25Z</time>
      </trkpt>
      <trkpt lat="46.52788" lon="5.98793">
        <ele>857.1</ele>
        <time>2021-10-14T08:32:30Z</time>
      </trkpt>
      <trkpt lat="46.52786" lon="5.98787">
        <ele>857.2</ele>
        <time>2021-10-14T08:32:35Z</time>
      </trkpt>
      <trkpt lat="46.52783" lon="5.98781">
        <ele>857.3</ele>
        <time>2021-10-14T08:32:40Z</time>
      </trkpt>
      <trkpt lat="46.5278" lon="5.98775">
        <ele>857.5</ele>
        <time>2021-10-14T08:32:45Z</time>
      </trkpt>
      <trkpt lat="46.52778" lon="5.98769">
        <ele>857</ele>
        <time>2021-10-14T08:32:52Z</time>
      </trkpt>
      <trkpt lat="46.52777" lon="5.98761">
        <ele>856.6</ele>
        <time>2021-10-14T08:32:58Z</time>
      </trkpt>
      <trkpt lat="46.52776" lon="5.98754">
        <ele>856.3</ele>
        <time>2021-10-14T08:33:02Z</time>
      </trkpt>
      <trkpt lat="46.52774" lon="5.98746">
        <ele>856.4</ele>
        <time>2021-10-14T08:33:06Z</time>
      </trkpt>
      <trkpt lat="46.52773" lon="5.9874">
        <ele>856.4</ele>
        <time>2021-10-14T08:33:11Z</time>
      </trkpt>
      <trkpt lat="46.52773" lon="5.98733">
        <ele>856.4</ele>
        <time>2021-10-14T08:33:16Z</time>
      </trkpt>
      <trkpt lat="46.52773" lon="5.98725">
        <ele>856.4</ele>
        <time>2021-10-14T08:33:21Z</time>
      </trkpt>
      <trkpt lat="46.52771" lon="5.98718">
        <ele>856.6</ele>
        <time>2021-10-14T08:33:27Z</time>
      </trkpt>
      <trkpt lat="46.52768" lon="5.98712">
        <ele>856.5</ele>
        <time>2021-10-14T08:33:32Z</time>
      </trkpt>
      <trkpt lat="46.52765" lon="5.98706">
        <ele>855.9</ele>
        <time>2021-10-14T08:33:36Z</time>
      </trkpt>
      <trkpt lat="46.52763" lon="5.98699">
        <ele>855.2</ele>
        <time>2021-10-14T08:33:40Z</time>
      </trkpt>
      <trkpt lat="46.52763" lon="5.98693">
        <ele>854.3</ele>
        <time>2021-10-14T08:33:46Z</time>
      </trkpt>
      <trkpt lat="46.5276" lon="5.98687">
        <ele>853.8</ele>
        <time>2021-10-14T08:33:56Z</time>
      </trkpt>
      <trkpt lat="46.52759" lon="5.9868">
        <ele>854</ele>
        <time>2021-10-14T08:34:01Z</time>
      </trkpt>
      <trkpt lat="46.52757" lon="5.98671">
        <ele>854.5</ele>
        <time>2021-10-14T08:34:06Z</time>
      </trkpt>
      <trkpt lat="46.52756" lon="5.98665">
        <ele>855</ele>
        <time>2021-10-14T08:34:10Z</time>
      </trkpt>
      <trkpt lat="46.52754" lon="5.98658">
        <ele>855.7</ele>
        <time>2021-10-14T08:34:15Z</time>
      </trkpt>
      <trkpt lat="46.52751" lon="5.98651">
        <ele>856.3</ele>
        <time>2021-10-14T08:34:19Z</time>
      </trkpt>
      <trkpt lat="46.52748" lon="5.98646">
        <ele>856.9</ele>
        <time>2021-10-14T08:34:23Z</time>
      </trkpt>
      <trkpt lat="46.52746" lon="5.9864">
        <ele>857.6</ele>
        <time>2021-10-14T08:34:28Z</time>
      </trkpt>
      <trkpt lat="46.52745" lon="5.98634">
        <ele>858.3</ele>
        <time>2021-10-14T08:34:32Z</time>
      </trkpt>
      <trkpt lat="46.52742" lon="5.98627">
        <ele>859.3</ele>
        <time>2021-10-14T08:34:36Z</time>
      </trkpt>
      <trkpt lat="46.52738" lon="5.98624">
        <ele>860.7</ele>
        <time>2021-10-14T08:34:43Z</time>
      </trkpt>
      <trkpt lat="46.52733" lon="5.98622">
        <ele>862.2</ele>
        <time>2021-10-14T08:34:50Z</time>
      </trkpt>
      <trkpt lat="46.52728" lon="5.98621">
        <ele>863.6</ele>
        <time>2021-10-14T08:34:58Z</time>
      </trkpt>
      <trkpt lat="46.52723" lon="5.98618">
        <ele>864.6</ele>
        <time>2021-10-14T08:35:05Z</time>
      </trkpt>
      <trkpt lat="46.52719" lon="5.98614">
        <ele>865.1</ele>
        <time>2021-10-14T08:35:09Z</time>
      </trkpt>
      <trkpt lat="46.52715" lon="5.9861">
        <ele>864.9</ele>
        <time>2021-10-14T08:35:13Z</time>
      </trkpt>
      <trkpt lat="46.5271" lon="5.98605">
        <ele>863.9</ele>
        <time>2021-10-14T08:35:18Z</time>
      </trkpt>
      <trkpt lat="46.52708" lon="5.98598">
        <ele>860.6</ele>
        <time>2021-10-14T08:35:27Z</time>
      </trkpt>
      <trkpt lat="46.52704" lon="5.98593">
        <ele>858.6</ele>
        <time>2021-10-14T08:35:56Z</time>
      </trkpt>
      <trkpt lat="46.527" lon="5.98591">
        <ele>858.2</ele>
        <time>2021-10-14T08:36:01Z</time>
      </trkpt>
      <trkpt lat="46.52695" lon="5.98588">
        <ele>858.1</ele>
        <time>2021-10-14T08:36:06Z</time>
      </trkpt>
      <trkpt lat="46.5269" lon="5.98585">
        <ele>858.4</ele>
        <time>2021-10-14T08:36:11Z</time>
      </trkpt>
      <trkpt lat="46.52686" lon="5.98582">
        <ele>859</ele>
        <time>2021-10-14T08:36:17Z</time>
      </trkpt>
      <trkpt lat="46.52681" lon="5.9858">
        <ele>859.5</ele>
        <time>2021-10-14T08:36:23Z</time>
      </trkpt>
      <trkpt lat="46.52676" lon="5.98578">
        <ele>859.5</ele>
        <time>2021-10-14T08:36:28Z</time>
      </trkpt>
      <trkpt lat="46.52671" lon="5.98576">
        <ele>859.3</ele>
        <time>2021-10-14T08:36:32Z</time>
      </trkpt>
      <trkpt lat="46.52667" lon="5.98574">
        <ele>859.4</ele>
        <time>2021-10-14T08:36:37Z</time>
      </trkpt>
      <trkpt lat="46.52662" lon="5.98571">
        <ele>859.2</ele>
        <time>2021-10-14T08:36:42Z</time>
      </trkpt>
      <trkpt lat="46.52658" lon="5.98569">
        <ele>858.7</ele>
        <time>2021-10-14T08:36:46Z</time>
      </trkpt>
      <trkpt lat="46.52653" lon="5.98567">
        <ele>858</ele>
        <time>2021-10-14T08:36:51Z</time>
      </trkpt>
      <trkpt lat="46.52648" lon="5.98564">
        <ele>857.5</ele>
        <time>2021-10-14T08:36:55Z</time>
      </trkpt>
      <trkpt lat="46.52644" lon="5.9856">
        <ele>856.8</ele>
        <time>2021-10-14T08:36:59Z</time>
      </trkpt>
      <trkpt lat="46.52639" lon="5.98559">
        <ele>855.4</ele>
        <time>2021-10-14T08:37:04Z</time>
      </trkpt>
      <trkpt lat="46.52634" lon="5.98556">
        <ele>854.4</ele>
        <time>2021-10-14T08:37:08Z</time>
      </trkpt>
      <trkpt lat="46.5263" lon="5.98554">
        <ele>853.7</ele>
        <time>2021-10-14T08:37:13Z</time>
      </trkpt>
      <trkpt lat="46.52625" lon="5.98551">
        <ele>853.9</ele>
        <time>2021-10-14T08:37:19Z</time>
      </trkpt>
      <trkpt lat="46.52621" lon="5.98548">
        <ele>853.8</ele>
        <time>2021-10-14T08:37:25Z</time>
      </trkpt>
      <trkpt lat="46.52616" lon="5.98546">
        <ele>853.5</ele>
        <time>2021-10-14T08:37:30Z</time>
      </trkpt>
      <trkpt lat="46.52611" lon="5.98543">
        <ele>853.3</ele>
        <time>2021-10-14T08:37:35Z</time>
      </trkpt>
      <trkpt lat="46.52607" lon="5.9854">
        <ele>852.8</ele>
        <time>2021-10-14T08:37:40Z</time>
      </trkpt>
      <trkpt lat="46.52602" lon="5.98537">
        <ele>852.4</ele>
        <time>2021-10-14T08:37:45Z</time>
      </trkpt>
      <trkpt lat="46.52599" lon="5.98532">
        <ele>851.6</ele>
        <time>2021-10-14T08:37:50Z</time>
      </trkpt>
      <trkpt lat="46.52595" lon="5.98526">
        <ele>850.9</ele>
        <time>2021-10-14T08:37:55Z</time>
      </trkpt>
      <trkpt lat="46.52592" lon="5.98522">
        <ele>850.3</ele>
        <time>2021-10-14T08:38:00Z</time>
      </trkpt>
      <trkpt lat="46.52587" lon="5.98518">
        <ele>849.3</ele>
        <time>2021-10-14T08:38:06Z</time>
      </trkpt>
      <trkpt lat="46.52583" lon="5.98515">
        <ele>848.4</ele>
        <time>2021-10-14T08:38:10Z</time>
      </trkpt>
      <trkpt lat="46.52579" lon="5.98511">
        <ele>847.7</ele>
        <time>2021-10-14T08:38:15Z</time>
      </trkpt>
      <trkpt lat="46.52575" lon="5.98507">
        <ele>846.9</ele>
        <time>2021-10-14T08:38:20Z</time>
      </trkpt>
      <trkpt lat="46.52572" lon="5.98502">
        <ele>846.1</ele>
        <time>2021-10-14T08:38:25Z</time>
      </trkpt>
      <trkpt lat="46.52568" lon="5.98497">
        <ele>844.9</ele>
        <time>2021-10-14T08:38:29Z</time>
      </trkpt>
      <trkpt lat="46.52564" lon="5.98494">
        <ele>842.9</ele>
        <time>2021-10-14T08:38:36Z</time>
      </trkpt>
      <trkpt lat="46.52559" lon="5.98492">
        <ele>842.5</ele>
        <time>2021-10-14T08:38:42Z</time>
      </trkpt>
      <trkpt lat="46.52554" lon="5.98491">
        <ele>843.4</ele>
        <time>2021-10-14T08:38:48Z</time>
      </trkpt>
      <trkpt lat="46.5255" lon="5.9849">
        <ele>845.1</ele>
        <time>2021-10-14T08:38:57Z</time>
      </trkpt>
      <trkpt lat="46.52545" lon="5.98489">
        <ele>845.7</ele>
        <time>2021-10-14T08:39:03Z</time>
      </trkpt>
      <trkpt lat="46.5254" lon="5.98489">
        <ele>845.7</ele>
        <time>2021-10-14T08:39:09Z</time>
      </trkpt>
      <trkpt lat="46.52535" lon="5.98487">
        <ele>845.7</ele>
        <time>2021-10-14T08:39:14Z</time>
      </trkpt>
      <trkpt lat="46.5253" lon="5.98486">
        <ele>845.6</ele>
        <time>2021-10-14T08:39:19Z</time>
      </trkpt>
      <trkpt lat="46.52525" lon="5.98484">
        <ele>845.2</ele>
        <time>2021-10-14T08:39:24Z</time>
      </trkpt>
      <trkpt lat="46.5252" lon="5.98481">
        <ele>844.6</ele>
        <time>2021-10-14T08:39:28Z</time>
      </trkpt>
      <trkpt lat="46.52515" lon="5.98477">
        <ele>844.1</ele>
        <time>2021-10-14T08:39:32Z</time>
      </trkpt>
      <trkpt lat="46.5251" lon="5.98474">
        <ele>843</ele>
        <time>2021-10-14T08:39:37Z</time>
      </trkpt>
      <trkpt lat="46.52506" lon="5.98473">
        <ele>842.3</ele>
        <time>2021-10-14T08:39:42Z</time>
      </trkpt>
      <trkpt lat="46.52503" lon="5.98465">
        <ele>840.9</ele>
        <time>2021-10-14T08:39:47Z</time>
      </trkpt>
      <trkpt lat="46.52499" lon="5.98461">
        <ele>839.5</ele>
        <time>2021-10-14T08:39:51Z</time>
      </trkpt>
      <trkpt lat="46.52494" lon="5.98459">
        <ele>838.2</ele>
        <time>2021-10-14T08:39:55Z</time>
      </trkpt>
      <trkpt lat="46.5249" lon="5.98457">
        <ele>837.7</ele>
        <time>2021-10-14T08:39:59Z</time>
      </trkpt>
      <trkpt lat="46.52485" lon="5.98454">
        <ele>837.5</ele>
        <time>2021-10-14T08:40:03Z</time>
      </trkpt>
      <trkpt lat="46.52481" lon="5.98454">
        <ele>837.2</ele>
        <time>2021-10-14T08:40:07Z</time>
      </trkpt>
      <trkpt lat="46.52476" lon="5.98454">
        <ele>836.9</ele>
        <time>2021-10-14T08:40:11Z</time>
      </trkpt>
      <trkpt lat="46.52471" lon="5.98452">
        <ele>836.8</ele>
        <time>2021-10-14T08:40:15Z</time>
      </trkpt>
      <trkpt lat="46.52467" lon="5.98448">
        <ele>837</ele>
        <time>2021-10-14T08:40:19Z</time>
      </trkpt>
      <trkpt lat="46.52464" lon="5.98444">
        <ele>837</ele>
        <time>2021-10-14T08:40:23Z</time>
      </trkpt>
      <trkpt lat="46.5246" lon="5.98439">
        <ele>836.6</ele>
        <time>2021-10-14T08:40:28Z</time>
      </trkpt>
      <trkpt lat="46.52456" lon="5.98435">
        <ele>835.9</ele>
        <time>2021-10-14T08:40:32Z</time>
      </trkpt>
      <trkpt lat="46.52453" lon="5.98429">
        <ele>835</ele>
        <time>2021-10-14T08:40:38Z</time>
      </trkpt>
      <trkpt lat="46.52451" lon="5.98421">
        <ele>834.6</ele>
        <time>2021-10-14T08:40:44Z</time>
      </trkpt>
      <trkpt lat="46.52448" lon="5.98414">
        <ele>834.3</ele>
        <time>2021-10-14T08:40:49Z</time>
      </trkpt>
      <trkpt lat="46.52445" lon="5.98408">
        <ele>833.9</ele>
        <time>2021-10-14T08:40:53Z</time>
      </trkpt>
      <trkpt lat="46.52442" lon="5.98402">
        <ele>833.3</ele>
        <time>2021-10-14T08:40:57Z</time>
      </trkpt>
      <trkpt lat="46.52439" lon="5.98397">
        <ele>833.1</ele>
        <time>2021-10-14T08:41:02Z</time>
      </trkpt>
      <trkpt lat="46.52435" lon="5.98393">
        <ele>833.4</ele>
        <time>2021-10-14T08:41:06Z</time>
      </trkpt>
      <trkpt lat="46.52431" lon="5.98389">
        <ele>833.6</ele>
        <time>2021-10-14T08:41:12Z</time>
      </trkpt>
      <trkpt lat="46.52426" lon="5.98385">
        <ele>834</ele>
        <time>2021-10-14T08:41:19Z</time>
      </trkpt>
      <trkpt lat="46.52424" lon="5.98379">
        <ele>833.9</ele>
        <time>2021-10-14T08:41:26Z</time>
      </trkpt>
      <trkpt lat="46.52422" lon="5.98372">
        <ele>833.8</ele>
        <time>2021-10-14T08:41:31Z</time>
      </trkpt>
      <trkpt lat="46.52421" lon="5.98365">
        <ele>833.6</ele>
        <time>2021-10-14T08:41:37Z</time>
      </trkpt>
      <trkpt lat="46.52418" lon="5.98359">
        <ele>834</ele>
        <time>2021-10-14T08:41:44Z</time>
      </trkpt>
      <trkpt lat="46.52416" lon="5.98353">
        <ele>834.5</ele>
        <time>2021-10-14T08:41:50Z</time>
      </trkpt>
      <trkpt lat="46.52412" lon="5.98347">
        <ele>835</ele>
        <time>2021-10-14T08:41:56Z</time>
      </trkpt>
      <trkpt lat="46.5241" lon="5.9834">
        <ele>835.2</ele>
        <time>2021-10-14T08:42:01Z</time>
      </trkpt>
      <trkpt lat="46.52407" lon="5.98334">
        <ele>835.3</ele>
        <time>2021-10-14T08:42:06Z</time>
      </trkpt>
      <trkpt lat="46.52404" lon="5.98329">
        <ele>835.1</ele>
        <time>2021-10-14T08:42:11Z</time>
      </trkpt>
      <trkpt lat="46.52403" lon="5.98322">
        <ele>834.9</ele>
        <time>2021-10-14T08:42:15Z</time>
      </trkpt>
      <trkpt lat="46.52401" lon="5.98314">
        <ele>835.2</ele>
        <time>2021-10-14T08:42:19Z</time>
      </trkpt>
      <trkpt lat="46.52398" lon="5.98309">
        <ele>835.5</ele>
        <time>2021-10-14T08:42:25Z</time>
      </trkpt>
      <trkpt lat="46.52394" lon="5.98306">
        <ele>835.4</ele>
        <time>2021-10-14T08:42:33Z</time>
      </trkpt>
      <trkpt lat="46.52391" lon="5.98301">
        <ele>834.5</ele>
        <time>2021-10-14T08:42:42Z</time>
      </trkpt>
      <trkpt lat="46.52386" lon="5.98298">
        <ele>834.3</ele>
        <time>2021-10-14T08:42:51Z</time>
      </trkpt>
      <trkpt lat="46.52381" lon="5.98299">
        <ele>834.5</ele>
        <time>2021-10-14T08:42:57Z</time>
      </trkpt>
      <trkpt lat="46.52377" lon="5.98297">
        <ele>834.4</ele>
        <time>2021-10-14T08:43:01Z</time>
      </trkpt>
      <trkpt lat="46.52372" lon="5.98296">
        <ele>834.3</ele>
        <time>2021-10-14T08:43:05Z</time>
      </trkpt>
      <trkpt lat="46.52367" lon="5.98297">
        <ele>834.3</ele>
        <time>2021-10-14T08:43:08Z</time>
      </trkpt>
      <trkpt lat="46.52362" lon="5.98296">
        <ele>833.7</ele>
        <time>2021-10-14T08:43:12Z</time>
      </trkpt>
      <trkpt lat="46.52359" lon="5.98292">
        <ele>831.7</ele>
        <time>2021-10-14T08:43:18Z</time>
      </trkpt>
      <trkpt lat="46.52354" lon="5.98287">
        <ele>828.9</ele>
        <time>2021-10-14T08:43:25Z</time>
      </trkpt>
      <trkpt lat="46.5235" lon="5.98285">
        <ele>826.5</ele>
        <time>2021-10-14T08:43:31Z</time>
      </trkpt>
      <trkpt lat="46.52345" lon="5.98285">
        <ele>824.6</ele>
        <time>2021-10-14T08:43:36Z</time>
      </trkpt>
      <trkpt lat="46.5234" lon="5.98284">
        <ele>823.4</ele>
        <time>2021-10-14T08:43:41Z</time>
      </trkpt>
      <trkpt lat="46.52335" lon="5.98283">
        <ele>823.2</ele>
        <time>2021-10-14T08:43:47Z</time>
      </trkpt>
      <trkpt lat="46.5233" lon="5.98279">
        <ele>823.1</ele>
        <time>2021-10-14T08:43:52Z</time>
      </trkpt>
      <trkpt lat="46.52327" lon="5.98273">
        <ele>823.6</ele>
        <time>2021-10-14T08:43:57Z</time>
      </trkpt>
      <trkpt lat="46.52323" lon="5.98269">
        <ele>823.8</ele>
        <time>2021-10-14T08:44:02Z</time>
      </trkpt>
      <trkpt lat="46.52319" lon="5.98267">
        <ele>823.5</ele>
        <time>2021-10-14T08:44:08Z</time>
      </trkpt>
      <trkpt lat="46.52316" lon="5.98261">
        <ele>823</ele>
        <time>2021-10-14T08:44:14Z</time>
      </trkpt>
      <trkpt lat="46.52313" lon="5.98255">
        <ele>822.8</ele>
        <time>2021-10-14T08:44:18Z</time>
      </trkpt>
      <trkpt lat="46.5231" lon="5.9825">
        <ele>822.9</ele>
        <time>2021-10-14T08:44:22Z</time>
      </trkpt>
      <trkpt lat="46.52306" lon="5.98245">
        <ele>822.8</ele>
        <time>2021-10-14T08:44:27Z</time>
      </trkpt>
      <trkpt lat="46.52303" lon="5.9824">
        <ele>822.7</ele>
        <time>2021-10-14T08:44:32Z</time>
      </trkpt>
      <trkpt lat="46.52299" lon="5.98235">
        <ele>821.9</ele>
        <time>2021-10-14T08:44:38Z</time>
      </trkpt>
      <trkpt lat="46.52297" lon="5.98229">
        <ele>821.2</ele>
        <time>2021-10-14T08:44:43Z</time>
      </trkpt>
      <trkpt lat="46.52293" lon="5.98224">
        <ele>821.1</ele>
        <time>2021-10-14T08:44:47Z</time>
      </trkpt>
      <trkpt lat="46.52289" lon="5.98219">
        <ele>821.3</ele>
        <time>2021-10-14T08:44:51Z</time>
      </trkpt>
      <trkpt lat="46.52287" lon="5.98211">
        <ele>821</ele>
        <time>2021-10-14T08:44:54Z</time>
      </trkpt>
      <trkpt lat="46.52285" lon="5.98204">
        <ele>820.5</ele>
        <time>2021-10-14T08:44:57Z</time>
      </trkpt>
      <trkpt lat="46.52281" lon="5.98199">
        <ele>819.9</ele>
        <time>2021-10-14T08:45:01Z</time>
      </trkpt>
      <trkpt lat="46.52278" lon="5.98194">
        <ele>819.4</ele>
        <time>2021-10-14T08:45:06Z</time>
      </trkpt>
      <trkpt lat="46.52276" lon="5.98188">
        <ele>818.7</ele>
        <time>2021-10-14T08:45:11Z</time>
      </trkpt>
      <trkpt lat="46.52273" lon="5.98182">
        <ele>817.1</ele>
        <time>2021-10-14T08:45:17Z</time>
      </trkpt>
      <trkpt lat="46.5227" lon="5.98177">
        <ele>816.2</ele>
        <time>2021-10-14T08:45:22Z</time>
      </trkpt>
      <trkpt lat="46.52266" lon="5.98171">
        <ele>816.4</ele>
        <time>2021-10-14T08:45:27Z</time>
      </trkpt>
      <trkpt lat="46.52261" lon="5.9817">
        <ele>817.8</ele>
        <time>2021-10-14T08:45:33Z</time>
      </trkpt>
      <trkpt lat="46.52257" lon="5.98168">
        <ele>826.8</ele>
        <time>2021-10-14T08:46:00Z</time>
      </trkpt>
      <trkpt lat="46.52252" lon="5.98165">
        <ele>828.1</ele>
        <time>2021-10-14T08:46:05Z</time>
      </trkpt>
      <trkpt lat="46.52249" lon="5.98161">
        <ele>828.4</ele>
        <time>2021-10-14T08:46:09Z</time>
      </trkpt>
      <trkpt lat="46.52244" lon="5.98159">
        <ele>828</ele>
        <time>2021-10-14T08:46:16Z</time>
      </trkpt>
      <trkpt lat="46.5224" lon="5.98155">
        <ele>826.6</ele>
        <time>2021-10-14T08:46:23Z</time>
      </trkpt>
      <trkpt lat="46.52235" lon="5.98152">
        <ele>825.9</ele>
        <time>2021-10-14T08:46:28Z</time>
      </trkpt>
      <trkpt lat="46.5223" lon="5.9815">
        <ele>825.3</ele>
        <time>2021-10-14T08:46:33Z</time>
      </trkpt>
      <trkpt lat="46.52226" lon="5.98149">
        <ele>824.4</ele>
        <time>2021-10-14T08:46:40Z</time>
      </trkpt>
      <trkpt lat="46.52221" lon="5.98145">
        <ele>824</ele>
        <time>2021-10-14T08:46:46Z</time>
      </trkpt>
      <trkpt lat="46.52216" lon="5.98141">
        <ele>823.2</ele>
        <time>2021-10-14T08:46:51Z</time>
      </trkpt>
      <trkpt lat="46.52212" lon="5.98138">
        <ele>823</ele>
        <time>2021-10-14T08:46:57Z</time>
      </trkpt>
      <trkpt lat="46.52207" lon="5.98135">
        <ele>823.2</ele>
        <time>2021-10-14T08:47:04Z</time>
      </trkpt>
      <trkpt lat="46.52202" lon="5.98131">
        <ele>823.4</ele>
        <time>2021-10-14T08:47:10Z</time>
      </trkpt>
      <trkpt lat="46.522" lon="5.98125">
        <ele>823.6</ele>
        <time>2021-10-14T08:47:15Z</time>
      </trkpt>
      <trkpt lat="46.52196" lon="5.98122">
        <ele>824</ele>
        <time>2021-10-14T08:47:18Z</time>
      </trkpt>
      <trkpt lat="46.52192" lon="5.98117">
        <ele>824.4</ele>
        <time>2021-10-14T08:47:24Z</time>
      </trkpt>
      <trkpt lat="46.52189" lon="5.98113">
        <ele>826.2</ele>
        <time>2021-10-14T08:47:44Z</time>
      </trkpt>
      <trkpt lat="46.52186" lon="5.98106">
        <ele>826.3</ele>
        <time>2021-10-14T08:47:53Z</time>
      </trkpt>
      <trkpt lat="46.52186" lon="5.98099">
        <ele>828.7</ele>
        <time>2021-10-14T08:48:11Z</time>
      </trkpt>
      <trkpt lat="46.52183" lon="5.98092">
        <ele>830.5</ele>
        <time>2021-10-14T08:48:16Z</time>
      </trkpt>
      <trkpt lat="46.52179" lon="5.98087">
        <ele>831.9</ele>
        <time>2021-10-14T08:48:21Z</time>
      </trkpt>
      <trkpt lat="46.52175" lon="5.98082">
        <ele>832.8</ele>
        <time>2021-10-14T08:48:27Z</time>
      </trkpt>
      <trkpt lat="46.52172" lon="5.98078">
        <ele>833.2</ele>
        <time>2021-10-14T08:48:32Z</time>
      </trkpt>
      <trkpt lat="46.52168" lon="5.98072">
        <ele>833.5</ele>
        <time>2021-10-14T08:48:37Z</time>
      </trkpt>
      <trkpt lat="46.52167" lon="5.98065">
        <ele>833.7</ele>
        <time>2021-10-14T08:48:43Z</time>
      </trkpt>
      <trkpt lat="46.52164" lon="5.9806">
        <ele>833.5</ele>
        <time>2021-10-14T08:48:50Z</time>
      </trkpt>
      <trkpt lat="46.52161" lon="5.98054">
        <ele>833.2</ele>
        <time>2021-10-14T08:49:02Z</time>
      </trkpt>
      <trkpt lat="46.52159" lon="5.98048">
        <ele>832.5</ele>
        <time>2021-10-14T08:49:16Z</time>
      </trkpt>
      <trkpt lat="46.52156" lon="5.98042">
        <ele>831.9</ele>
        <time>2021-10-14T08:49:20Z</time>
      </trkpt>
      <trkpt lat="46.52153" lon="5.98036">
        <ele>831.6</ele>
        <time>2021-10-14T08:49:26Z</time>
      </trkpt>
      <trkpt lat="46.52153" lon="5.98029">
        <ele>831.4</ele>
        <time>2021-10-14T08:49:37Z</time>
      </trkpt>
      <trkpt lat="46.52149" lon="5.98023">
        <ele>833.3</ele>
        <time>2021-10-14T08:49:52Z</time>
      </trkpt>
      <trkpt lat="46.52144" lon="5.98019">
        <ele>833.8</ele>
        <time>2021-10-14T08:49:55Z</time>
      </trkpt>
      <trkpt lat="46.5214" lon="5.98015">
        <ele>834.3</ele>
        <time>2021-10-14T08:50:01Z</time>
      </trkpt>
      <trkpt lat="46.52135" lon="5.98011">
        <ele>834.9</ele>
        <time>2021-10-14T08:50:07Z</time>
      </trkpt>
      <trkpt lat="46.52133" lon="5.98005">
        <ele>835.7</ele>
        <time>2021-10-14T08:50:16Z</time>
      </trkpt>
      <trkpt lat="46.52131" lon="5.97999">
        <ele>836.2</ele>
        <time>2021-10-14T08:50:24Z</time>
      </trkpt>
      <trkpt lat="46.52129" lon="5.97992">
        <ele>834.4</ele>
        <time>2021-10-14T08:50:46Z</time>
      </trkpt>
      <trkpt lat="46.52128" lon="5.97985">
        <ele>833.4</ele>
        <time>2021-10-14T08:50:52Z</time>
      </trkpt>
      <trkpt lat="46.52125" lon="5.97979">
        <ele>832.7</ele>
        <time>2021-10-14T08:50:56Z</time>
      </trkpt>
      <trkpt lat="46.52122" lon="5.97973">
        <ele>832.4</ele>
        <time>2021-10-14T08:51:00Z</time>
      </trkpt>
      <trkpt lat="46.52118" lon="5.97968">
        <ele>832.6</ele>
        <time>2021-10-14T08:51:04Z</time>
      </trkpt>
      <trkpt lat="46.52114" lon="5.97962">
        <ele>833.4</ele>
        <time>2021-10-14T08:51:08Z</time>
      </trkpt>
      <trkpt lat="46.52111" lon="5.97957">
        <ele>833.8</ele>
        <time>2021-10-14T08:51:12Z</time>
      </trkpt>
      <trkpt lat="46.52108" lon="5.97952">
        <ele>834.2</ele>
        <time>2021-10-14T08:51:16Z</time>
      </trkpt>
      <trkpt lat="46.52104" lon="5.97947">
        <ele>834.6</ele>
        <time>2021-10-14T08:51:20Z</time>
      </trkpt>
      <trkpt lat="46.52099" lon="5.97943">
        <ele>834.7</ele>
        <time>2021-10-14T08:51:25Z</time>
      </trkpt>
      <trkpt lat="46.52095" lon="5.97941">
        <ele>834.8</ele>
        <time>2021-10-14T08:51:29Z</time>
      </trkpt>
      <trkpt lat="46.52094" lon="5.97933">
        <ele>834.7</ele>
        <time>2021-10-14T08:51:36Z</time>
      </trkpt>
      <trkpt lat="46.52091" lon="5.97927">
        <ele>835</ele>
        <time>2021-10-14T08:51:40Z</time>
      </trkpt>
      <trkpt lat="46.52087" lon="5.97922">
        <ele>835.8</ele>
        <time>2021-10-14T08:51:44Z</time>
      </trkpt>
      <trkpt lat="46.52083" lon="5.97918">
        <ele>837.2</ele>
        <time>2021-10-14T08:51:49Z</time>
      </trkpt>
      <trkpt lat="46.52079" lon="5.97914">
        <ele>839</ele>
        <time>2021-10-14T08:51:55Z</time>
      </trkpt>
      <trkpt lat="46.52075" lon="5.9791">
        <ele>840.8</ele>
        <time>2021-10-14T08:52:03Z</time>
      </trkpt>
      <trkpt lat="46.52073" lon="5.97904">
        <ele>841.5</ele>
        <time>2021-10-14T08:52:09Z</time>
      </trkpt>
      <trkpt lat="46.52072" lon="5.97897">
        <ele>842</ele>
        <time>2021-10-14T08:52:13Z</time>
      </trkpt>
      <trkpt lat="46.5207" lon="5.9789">
        <ele>842.7</ele>
        <time>2021-10-14T08:52:18Z</time>
      </trkpt>
      <trkpt lat="46.52068" lon="5.97884">
        <ele>843.3</ele>
        <time>2021-10-14T08:52:22Z</time>
      </trkpt>
      <trkpt lat="46.52065" lon="5.97879">
        <ele>844.1</ele>
        <time>2021-10-14T08:52:26Z</time>
      </trkpt>
      <trkpt lat="46.52062" lon="5.97873">
        <ele>845.1</ele>
        <time>2021-10-14T08:52:31Z</time>
      </trkpt>
      <trkpt lat="46.52058" lon="5.97869">
        <ele>846.6</ele>
        <time>2021-10-14T08:52:37Z</time>
      </trkpt>
      <trkpt lat="46.52054" lon="5.97864">
        <ele>847.7</ele>
        <time>2021-10-14T08:52:42Z</time>
      </trkpt>
      <trkpt lat="46.5205" lon="5.97859">
        <ele>848.5</ele>
        <time>2021-10-14T08:52:47Z</time>
      </trkpt>
      <trkpt lat="46.52046" lon="5.97854">
        <ele>848.6</ele>
        <time>2021-10-14T08:52:54Z</time>
      </trkpt>
      <trkpt lat="46.52045" lon="5.97848">
        <ele>842.7</ele>
        <time>2021-10-14T08:53:50Z</time>
      </trkpt>
      <trkpt lat="46.52041" lon="5.97843">
        <ele>843.2</ele>
        <time>2021-10-14T08:53:59Z</time>
      </trkpt>
      <trkpt lat="46.52041" lon="5.97837">
        <ele>845.5</ele>
        <time>2021-10-14T08:54:09Z</time>
      </trkpt>
      <trkpt lat="46.52041" lon="5.97829">
        <ele>846.3</ele>
        <time>2021-10-14T08:54:14Z</time>
      </trkpt>
      <trkpt lat="46.52041" lon="5.97821">
        <ele>846.7</ele>
        <time>2021-10-14T08:54:18Z</time>
      </trkpt>
      <trkpt lat="46.52042" lon="5.97814">
        <ele>847</ele>
        <time>2021-10-14T08:54:21Z</time>
      </trkpt>
      <trkpt lat="46.52042" lon="5.97807">
        <ele>847.1</ele>
        <time>2021-10-14T08:54:24Z</time>
      </trkpt>
      <trkpt lat="46.52043" lon="5.978">
        <ele>847.1</ele>
        <time>2021-10-14T08:54:27Z</time>
      </trkpt>
      <trkpt lat="46.52042" lon="5.97792">
        <ele>847.5</ele>
        <time>2021-10-14T08:54:31Z</time>
      </trkpt>
      <trkpt lat="46.52042" lon="5.97785">
        <ele>847.9</ele>
        <time>2021-10-14T08:54:34Z</time>
      </trkpt>
      <trkpt lat="46.52042" lon="5.97777">
        <ele>848.9</ele>
        <time>2021-10-14T08:54:39Z</time>
      </trkpt>
      <trkpt lat="46.52043" lon="5.9777">
        <ele>849.7</ele>
        <time>2021-10-14T08:54:44Z</time>
      </trkpt>
      <trkpt lat="46.52044" lon="5.97763">
        <ele>850.2</ele>
        <time>2021-10-14T08:54:50Z</time>
      </trkpt>
      <trkpt lat="46.52045" lon="5.97755">
        <ele>850.5</ele>
        <time>2021-10-14T08:54:55Z</time>
      </trkpt>
      <trkpt lat="46.52046" lon="5.97748">
        <ele>849.7</ele>
        <time>2021-10-14T08:55:01Z</time>
      </trkpt>
      <trkpt lat="46.52047" lon="5.97741">
        <ele>849</ele>
        <time>2021-10-14T08:55:06Z</time>
      </trkpt>
      <trkpt lat="46.52046" lon="5.97734">
        <ele>849</ele>
        <time>2021-10-14T08:55:11Z</time>
      </trkpt>
      <trkpt lat="46.52048" lon="5.97727">
        <ele>848.1</ele>
        <time>2021-10-14T08:55:18Z</time>
      </trkpt>
      <trkpt lat="46.52047" lon="5.97721">
        <ele>847.6</ele>
        <time>2021-10-14T08:55:23Z</time>
      </trkpt>
      <trkpt lat="46.52045" lon="5.97715">
        <ele>847.8</ele>
        <time>2021-10-14T08:55:27Z</time>
      </trkpt>
      <trkpt lat="46.52043" lon="5.97709">
        <ele>848.4</ele>
        <time>2021-10-14T08:55:32Z</time>
      </trkpt>
      <trkpt lat="46.52041" lon="5.97703">
        <ele>849.2</ele>
        <time>2021-10-14T08:55:37Z</time>
      </trkpt>
      <trkpt lat="46.52039" lon="5.97696">
        <ele>850.3</ele>
        <time>2021-10-14T08:55:42Z</time>
      </trkpt>
      <trkpt lat="46.52039" lon="5.97689">
        <ele>853.4</ele>
        <time>2021-10-14T08:55:53Z</time>
      </trkpt>
      <trkpt lat="46.52037" lon="5.97683">
        <ele>856.6</ele>
        <time>2021-10-14T08:56:13Z</time>
      </trkpt>
      <trkpt lat="46.5204" lon="5.97678">
        <ele>860.9</ele>
        <time>2021-10-14T08:56:24Z</time>
      </trkpt>
      <trkpt lat="46.52044" lon="5.97674">
        <ele>860.9</ele>
        <time>2021-10-14T08:56:31Z</time>
      </trkpt>
      <trkpt lat="46.52047" lon="5.97669">
        <ele>860.4</ele>
        <time>2021-10-14T08:56:36Z</time>
      </trkpt>
      <trkpt lat="46.52052" lon="5.97667">
        <ele>860.6</ele>
        <time>2021-10-14T08:56:41Z</time>
      </trkpt>
      <trkpt lat="46.52053" lon="5.9766">
        <ele>860.7</ele>
        <time>2021-10-14T08:57:01Z</time>
      </trkpt>
      <trkpt lat="46.52058" lon="5.97661">
        <ele>861.2</ele>
        <time>2021-10-14T08:57:08Z</time>
      </trkpt>
      <trkpt lat="46.52063" lon="5.97666">
        <ele>861.4</ele>
        <time>2021-10-14T08:57:12Z</time>
      </trkpt>
      <trkpt lat="46.52066" lon="5.9767">
        <ele>861.4</ele>
        <time>2021-10-14T08:57:16Z</time>
      </trkpt>
      <trkpt lat="46.52071" lon="5.97673">
        <ele>861.4</ele>
        <time>2021-10-14T08:57:22Z</time>
      </trkpt>
      <trkpt lat="46.52074" lon="5.97677">
        <ele>861.9</ele>
        <time>2021-10-14T08:57:29Z</time>
      </trkpt>
      <trkpt lat="46.52078" lon="5.97682">
        <ele>862.4</ele>
        <time>2021-10-14T08:57:33Z</time>
      </trkpt>
      <trkpt lat="46.52081" lon="5.97687">
        <ele>863</ele>
        <time>2021-10-14T08:57:37Z</time>
      </trkpt>
      <trkpt lat="46.52086" lon="5.97691">
        <ele>863.8</ele>
        <time>2021-10-14T08:57:43Z</time>
      </trkpt>
      <trkpt lat="46.52091" lon="5.97694">
        <ele>863.4</ele>
        <time>2021-10-14T08:57:48Z</time>
      </trkpt>
      <trkpt lat="46.52094" lon="5.97699">
        <ele>863.7</ele>
        <time>2021-10-14T08:57:53Z</time>
      </trkpt>
      <trkpt lat="46.52098" lon="5.97702">
        <ele>864.4</ele>
        <time>2021-10-14T08:58:04Z</time>
      </trkpt>
      <trkpt lat="46.52103" lon="5.97704">
        <ele>864.4</ele>
        <time>2021-10-14T08:58:11Z</time>
      </trkpt>
      <trkpt lat="46.52108" lon="5.97707">
        <ele>865.2</ele>
        <time>2021-10-14T08:58:16Z</time>
      </trkpt>
      <trkpt lat="46.52112" lon="5.9771">
        <ele>866.4</ele>
        <time>2021-10-14T08:58:20Z</time>
      </trkpt>
      <trkpt lat="46.52118" lon="5.97713">
        <ele>867.9</ele>
        <time>2021-10-14T08:58:24Z</time>
      </trkpt>
      <trkpt lat="46.52122" lon="5.97713">
        <ele>869.1</ele>
        <time>2021-10-14T08:58:27Z</time>
      </trkpt>
      <trkpt lat="46.52127" lon="5.97715">
        <ele>870.3</ele>
        <time>2021-10-14T08:58:32Z</time>
      </trkpt>
      <trkpt lat="46.52132" lon="5.97715">
        <ele>870.8</ele>
        <time>2021-10-14T08:58:37Z</time>
      </trkpt>
      <trkpt lat="46.52137" lon="5.97714">
        <ele>870.9</ele>
        <time>2021-10-14T08:58:42Z</time>
      </trkpt>
      <trkpt lat="46.52141" lon="5.97712">
        <ele>871.2</ele>
        <time>2021-10-14T08:58:45Z</time>
      </trkpt>
      <trkpt lat="46.52146" lon="5.97711">
        <ele>871.6</ele>
        <time>2021-10-14T08:58:49Z</time>
      </trkpt>
      <trkpt lat="46.52151" lon="5.97711">
        <ele>872.3</ele>
        <time>2021-10-14T08:58:53Z</time>
      </trkpt>
      <trkpt lat="46.52156" lon="5.97711">
        <ele>873.2</ele>
        <time>2021-10-14T08:58:58Z</time>
      </trkpt>
      <trkpt lat="46.5216" lon="5.97711">
        <ele>875.2</ele>
        <time>2021-10-14T08:59:05Z</time>
      </trkpt>
      <trkpt lat="46.52165" lon="5.97709">
        <ele>876.2</ele>
        <time>2021-10-14T08:59:10Z</time>
      </trkpt>
      <trkpt lat="46.5217" lon="5.97707">
        <ele>877.3</ele>
        <time>2021-10-14T08:59:14Z</time>
      </trkpt>
      <trkpt lat="46.52176" lon="5.97705">
        <ele>879.2</ele>
        <time>2021-10-14T08:59:18Z</time>
      </trkpt>
      <trkpt lat="46.52181" lon="5.97704">
        <ele>881.2</ele>
        <time>2021-10-14T08:59:22Z</time>
      </trkpt>
      <trkpt lat="46.52185" lon="5.97702">
        <ele>883.4</ele>
        <time>2021-10-14T08:59:29Z</time>
      </trkpt>
      <trkpt lat="46.5219" lon="5.97699">
        <ele>884</ele>
        <time>2021-10-14T08:59:36Z</time>
      </trkpt>
      <trkpt lat="46.52195" lon="5.97695">
        <ele>884</ele>
        <time>2021-10-14T08:59:42Z</time>
      </trkpt>
      <trkpt lat="46.52198" lon="5.97691">
        <ele>883.7</ele>
        <time>2021-10-14T08:59:46Z</time>
      </trkpt>
      <trkpt lat="46.52202" lon="5.97686">
        <ele>882.7</ele>
        <time>2021-10-14T08:59:51Z</time>
      </trkpt>
      <trkpt lat="46.52202" lon="5.97679">
        <ele>880.4</ele>
        <time>2021-10-14T08:59:57Z</time>
      </trkpt>
      <trkpt lat="46.52204" lon="5.97672">
        <ele>879.4</ele>
        <time>2021-10-14T09:00:01Z</time>
      </trkpt>
      <trkpt lat="46.52206" lon="5.97665">
        <ele>879.4</ele>
        <time>2021-10-14T09:00:05Z</time>
      </trkpt>
      <trkpt lat="46.52208" lon="5.97657">
        <ele>879.8</ele>
        <time>2021-10-14T09:00:09Z</time>
      </trkpt>
      <trkpt lat="46.5221" lon="5.97651">
        <ele>880.3</ele>
        <time>2021-10-14T09:00:14Z</time>
      </trkpt>
      <trkpt lat="46.52213" lon="5.97645">
        <ele>880.8</ele>
        <time>2021-10-14T09:00:20Z</time>
      </trkpt>
      <trkpt lat="46.52215" lon="5.97639">
        <ele>880.7</ele>
        <time>2021-10-14T09:00:25Z</time>
      </trkpt>
      <trkpt lat="46.52217" lon="5.97633">
        <ele>880.2</ele>
        <time>2021-10-14T09:00:30Z</time>
      </trkpt>
      <trkpt lat="46.52221" lon="5.97626">
        <ele>880</ele>
        <time>2021-10-14T09:00:35Z</time>
      </trkpt>
      <trkpt lat="46.52224" lon="5.97621">
        <ele>881</ele>
        <time>2021-10-14T09:00:40Z</time>
      </trkpt>
      <trkpt lat="46.52228" lon="5.97619">
        <ele>882.6</ele>
        <time>2021-10-14T09:00:45Z</time>
      </trkpt>
      <trkpt lat="46.52233" lon="5.97621">
        <ele>884.6</ele>
        <time>2021-10-14T09:00:50Z</time>
      </trkpt>
      <trkpt lat="46.52237" lon="5.97625">
        <ele>886.1</ele>
        <time>2021-10-14T09:00:56Z</time>
      </trkpt>
      <trkpt lat="46.5224" lon="5.9763">
        <ele>887.4</ele>
        <time>2021-10-14T09:01:02Z</time>
      </trkpt>
      <trkpt lat="46.52243" lon="5.97636">
        <ele>887.9</ele>
        <time>2021-10-14T09:01:07Z</time>
      </trkpt>
      <trkpt lat="46.52246" lon="5.97641">
        <ele>888.2</ele>
        <time>2021-10-14T09:01:13Z</time>
      </trkpt>
      <trkpt lat="46.5225" lon="5.97645">
        <ele>888.1</ele>
        <time>2021-10-14T09:01:20Z</time>
      </trkpt>
      <trkpt lat="46.52254" lon="5.97649">
        <ele>888.6</ele>
        <time>2021-10-14T09:01:26Z</time>
      </trkpt>
      <trkpt lat="46.52259" lon="5.97653">
        <ele>888.9</ele>
        <time>2021-10-14T09:01:30Z</time>
      </trkpt>
      <trkpt lat="46.52262" lon="5.97658">
        <ele>889.1</ele>
        <time>2021-10-14T09:01:35Z</time>
      </trkpt>
      <trkpt lat="46.52265" lon="5.97665">
        <ele>889.2</ele>
        <time>2021-10-14T09:01:41Z</time>
      </trkpt>
      <trkpt lat="46.52269" lon="5.9767">
        <ele>889.8</ele>
        <time>2021-10-14T09:01:48Z</time>
      </trkpt>
      <trkpt lat="46.5227" lon="5.97677">
        <ele>890.2</ele>
        <time>2021-10-14T09:01:54Z</time>
      </trkpt>
      <trkpt lat="46.52272" lon="5.97684">
        <ele>890.5</ele>
        <time>2021-10-14T09:01:59Z</time>
      </trkpt>
      <trkpt lat="46.52275" lon="5.97691">
        <ele>891</ele>
        <time>2021-10-14T09:02:04Z</time>
      </trkpt>
      <trkpt lat="46.52277" lon="5.97698">
        <ele>891.5</ele>
        <time>2021-10-14T09:02:08Z</time>
      </trkpt>
      <trkpt lat="46.52278" lon="5.97706">
        <ele>892</ele>
        <time>2021-10-14T09:02:12Z</time>
      </trkpt>
      <trkpt lat="46.52281" lon="5.97713">
        <ele>892.5</ele>
        <time>2021-10-14T09:02:17Z</time>
      </trkpt>
      <trkpt lat="46.52283" lon="5.97719">
        <ele>892.7</ele>
        <time>2021-10-14T09:02:22Z</time>
      </trkpt>
      <trkpt lat="46.52286" lon="5.97725">
        <ele>892.3</ele>
        <time>2021-10-14T09:02:27Z</time>
      </trkpt>
      <trkpt lat="46.5229" lon="5.97729">
        <ele>892.5</ele>
        <time>2021-10-14T09:02:30Z</time>
      </trkpt>
      <trkpt lat="46.52295" lon="5.97733">
        <ele>893.6</ele>
        <time>2021-10-14T09:02:34Z</time>
      </trkpt>
      <trkpt lat="46.52299" lon="5.97736">
        <ele>894.9</ele>
        <time>2021-10-14T09:02:40Z</time>
      </trkpt>
      <trkpt lat="46.52303" lon="5.9774">
        <ele>895.1</ele>
        <time>2021-10-14T09:02:44Z</time>
      </trkpt>
      <trkpt lat="46.52306" lon="5.97746">
        <ele>895.7</ele>
        <time>2021-10-14T09:02:49Z</time>
      </trkpt>
      <trkpt lat="46.52307" lon="5.97754">
        <ele>895.7</ele>
        <time>2021-10-14T09:02:54Z</time>
      </trkpt>
      <trkpt lat="46.5231" lon="5.97759">
        <ele>895.3</ele>
        <time>2021-10-14T09:02:59Z</time>
      </trkpt>
      <trkpt lat="46.52315" lon="5.97762">
        <ele>894.5</ele>
        <time>2021-10-14T09:03:05Z</time>
      </trkpt>
      <trkpt lat="46.52319" lon="5.97761">
        <ele>894</ele>
        <time>2021-10-14T09:03:10Z</time>
      </trkpt>
      <trkpt lat="46.52324" lon="5.97763">
        <ele>893.1</ele>
        <time>2021-10-14T09:03:15Z</time>
      </trkpt>
      <trkpt lat="46.52328" lon="5.97766">
        <ele>893</ele>
        <time>2021-10-14T09:03:20Z</time>
      </trkpt>
      <trkpt lat="46.52333" lon="5.9777">
        <ele>893.4</ele>
        <time>2021-10-14T09:03:25Z</time>
      </trkpt>
      <trkpt lat="46.52337" lon="5.97774">
        <ele>893.6</ele>
        <time>2021-10-14T09:03:29Z</time>
      </trkpt>
      <trkpt lat="46.52339" lon="5.97781">
        <ele>893.6</ele>
        <time>2021-10-14T09:03:33Z</time>
      </trkpt>
      <trkpt lat="46.52342" lon="5.97787">
        <ele>893.7</ele>
        <time>2021-10-14T09:03:37Z</time>
      </trkpt>
      <trkpt lat="46.52345" lon="5.97793">
        <ele>893.7</ele>
        <time>2021-10-14T09:03:42Z</time>
      </trkpt>
      <trkpt lat="46.5235" lon="5.97798">
        <ele>894.5</ele>
        <time>2021-10-14T09:03:47Z</time>
      </trkpt>
      <trkpt lat="46.52354" lon="5.97801">
        <ele>896.1</ele>
        <time>2021-10-14T09:03:52Z</time>
      </trkpt>
      <trkpt lat="46.52358" lon="5.97807">
        <ele>897.5</ele>
        <time>2021-10-14T09:03:57Z</time>
      </trkpt>
      <trkpt lat="46.52361" lon="5.97813">
        <ele>897.4</ele>
        <time>2021-10-14T09:04:01Z</time>
      </trkpt>
      <trkpt lat="46.52365" lon="5.97818">
        <ele>896.7</ele>
        <time>2021-10-14T09:04:06Z</time>
      </trkpt>
      <trkpt lat="46.52369" lon="5.9782">
        <ele>896</ele>
        <time>2021-10-14T09:04:10Z</time>
      </trkpt>
      <trkpt lat="46.52374" lon="5.97824">
        <ele>895.2</ele>
        <time>2021-10-14T09:04:15Z</time>
      </trkpt>
      <trkpt lat="46.52378" lon="5.97828">
        <ele>895</ele>
        <time>2021-10-14T09:04:20Z</time>
      </trkpt>
      <trkpt lat="46.52382" lon="5.9783">
        <ele>895.1</ele>
        <time>2021-10-14T09:04:24Z</time>
      </trkpt>
      <trkpt lat="46.52387" lon="5.97834">
        <ele>895.3</ele>
        <time>2021-10-14T09:04:29Z</time>
      </trkpt>
      <trkpt lat="46.52392" lon="5.97837">
        <ele>895</ele>
        <time>2021-10-14T09:04:34Z</time>
      </trkpt>
      <trkpt lat="46.52396" lon="5.97839">
        <ele>894.7</ele>
        <time>2021-10-14T09:04:37Z</time>
      </trkpt>
      <trkpt lat="46.52401" lon="5.97842">
        <ele>894</ele>
        <time>2021-10-14T09:04:41Z</time>
      </trkpt>
      <trkpt lat="46.52405" lon="5.97846">
        <ele>893.3</ele>
        <time>2021-10-14T09:04:45Z</time>
      </trkpt>
      <trkpt lat="46.5241" lon="5.97847">
        <ele>891.8</ele>
        <time>2021-10-14T09:04:50Z</time>
      </trkpt>
      <trkpt lat="46.52415" lon="5.97848">
        <ele>890.2</ele>
        <time>2021-10-14T09:04:56Z</time>
      </trkpt>
      <trkpt lat="46.52418" lon="5.97852">
        <ele>889.7</ele>
        <time>2021-10-14T09:05:01Z</time>
      </trkpt>
      <trkpt lat="46.52423" lon="5.97854">
        <ele>889.6</ele>
        <time>2021-10-14T09:05:06Z</time>
      </trkpt>
      <trkpt lat="46.52428" lon="5.97854">
        <ele>889.6</ele>
        <time>2021-10-14T09:05:10Z</time>
      </trkpt>
      <trkpt lat="46.52433" lon="5.97855">
        <ele>889.1</ele>
        <time>2021-10-14T09:05:14Z</time>
      </trkpt>
      <trkpt lat="46.52437" lon="5.97858">
        <ele>888.2</ele>
        <time>2021-10-14T09:05:18Z</time>
      </trkpt>
      <trkpt lat="46.52442" lon="5.97862">
        <ele>885.9</ele>
        <time>2021-10-14T09:05:25Z</time>
      </trkpt>
      <trkpt lat="46.52447" lon="5.97864">
        <ele>884.6</ele>
        <time>2021-10-14T09:05:29Z</time>
      </trkpt>
      <trkpt lat="46.52452" lon="5.97865">
        <ele>884</ele>
        <time>2021-10-14T09:05:34Z</time>
      </trkpt>
      <trkpt lat="46.52457" lon="5.97863">
        <ele>884</ele>
        <time>2021-10-14T09:05:39Z</time>
      </trkpt>
      <trkpt lat="46.52461" lon="5.9786">
        <ele>883.9</ele>
        <time>2021-10-14T09:05:43Z</time>
      </trkpt>
      <trkpt lat="46.52465" lon="5.97855">
        <ele>883.6</ele>
        <time>2021-10-14T09:05:49Z</time>
      </trkpt>
      <trkpt lat="46.52467" lon="5.97848">
        <ele>883.6</ele>
        <time>2021-10-14T09:05:54Z</time>
      </trkpt>
      <trkpt lat="46.52464" lon="5.97841">
        <ele>884</ele>
        <time>2021-10-14T09:06:00Z</time>
      </trkpt>
      <trkpt lat="46.52461" lon="5.97836">
        <ele>884.9</ele>
        <time>2021-10-14T09:06:05Z</time>
      </trkpt>
      <trkpt lat="46.52459" lon="5.9783">
        <ele>886</ele>
        <time>2021-10-14T09:06:10Z</time>
      </trkpt>
      <trkpt lat="46.52454" lon="5.97826">
        <ele>886.9</ele>
        <time>2021-10-14T09:06:15Z</time>
      </trkpt>
      <trkpt lat="46.5245" lon="5.97822">
        <ele>887.6</ele>
        <time>2021-10-14T09:06:20Z</time>
      </trkpt>
      <trkpt lat="46.52446" lon="5.97818">
        <ele>888.1</ele>
        <time>2021-10-14T09:06:25Z</time>
      </trkpt>
      <trkpt lat="46.52444" lon="5.97812">
        <ele>888.6</ele>
        <time>2021-10-14T09:06:32Z</time>
      </trkpt>
      <trkpt lat="46.52439" lon="5.97808">
        <ele>889.3</ele>
        <time>2021-10-14T09:06:37Z</time>
      </trkpt>
      <trkpt lat="46.52434" lon="5.97805">
        <ele>890.2</ele>
        <time>2021-10-14T09:06:41Z</time>
      </trkpt>
      <trkpt lat="46.5243" lon="5.978">
        <ele>890.9</ele>
        <time>2021-10-14T09:06:45Z</time>
      </trkpt>
      <trkpt lat="46.52426" lon="5.97797">
        <ele>891.7</ele>
        <time>2021-10-14T09:06:49Z</time>
      </trkpt>
      <trkpt lat="46.52422" lon="5.97795">
        <ele>892.6</ele>
        <time>2021-10-14T09:06:53Z</time>
      </trkpt>
      <trkpt lat="46.52418" lon="5.9779">
        <ele>893.6</ele>
        <time>2021-10-14T09:06:58Z</time>
      </trkpt>
      <trkpt lat="46.52414" lon="5.97786">
        <ele>894.5</ele>
        <time>2021-10-14T09:07:03Z</time>
      </trkpt>
      <trkpt lat="46.52411" lon="5.9778">
        <ele>895.1</ele>
        <time>2021-10-14T09:07:09Z</time>
      </trkpt>
      <trkpt lat="46.52408" lon="5.97774">
        <ele>895.4</ele>
        <time>2021-10-14T09:07:14Z</time>
      </trkpt>
      <trkpt lat="46.52405" lon="5.97768">
        <ele>896</ele>
        <time>2021-10-14T09:07:18Z</time>
      </trkpt>
      <trkpt lat="46.52404" lon="5.9776">
        <ele>896.1</ele>
        <time>2021-10-14T09:07:22Z</time>
      </trkpt>
      <trkpt lat="46.52402" lon="5.97753">
        <ele>896</ele>
        <time>2021-10-14T09:07:27Z</time>
      </trkpt>
      <trkpt lat="46.52399" lon="5.97747">
        <ele>895.8</ele>
        <time>2021-10-14T09:07:32Z</time>
      </trkpt>
      <trkpt lat="46.52398" lon="5.9774">
        <ele>895.5</ele>
        <time>2021-10-14T09:07:38Z</time>
      </trkpt>
      <trkpt lat="46.52398" lon="5.97733">
        <ele>895.6</ele>
        <time>2021-10-14T09:07:44Z</time>
      </trkpt>
      <trkpt lat="46.52396" lon="5.97726">
        <ele>896</ele>
        <time>2021-10-14T09:07:49Z</time>
      </trkpt>
      <trkpt lat="46.52393" lon="5.9772">
        <ele>896.8</ele>
        <time>2021-10-14T09:07:53Z</time>
      </trkpt>
      <trkpt lat="46.5239" lon="5.97714">
        <ele>897.7</ele>
        <time>2021-10-14T09:07:59Z</time>
      </trkpt>
      <trkpt lat="46.52388" lon="5.97707">
        <ele>898.2</ele>
        <time>2021-10-14T09:08:04Z</time>
      </trkpt>
      <trkpt lat="46.52386" lon="5.977">
        <ele>898.7</ele>
        <time>2021-10-14T09:08:09Z</time>
      </trkpt>
      <trkpt lat="46.52385" lon="5.97694">
        <ele>899</ele>
        <time>2021-10-14T09:08:13Z</time>
      </trkpt>
      <trkpt lat="46.52382" lon="5.97689">
        <ele>899.5</ele>
        <time>2021-10-14T09:08:18Z</time>
      </trkpt>
      <trkpt lat="46.52381" lon="5.97681">
        <ele>900.1</ele>
        <time>2021-10-14T09:08:24Z</time>
      </trkpt>
      <trkpt lat="46.52378" lon="5.97674">
        <ele>900.5</ele>
        <time>2021-10-14T09:08:29Z</time>
      </trkpt>
      <trkpt lat="46.52375" lon="5.97669">
        <ele>900.7</ele>
        <time>2021-10-14T09:08:34Z</time>
      </trkpt>
      <trkpt lat="46.52373" lon="5.97663">
        <ele>901.1</ele>
        <time>2021-10-14T09:08:39Z</time>
      </trkpt>
      <trkpt lat="46.5237" lon="5.97657">
        <ele>901.6</ele>
        <time>2021-10-14T09:08:44Z</time>
      </trkpt>
      <trkpt lat="46.52369" lon="5.97651">
        <ele>902.1</ele>
        <time>2021-10-14T09:08:48Z</time>
      </trkpt>
      <trkpt lat="46.52366" lon="5.97645">
        <ele>902.7</ele>
        <time>2021-10-14T09:08:53Z</time>
      </trkpt>
      <trkpt lat="46.52363" lon="5.97639">
        <ele>903.7</ele>
        <time>2021-10-14T09:08:59Z</time>
      </trkpt>
      <trkpt lat="46.52361" lon="5.97633">
        <ele>904.1</ele>
        <time>2021-10-14T09:09:03Z</time>
      </trkpt>
      <trkpt lat="46.52359" lon="5.97627">
        <ele>904.7</ele>
        <time>2021-10-14T09:09:07Z</time>
      </trkpt>
      <trkpt lat="46.52356" lon="5.9762">
        <ele>905.5</ele>
        <time>2021-10-14T09:09:12Z</time>
      </trkpt>
      <trkpt lat="46.52353" lon="5.97615">
        <ele>906.2</ele>
        <time>2021-10-14T09:09:17Z</time>
      </trkpt>
      <trkpt lat="46.5235" lon="5.9761">
        <ele>906.5</ele>
        <time>2021-10-14T09:09:22Z</time>
      </trkpt>
      <trkpt lat="46.52347" lon="5.97604">
        <ele>907.1</ele>
        <time>2021-10-14T09:09:27Z</time>
      </trkpt>
      <trkpt lat="46.52342" lon="5.976">
        <ele>908.5</ele>
        <time>2021-10-14T09:09:31Z</time>
      </trkpt>
      <trkpt lat="46.5234" lon="5.97594">
        <ele>910.3</ele>
        <time>2021-10-14T09:09:35Z</time>
      </trkpt>
      <trkpt lat="46.52336" lon="5.9759">
        <ele>911.9</ele>
        <time>2021-10-14T09:09:39Z</time>
      </trkpt>
      <trkpt lat="46.52335" lon="5.97583">
        <ele>913.2</ele>
        <time>2021-10-14T09:09:45Z</time>
      </trkpt>
      <trkpt lat="46.52332" lon="5.97576">
        <ele>914.5</ele>
        <time>2021-10-14T09:09:50Z</time>
      </trkpt>
      <trkpt lat="46.52329" lon="5.97571">
        <ele>915.5</ele>
        <time>2021-10-14T09:09:56Z</time>
      </trkpt>
      <trkpt lat="46.52326" lon="5.97565">
        <ele>916.2</ele>
        <time>2021-10-14T09:10:01Z</time>
      </trkpt>
      <trkpt lat="46.52324" lon="5.97559">
        <ele>917</ele>
        <time>2021-10-14T09:10:06Z</time>
      </trkpt>
      <trkpt lat="46.52322" lon="5.97552">
        <ele>917.8</ele>
        <time>2021-10-14T09:10:11Z</time>
      </trkpt>
      <trkpt lat="46.52319" lon="5.97547">
        <ele>918.7</ele>
        <time>2021-10-14T09:10:17Z</time>
      </trkpt>
      <trkpt lat="46.52315" lon="5.97542">
        <ele>919.1</ele>
        <time>2021-10-14T09:10:22Z</time>
      </trkpt>
      <trkpt lat="46.5231" lon="5.97544">
        <ele>919</ele>
        <time>2021-10-14T09:10:32Z</time>
      </trkpt>
      <trkpt lat="46.5231" lon="5.97535">
        <ele>918.5</ele>
        <time>2021-10-14T09:10:40Z</time>
      </trkpt>
      <trkpt lat="46.52309" lon="5.97529">
        <ele>918.5</ele>
        <time>2021-10-14T09:10:44Z</time>
      </trkpt>
      <trkpt lat="46.52309" lon="5.97522">
        <ele>918.9</ele>
        <time>2021-10-14T09:10:49Z</time>
      </trkpt>
      <trkpt lat="46.52309" lon="5.97515">
        <ele>918.6</ele>
        <time>2021-10-14T09:10:58Z</time>
      </trkpt>
      <trkpt lat="46.52305" lon="5.97511">
        <ele>917.3</ele>
        <time>2021-10-14T09:11:08Z</time>
      </trkpt>
      <trkpt lat="46.52301" lon="5.97511">
        <ele>916</ele>
        <time>2021-10-14T09:11:25Z</time>
      </trkpt>
      <trkpt lat="46.52302" lon="5.97504">
        <ele>916.4</ele>
        <time>2021-10-14T09:12:15Z</time>
      </trkpt>
      <trkpt lat="46.52301" lon="5.97497">
        <ele>916.9</ele>
        <time>2021-10-14T09:12:19Z</time>
      </trkpt>
      <trkpt lat="46.52299" lon="5.97489">
        <ele>917.7</ele>
        <time>2021-10-14T09:12:24Z</time>
      </trkpt>
      <trkpt lat="46.52296" lon="5.97484">
        <ele>918.4</ele>
        <time>2021-10-14T09:12:28Z</time>
      </trkpt>
      <trkpt lat="46.52293" lon="5.97477">
        <ele>919.1</ele>
        <time>2021-10-14T09:12:32Z</time>
      </trkpt>
      <trkpt lat="46.5229" lon="5.97471">
        <ele>920.1</ele>
        <time>2021-10-14T09:12:37Z</time>
      </trkpt>
      <trkpt lat="46.52287" lon="5.97465">
        <ele>920.6</ele>
        <time>2021-10-14T09:12:41Z</time>
      </trkpt>
      <trkpt lat="46.52284" lon="5.97459">
        <ele>920.9</ele>
        <time>2021-10-14T09:12:45Z</time>
      </trkpt>
      <trkpt lat="46.52282" lon="5.97453">
        <ele>921.3</ele>
        <time>2021-10-14T09:12:50Z</time>
      </trkpt>
      <trkpt lat="46.5228" lon="5.97446">
        <ele>922.7</ele>
        <time>2021-10-14T09:12:56Z</time>
      </trkpt>
      <trkpt lat="46.52277" lon="5.97438">
        <ele>923.9</ele>
        <time>2021-10-14T09:13:01Z</time>
      </trkpt>
      <trkpt lat="46.52273" lon="5.97432">
        <ele>924.8</ele>
        <time>2021-10-14T09:13:05Z</time>
      </trkpt>
      <trkpt lat="46.5227" lon="5.97426">
        <ele>925.6</ele>
        <time>2021-10-14T09:13:09Z</time>
      </trkpt>
      <trkpt lat="46.52268" lon="5.97419">
        <ele>926.3</ele>
        <time>2021-10-14T09:13:14Z</time>
      </trkpt>
      <trkpt lat="46.52265" lon="5.97414">
        <ele>926.8</ele>
        <time>2021-10-14T09:13:19Z</time>
      </trkpt>
      <trkpt lat="46.52263" lon="5.97406">
        <ele>927.5</ele>
        <time>2021-10-14T09:13:24Z</time>
      </trkpt>
      <trkpt lat="46.5226" lon="5.97401">
        <ele>928.1</ele>
        <time>2021-10-14T09:13:28Z</time>
      </trkpt>
      <trkpt lat="46.52258" lon="5.97395">
        <ele>928.9</ele>
        <time>2021-10-14T09:13:33Z</time>
      </trkpt>
      <trkpt lat="46.52255" lon="5.97388">
        <ele>929.3</ele>
        <time>2021-10-14T09:13:38Z</time>
      </trkpt>
      <trkpt lat="46.52253" lon="5.97382">
        <ele>929.1</ele>
        <time>2021-10-14T09:13:42Z</time>
      </trkpt>
      <trkpt lat="46.5225" lon="5.97376">
        <ele>928.5</ele>
        <time>2021-10-14T09:13:47Z</time>
      </trkpt>
      <trkpt lat="46.52248" lon="5.97368">
        <ele>928.1</ele>
        <time>2021-10-14T09:13:52Z</time>
      </trkpt>
      <trkpt lat="46.52246" lon="5.97361">
        <ele>927.9</ele>
        <time>2021-10-14T09:13:56Z</time>
      </trkpt>
      <trkpt lat="46.52244" lon="5.97355">
        <ele>927.7</ele>
        <time>2021-10-14T09:14:00Z</time>
      </trkpt>
      <trkpt lat="46.5224" lon="5.97349">
        <ele>928.1</ele>
        <time>2021-10-14T09:14:05Z</time>
      </trkpt>
      <trkpt lat="46.52239" lon="5.97343">
        <ele>928.6</ele>
        <time>2021-10-14T09:14:09Z</time>
      </trkpt>
      <trkpt lat="46.52237" lon="5.97336">
        <ele>928.8</ele>
        <time>2021-10-14T09:14:14Z</time>
      </trkpt>
      <trkpt lat="46.52234" lon="5.9733">
        <ele>929.1</ele>
        <time>2021-10-14T09:14:19Z</time>
      </trkpt>
      <trkpt lat="46.52231" lon="5.97323">
        <ele>929.6</ele>
        <time>2021-10-14T09:14:24Z</time>
      </trkpt>
      <trkpt lat="46.52229" lon="5.97317">
        <ele>930.1</ele>
        <time>2021-10-14T09:14:28Z</time>
      </trkpt>
      <trkpt lat="46.52226" lon="5.97312">
        <ele>931.3</ele>
        <time>2021-10-14T09:14:33Z</time>
      </trkpt>
      <trkpt lat="46.52224" lon="5.97305">
        <ele>932.2</ele>
        <time>2021-10-14T09:14:38Z</time>
      </trkpt>
      <trkpt lat="46.52222" lon="5.97298">
        <ele>933.2</ele>
        <time>2021-10-14T09:14:43Z</time>
      </trkpt>
      <trkpt lat="46.52221" lon="5.97292">
        <ele>933.8</ele>
        <time>2021-10-14T09:14:47Z</time>
      </trkpt>
      <trkpt lat="46.52218" lon="5.97285">
        <ele>934.3</ele>
        <time>2021-10-14T09:14:51Z</time>
      </trkpt>
      <trkpt lat="46.52214" lon="5.9728">
        <ele>934.4</ele>
        <time>2021-10-14T09:14:54Z</time>
      </trkpt>
      <trkpt lat="46.52211" lon="5.97273">
        <ele>934.6</ele>
        <time>2021-10-14T09:14:58Z</time>
      </trkpt>
      <trkpt lat="46.52208" lon="5.97266">
        <ele>935.1</ele>
        <time>2021-10-14T09:15:03Z</time>
      </trkpt>
      <trkpt lat="46.52204" lon="5.97261">
        <ele>935.7</ele>
        <time>2021-10-14T09:15:08Z</time>
      </trkpt>
      <trkpt lat="46.52201" lon="5.97255">
        <ele>936</ele>
        <time>2021-10-14T09:15:14Z</time>
      </trkpt>
      <trkpt lat="46.52198" lon="5.97249">
        <ele>935.9</ele>
        <time>2021-10-14T09:15:19Z</time>
      </trkpt>
      <trkpt lat="46.52194" lon="5.97242">
        <ele>935.6</ele>
        <time>2021-10-14T09:15:23Z</time>
      </trkpt>
      <trkpt lat="46.5219" lon="5.97236">
        <ele>934.8</ele>
        <time>2021-10-14T09:15:27Z</time>
      </trkpt>
      <trkpt lat="46.52188" lon="5.9723">
        <ele>934.5</ele>
        <time>2021-10-14T09:15:31Z</time>
      </trkpt>
      <trkpt lat="46.52185" lon="5.97224">
        <ele>934.1</ele>
        <time>2021-10-14T09:15:36Z</time>
      </trkpt>
      <trkpt lat="46.52181" lon="5.97219">
        <ele>933.8</ele>
        <time>2021-10-14T09:15:40Z</time>
      </trkpt>
      <trkpt lat="46.52177" lon="5.97215">
        <ele>933.5</ele>
        <time>2021-10-14T09:15:44Z</time>
      </trkpt>
      <trkpt lat="46.52172" lon="5.97214">
        <ele>934.4</ele>
        <time>2021-10-14T09:15:55Z</time>
      </trkpt>
      <trkpt lat="46.52168" lon="5.97212">
        <ele>938.8</ele>
        <time>2021-10-14T09:16:21Z</time>
      </trkpt>
      <trkpt lat="46.52168" lon="5.97204">
        <ele>941.7</ele>
        <time>2021-10-14T09:16:33Z</time>
      </trkpt>
      <trkpt lat="46.52171" lon="5.97209">
        <ele>944.6</ele>
        <time>2021-10-14T09:17:52Z</time>
      </trkpt>
      <trkpt lat="46.52178" lon="5.97209">
        <ele>937.9</ele>
        <time>2021-10-14T09:18:33Z</time>
      </trkpt>
      <trkpt lat="46.52183" lon="5.97208">
        <ele>935.4</ele>
        <time>2021-10-14T09:18:37Z</time>
      </trkpt>
      <trkpt lat="46.52187" lon="5.97211">
        <ele>933.2</ele>
        <time>2021-10-14T09:18:43Z</time>
      </trkpt>
      <trkpt lat="46.52192" lon="5.97212">
        <ele>932.4</ele>
        <time>2021-10-14T09:18:48Z</time>
      </trkpt>
      <trkpt lat="46.52194" lon="5.97219">
        <ele>932.2</ele>
        <time>2021-10-14T09:18:56Z</time>
      </trkpt>
      <trkpt lat="46.52196" lon="5.97225">
        <ele>932.6</ele>
        <time>2021-10-14T09:19:02Z</time>
      </trkpt>
      <trkpt lat="46.52201" lon="5.9723">
        <ele>932.4</ele>
        <time>2021-10-14T09:19:07Z</time>
      </trkpt>
      <trkpt lat="46.52205" lon="5.97235">
        <ele>932</ele>
        <time>2021-10-14T09:19:11Z</time>
      </trkpt>
      <trkpt lat="46.52207" lon="5.97241">
        <ele>932.1</ele>
        <time>2021-10-14T09:19:15Z</time>
      </trkpt>
      <trkpt lat="46.52212" lon="5.97245">
        <ele>932.5</ele>
        <time>2021-10-14T09:19:21Z</time>
      </trkpt>
      <trkpt lat="46.52215" lon="5.9725">
        <ele>933</ele>
        <time>2021-10-14T09:19:26Z</time>
      </trkpt>
      <trkpt lat="46.52219" lon="5.97255">
        <ele>933.7</ele>
        <time>2021-10-14T09:19:31Z</time>
      </trkpt>
      <trkpt lat="46.52224" lon="5.97258">
        <ele>934.5</ele>
        <time>2021-10-14T09:19:37Z</time>
      </trkpt>
      <trkpt lat="46.52228" lon="5.97262">
        <ele>935.7</ele>
        <time>2021-10-14T09:19:42Z</time>
      </trkpt>
      <trkpt lat="46.52231" lon="5.97269">
        <ele>936.6</ele>
        <time>2021-10-14T09:19:48Z</time>
      </trkpt>
      <trkpt lat="46.52234" lon="5.97276">
        <ele>936.9</ele>
        <time>2021-10-14T09:19:53Z</time>
      </trkpt>
      <trkpt lat="46.52238" lon="5.9728">
        <ele>937.2</ele>
        <time>2021-10-14T09:19:58Z</time>
      </trkpt>
      <trkpt lat="46.52241" lon="5.97284">
        <ele>937.8</ele>
        <time>2021-10-14T09:20:03Z</time>
      </trkpt>
      <trkpt lat="46.52245" lon="5.97289">
        <ele>938.6</ele>
        <time>2021-10-14T09:20:07Z</time>
      </trkpt>
      <trkpt lat="46.52248" lon="5.97293">
        <ele>940.1</ele>
        <time>2021-10-14T09:20:14Z</time>
      </trkpt>
      <trkpt lat="46.52252" lon="5.97298">
        <ele>941.3</ele>
        <time>2021-10-14T09:20:20Z</time>
      </trkpt>
      <trkpt lat="46.52257" lon="5.97301">
        <ele>942.9</ele>
        <time>2021-10-14T09:20:26Z</time>
      </trkpt>
      <trkpt lat="46.52261" lon="5.97306">
        <ele>944.4</ele>
        <time>2021-10-14T09:20:32Z</time>
      </trkpt>
      <trkpt lat="46.52265" lon="5.97311">
        <ele>945.6</ele>
        <time>2021-10-14T09:20:37Z</time>
      </trkpt>
      <trkpt lat="46.52269" lon="5.97316">
        <ele>946.7</ele>
        <time>2021-10-14T09:20:42Z</time>
      </trkpt>
      <trkpt lat="46.52272" lon="5.97321">
        <ele>947.4</ele>
        <time>2021-10-14T09:20:47Z</time>
      </trkpt>
      <trkpt lat="46.52275" lon="5.97326">
        <ele>947.4</ele>
        <time>2021-10-14T09:20:52Z</time>
      </trkpt>
      <trkpt lat="46.52279" lon="5.97329">
        <ele>947.2</ele>
        <time>2021-10-14T09:20:57Z</time>
      </trkpt>
      <trkpt lat="46.52283" lon="5.97334">
        <ele>947.5</ele>
        <time>2021-10-14T09:21:01Z</time>
      </trkpt>
      <trkpt lat="46.52285" lon="5.9734">
        <ele>947.7</ele>
        <time>2021-10-14T09:21:07Z</time>
      </trkpt>
      <trkpt lat="46.52287" lon="5.97347">
        <ele>947.7</ele>
        <time>2021-10-14T09:21:14Z</time>
      </trkpt>
      <trkpt lat="46.52289" lon="5.97354">
        <ele>948.2</ele>
        <time>2021-10-14T09:21:19Z</time>
      </trkpt>
      <trkpt lat="46.52293" lon="5.9736">
        <ele>948.6</ele>
        <time>2021-10-14T09:21:24Z</time>
      </trkpt>
      <trkpt lat="46.52297" lon="5.97363">
        <ele>949</ele>
        <time>2021-10-14T09:21:29Z</time>
      </trkpt>
      <trkpt lat="46.52301" lon="5.97366">
        <ele>949.6</ele>
        <time>2021-10-14T09:21:34Z</time>
      </trkpt>
      <trkpt lat="46.52305" lon="5.9737">
        <ele>949.7</ele>
        <time>2021-10-14T09:21:39Z</time>
      </trkpt>
      <trkpt lat="46.52309" lon="5.97375">
        <ele>949.8</ele>
        <time>2021-10-14T09:21:44Z</time>
      </trkpt>
      <trkpt lat="46.52312" lon="5.97379">
        <ele>950.1</ele>
        <time>2021-10-14T09:21:48Z</time>
      </trkpt>
      <trkpt lat="46.52315" lon="5.97386">
        <ele>950.9</ele>
        <time>2021-10-14T09:21:54Z</time>
      </trkpt>
      <trkpt lat="46.52318" lon="5.97392">
        <ele>952</ele>
        <time>2021-10-14T09:22:00Z</time>
      </trkpt>
      <trkpt lat="46.52321" lon="5.97397">
        <ele>952.8</ele>
        <time>2021-10-14T09:22:04Z</time>
      </trkpt>
      <trkpt lat="46.52324" lon="5.97402">
        <ele>953.7</ele>
        <time>2021-10-14T09:22:11Z</time>
      </trkpt>
      <trkpt lat="46.52328" lon="5.97407">
        <ele>953.6</ele>
        <time>2021-10-14T09:22:17Z</time>
      </trkpt>
      <trkpt lat="46.52332" lon="5.97412">
        <ele>954.4</ele>
        <time>2021-10-14T09:22:23Z</time>
      </trkpt>
      <trkpt lat="46.52335" lon="5.97417">
        <ele>955.2</ele>
        <time>2021-10-14T09:22:28Z</time>
      </trkpt>
      <trkpt lat="46.5234" lon="5.97421">
        <ele>956</ele>
        <time>2021-10-14T09:22:34Z</time>
      </trkpt>
      <trkpt lat="46.52343" lon="5.97427">
        <ele>956.5</ele>
        <time>2021-10-14T09:22:40Z</time>
      </trkpt>
      <trkpt lat="46.52346" lon="5.97432">
        <ele>956.6</ele>
        <time>2021-10-14T09:22:45Z</time>
      </trkpt>
      <trkpt lat="46.5235" lon="5.97434">
        <ele>957</ele>
        <time>2021-10-14T09:22:51Z</time>
      </trkpt>
      <trkpt lat="46.52354" lon="5.97438">
        <ele>958</ele>
        <time>2021-10-14T09:22:56Z</time>
      </trkpt>
      <trkpt lat="46.52356" lon="5.97445">
        <ele>958.8</ele>
        <time>2021-10-14T09:23:00Z</time>
      </trkpt>
      <trkpt lat="46.52359" lon="5.97451">
        <ele>959.6</ele>
        <time>2021-10-14T09:23:04Z</time>
      </trkpt>
      <trkpt lat="46.52363" lon="5.97457">
        <ele>961.2</ele>
        <time>2021-10-14T09:23:24Z</time>
      </trkpt>
      <trkpt lat="46.52367" lon="5.97461">
        <ele>960.9</ele>
        <time>2021-10-14T09:23:29Z</time>
      </trkpt>
      <trkpt lat="46.5237" lon="5.97466">
        <ele>961</ele>
        <time>2021-10-14T09:23:36Z</time>
      </trkpt>
      <trkpt lat="46.52375" lon="5.97471">
        <ele>961.4</ele>
        <time>2021-10-14T09:23:41Z</time>
      </trkpt>
      <trkpt lat="46.5238" lon="5.97473">
        <ele>961</ele>
        <time>2021-10-14T09:23:47Z</time>
      </trkpt>
      <trkpt lat="46.52385" lon="5.97475">
        <ele>960.9</ele>
        <time>2021-10-14T09:23:51Z</time>
      </trkpt>
      <trkpt lat="46.52389" lon="5.97478">
        <ele>960.9</ele>
        <time>2021-10-14T09:23:55Z</time>
      </trkpt>
      <trkpt lat="46.52394" lon="5.9748">
        <ele>960.9</ele>
        <time>2021-10-14T09:23:59Z</time>
      </trkpt>
      <trkpt lat="46.52398" lon="5.97483">
        <ele>960.9</ele>
        <time>2021-10-14T09:24:04Z</time>
      </trkpt>
      <trkpt lat="46.52402" lon="5.97487">
        <ele>961.5</ele>
        <time>2021-10-14T09:24:10Z</time>
      </trkpt>
      <trkpt lat="46.52407" lon="5.97492">
        <ele>961.6</ele>
        <time>2021-10-14T09:24:15Z</time>
      </trkpt>
      <trkpt lat="46.52411" lon="5.97496">
        <ele>961.8</ele>
        <time>2021-10-14T09:24:21Z</time>
      </trkpt>
      <trkpt lat="46.52416" lon="5.97498">
        <ele>961.8</ele>
        <time>2021-10-14T09:24:26Z</time>
      </trkpt>
      <trkpt lat="46.52421" lon="5.975">
        <ele>961.6</ele>
        <time>2021-10-14T09:24:31Z</time>
      </trkpt>
      <trkpt lat="46.52425" lon="5.97502">
        <ele>961.3</ele>
        <time>2021-10-14T09:24:35Z</time>
      </trkpt>
      <trkpt lat="46.52429" lon="5.97507">
        <ele>960.8</ele>
        <time>2021-10-14T09:24:40Z</time>
      </trkpt>
      <trkpt lat="46.52434" lon="5.97511">
        <ele>960.5</ele>
        <time>2021-10-14T09:24:44Z</time>
      </trkpt>
      <trkpt lat="46.5244" lon="5.97512">
        <ele>960.3</ele>
        <time>2021-10-14T09:24:48Z</time>
      </trkpt>
      <trkpt lat="46.52445" lon="5.97511">
        <ele>960.2</ele>
        <time>2021-10-14T09:24:52Z</time>
      </trkpt>
      <trkpt lat="46.52449" lon="5.97515">
        <ele>960.8</ele>
        <time>2021-10-14T09:24:57Z</time>
      </trkpt>
      <trkpt lat="46.52451" lon="5.97522">
        <ele>961.7</ele>
        <time>2021-10-14T09:25:02Z</time>
      </trkpt>
      <trkpt lat="46.52454" lon="5.97529">
        <ele>963</ele>
        <time>2021-10-14T09:25:07Z</time>
      </trkpt>
      <trkpt lat="46.52456" lon="5.97534">
        <ele>964.2</ele>
        <time>2021-10-14T09:25:11Z</time>
      </trkpt>
      <trkpt lat="46.5246" lon="5.97538">
        <ele>965.9</ele>
        <time>2021-10-14T09:25:16Z</time>
      </trkpt>
      <trkpt lat="46.52464" lon="5.97543">
        <ele>967.9</ele>
        <time>2021-10-14T09:25:21Z</time>
      </trkpt>
      <trkpt lat="46.52469" lon="5.97547">
        <ele>969.7</ele>
        <time>2021-10-14T09:25:27Z</time>
      </trkpt>
      <trkpt lat="46.52474" lon="5.97549">
        <ele>971</ele>
        <time>2021-10-14T09:25:33Z</time>
      </trkpt>
      <trkpt lat="46.52478" lon="5.9755">
        <ele>971.6</ele>
        <time>2021-10-14T09:25:37Z</time>
      </trkpt>
      <trkpt lat="46.52483" lon="5.97551">
        <ele>971.9</ele>
        <time>2021-10-14T09:25:42Z</time>
      </trkpt>
      <trkpt lat="46.52488" lon="5.97553">
        <ele>971.9</ele>
        <time>2021-10-14T09:25:46Z</time>
      </trkpt>
      <trkpt lat="46.52493" lon="5.97555">
        <ele>971.9</ele>
        <time>2021-10-14T09:25:51Z</time>
      </trkpt>
      <trkpt lat="46.52497" lon="5.97559">
        <ele>971.6</ele>
        <time>2021-10-14T09:25:55Z</time>
      </trkpt>
      <trkpt lat="46.52502" lon="5.97563">
        <ele>971.3</ele>
        <time>2021-10-14T09:25:59Z</time>
      </trkpt>
      <trkpt lat="46.52505" lon="5.97567">
        <ele>971.2</ele>
        <time>2021-10-14T09:26:03Z</time>
      </trkpt>
      <trkpt lat="46.5251" lon="5.97563">
        <ele>971.5</ele>
        <time>2021-10-14T09:26:10Z</time>
      </trkpt>
      <trkpt lat="46.52507" lon="5.97557">
        <ele>971.8</ele>
        <time>2021-10-14T09:26:17Z</time>
      </trkpt>
      <trkpt lat="46.5251" lon="5.97564">
        <ele>976</ele>
        <time>2021-10-14T09:27:08Z</time>
      </trkpt>
      <trkpt lat="46.52515" lon="5.97568">
        <ele>976.8</ele>
        <time>2021-10-14T09:27:13Z</time>
      </trkpt>
      <trkpt lat="46.52519" lon="5.97571">
        <ele>977.3</ele>
        <time>2021-10-14T09:27:16Z</time>
      </trkpt>
      <trkpt lat="46.52524" lon="5.97574">
        <ele>977.8</ele>
        <time>2021-10-14T09:27:20Z</time>
      </trkpt>
      <trkpt lat="46.52529" lon="5.97576">
        <ele>978</ele>
        <time>2021-10-14T09:27:24Z</time>
      </trkpt>
      <trkpt lat="46.52533" lon="5.97578">
        <ele>978</ele>
        <time>2021-10-14T09:27:28Z</time>
      </trkpt>
      <trkpt lat="46.52538" lon="5.97582">
        <ele>978.4</ele>
        <time>2021-10-14T09:27:32Z</time>
      </trkpt>
      <trkpt lat="46.52543" lon="5.97586">
        <ele>979.3</ele>
        <time>2021-10-14T09:27:36Z</time>
      </trkpt>
      <trkpt lat="46.52548" lon="5.97589">
        <ele>980.7</ele>
        <time>2021-10-14T09:27:41Z</time>
      </trkpt>
      <trkpt lat="46.52553" lon="5.9759">
        <ele>981.4</ele>
        <time>2021-10-14T09:27:44Z</time>
      </trkpt>
      <trkpt lat="46.52557" lon="5.97592">
        <ele>982.4</ele>
        <time>2021-10-14T09:27:48Z</time>
      </trkpt>
      <trkpt lat="46.52562" lon="5.97594">
        <ele>983.3</ele>
        <time>2021-10-14T09:27:54Z</time>
      </trkpt>
      <trkpt lat="46.52567" lon="5.97597">
        <ele>983.3</ele>
        <time>2021-10-14T09:27:59Z</time>
      </trkpt>
      <trkpt lat="46.52573" lon="5.97597">
        <ele>982.8</ele>
        <time>2021-10-14T09:28:03Z</time>
      </trkpt>
      <trkpt lat="46.52578" lon="5.976">
        <ele>982.6</ele>
        <time>2021-10-14T09:28:07Z</time>
      </trkpt>
      <trkpt lat="46.52582" lon="5.97603">
        <ele>982.8</ele>
        <time>2021-10-14T09:28:10Z</time>
      </trkpt>
      <trkpt lat="46.52587" lon="5.97606">
        <ele>982.8</ele>
        <time>2021-10-14T09:28:13Z</time>
      </trkpt>
      <trkpt lat="46.52592" lon="5.97608">
        <ele>982.8</ele>
        <time>2021-10-14T09:28:17Z</time>
      </trkpt>
      <trkpt lat="46.52596" lon="5.97612">
        <ele>983</ele>
        <time>2021-10-14T09:28:21Z</time>
      </trkpt>
      <trkpt lat="46.526" lon="5.97616">
        <ele>983.1</ele>
        <time>2021-10-14T09:28:26Z</time>
      </trkpt>
      <trkpt lat="46.52603" lon="5.97622">
        <ele>983.5</ele>
        <time>2021-10-14T09:28:31Z</time>
      </trkpt>
      <trkpt lat="46.52607" lon="5.97626">
        <ele>984.5</ele>
        <time>2021-10-14T09:28:35Z</time>
      </trkpt>
      <trkpt lat="46.5261" lon="5.97632">
        <ele>985.4</ele>
        <time>2021-10-14T09:28:39Z</time>
      </trkpt>
      <trkpt lat="46.52613" lon="5.97638">
        <ele>986.9</ele>
        <time>2021-10-14T09:28:44Z</time>
      </trkpt>
      <trkpt lat="46.52616" lon="5.97645">
        <ele>988.8</ele>
        <time>2021-10-14T09:28:49Z</time>
      </trkpt>
      <trkpt lat="46.52619" lon="5.9765">
        <ele>990.2</ele>
        <time>2021-10-14T09:28:53Z</time>
      </trkpt>
      <trkpt lat="46.52623" lon="5.97655">
        <ele>992</ele>
        <time>2021-10-14T09:28:58Z</time>
      </trkpt>
      <trkpt lat="46.52628" lon="5.9766">
        <ele>994.3</ele>
        <time>2021-10-14T09:29:04Z</time>
      </trkpt>
      <trkpt lat="46.52632" lon="5.97664">
        <ele>996.2</ele>
        <time>2021-10-14T09:29:09Z</time>
      </trkpt>
      <trkpt lat="46.52636" lon="5.97669">
        <ele>998</ele>
        <time>2021-10-14T09:29:15Z</time>
      </trkpt>
      <trkpt lat="46.52641" lon="5.97672">
        <ele>999</ele>
        <time>2021-10-14T09:29:19Z</time>
      </trkpt>
      <trkpt lat="46.52646" lon="5.97677">
        <ele>999.8</ele>
        <time>2021-10-14T09:29:23Z</time>
      </trkpt>
      <trkpt lat="46.52651" lon="5.97681">
        <ele>1000.5</ele>
        <time>2021-10-14T09:29:27Z</time>
      </trkpt>
      <trkpt lat="46.52655" lon="5.97686">
        <ele>1001.2</ele>
        <time>2021-10-14T09:29:32Z</time>
      </trkpt>
      <trkpt lat="46.52658" lon="5.97692">
        <ele>1000.7</ele>
        <time>2021-10-14T09:29:37Z</time>
      </trkpt>
      <trkpt lat="46.52663" lon="5.97696">
        <ele>1000.1</ele>
        <time>2021-10-14T09:29:41Z</time>
      </trkpt>
      <trkpt lat="46.52668" lon="5.97701">
        <ele>999.9</ele>
        <time>2021-10-14T09:29:45Z</time>
      </trkpt>
      <trkpt lat="46.52671" lon="5.97706">
        <ele>999.7</ele>
        <time>2021-10-14T09:29:48Z</time>
      </trkpt>
      <trkpt lat="46.52674" lon="5.97712">
        <ele>1000.2</ele>
        <time>2021-10-14T09:29:52Z</time>
      </trkpt>
      <trkpt lat="46.52676" lon="5.97718">
        <ele>1000.6</ele>
        <time>2021-10-14T09:29:56Z</time>
      </trkpt>
      <trkpt lat="46.52679" lon="5.97724">
        <ele>1000.8</ele>
        <time>2021-10-14T09:30:01Z</time>
      </trkpt>
      <trkpt lat="46.52683" lon="5.97729">
        <ele>1001</ele>
        <time>2021-10-14T09:30:05Z</time>
      </trkpt>
      <trkpt lat="46.52686" lon="5.97734">
        <ele>1001</ele>
        <time>2021-10-14T09:30:10Z</time>
      </trkpt>
      <trkpt lat="46.52689" lon="5.97739">
        <ele>1000.8</ele>
        <time>2021-10-14T09:30:14Z</time>
      </trkpt>
      <trkpt lat="46.52691" lon="5.97746">
        <ele>1000.4</ele>
        <time>2021-10-14T09:30:19Z</time>
      </trkpt>
      <trkpt lat="46.52694" lon="5.97752">
        <ele>1000.8</ele>
        <time>2021-10-14T09:30:24Z</time>
      </trkpt>
      <trkpt lat="46.52698" lon="5.97757">
        <ele>1002.6</ele>
        <time>2021-10-14T09:30:31Z</time>
      </trkpt>
      <trkpt lat="46.52701" lon="5.97761">
        <ele>1004.8</ele>
        <time>2021-10-14T09:30:37Z</time>
      </trkpt>
      <trkpt lat="46.52706" lon="5.97763">
        <ele>1006.6</ele>
        <time>2021-10-14T09:30:49Z</time>
      </trkpt>
      <trkpt lat="46.52711" lon="5.97764">
        <ele>1007.3</ele>
        <time>2021-10-14T09:30:54Z</time>
      </trkpt>
      <trkpt lat="46.52715" lon="5.97767">
        <ele>1009.8</ele>
        <time>2021-10-14T09:31:00Z</time>
      </trkpt>
      <trkpt lat="46.52719" lon="5.9777">
        <ele>1012.6</ele>
        <time>2021-10-14T09:31:08Z</time>
      </trkpt>
      <trkpt lat="46.52724" lon="5.97772">
        <ele>1014.2</ele>
        <time>2021-10-14T09:31:15Z</time>
      </trkpt>
      <trkpt lat="46.52729" lon="5.97773">
        <ele>1015.5</ele>
        <time>2021-10-14T09:31:21Z</time>
      </trkpt>
      <trkpt lat="46.52734" lon="5.97773">
        <ele>1016</ele>
        <time>2021-10-14T09:31:25Z</time>
      </trkpt>
      <trkpt lat="46.52739" lon="5.97772">
        <ele>1016.3</ele>
        <time>2021-10-14T09:31:29Z</time>
      </trkpt>
      <trkpt lat="46.52742" lon="5.97768">
        <ele>1016.5</ele>
        <time>2021-10-14T09:31:36Z</time>
      </trkpt>
      <trkpt lat="46.52747" lon="5.97766">
        <ele>1016.9</ele>
        <time>2021-10-14T09:32:09Z</time>
      </trkpt>
      <trkpt lat="46.52751" lon="5.97763">
        <ele>1021.4</ele>
        <time>2021-10-14T09:32:36Z</time>
      </trkpt>
      <trkpt lat="46.52756" lon="5.97765">
        <ele>1024</ele>
        <time>2021-10-14T09:32:43Z</time>
      </trkpt>
      <trkpt lat="46.5276" lon="5.97767">
        <ele>1026.7</ele>
        <time>2021-10-14T09:32:50Z</time>
      </trkpt>
      <trkpt lat="46.52765" lon="5.9777">
        <ele>1028.8</ele>
        <time>2021-10-14T09:32:57Z</time>
      </trkpt>
      <trkpt lat="46.5277" lon="5.97771">
        <ele>1029.8</ele>
        <time>2021-10-14T09:33:02Z</time>
      </trkpt>
      <trkpt lat="46.52775" lon="5.97774">
        <ele>1029.4</ele>
        <time>2021-10-14T09:33:06Z</time>
      </trkpt>
      <trkpt lat="46.52779" lon="5.97773">
        <ele>1027.2</ele>
        <time>2021-10-14T09:33:15Z</time>
      </trkpt>
      <trkpt lat="46.52784" lon="5.97772">
        <ele>1026.2</ele>
        <time>2021-10-14T09:33:21Z</time>
      </trkpt>
      <trkpt lat="46.52789" lon="5.97773">
        <ele>1024.2</ele>
        <time>2021-10-14T09:33:28Z</time>
      </trkpt>
      <trkpt lat="46.52795" lon="5.97773">
        <ele>1023.1</ele>
        <time>2021-10-14T09:33:32Z</time>
      </trkpt>
      <trkpt lat="46.528" lon="5.97771">
        <ele>1022.4</ele>
        <time>2021-10-14T09:33:35Z</time>
      </trkpt>
      <trkpt lat="46.52805" lon="5.9777">
        <ele>1022.2</ele>
        <time>2021-10-14T09:33:38Z</time>
      </trkpt>
      <trkpt lat="46.5281" lon="5.97769">
        <ele>1023</ele>
        <time>2021-10-14T09:33:42Z</time>
      </trkpt>
      <trkpt lat="46.52813" lon="5.97762">
        <ele>1024.2</ele>
        <time>2021-10-14T09:33:47Z</time>
      </trkpt>
      <trkpt lat="46.52815" lon="5.97756">
        <ele>1025.9</ele>
        <time>2021-10-14T09:33:52Z</time>
      </trkpt>
      <trkpt lat="46.52819" lon="5.97751">
        <ele>1028.7</ele>
        <time>2021-10-14T09:33:58Z</time>
      </trkpt>
      <trkpt lat="46.52822" lon="5.97746">
        <ele>1031.6</ele>
        <time>2021-10-14T09:34:04Z</time>
      </trkpt>
      <trkpt lat="46.52825" lon="5.9774">
        <ele>1033</ele>
        <time>2021-10-14T09:34:08Z</time>
      </trkpt>
      <trkpt lat="46.52827" lon="5.97734">
        <ele>1034.2</ele>
        <time>2021-10-14T09:34:12Z</time>
      </trkpt>
      <trkpt lat="46.5283" lon="5.97728">
        <ele>1032.9</ele>
        <time>2021-10-14T09:34:20Z</time>
      </trkpt>
      <trkpt lat="46.5283" lon="5.97721">
        <ele>1032.2</ele>
        <time>2021-10-14T09:34:26Z</time>
      </trkpt>
      <trkpt lat="46.52833" lon="5.97715">
        <ele>1032.3</ele>
        <time>2021-10-14T09:34:33Z</time>
      </trkpt>
      <trkpt lat="46.52836" lon="5.9771">
        <ele>1031.8</ele>
        <time>2021-10-14T09:34:37Z</time>
      </trkpt>
      <trkpt lat="46.52837" lon="5.97703">
        <ele>1031.2</ele>
        <time>2021-10-14T09:34:41Z</time>
      </trkpt>
      <trkpt lat="46.52838" lon="5.97696">
        <ele>1031.4</ele>
        <time>2021-10-14T09:34:46Z</time>
      </trkpt>
      <trkpt lat="46.52841" lon="5.97691">
        <ele>1032.3</ele>
        <time>2021-10-14T09:34:51Z</time>
      </trkpt>
      <trkpt lat="46.52844" lon="5.97684">
        <ele>1033.9</ele>
        <time>2021-10-14T09:34:57Z</time>
      </trkpt>
      <trkpt lat="46.52849" lon="5.97682">
        <ele>1034.2</ele>
        <time>2021-10-14T09:35:03Z</time>
      </trkpt>
      <trkpt lat="46.52854" lon="5.97681">
        <ele>1033.8</ele>
        <time>2021-10-14T09:35:08Z</time>
      </trkpt>
      <trkpt lat="46.52859" lon="5.97679">
        <ele>1034.1</ele>
        <time>2021-10-14T09:35:12Z</time>
      </trkpt>
      <trkpt lat="46.52864" lon="5.97674">
        <ele>1034.2</ele>
        <time>2021-10-14T09:35:16Z</time>
      </trkpt>
      <trkpt lat="46.52868" lon="5.97671">
        <ele>1034.4</ele>
        <time>2021-10-14T09:35:19Z</time>
      </trkpt>
      <trkpt lat="46.52873" lon="5.97668">
        <ele>1034.1</ele>
        <time>2021-10-14T09:35:23Z</time>
      </trkpt>
      <trkpt lat="46.52878" lon="5.97665">
        <ele>1033.3</ele>
        <time>2021-10-14T09:35:29Z</time>
      </trkpt>
      <trkpt lat="46.52882" lon="5.97662">
        <ele>1033.7</ele>
        <time>2021-10-14T09:35:34Z</time>
      </trkpt>
      <trkpt lat="46.52888" lon="5.97661">
        <ele>1034.9</ele>
        <time>2021-10-14T09:35:41Z</time>
      </trkpt>
      <trkpt lat="46.52892" lon="5.97663">
        <ele>1036.1</ele>
        <time>2021-10-14T09:35:46Z</time>
      </trkpt>
      <trkpt lat="46.52896" lon="5.97667">
        <ele>1036</ele>
        <time>2021-10-14T09:35:49Z</time>
      </trkpt>
      <trkpt lat="46.52901" lon="5.9767">
        <ele>1036.4</ele>
        <time>2021-10-14T09:35:53Z</time>
      </trkpt>
      <trkpt lat="46.52906" lon="5.97672">
        <ele>1037.5</ele>
        <time>2021-10-14T09:35:56Z</time>
      </trkpt>
      <trkpt lat="46.5291" lon="5.97675">
        <ele>1039.4</ele>
        <time>2021-10-14T09:36:00Z</time>
      </trkpt>
      <trkpt lat="46.52914" lon="5.97675">
        <ele>1043.1</ele>
        <time>2021-10-14T09:36:13Z</time>
      </trkpt>
      <trkpt lat="46.52916" lon="5.97682">
        <ele>1041.9</ele>
        <time>2021-10-14T09:36:21Z</time>
      </trkpt>
      <trkpt lat="46.52918" lon="5.97688">
        <ele>1040.9</ele>
        <time>2021-10-14T09:36:27Z</time>
      </trkpt>
      <trkpt lat="46.52919" lon="5.97695">
        <ele>1040.5</ele>
        <time>2021-10-14T09:36:31Z</time>
      </trkpt>
      <trkpt lat="46.52923" lon="5.97699">
        <ele>1039.7</ele>
        <time>2021-10-14T09:36:35Z</time>
      </trkpt>
      <trkpt lat="46.52927" lon="5.97703">
        <ele>1038.9</ele>
        <time>2021-10-14T09:36:40Z</time>
      </trkpt>
      <trkpt lat="46.52931" lon="5.97706">
        <ele>1038.2</ele>
        <time>2021-10-14T09:36:45Z</time>
      </trkpt>
      <trkpt lat="46.52935" lon="5.97712">
        <ele>1037.8</ele>
        <time>2021-10-14T09:36:50Z</time>
      </trkpt>
      <trkpt lat="46.5294" lon="5.97714">
        <ele>1037.9</ele>
        <time>2021-10-14T09:36:54Z</time>
      </trkpt>
      <trkpt lat="46.52945" lon="5.97715">
        <ele>1038.5</ele>
        <time>2021-10-14T09:36:59Z</time>
      </trkpt>
      <trkpt lat="46.52951" lon="5.97713">
        <ele>1039.4</ele>
        <time>2021-10-14T09:37:03Z</time>
      </trkpt>
      <trkpt lat="46.52956" lon="5.97713">
        <ele>1041.7</ele>
        <time>2021-10-14T09:37:10Z</time>
      </trkpt>
      <trkpt lat="46.5296" lon="5.97714">
        <ele>1044.3</ele>
        <time>2021-10-14T09:37:21Z</time>
      </trkpt>
      <trkpt lat="46.52965" lon="5.97716">
        <ele>1044.7</ele>
        <time>2021-10-14T09:37:25Z</time>
      </trkpt>
      <trkpt lat="46.52971" lon="5.97715">
        <ele>1045</ele>
        <time>2021-10-14T09:37:29Z</time>
      </trkpt>
      <trkpt lat="46.52977" lon="5.97716">
        <ele>1045</ele>
        <time>2021-10-14T09:37:32Z</time>
      </trkpt>
      <trkpt lat="46.52982" lon="5.97716">
        <ele>1045.1</ele>
        <time>2021-10-14T09:37:36Z</time>
      </trkpt>
      <trkpt lat="46.52988" lon="5.97718">
        <ele>1045.2</ele>
        <time>2021-10-14T09:37:40Z</time>
      </trkpt>
      <trkpt lat="46.52993" lon="5.9772">
        <ele>1045.3</ele>
        <time>2021-10-14T09:37:44Z</time>
      </trkpt>
      <trkpt lat="46.52998" lon="5.97723">
        <ele>1045</ele>
        <time>2021-10-14T09:37:48Z</time>
      </trkpt>
      <trkpt lat="46.53002" lon="5.97727">
        <ele>1045</ele>
        <time>2021-10-14T09:37:52Z</time>
      </trkpt>
      <trkpt lat="46.53006" lon="5.97731">
        <ele>1045.3</ele>
        <time>2021-10-14T09:37:56Z</time>
      </trkpt>
      <trkpt lat="46.5301" lon="5.97735">
        <ele>1046.3</ele>
        <time>2021-10-14T09:38:00Z</time>
      </trkpt>
      <trkpt lat="46.53015" lon="5.97734">
        <ele>1047.4</ele>
        <time>2021-10-14T09:38:05Z</time>
      </trkpt>
      <trkpt lat="46.53019" lon="5.97732">
        <ele>1048</ele>
        <time>2021-10-14T09:38:10Z</time>
      </trkpt>
      <trkpt lat="46.53024" lon="5.97732">
        <ele>1048.5</ele>
        <time>2021-10-14T09:38:16Z</time>
      </trkpt>
      <trkpt lat="46.5303" lon="5.97732">
        <ele>1049.2</ele>
        <time>2021-10-14T09:38:22Z</time>
      </trkpt>
      <trkpt lat="46.53034" lon="5.97731">
        <ele>1049.7</ele>
        <time>2021-10-14T09:38:26Z</time>
      </trkpt>
      <trkpt lat="46.53039" lon="5.97726">
        <ele>1049.7</ele>
        <time>2021-10-14T09:38:31Z</time>
      </trkpt>
      <trkpt lat="46.53042" lon="5.97719">
        <ele>1049</ele>
        <time>2021-10-14T09:38:37Z</time>
      </trkpt>
      <trkpt lat="46.53047" lon="5.97714">
        <ele>1048.4</ele>
        <time>2021-10-14T09:38:41Z</time>
      </trkpt>
      <trkpt lat="46.53051" lon="5.97709">
        <ele>1047.7</ele>
        <time>2021-10-14T09:38:45Z</time>
      </trkpt>
      <trkpt lat="46.53054" lon="5.97703">
        <ele>1047.2</ele>
        <time>2021-10-14T09:38:49Z</time>
      </trkpt>
      <trkpt lat="46.53059" lon="5.97698">
        <ele>1045.6</ele>
        <time>2021-10-14T09:38:55Z</time>
      </trkpt>
      <trkpt lat="46.53064" lon="5.97696">
        <ele>1044.2</ele>
        <time>2021-10-14T09:39:02Z</time>
      </trkpt>
      <trkpt lat="46.53068" lon="5.97693">
        <ele>1043.8</ele>
        <time>2021-10-14T09:39:07Z</time>
      </trkpt>
      <trkpt lat="46.53073" lon="5.9769">
        <ele>1043.2</ele>
        <time>2021-10-14T09:39:13Z</time>
      </trkpt>
      <trkpt lat="46.53077" lon="5.97688">
        <ele>1042.6</ele>
        <time>2021-10-14T09:39:19Z</time>
      </trkpt>
      <trkpt lat="46.53082" lon="5.97683">
        <ele>1041.5</ele>
        <time>2021-10-14T09:39:25Z</time>
      </trkpt>
      <trkpt lat="46.53087" lon="5.97679">
        <ele>1040.8</ele>
        <time>2021-10-14T09:39:28Z</time>
      </trkpt>
      <trkpt lat="46.53091" lon="5.97675">
        <ele>1039.7</ele>
        <time>2021-10-14T09:39:31Z</time>
      </trkpt>
      <trkpt lat="46.53095" lon="5.97673">
        <ele>1038.4</ele>
        <time>2021-10-14T09:39:35Z</time>
      </trkpt>
      <trkpt lat="46.531" lon="5.97669">
        <ele>1037.1</ele>
        <time>2021-10-14T09:39:39Z</time>
      </trkpt>
      <trkpt lat="46.53104" lon="5.97666">
        <ele>1035.6</ele>
        <time>2021-10-14T09:39:44Z</time>
      </trkpt>
      <trkpt lat="46.53108" lon="5.97665">
        <ele>1034.2</ele>
        <time>2021-10-14T09:39:49Z</time>
      </trkpt>
      <trkpt lat="46.53114" lon="5.97663">
        <ele>1033.1</ele>
        <time>2021-10-14T09:39:53Z</time>
      </trkpt>
      <trkpt lat="46.53118" lon="5.97662">
        <ele>1032.2</ele>
        <time>2021-10-14T09:39:57Z</time>
      </trkpt>
      <trkpt lat="46.53124" lon="5.97662">
        <ele>1031.3</ele>
        <time>2021-10-14T09:40:01Z</time>
      </trkpt>
      <trkpt lat="46.53129" lon="5.97664">
        <ele>1030.9</ele>
        <time>2021-10-14T09:40:06Z</time>
      </trkpt>
      <trkpt lat="46.53134" lon="5.97664">
        <ele>1030.3</ele>
        <time>2021-10-14T09:40:12Z</time>
      </trkpt>
      <trkpt lat="46.53138" lon="5.97662">
        <ele>1029.5</ele>
        <time>2021-10-14T09:40:17Z</time>
      </trkpt>
      <trkpt lat="46.53143" lon="5.97662">
        <ele>1029.4</ele>
        <time>2021-10-14T09:40:21Z</time>
      </trkpt>
      <trkpt lat="46.53149" lon="5.9766">
        <ele>1029.4</ele>
        <time>2021-10-14T09:40:25Z</time>
      </trkpt>
      <trkpt lat="46.53155" lon="5.97658">
        <ele>1029.6</ele>
        <time>2021-10-14T09:40:29Z</time>
      </trkpt>
      <trkpt lat="46.5316" lon="5.97656">
        <ele>1030.2</ele>
        <time>2021-10-14T09:40:33Z</time>
      </trkpt>
      <trkpt lat="46.53164" lon="5.97653">
        <ele>1030.9</ele>
        <time>2021-10-14T09:40:37Z</time>
      </trkpt>
      <trkpt lat="46.53169" lon="5.97652">
        <ele>1031.4</ele>
        <time>2021-10-14T09:40:42Z</time>
      </trkpt>
      <trkpt lat="46.53174" lon="5.97651">
        <ele>1032.4</ele>
        <time>2021-10-14T09:40:47Z</time>
      </trkpt>
      <trkpt lat="46.53179" lon="5.9765">
        <ele>1033.3</ele>
        <time>2021-10-14T09:40:51Z</time>
      </trkpt>
      <trkpt lat="46.53183" lon="5.97647">
        <ele>1034.5</ele>
        <time>2021-10-14T09:40:58Z</time>
      </trkpt>
      <trkpt lat="46.53188" lon="5.97647">
        <ele>1036</ele>
        <time>2021-10-14T09:41:06Z</time>
      </trkpt>
      <trkpt lat="46.53193" lon="5.97649">
        <ele>1036.2</ele>
        <time>2021-10-14T09:41:12Z</time>
      </trkpt>
      <trkpt lat="46.53199" lon="5.97646">
        <ele>1036.3</ele>
        <time>2021-10-14T09:41:16Z</time>
      </trkpt>
      <trkpt lat="46.53204" lon="5.97647">
        <ele>1035.5</ele>
        <time>2021-10-14T09:41:21Z</time>
      </trkpt>
      <trkpt lat="46.53208" lon="5.97652">
        <ele>1033.7</ele>
        <time>2021-10-14T09:41:28Z</time>
      </trkpt>
      <trkpt lat="46.53213" lon="5.97655">
        <ele>1033.5</ele>
        <time>2021-10-14T09:41:33Z</time>
      </trkpt>
      <trkpt lat="46.53218" lon="5.97657">
        <ele>1033.8</ele>
        <time>2021-10-14T09:41:38Z</time>
      </trkpt>
      <trkpt lat="46.53223" lon="5.97661">
        <ele>1033.9</ele>
        <time>2021-10-14T09:41:44Z</time>
      </trkpt>
      <trkpt lat="46.53227" lon="5.97662">
        <ele>1033.2</ele>
        <time>2021-10-14T09:41:52Z</time>
      </trkpt>
      <trkpt lat="46.53232" lon="5.97659">
        <ele>1033.6</ele>
        <time>2021-10-14T09:42:04Z</time>
      </trkpt>
      <trkpt lat="46.53236" lon="5.9766">
        <ele>1035.2</ele>
        <time>2021-10-14T09:42:10Z</time>
      </trkpt>
      <trkpt lat="46.53241" lon="5.97662">
        <ele>1036.4</ele>
        <time>2021-10-14T09:42:13Z</time>
      </trkpt>
      <trkpt lat="46.53246" lon="5.97665">
        <ele>1037.4</ele>
        <time>2021-10-14T09:42:16Z</time>
      </trkpt>
      <trkpt lat="46.5325" lon="5.97668">
        <ele>1038.6</ele>
        <time>2021-10-14T09:42:20Z</time>
      </trkpt>
      <trkpt lat="46.53254" lon="5.97671">
        <ele>1039.7</ele>
        <time>2021-10-14T09:42:26Z</time>
      </trkpt>
      <trkpt lat="46.53259" lon="5.97675">
        <ele>1039.9</ele>
        <time>2021-10-14T09:42:31Z</time>
      </trkpt>
      <trkpt lat="46.53264" lon="5.97676">
        <ele>1039.6</ele>
        <time>2021-10-14T09:42:35Z</time>
      </trkpt>
      <trkpt lat="46.53269" lon="5.97676">
        <ele>1039.6</ele>
        <time>2021-10-14T09:42:40Z</time>
      </trkpt>
      <trkpt lat="46.53275" lon="5.97675">
        <ele>1039.7</ele>
        <time>2021-10-14T09:42:44Z</time>
      </trkpt>
      <trkpt lat="46.53279" lon="5.97672">
        <ele>1040</ele>
        <time>2021-10-14T09:42:48Z</time>
      </trkpt>
      <trkpt lat="46.53284" lon="5.97669">
        <ele>1040.3</ele>
        <time>2021-10-14T09:42:53Z</time>
      </trkpt>
      <trkpt lat="46.53288" lon="5.97664">
        <ele>1041</ele>
        <time>2021-10-14T09:42:57Z</time>
      </trkpt>
      <trkpt lat="46.53292" lon="5.97658">
        <ele>1042.1</ele>
        <time>2021-10-14T09:43:02Z</time>
      </trkpt>
      <trkpt lat="46.53294" lon="5.97651">
        <ele>1043.1</ele>
        <time>2021-10-14T09:43:06Z</time>
      </trkpt>
      <trkpt lat="46.53296" lon="5.97645">
        <ele>1043.1</ele>
        <time>2021-10-14T09:43:11Z</time>
      </trkpt>
      <trkpt lat="46.533" lon="5.97641">
        <ele>1041.8</ele>
        <time>2021-10-14T09:43:17Z</time>
      </trkpt>
      <trkpt lat="46.53304" lon="5.97637">
        <ele>1040.2</ele>
        <time>2021-10-14T09:43:22Z</time>
      </trkpt>
      <trkpt lat="46.53307" lon="5.97632">
        <ele>1037.8</ele>
        <time>2021-10-14T09:43:27Z</time>
      </trkpt>
      <trkpt lat="46.5331" lon="5.97626">
        <ele>1036.1</ele>
        <time>2021-10-14T09:43:31Z</time>
      </trkpt>
      <trkpt lat="46.53314" lon="5.97621">
        <ele>1034.7</ele>
        <time>2021-10-14T09:43:35Z</time>
      </trkpt>
      <trkpt lat="46.53317" lon="5.97616">
        <ele>1033.6</ele>
        <time>2021-10-14T09:43:40Z</time>
      </trkpt>
      <trkpt lat="46.53321" lon="5.97613">
        <ele>1033.4</ele>
        <time>2021-10-14T09:43:45Z</time>
      </trkpt>
      <trkpt lat="46.53326" lon="5.97609">
        <ele>1033</ele>
        <time>2021-10-14T09:43:50Z</time>
      </trkpt>
      <trkpt lat="46.53328" lon="5.97602">
        <ele>1032.4</ele>
        <time>2021-10-14T09:43:56Z</time>
      </trkpt>
      <trkpt lat="46.5333" lon="5.97596">
        <ele>1032.6</ele>
        <time>2021-10-14T09:44:02Z</time>
      </trkpt>
      <trkpt lat="46.53332" lon="5.9759">
        <ele>1032.7</ele>
        <time>2021-10-14T09:44:06Z</time>
      </trkpt>
      <trkpt lat="46.53334" lon="5.97584">
        <ele>1033.1</ele>
        <time>2021-10-14T09:44:10Z</time>
      </trkpt>
      <trkpt lat="46.53336" lon="5.97577">
        <ele>1033</ele>
        <time>2021-10-14T09:44:16Z</time>
      </trkpt>
      <trkpt lat="46.53338" lon="5.9757">
        <ele>1032.9</ele>
        <time>2021-10-14T09:44:25Z</time>
      </trkpt>
      <trkpt lat="46.5334" lon="5.97564">
        <ele>1032.6</ele>
        <time>2021-10-14T09:44:30Z</time>
      </trkpt>
      <trkpt lat="46.53343" lon="5.97558">
        <ele>1032.3</ele>
        <time>2021-10-14T09:44:35Z</time>
      </trkpt>
      <trkpt lat="46.53344" lon="5.97551">
        <ele>1032.4</ele>
        <time>2021-10-14T09:44:39Z</time>
      </trkpt>
      <trkpt lat="46.53347" lon="5.97545">
        <ele>1032.4</ele>
        <time>2021-10-14T09:44:44Z</time>
      </trkpt>
      <trkpt lat="46.53351" lon="5.97541">
        <ele>1031.9</ele>
        <time>2021-10-14T09:44:50Z</time>
      </trkpt>
      <trkpt lat="46.53355" lon="5.97537">
        <ele>1031.6</ele>
        <time>2021-10-14T09:44:55Z</time>
      </trkpt>
      <trkpt lat="46.53359" lon="5.97533">
        <ele>1030.9</ele>
        <time>2021-10-14T09:44:59Z</time>
      </trkpt>
      <trkpt lat="46.53362" lon="5.97528">
        <ele>1030</ele>
        <time>2021-10-14T09:45:04Z</time>
      </trkpt>
      <trkpt lat="46.53367" lon="5.97524">
        <ele>1029.4</ele>
        <time>2021-10-14T09:45:09Z</time>
      </trkpt>
      <trkpt lat="46.5337" lon="5.97519">
        <ele>1028.8</ele>
        <time>2021-10-14T09:45:15Z</time>
      </trkpt>
      <trkpt lat="46.53373" lon="5.97514">
        <ele>1028.2</ele>
        <time>2021-10-14T09:45:19Z</time>
      </trkpt>
      <trkpt lat="46.53375" lon="5.97507">
        <ele>1027.8</ele>
        <time>2021-10-14T09:45:24Z</time>
      </trkpt>
      <trkpt lat="46.53375" lon="5.975">
        <ele>1027.6</ele>
        <time>2021-10-14T09:45:30Z</time>
      </trkpt>
      <trkpt lat="46.53371" lon="5.97496">
        <ele>1026.9</ele>
        <time>2021-10-14T09:45:34Z</time>
      </trkpt>
      <trkpt lat="46.53367" lon="5.97493">
        <ele>1025.5</ele>
        <time>2021-10-14T09:45:39Z</time>
      </trkpt>
      <trkpt lat="46.53364" lon="5.97488">
        <ele>1024.4</ele>
        <time>2021-10-14T09:45:45Z</time>
      </trkpt>
      <trkpt lat="46.53359" lon="5.97486">
        <ele>1023.8</ele>
        <time>2021-10-14T09:45:49Z</time>
      </trkpt>
      <trkpt lat="46.53355" lon="5.97483">
        <ele>1023.3</ele>
        <time>2021-10-14T09:45:53Z</time>
      </trkpt>
      <trkpt lat="46.5335" lon="5.97481">
        <ele>1023.6</ele>
        <time>2021-10-14T09:45:57Z</time>
      </trkpt>
      <trkpt lat="46.53344" lon="5.97479">
        <ele>1024.4</ele>
        <time>2021-10-14T09:46:01Z</time>
      </trkpt>
      <trkpt lat="46.53339" lon="5.97477">
        <ele>1024.7</ele>
        <time>2021-10-14T09:46:05Z</time>
      </trkpt>
      <trkpt lat="46.53335" lon="5.97474">
        <ele>1024.6</ele>
        <time>2021-10-14T09:46:10Z</time>
      </trkpt>
      <trkpt lat="46.53332" lon="5.97468">
        <ele>1024.2</ele>
        <time>2021-10-14T09:46:16Z</time>
      </trkpt>
      <trkpt lat="46.53327" lon="5.97463">
        <ele>1024.3</ele>
        <time>2021-10-14T09:46:20Z</time>
      </trkpt>
      <trkpt lat="46.53322" lon="5.9746">
        <ele>1024.6</ele>
        <time>2021-10-14T09:46:24Z</time>
      </trkpt>
      <trkpt lat="46.53318" lon="5.97456">
        <ele>1025.2</ele>
        <time>2021-10-14T09:46:29Z</time>
      </trkpt>
      <trkpt lat="46.53314" lon="5.97455">
        <ele>1025.4</ele>
        <time>2021-10-14T09:46:34Z</time>
      </trkpt>
      <trkpt lat="46.53309" lon="5.97454">
        <ele>1025.2</ele>
        <time>2021-10-14T09:46:41Z</time>
      </trkpt>
      <trkpt lat="46.53304" lon="5.97454">
        <ele>1024.5</ele>
        <time>2021-10-14T09:46:47Z</time>
      </trkpt>
      <trkpt lat="46.53298" lon="5.97453">
        <ele>1023.7</ele>
        <time>2021-10-14T09:46:53Z</time>
      </trkpt>
      <trkpt lat="46.53294" lon="5.97451">
        <ele>1022.6</ele>
        <time>2021-10-14T09:46:58Z</time>
      </trkpt>
      <trkpt lat="46.53289" lon="5.97449">
        <ele>1022</ele>
        <time>2021-10-14T09:47:03Z</time>
      </trkpt>
      <trkpt lat="46.53283" lon="5.97447">
        <ele>1022.2</ele>
        <time>2021-10-14T09:47:07Z</time>
      </trkpt>
      <trkpt lat="46.53279" lon="5.97446">
        <ele>1022.6</ele>
        <time>2021-10-14T09:47:11Z</time>
      </trkpt>
      <trkpt lat="46.53274" lon="5.97442">
        <ele>1023</ele>
        <time>2021-10-14T09:47:15Z</time>
      </trkpt>
      <trkpt lat="46.53268" lon="5.97441">
        <ele>1023</ele>
        <time>2021-10-14T09:47:19Z</time>
      </trkpt>
      <trkpt lat="46.53263" lon="5.97442">
        <ele>1023.1</ele>
        <time>2021-10-14T09:47:23Z</time>
      </trkpt>
      <trkpt lat="46.53259" lon="5.9744">
        <ele>1024.5</ele>
        <time>2021-10-14T09:47:29Z</time>
      </trkpt>
      <trkpt lat="46.53255" lon="5.97436">
        <ele>1026.3</ele>
        <time>2021-10-14T09:47:34Z</time>
      </trkpt>
      <trkpt lat="46.53254" lon="5.97429">
        <ele>1029</ele>
        <time>2021-10-14T09:47:42Z</time>
      </trkpt>
      <trkpt lat="46.53254" lon="5.97421">
        <ele>1030.1</ele>
        <time>2021-10-14T09:47:46Z</time>
      </trkpt>
      <trkpt lat="46.53255" lon="5.97414">
        <ele>1030.7</ele>
        <time>2021-10-14T09:47:50Z</time>
      </trkpt>
      <trkpt lat="46.53257" lon="5.97408">
        <ele>1030.7</ele>
        <time>2021-10-14T09:47:54Z</time>
      </trkpt>
      <trkpt lat="46.53257" lon="5.974">
        <ele>1029.9</ele>
        <time>2021-10-14T09:47:59Z</time>
      </trkpt>
      <trkpt lat="46.53258" lon="5.97393">
        <ele>1027.8</ele>
        <time>2021-10-14T09:48:07Z</time>
      </trkpt>
      <trkpt lat="46.5326" lon="5.97387">
        <ele>1026.5</ele>
        <time>2021-10-14T09:48:13Z</time>
      </trkpt>
      <trkpt lat="46.53263" lon="5.97381">
        <ele>1026</ele>
        <time>2021-10-14T09:48:19Z</time>
      </trkpt>
      <trkpt lat="46.53266" lon="5.97374">
        <ele>1025.8</ele>
        <time>2021-10-14T09:48:25Z</time>
      </trkpt>
      <trkpt lat="46.5327" lon="5.97369">
        <ele>1025.1</ele>
        <time>2021-10-14T09:48:30Z</time>
      </trkpt>
      <trkpt lat="46.53274" lon="5.97366">
        <ele>1023.8</ele>
        <time>2021-10-14T09:48:34Z</time>
      </trkpt>
      <trkpt lat="46.53278" lon="5.97362">
        <ele>1020.1</ele>
        <time>2021-10-14T09:48:42Z</time>
      </trkpt>
      <trkpt lat="46.53282" lon="5.97358">
        <ele>1016.9</ele>
        <time>2021-10-14T09:48:48Z</time>
      </trkpt>
      <trkpt lat="46.53286" lon="5.97355">
        <ele>1014.6</ele>
        <time>2021-10-14T09:48:53Z</time>
      </trkpt>
      <trkpt lat="46.5329" lon="5.97349">
        <ele>1012.8</ele>
        <time>2021-10-14T09:48:58Z</time>
      </trkpt>
      <trkpt lat="46.53292" lon="5.97344">
        <ele>1011.5</ele>
        <time>2021-10-14T09:49:03Z</time>
      </trkpt>
      <trkpt lat="46.53294" lon="5.97337">
        <ele>1010</ele>
        <time>2021-10-14T09:49:10Z</time>
      </trkpt>
      <trkpt lat="46.53298" lon="5.97332">
        <ele>1008.5</ele>
        <time>2021-10-14T09:49:17Z</time>
      </trkpt>
      <trkpt lat="46.53302" lon="5.97328">
        <ele>1007.3</ele>
        <time>2021-10-14T09:49:23Z</time>
      </trkpt>
      <trkpt lat="46.53308" lon="5.97325">
        <ele>1006.8</ele>
        <time>2021-10-14T09:49:27Z</time>
      </trkpt>
      <trkpt lat="46.53312" lon="5.97323">
        <ele>1006.7</ele>
        <time>2021-10-14T09:49:30Z</time>
      </trkpt>
      <trkpt lat="46.53316" lon="5.97318">
        <ele>1007.1</ele>
        <time>2021-10-14T09:49:34Z</time>
      </trkpt>
      <trkpt lat="46.5332" lon="5.97313">
        <ele>1007.9</ele>
        <time>2021-10-14T09:49:39Z</time>
      </trkpt>
      <trkpt lat="46.53324" lon="5.9731">
        <ele>1008.3</ele>
        <time>2021-10-14T09:49:45Z</time>
      </trkpt>
      <trkpt lat="46.53327" lon="5.97304">
        <ele>1008.2</ele>
        <time>2021-10-14T09:49:51Z</time>
      </trkpt>
      <trkpt lat="46.53332" lon="5.97303">
        <ele>1008</ele>
        <time>2021-10-14T09:49:57Z</time>
      </trkpt>
      <trkpt lat="46.53335" lon="5.97298">
        <ele>1008.4</ele>
        <time>2021-10-14T09:50:03Z</time>
      </trkpt>
      <trkpt lat="46.53339" lon="5.97293">
        <ele>1009.2</ele>
        <time>2021-10-14T09:50:08Z</time>
      </trkpt>
      <trkpt lat="46.53343" lon="5.9729">
        <ele>1009.6</ele>
        <time>2021-10-14T09:50:13Z</time>
      </trkpt>
      <trkpt lat="46.53347" lon="5.97285">
        <ele>1010</ele>
        <time>2021-10-14T09:50:18Z</time>
      </trkpt>
      <trkpt lat="46.53349" lon="5.97279">
        <ele>1010.2</ele>
        <time>2021-10-14T09:50:23Z</time>
      </trkpt>
      <trkpt lat="46.53354" lon="5.97276">
        <ele>1010.1</ele>
        <time>2021-10-14T09:50:28Z</time>
      </trkpt>
      <trkpt lat="46.53358" lon="5.97272">
        <ele>1009.4</ele>
        <time>2021-10-14T09:50:33Z</time>
      </trkpt>
      <trkpt lat="46.53362" lon="5.97269">
        <ele>1008.6</ele>
        <time>2021-10-14T09:50:39Z</time>
      </trkpt>
      <trkpt lat="46.53367" lon="5.97266">
        <ele>1007.5</ele>
        <time>2021-10-14T09:50:44Z</time>
      </trkpt>
      <trkpt lat="46.53372" lon="5.97262">
        <ele>1006.4</ele>
        <time>2021-10-14T09:50:48Z</time>
      </trkpt>
      <trkpt lat="46.53377" lon="5.97258">
        <ele>1005</ele>
        <time>2021-10-14T09:50:52Z</time>
      </trkpt>
      <trkpt lat="46.53381" lon="5.97252">
        <ele>1003.5</ele>
        <time>2021-10-14T09:50:57Z</time>
      </trkpt>
      <trkpt lat="46.53382" lon="5.97246">
        <ele>1002.5</ele>
        <time>2021-10-14T09:51:01Z</time>
      </trkpt>
      <trkpt lat="46.53383" lon="5.97239">
        <ele>1001</ele>
        <time>2021-10-14T09:51:06Z</time>
      </trkpt>
      <trkpt lat="46.53383" lon="5.97232">
        <ele>999.9</ele>
        <time>2021-10-14T09:51:11Z</time>
      </trkpt>
      <trkpt lat="46.53386" lon="5.97226">
        <ele>999</ele>
        <time>2021-10-14T09:51:16Z</time>
      </trkpt>
      <trkpt lat="46.5339" lon="5.97221">
        <ele>998.2</ele>
        <time>2021-10-14T09:51:21Z</time>
      </trkpt>
      <trkpt lat="46.53393" lon="5.97216">
        <ele>997.2</ele>
        <time>2021-10-14T09:51:26Z</time>
      </trkpt>
      <trkpt lat="46.53396" lon="5.9721">
        <ele>996.7</ele>
        <time>2021-10-14T09:51:30Z</time>
      </trkpt>
      <trkpt lat="46.534" lon="5.97205">
        <ele>996.4</ele>
        <time>2021-10-14T09:51:34Z</time>
      </trkpt>
      <trkpt lat="46.53401" lon="5.97198">
        <ele>996.9</ele>
        <time>2021-10-14T09:51:42Z</time>
      </trkpt>
      <trkpt lat="46.53406" lon="5.97195">
        <ele>997.3</ele>
        <time>2021-10-14T09:51:47Z</time>
      </trkpt>
      <trkpt lat="46.53412" lon="5.97193">
        <ele>997.4</ele>
        <time>2021-10-14T09:51:51Z</time>
      </trkpt>
      <trkpt lat="46.53417" lon="5.9719">
        <ele>997.4</ele>
        <time>2021-10-14T09:51:55Z</time>
      </trkpt>
      <trkpt lat="46.53422" lon="5.97188">
        <ele>997</ele>
        <time>2021-10-14T09:51:59Z</time>
      </trkpt>
      <trkpt lat="46.53426" lon="5.97184">
        <ele>996.4</ele>
        <time>2021-10-14T09:52:06Z</time>
      </trkpt>
      <trkpt lat="46.53432" lon="5.97183">
        <ele>996.4</ele>
        <time>2021-10-14T09:52:11Z</time>
      </trkpt>
      <trkpt lat="46.53437" lon="5.97182">
        <ele>996.3</ele>
        <time>2021-10-14T09:52:14Z</time>
      </trkpt>
      <trkpt lat="46.53441" lon="5.97177">
        <ele>996.5</ele>
        <time>2021-10-14T09:52:18Z</time>
      </trkpt>
      <trkpt lat="46.53445" lon="5.97173">
        <ele>996.7</ele>
        <time>2021-10-14T09:52:22Z</time>
      </trkpt>
      <trkpt lat="46.53448" lon="5.97169">
        <ele>996.9</ele>
        <time>2021-10-14T09:52:27Z</time>
      </trkpt>
      <trkpt lat="46.53452" lon="5.97164">
        <ele>996.5</ele>
        <time>2021-10-14T09:52:31Z</time>
      </trkpt>
      <trkpt lat="46.53455" lon="5.97158">
        <ele>995.5</ele>
        <time>2021-10-14T09:52:37Z</time>
      </trkpt>
      <trkpt lat="46.53459" lon="5.97153">
        <ele>994.3</ele>
        <time>2021-10-14T09:52:43Z</time>
      </trkpt>
      <trkpt lat="46.53461" lon="5.97146">
        <ele>994</ele>
        <time>2021-10-14T09:52:48Z</time>
      </trkpt>
      <trkpt lat="46.53465" lon="5.9714">
        <ele>993.3</ele>
        <time>2021-10-14T09:52:54Z</time>
      </trkpt>
      <trkpt lat="46.53469" lon="5.97137">
        <ele>993</ele>
        <time>2021-10-14T09:52:58Z</time>
      </trkpt>
      <trkpt lat="46.53474" lon="5.97134">
        <ele>993.3</ele>
        <time>2021-10-14T09:53:04Z</time>
      </trkpt>
      <trkpt lat="46.53479" lon="5.9713">
        <ele>993.4</ele>
        <time>2021-10-14T09:53:09Z</time>
      </trkpt>
      <trkpt lat="46.53482" lon="5.97124">
        <ele>992.5</ele>
        <time>2021-10-14T09:53:14Z</time>
      </trkpt>
      <trkpt lat="46.53485" lon="5.97119">
        <ele>991.7</ele>
        <time>2021-10-14T09:53:19Z</time>
      </trkpt>
      <trkpt lat="46.53487" lon="5.97112">
        <ele>991.4</ele>
        <time>2021-10-14T09:53:24Z</time>
      </trkpt>
      <trkpt lat="46.53492" lon="5.9711">
        <ele>991.6</ele>
        <time>2021-10-14T09:53:27Z</time>
      </trkpt>
      <trkpt lat="46.53498" lon="5.97109">
        <ele>992.5</ele>
        <time>2021-10-14T09:53:31Z</time>
      </trkpt>
      <trkpt lat="46.53503" lon="5.97111">
        <ele>993.4</ele>
        <time>2021-10-14T09:53:34Z</time>
      </trkpt>
      <trkpt lat="46.53509" lon="5.97113">
        <ele>994.7</ele>
        <time>2021-10-14T09:53:37Z</time>
      </trkpt>
      <trkpt lat="46.53514" lon="5.97115">
        <ele>996</ele>
        <time>2021-10-14T09:53:40Z</time>
      </trkpt>
      <trkpt lat="46.53519" lon="5.97117">
        <ele>996.9</ele>
        <time>2021-10-14T09:53:43Z</time>
      </trkpt>
      <trkpt lat="46.53523" lon="5.9712">
        <ele>997.7</ele>
        <time>2021-10-14T09:53:47Z</time>
      </trkpt>
      <trkpt lat="46.53527" lon="5.97125">
        <ele>998.5</ele>
        <time>2021-10-14T09:53:54Z</time>
      </trkpt>
      <trkpt lat="46.5353" lon="5.97128">
        <ele>999.2</ele>
        <time>2021-10-14T09:54:00Z</time>
      </trkpt>
      <trkpt lat="46.53535" lon="5.9713">
        <ele>999.9</ele>
        <time>2021-10-14T09:54:04Z</time>
      </trkpt>
      <trkpt lat="46.5354" lon="5.9713">
        <ele>1000.9</ele>
        <time>2021-10-14T09:54:09Z</time>
      </trkpt>
      <trkpt lat="46.53544" lon="5.97134">
        <ele>1001.2</ele>
        <time>2021-10-14T09:54:14Z</time>
      </trkpt>
      <trkpt lat="46.5355" lon="5.97136">
        <ele>1001.3</ele>
        <time>2021-10-14T09:54:19Z</time>
      </trkpt>
      <trkpt lat="46.53555" lon="5.97137">
        <ele>1001.7</ele>
        <time>2021-10-14T09:54:24Z</time>
      </trkpt>
      <trkpt lat="46.53561" lon="5.97139">
        <ele>1002.3</ele>
        <time>2021-10-14T09:54:28Z</time>
      </trkpt>
      <trkpt lat="46.53566" lon="5.97141">
        <ele>1003.1</ele>
        <time>2021-10-14T09:54:32Z</time>
      </trkpt>
      <trkpt lat="46.5357" lon="5.97142">
        <ele>1004.6</ele>
        <time>2021-10-14T09:54:40Z</time>
      </trkpt>
      <trkpt lat="46.53575" lon="5.97144">
        <ele>1004.8</ele>
        <time>2021-10-14T09:54:47Z</time>
      </trkpt>
      <trkpt lat="46.53579" lon="5.97146">
        <ele>1004.4</ele>
        <time>2021-10-14T09:54:51Z</time>
      </trkpt>
      <trkpt lat="46.53584" lon="5.97147">
        <ele>1003.7</ele>
        <time>2021-10-14T09:54:56Z</time>
      </trkpt>
      <trkpt lat="46.53588" lon="5.97149">
        <ele>1002.6</ele>
        <time>2021-10-14T09:55:01Z</time>
      </trkpt>
      <trkpt lat="46.53593" lon="5.97151">
        <ele>1002</ele>
        <time>2021-10-14T09:55:06Z</time>
      </trkpt>
      <trkpt lat="46.53598" lon="5.97151">
        <ele>1001.5</ele>
        <time>2021-10-14T09:55:11Z</time>
      </trkpt>
      <trkpt lat="46.53603" lon="5.9715">
        <ele>1000.8</ele>
        <time>2021-10-14T09:55:16Z</time>
      </trkpt>
      <trkpt lat="46.53608" lon="5.97149">
        <ele>1000.4</ele>
        <time>2021-10-14T09:55:21Z</time>
      </trkpt>
      <trkpt lat="46.53613" lon="5.97148">
        <ele>1000.4</ele>
        <time>2021-10-14T09:55:26Z</time>
      </trkpt>
      <trkpt lat="46.53618" lon="5.97147">
        <ele>1000.5</ele>
        <time>2021-10-14T09:55:30Z</time>
      </trkpt>
      <trkpt lat="46.53623" lon="5.97147">
        <ele>1000.1</ele>
        <time>2021-10-14T09:55:34Z</time>
      </trkpt>
      <trkpt lat="46.53628" lon="5.97144">
        <ele>999.4</ele>
        <time>2021-10-14T09:55:37Z</time>
      </trkpt>
      <trkpt lat="46.53632" lon="5.97147">
        <ele>997.6</ele>
        <time>2021-10-14T09:55:46Z</time>
      </trkpt>
      <trkpt lat="46.53633" lon="5.97154">
        <ele>996.6</ele>
        <time>2021-10-14T09:55:51Z</time>
      </trkpt>
      <trkpt lat="46.53635" lon="5.97162">
        <ele>996.2</ele>
        <time>2021-10-14T09:55:57Z</time>
      </trkpt>
      <trkpt lat="46.53637" lon="5.97169">
        <ele>996.3</ele>
        <time>2021-10-14T09:56:02Z</time>
      </trkpt>
      <trkpt lat="46.53638" lon="5.97176">
        <ele>996.7</ele>
        <time>2021-10-14T09:56:07Z</time>
      </trkpt>
      <trkpt lat="46.53638" lon="5.97184">
        <ele>997.6</ele>
        <time>2021-10-14T09:56:10Z</time>
      </trkpt>
      <trkpt lat="46.53637" lon="5.97191">
        <ele>998.8</ele>
        <time>2021-10-14T09:56:13Z</time>
      </trkpt>
      <trkpt lat="46.53635" lon="5.97199">
        <ele>1000.3</ele>
        <time>2021-10-14T09:56:17Z</time>
      </trkpt>
      <trkpt lat="46.53633" lon="5.97205">
        <ele>1001.8</ele>
        <time>2021-10-14T09:56:22Z</time>
      </trkpt>
      <trkpt lat="46.5363" lon="5.9721">
        <ele>1003.4</ele>
        <time>2021-10-14T09:56:28Z</time>
      </trkpt>
      <trkpt lat="46.53626" lon="5.97216">
        <ele>1004.4</ele>
        <time>2021-10-14T09:56:32Z</time>
      </trkpt>
      <trkpt lat="46.53622" lon="5.97219">
        <ele>1006.5</ele>
        <time>2021-10-14T09:56:40Z</time>
      </trkpt>
      <trkpt lat="46.53618" lon="5.97224">
        <ele>1007.9</ele>
        <time>2021-10-14T09:56:45Z</time>
      </trkpt>
      <trkpt lat="46.53614" lon="5.97229">
        <ele>1008.9</ele>
        <time>2021-10-14T09:56:50Z</time>
      </trkpt>
      <trkpt lat="46.53609" lon="5.97234">
        <ele>1009.1</ele>
        <time>2021-10-14T09:56:54Z</time>
      </trkpt>
      <trkpt lat="46.53605" lon="5.97239">
        <ele>1008.9</ele>
        <time>2021-10-14T09:56:59Z</time>
      </trkpt>
      <trkpt lat="46.53601" lon="5.97243">
        <ele>1008.4</ele>
        <time>2021-10-14T09:57:03Z</time>
      </trkpt>
      <trkpt lat="46.53596" lon="5.97246">
        <ele>1006.9</ele>
        <time>2021-10-14T09:57:08Z</time>
      </trkpt>
      <trkpt lat="46.53592" lon="5.9725">
        <ele>1005.9</ele>
        <time>2021-10-14T09:57:12Z</time>
      </trkpt>
      <trkpt lat="46.53588" lon="5.97255">
        <ele>1005.3</ele>
        <time>2021-10-14T09:57:17Z</time>
      </trkpt>
      <trkpt lat="46.53584" lon="5.97257">
        <ele>1005.8</ele>
        <time>2021-10-14T09:57:25Z</time>
      </trkpt>
      <trkpt lat="46.53579" lon="5.9726">
        <ele>1006.6</ele>
        <time>2021-10-14T09:57:31Z</time>
      </trkpt>
      <trkpt lat="46.53574" lon="5.97265">
        <ele>1007.1</ele>
        <time>2021-10-14T09:57:36Z</time>
      </trkpt>
      <trkpt lat="46.53574" lon="5.97272">
        <ele>1006.6</ele>
        <time>2021-10-14T09:57:42Z</time>
      </trkpt>
      <trkpt lat="46.53575" lon="5.97278">
        <ele>1006</ele>
        <time>2021-10-14T09:57:46Z</time>
      </trkpt>
      <trkpt lat="46.53574" lon="5.97285">
        <ele>1005.3</ele>
        <time>2021-10-14T09:57:51Z</time>
      </trkpt>
      <trkpt lat="46.53572" lon="5.97291">
        <ele>1004.9</ele>
        <time>2021-10-14T09:57:55Z</time>
      </trkpt>
      <trkpt lat="46.53572" lon="5.97298">
        <ele>1004.2</ele>
        <time>2021-10-14T09:58:00Z</time>
      </trkpt>
      <trkpt lat="46.53571" lon="5.97306">
        <ele>1004.2</ele>
        <time>2021-10-14T09:58:05Z</time>
      </trkpt>
      <trkpt lat="46.53567" lon="5.97311">
        <ele>1004.3</ele>
        <time>2021-10-14T09:58:09Z</time>
      </trkpt>
      <trkpt lat="46.53564" lon="5.97316">
        <ele>1003.9</ele>
        <time>2021-10-14T09:58:17Z</time>
      </trkpt>
      <trkpt lat="46.53559" lon="5.97318">
        <ele>1003.2</ele>
        <time>2021-10-14T09:58:25Z</time>
      </trkpt>
      <trkpt lat="46.53554" lon="5.97321">
        <ele>1002.8</ele>
        <time>2021-10-14T09:58:30Z</time>
      </trkpt>
      <trkpt lat="46.5355" lon="5.97325">
        <ele>1002.8</ele>
        <time>2021-10-14T09:58:34Z</time>
      </trkpt>
      <trkpt lat="46.53545" lon="5.97329">
        <ele>1003.3</ele>
        <time>2021-10-14T09:58:38Z</time>
      </trkpt>
      <trkpt lat="46.53542" lon="5.97333">
        <ele>1003.4</ele>
        <time>2021-10-14T09:58:44Z</time>
      </trkpt>
      <trkpt lat="46.53538" lon="5.97339">
        <ele>1002.2</ele>
        <time>2021-10-14T09:58:52Z</time>
      </trkpt>
      <trkpt lat="46.53535" lon="5.97345">
        <ele>1002.9</ele>
        <time>2021-10-14T09:59:00Z</time>
      </trkpt>
      <trkpt lat="46.53532" lon="5.97348">
        <ele>1002.4</ele>
        <time>2021-10-14T09:59:04Z</time>
      </trkpt>
      <trkpt lat="46.53525" lon="5.97353">
        <ele>1001.6</ele>
        <time>2021-10-14T09:59:07Z</time>
      </trkpt>
      <trkpt lat="46.53519" lon="5.97357">
        <ele>1000.5</ele>
        <time>2021-10-14T09:59:10Z</time>
      </trkpt>
      <trkpt lat="46.53514" lon="5.97359">
        <ele>999.6</ele>
        <time>2021-10-14T09:59:13Z</time>
      </trkpt>
      <trkpt lat="46.5351" lon="5.97359">
        <ele>997.7</ele>
        <time>2021-10-14T09:59:17Z</time>
      </trkpt>
      <trkpt lat="46.53505" lon="5.97361">
        <ele>995.7</ele>
        <time>2021-10-14T09:59:21Z</time>
      </trkpt>
      <trkpt lat="46.53501" lon="5.97365">
        <ele>993.4</ele>
        <time>2021-10-14T09:59:27Z</time>
      </trkpt>
      <trkpt lat="46.535" lon="5.97372">
        <ele>991.8</ele>
        <time>2021-10-14T09:59:32Z</time>
      </trkpt>
      <trkpt lat="46.53499" lon="5.97379">
        <ele>990.9</ele>
        <time>2021-10-14T09:59:36Z</time>
      </trkpt>
      <trkpt lat="46.53496" lon="5.97385">
        <ele>990.5</ele>
        <time>2021-10-14T09:59:41Z</time>
      </trkpt>
      <trkpt lat="46.53493" lon="5.97391">
        <ele>991.2</ele>
        <time>2021-10-14T09:59:49Z</time>
      </trkpt>
      <trkpt lat="46.53497" lon="5.97396">
        <ele>992.6</ele>
        <time>2021-10-14T09:59:56Z</time>
      </trkpt>
      <trkpt lat="46.53502" lon="5.97397">
        <ele>993.4</ele>
        <time>2021-10-14T10:00:01Z</time>
      </trkpt>
      <trkpt lat="46.53506" lon="5.97392">
        <ele>994.9</ele>
        <time>2021-10-14T10:00:08Z</time>
      </trkpt>
      <trkpt lat="46.53507" lon="5.97386">
        <ele>996.3</ele>
        <time>2021-10-14T10:00:12Z</time>
      </trkpt>
      <trkpt lat="46.5351" lon="5.9738">
        <ele>999.7</ele>
        <time>2021-10-14T10:00:18Z</time>
      </trkpt>
      <trkpt lat="46.53514" lon="5.97377">
        <ele>1002.1</ele>
        <time>2021-10-14T10:00:22Z</time>
      </trkpt>
      <trkpt lat="46.53519" lon="5.97374">
        <ele>1004.6</ele>
        <time>2021-10-14T10:00:26Z</time>
      </trkpt>
      <trkpt lat="46.53524" lon="5.97371">
        <ele>1008.1</ele>
        <time>2021-10-14T10:00:32Z</time>
      </trkpt>
      <trkpt lat="46.53529" lon="5.97373">
        <ele>1012.5</ele>
        <time>2021-10-14T10:00:41Z</time>
      </trkpt>
      <trkpt lat="46.53533" lon="5.97375">
        <ele>1015</ele>
        <time>2021-10-14T10:00:46Z</time>
      </trkpt>
      <trkpt lat="46.53539" lon="5.97375">
        <ele>1017.1</ele>
        <time>2021-10-14T10:00:50Z</time>
      </trkpt>
      <trkpt lat="46.53543" lon="5.97377">
        <ele>1019.4</ele>
        <time>2021-10-14T10:00:55Z</time>
      </trkpt>
      <trkpt lat="46.53548" lon="5.97379">
        <ele>1020.8</ele>
        <time>2021-10-14T10:00:59Z</time>
      </trkpt>
      <trkpt lat="46.53553" lon="5.97381">
        <ele>1021.5</ele>
        <time>2021-10-14T10:01:03Z</time>
      </trkpt>
      <trkpt lat="46.53557" lon="5.97384">
        <ele>1021.5</ele>
        <time>2021-10-14T10:01:08Z</time>
      </trkpt>
      <trkpt lat="46.53562" lon="5.97385">
        <ele>1020.5</ele>
        <time>2021-10-14T10:01:14Z</time>
      </trkpt>
      <trkpt lat="46.53566" lon="5.97388">
        <ele>1019.3</ele>
        <time>2021-10-14T10:01:20Z</time>
      </trkpt>
      <trkpt lat="46.53571" lon="5.97388">
        <ele>1018.1</ele>
        <time>2021-10-14T10:01:26Z</time>
      </trkpt>
      <trkpt lat="46.53576" lon="5.97387">
        <ele>1017.8</ele>
        <time>2021-10-14T10:01:31Z</time>
      </trkpt>
      <trkpt lat="46.53581" lon="5.97387">
        <ele>1017.3</ele>
        <time>2021-10-14T10:01:36Z</time>
      </trkpt>
      <trkpt lat="46.53586" lon="5.97384">
        <ele>1016.7</ele>
        <time>2021-10-14T10:01:41Z</time>
      </trkpt>
      <trkpt lat="46.53591" lon="5.97384">
        <ele>1016.4</ele>
        <time>2021-10-14T10:01:45Z</time>
      </trkpt>
      <trkpt lat="46.53596" lon="5.97385">
        <ele>1016.5</ele>
        <time>2021-10-14T10:01:49Z</time>
      </trkpt>
      <trkpt lat="46.536" lon="5.97384">
        <ele>1016.5</ele>
        <time>2021-10-14T10:01:53Z</time>
      </trkpt>
      <trkpt lat="46.53605" lon="5.97384">
        <ele>1016.6</ele>
        <time>2021-10-14T10:01:58Z</time>
      </trkpt>
      <trkpt lat="46.5361" lon="5.97386">
        <ele>1016.8</ele>
        <time>2021-10-14T10:02:08Z</time>
      </trkpt>
      <trkpt lat="46.53615" lon="5.97388">
        <ele>1016.9</ele>
        <time>2021-10-14T10:02:13Z</time>
      </trkpt>
      <trkpt lat="46.5362" lon="5.9739">
        <ele>1016.6</ele>
        <time>2021-10-14T10:02:18Z</time>
      </trkpt>
      <trkpt lat="46.53624" lon="5.97392">
        <ele>1016.1</ele>
        <time>2021-10-14T10:02:23Z</time>
      </trkpt>
      <trkpt lat="46.5363" lon="5.97395">
        <ele>1015.6</ele>
        <time>2021-10-14T10:02:28Z</time>
      </trkpt>
      <trkpt lat="46.53634" lon="5.97397">
        <ele>1015.5</ele>
        <time>2021-10-14T10:02:35Z</time>
      </trkpt>
      <trkpt lat="46.53638" lon="5.97399">
        <ele>1016</ele>
        <time>2021-10-14T10:02:38Z</time>
      </trkpt>
      <trkpt lat="46.53643" lon="5.97402">
        <ele>1016.4</ele>
        <time>2021-10-14T10:02:41Z</time>
      </trkpt>
      <trkpt lat="46.53647" lon="5.97404">
        <ele>1016.5</ele>
        <time>2021-10-14T10:02:45Z</time>
      </trkpt>
      <trkpt lat="46.53652" lon="5.97405">
        <ele>1016.5</ele>
        <time>2021-10-14T10:02:50Z</time>
      </trkpt>
      <trkpt lat="46.53657" lon="5.97408">
        <ele>1016.5</ele>
        <time>2021-10-14T10:02:56Z</time>
      </trkpt>
      <trkpt lat="46.53659" lon="5.97414">
        <ele>1016</ele>
        <time>2021-10-14T10:03:03Z</time>
      </trkpt>
      <trkpt lat="46.53663" lon="5.97418">
        <ele>1016.2</ele>
        <time>2021-10-14T10:03:09Z</time>
      </trkpt>
      <trkpt lat="46.53669" lon="5.97419">
        <ele>1016.9</ele>
        <time>2021-10-14T10:03:13Z</time>
      </trkpt>
      <trkpt lat="46.53673" lon="5.97419">
        <ele>1017.3</ele>
        <time>2021-10-14T10:03:17Z</time>
      </trkpt>
      <trkpt lat="46.53678" lon="5.9742">
        <ele>1017.2</ele>
        <time>2021-10-14T10:03:23Z</time>
      </trkpt>
      <trkpt lat="46.53683" lon="5.97421">
        <ele>1016.6</ele>
        <time>2021-10-14T10:03:35Z</time>
      </trkpt>
      <trkpt lat="46.53687" lon="5.97423">
        <ele>1014</ele>
        <time>2021-10-14T10:03:45Z</time>
      </trkpt>
      <trkpt lat="46.53692" lon="5.97416">
        <ele>1014.4</ele>
        <time>2021-10-14T10:03:55Z</time>
      </trkpt>
      <trkpt lat="46.53695" lon="5.97411">
        <ele>1016.2</ele>
        <time>2021-10-14T10:04:06Z</time>
      </trkpt>
      <trkpt lat="46.53692" lon="5.97415">
        <ele>1009.9</ele>
        <time>2021-10-14T10:04:27Z</time>
      </trkpt>
      <trkpt lat="46.53687" lon="5.97418">
        <ele>1007.6</ele>
        <time>2021-10-14T10:04:35Z</time>
      </trkpt>
      <trkpt lat="46.53692" lon="5.97421">
        <ele>1006.6</ele>
        <time>2021-10-14T10:04:48Z</time>
      </trkpt>
      <trkpt lat="46.53696" lon="5.97417">
        <ele>1007.1</ele>
        <time>2021-10-14T10:05:02Z</time>
      </trkpt>
      <trkpt lat="46.53696" lon="5.97425">
        <ele>1009.7</ele>
        <time>2021-10-14T10:05:17Z</time>
      </trkpt>
      <trkpt lat="46.53699" lon="5.9743">
        <ele>1011.1</ele>
        <time>2021-10-14T10:05:28Z</time>
      </trkpt>
      <trkpt lat="46.53702" lon="5.97421">
        <ele>1012.6</ele>
        <time>2021-10-14T10:05:38Z</time>
      </trkpt>
      <trkpt lat="46.53702" lon="5.97413">
        <ele>1014.2</ele>
        <time>2021-10-14T10:05:42Z</time>
      </trkpt>
      <trkpt lat="46.53705" lon="5.97418">
        <ele>1016.8</ele>
        <time>2021-10-14T10:05:53Z</time>
      </trkpt>
      <trkpt lat="46.53708" lon="5.97425">
        <ele>1016.6</ele>
        <time>2021-10-14T10:06:00Z</time>
      </trkpt>
      <trkpt lat="46.53713" lon="5.97428">
        <ele>1016.2</ele>
        <time>2021-10-14T10:06:04Z</time>
      </trkpt>
      <trkpt lat="46.53717" lon="5.97431">
        <ele>1016.5</ele>
        <time>2021-10-14T10:06:12Z</time>
      </trkpt>
      <trkpt lat="46.53721" lon="5.97433">
        <ele>1016.1</ele>
        <time>2021-10-14T10:06:18Z</time>
      </trkpt>
      <trkpt lat="46.53726" lon="5.97436">
        <ele>1015.4</ele>
        <time>2021-10-14T10:06:24Z</time>
      </trkpt>
      <trkpt lat="46.53729" lon="5.97441">
        <ele>1014</ele>
        <time>2021-10-14T10:06:29Z</time>
      </trkpt>
      <trkpt lat="46.5373" lon="5.97448">
        <ele>1011.4</ele>
        <time>2021-10-14T10:06:36Z</time>
      </trkpt>
      <trkpt lat="46.53734" lon="5.97453">
        <ele>1008.7</ele>
        <time>2021-10-14T10:06:43Z</time>
      </trkpt>
      <trkpt lat="46.53738" lon="5.97456">
        <ele>1007.1</ele>
        <time>2021-10-14T10:06:48Z</time>
      </trkpt>
      <trkpt lat="46.53743" lon="5.9746">
        <ele>1006.2</ele>
        <time>2021-10-14T10:06:53Z</time>
      </trkpt>
      <trkpt lat="46.53746" lon="5.97466">
        <ele>1005.3</ele>
        <time>2021-10-14T10:06:59Z</time>
      </trkpt>
      <trkpt lat="46.53748" lon="5.97472">
        <ele>1004.5</ele>
        <time>2021-10-14T10:07:05Z</time>
      </trkpt>
      <trkpt lat="46.53751" lon="5.97479">
        <ele>1003.6</ele>
        <time>2021-10-14T10:07:11Z</time>
      </trkpt>
      <trkpt lat="46.53754" lon="5.97484">
        <ele>1003.7</ele>
        <time>2021-10-14T10:07:17Z</time>
      </trkpt>
      <trkpt lat="46.53759" lon="5.97485">
        <ele>1004.8</ele>
        <time>2021-10-14T10:07:24Z</time>
      </trkpt>
      <trkpt lat="46.53764" lon="5.97488">
        <ele>1005.4</ele>
        <time>2021-10-14T10:07:32Z</time>
      </trkpt>
      <trkpt lat="46.53768" lon="5.97489">
        <ele>1005.5</ele>
        <time>2021-10-14T10:07:37Z</time>
      </trkpt>
      <trkpt lat="46.53774" lon="5.9749">
        <ele>1006.1</ele>
        <time>2021-10-14T10:07:42Z</time>
      </trkpt>
      <trkpt lat="46.53778" lon="5.97489">
        <ele>1006.7</ele>
        <time>2021-10-14T10:07:46Z</time>
      </trkpt>
      <trkpt lat="46.53783" lon="5.97489">
        <ele>1007</ele>
        <time>2021-10-14T10:07:52Z</time>
      </trkpt>
      <trkpt lat="46.53786" lon="5.97495">
        <ele>1006.8</ele>
        <time>2021-10-14T10:07:58Z</time>
      </trkpt>
      <trkpt lat="46.5379" lon="5.97498">
        <ele>1006.3</ele>
        <time>2021-10-14T10:08:04Z</time>
      </trkpt>
      <trkpt lat="46.53791" lon="5.97506">
        <ele>1004.1</ele>
        <time>2021-10-14T10:08:18Z</time>
      </trkpt>
      <trkpt lat="46.53795" lon="5.97504">
        <ele>1003.5</ele>
        <time>2021-10-14T10:08:24Z</time>
      </trkpt>
      <trkpt lat="46.53798" lon="5.97499">
        <ele>1004.1</ele>
        <time>2021-10-14T10:08:28Z</time>
      </trkpt>
      <trkpt lat="46.538" lon="5.97492">
        <ele>1005.2</ele>
        <time>2021-10-14T10:08:33Z</time>
      </trkpt>
      <trkpt lat="46.538" lon="5.97485">
        <ele>1006.4</ele>
        <time>2021-10-14T10:08:40Z</time>
      </trkpt>
      <trkpt lat="46.53804" lon="5.9748">
        <ele>1006.6</ele>
        <time>2021-10-14T10:08:46Z</time>
      </trkpt>
      <trkpt lat="46.53807" lon="5.97475">
        <ele>1005.3</ele>
        <time>2021-10-14T10:08:53Z</time>
      </trkpt>
      <trkpt lat="46.53811" lon="5.97471">
        <ele>1004.1</ele>
        <time>2021-10-14T10:08:57Z</time>
      </trkpt>
      <trkpt lat="46.53815" lon="5.97467">
        <ele>1003.1</ele>
        <time>2021-10-14T10:09:02Z</time>
      </trkpt>
      <trkpt lat="46.53819" lon="5.97463">
        <ele>1002.4</ele>
        <time>2021-10-14T10:09:08Z</time>
      </trkpt>
      <trkpt lat="46.53824" lon="5.9746">
        <ele>1001.9</ele>
        <time>2021-10-14T10:09:14Z</time>
      </trkpt>
      <trkpt lat="46.5383" lon="5.9746">
        <ele>1001.5</ele>
        <time>2021-10-14T10:09:18Z</time>
      </trkpt>
      <trkpt lat="46.53834" lon="5.9746">
        <ele>1000.9</ele>
        <time>2021-10-14T10:09:22Z</time>
      </trkpt>
      <trkpt lat="46.53838" lon="5.97456">
        <ele>1000.3</ele>
        <time>2021-10-14T10:09:26Z</time>
      </trkpt>
      <trkpt lat="46.5384" lon="5.97449">
        <ele>999.8</ele>
        <time>2021-10-14T10:09:31Z</time>
      </trkpt>
      <trkpt lat="46.53844" lon="5.97445">
        <ele>999.7</ele>
        <time>2021-10-14T10:09:37Z</time>
      </trkpt>
      <trkpt lat="46.53848" lon="5.9744">
        <ele>999.2</ele>
        <time>2021-10-14T10:09:42Z</time>
      </trkpt>
      <trkpt lat="46.53851" lon="5.97444">
        <ele>996.5</ele>
        <time>2021-10-14T10:10:33Z</time>
      </trkpt>
      <trkpt lat="46.53848" lon="5.97448">
        <ele>990.1</ele>
        <time>2021-10-14T10:37:21Z</time>
      </trkpt>
      <trkpt lat="46.53846" lon="5.97442">
        <ele>987.4</ele>
        <time>2021-10-14T10:46:34Z</time>
      </trkpt>
      <trkpt lat="46.53849" lon="5.97448">
        <ele>987.6</ele>
        <time>2021-10-14T10:47:15Z</time>
      </trkpt>
      <trkpt lat="46.53846" lon="5.97443">
        <ele>991.6</ele>
        <time>2021-10-14T10:49:32Z</time>
      </trkpt>
      <trkpt lat="46.53845" lon="5.97436">
        <ele>990</ele>
        <time>2021-10-14T10:49:53Z</time>
      </trkpt>
      <trkpt lat="46.5385" lon="5.97442">
        <ele>989.5</ele>
        <time>2021-10-14T10:50:25Z</time>
      </trkpt>
      <trkpt lat="46.53849" lon="5.97435">
        <ele>998.3</ele>
        <time>2021-10-14T10:52:07Z</time>
      </trkpt>
      <trkpt lat="46.53845" lon="5.97431">
        <ele>994.8</ele>
        <time>2021-10-14T10:52:26Z</time>
      </trkpt>
      <trkpt lat="46.53844" lon="5.97438">
        <ele>993.8</ele>
        <time>2021-10-14T10:52:50Z</time>
      </trkpt>
      <trkpt lat="46.53841" lon="5.97443">
        <ele>993.1</ele>
        <time>2021-10-14T10:53:03Z</time>
      </trkpt>
      <trkpt lat="46.5384" lon="5.9745">
        <ele>993.2</ele>
        <time>2021-10-14T10:53:09Z</time>
      </trkpt>
      <trkpt lat="46.53837" lon="5.97456">
        <ele>993.5</ele>
        <time>2021-10-14T10:53:15Z</time>
      </trkpt>
      <trkpt lat="46.53833" lon="5.9746">
        <ele>993.7</ele>
        <time>2021-10-14T10:53:22Z</time>
      </trkpt>
      <trkpt lat="46.53828" lon="5.97463">
        <ele>993.7</ele>
        <time>2021-10-14T10:53:27Z</time>
      </trkpt>
      <trkpt lat="46.53825" lon="5.97469">
        <ele>993.4</ele>
        <time>2021-10-14T10:53:34Z</time>
      </trkpt>
      <trkpt lat="46.53822" lon="5.97475">
        <ele>993.5</ele>
        <time>2021-10-14T10:53:39Z</time>
      </trkpt>
      <trkpt lat="46.5382" lon="5.97481">
        <ele>993.6</ele>
        <time>2021-10-14T10:53:44Z</time>
      </trkpt>
      <trkpt lat="46.53815" lon="5.97486">
        <ele>993.7</ele>
        <time>2021-10-14T10:53:49Z</time>
      </trkpt>
      <trkpt lat="46.53812" lon="5.97491">
        <ele>993.5</ele>
        <time>2021-10-14T10:53:55Z</time>
      </trkpt>
      <trkpt lat="46.53808" lon="5.97495">
        <ele>992.5</ele>
        <time>2021-10-14T10:54:03Z</time>
      </trkpt>
      <trkpt lat="46.53803" lon="5.97498">
        <ele>991.4</ele>
        <time>2021-10-14T10:54:10Z</time>
      </trkpt>
      <trkpt lat="46.53799" lon="5.97498">
        <ele>990.7</ele>
        <time>2021-10-14T10:54:15Z</time>
      </trkpt>
      <trkpt lat="46.53794" lon="5.975">
        <ele>990.2</ele>
        <time>2021-10-14T10:54:21Z</time>
      </trkpt>
      <trkpt lat="46.53791" lon="5.97505">
        <ele>990.3</ele>
        <time>2021-10-14T10:54:26Z</time>
      </trkpt>
      <trkpt lat="46.53788" lon="5.97511">
        <ele>990.5</ele>
        <time>2021-10-14T10:54:30Z</time>
      </trkpt>
      <trkpt lat="46.53783" lon="5.97516">
        <ele>990.1</ele>
        <time>2021-10-14T10:54:35Z</time>
      </trkpt>
      <trkpt lat="46.53781" lon="5.97522">
        <ele>989.5</ele>
        <time>2021-10-14T10:54:42Z</time>
      </trkpt>
      <trkpt lat="46.5378" lon="5.97529">
        <ele>989.6</ele>
        <time>2021-10-14T10:54:47Z</time>
      </trkpt>
      <trkpt lat="46.53779" lon="5.97537">
        <ele>989.7</ele>
        <time>2021-10-14T10:54:52Z</time>
      </trkpt>
      <trkpt lat="46.53778" lon="5.97544">
        <ele>989.8</ele>
        <time>2021-10-14T10:54:56Z</time>
      </trkpt>
      <trkpt lat="46.53776" lon="5.97552">
        <ele>990.4</ele>
        <time>2021-10-14T10:55:01Z</time>
      </trkpt>
      <trkpt lat="46.53775" lon="5.97558">
        <ele>991.4</ele>
        <time>2021-10-14T10:55:06Z</time>
      </trkpt>
      <trkpt lat="46.53775" lon="5.97566">
        <ele>991.9</ele>
        <time>2021-10-14T10:55:13Z</time>
      </trkpt>
      <trkpt lat="46.53775" lon="5.97573">
        <ele>991.7</ele>
        <time>2021-10-14T10:55:18Z</time>
      </trkpt>
      <trkpt lat="46.53778" lon="5.9758">
        <ele>991.7</ele>
        <time>2021-10-14T10:55:22Z</time>
      </trkpt>
      <trkpt lat="46.5378" lon="5.97586">
        <ele>992</ele>
        <time>2021-10-14T10:55:27Z</time>
      </trkpt>
      <trkpt lat="46.53783" lon="5.97591">
        <ele>993.2</ele>
        <time>2021-10-14T10:55:33Z</time>
      </trkpt>
      <trkpt lat="46.53782" lon="5.97598">
        <ele>994.7</ele>
        <time>2021-10-14T10:55:39Z</time>
      </trkpt>
      <trkpt lat="46.53785" lon="5.97603">
        <ele>995.7</ele>
        <time>2021-10-14T10:55:46Z</time>
      </trkpt>
      <trkpt lat="46.5379" lon="5.97606">
        <ele>996.5</ele>
        <time>2021-10-14T10:55:50Z</time>
      </trkpt>
      <trkpt lat="46.53793" lon="5.97612">
        <ele>997.3</ele>
        <time>2021-10-14T10:55:55Z</time>
      </trkpt>
      <trkpt lat="46.53796" lon="5.97616">
        <ele>998.5</ele>
        <time>2021-10-14T10:56:00Z</time>
      </trkpt>
      <trkpt lat="46.538" lon="5.97621">
        <ele>999.1</ele>
        <time>2021-10-14T10:56:04Z</time>
      </trkpt>
      <trkpt lat="46.53802" lon="5.97628">
        <ele>999</ele>
        <time>2021-10-14T10:56:09Z</time>
      </trkpt>
      <trkpt lat="46.53803" lon="5.97635">
        <ele>998.8</ele>
        <time>2021-10-14T10:56:15Z</time>
      </trkpt>
      <trkpt lat="46.53803" lon="5.97642">
        <ele>999</ele>
        <time>2021-10-14T10:56:20Z</time>
      </trkpt>
      <trkpt lat="46.538" lon="5.97648">
        <ele>999.5</ele>
        <time>2021-10-14T10:56:24Z</time>
      </trkpt>
      <trkpt lat="46.53796" lon="5.97653">
        <ele>999.9</ele>
        <time>2021-10-14T10:56:28Z</time>
      </trkpt>
      <trkpt lat="46.53793" lon="5.97657">
        <ele>1000.3</ele>
        <time>2021-10-14T10:56:32Z</time>
      </trkpt>
      <trkpt lat="46.53788" lon="5.9766">
        <ele>1001.2</ele>
        <time>2021-10-14T10:56:38Z</time>
      </trkpt>
      <trkpt lat="46.53785" lon="5.97665">
        <ele>1002.1</ele>
        <time>2021-10-14T10:56:43Z</time>
      </trkpt>
      <trkpt lat="46.53781" lon="5.97671">
        <ele>1002.9</ele>
        <time>2021-10-14T10:56:49Z</time>
      </trkpt>
      <trkpt lat="46.53778" lon="5.97676">
        <ele>1003.1</ele>
        <time>2021-10-14T10:56:54Z</time>
      </trkpt>
      <trkpt lat="46.53775" lon="5.97682">
        <ele>1002.9</ele>
        <time>2021-10-14T10:56:58Z</time>
      </trkpt>
      <trkpt lat="46.53773" lon="5.97687">
        <ele>1003</ele>
        <time>2021-10-14T10:57:02Z</time>
      </trkpt>
      <trkpt lat="46.53769" lon="5.9769">
        <ele>1003.2</ele>
        <time>2021-10-14T10:57:06Z</time>
      </trkpt>
      <trkpt lat="46.53765" lon="5.97694">
        <ele>1003.3</ele>
        <time>2021-10-14T10:57:10Z</time>
      </trkpt>
      <trkpt lat="46.53761" lon="5.97699">
        <ele>1003.5</ele>
        <time>2021-10-14T10:57:14Z</time>
      </trkpt>
      <trkpt lat="46.53758" lon="5.97704">
        <ele>1003.3</ele>
        <time>2021-10-14T10:57:20Z</time>
      </trkpt>
      <trkpt lat="46.53755" lon="5.9771">
        <ele>1002.5</ele>
        <time>2021-10-14T10:57:26Z</time>
      </trkpt>
      <trkpt lat="46.53752" lon="5.97716">
        <ele>1001.6</ele>
        <time>2021-10-14T10:57:30Z</time>
      </trkpt>
      <trkpt lat="46.53748" lon="5.9772">
        <ele>1000.2</ele>
        <time>2021-10-14T10:57:34Z</time>
      </trkpt>
      <trkpt lat="46.53746" lon="5.97726">
        <ele>998.2</ele>
        <time>2021-10-14T10:57:40Z</time>
      </trkpt>
      <trkpt lat="46.53744" lon="5.97734">
        <ele>996.9</ele>
        <time>2021-10-14T10:57:45Z</time>
      </trkpt>
      <trkpt lat="46.53741" lon="5.97739">
        <ele>996.2</ele>
        <time>2021-10-14T10:57:50Z</time>
      </trkpt>
      <trkpt lat="46.5374" lon="5.97746">
        <ele>995.7</ele>
        <time>2021-10-14T10:57:54Z</time>
      </trkpt>
      <trkpt lat="46.53739" lon="5.97754">
        <ele>995.4</ele>
        <time>2021-10-14T10:57:59Z</time>
      </trkpt>
      <trkpt lat="46.53738" lon="5.97761">
        <ele>995.6</ele>
        <time>2021-10-14T10:58:04Z</time>
      </trkpt>
      <trkpt lat="46.53736" lon="5.97767">
        <ele>996.5</ele>
        <time>2021-10-14T10:58:09Z</time>
      </trkpt>
      <trkpt lat="46.53733" lon="5.97773">
        <ele>998</ele>
        <time>2021-10-14T10:58:14Z</time>
      </trkpt>
      <trkpt lat="46.53732" lon="5.9778">
        <ele>999.7</ele>
        <time>2021-10-14T10:58:19Z</time>
      </trkpt>
      <trkpt lat="46.53729" lon="5.97786">
        <ele>1000.6</ele>
        <time>2021-10-14T10:58:24Z</time>
      </trkpt>
      <trkpt lat="46.53727" lon="5.97792">
        <ele>1000.8</ele>
        <time>2021-10-14T10:58:30Z</time>
      </trkpt>
      <trkpt lat="46.53724" lon="5.97797">
        <ele>1000.4</ele>
        <time>2021-10-14T10:58:34Z</time>
      </trkpt>
      <trkpt lat="46.53721" lon="5.97803">
        <ele>999.3</ele>
        <time>2021-10-14T10:58:38Z</time>
      </trkpt>
      <trkpt lat="46.53719" lon="5.97811">
        <ele>998.4</ele>
        <time>2021-10-14T10:58:42Z</time>
      </trkpt>
      <trkpt lat="46.53718" lon="5.97818">
        <ele>996.2</ele>
        <time>2021-10-14T10:58:48Z</time>
      </trkpt>
      <trkpt lat="46.53715" lon="5.97825">
        <ele>995.4</ele>
        <time>2021-10-14T10:58:52Z</time>
      </trkpt>
      <trkpt lat="46.53712" lon="5.97832">
        <ele>994.6</ele>
        <time>2021-10-14T10:58:56Z</time>
      </trkpt>
      <trkpt lat="46.53711" lon="5.97839">
        <ele>994.3</ele>
        <time>2021-10-14T10:59:00Z</time>
      </trkpt>
      <trkpt lat="46.53711" lon="5.97845">
        <ele>994.5</ele>
        <time>2021-10-14T10:59:04Z</time>
      </trkpt>
      <trkpt lat="46.53709" lon="5.97853">
        <ele>994.9</ele>
        <time>2021-10-14T10:59:09Z</time>
      </trkpt>
      <trkpt lat="46.53706" lon="5.97859">
        <ele>995</ele>
        <time>2021-10-14T10:59:14Z</time>
      </trkpt>
      <trkpt lat="46.53704" lon="5.97865">
        <ele>995.4</ele>
        <time>2021-10-14T10:59:18Z</time>
      </trkpt>
      <trkpt lat="46.53702" lon="5.97872">
        <ele>996.1</ele>
        <time>2021-10-14T10:59:22Z</time>
      </trkpt>
      <trkpt lat="46.537" lon="5.97879">
        <ele>996.8</ele>
        <time>2021-10-14T10:59:26Z</time>
      </trkpt>
      <trkpt lat="46.53699" lon="5.97886">
        <ele>997.8</ele>
        <time>2021-10-14T10:59:31Z</time>
      </trkpt>
      <trkpt lat="46.53698" lon="5.97893">
        <ele>998.7</ele>
        <time>2021-10-14T10:59:36Z</time>
      </trkpt>
      <trkpt lat="46.53695" lon="5.97899">
        <ele>999.3</ele>
        <time>2021-10-14T10:59:40Z</time>
      </trkpt>
      <trkpt lat="46.53697" lon="5.97906">
        <ele>999.9</ele>
        <time>2021-10-14T10:59:46Z</time>
      </trkpt>
      <trkpt lat="46.53697" lon="5.97913">
        <ele>1000.2</ele>
        <time>2021-10-14T10:59:51Z</time>
      </trkpt>
      <trkpt lat="46.53695" lon="5.97921">
        <ele>1000.6</ele>
        <time>2021-10-14T10:59:56Z</time>
      </trkpt>
      <trkpt lat="46.53694" lon="5.97929">
        <ele>1000.9</ele>
        <time>2021-10-14T11:00:00Z</time>
      </trkpt>
      <trkpt lat="46.53694" lon="5.97936">
        <ele>1001</ele>
        <time>2021-10-14T11:00:05Z</time>
      </trkpt>
      <trkpt lat="46.53694" lon="5.97943">
        <ele>1001.2</ele>
        <time>2021-10-14T11:00:10Z</time>
      </trkpt>
      <trkpt lat="46.53694" lon="5.97949">
        <ele>1001.5</ele>
        <time>2021-10-14T11:00:14Z</time>
      </trkpt>
      <trkpt lat="46.53692" lon="5.97956">
        <ele>1001.5</ele>
        <time>2021-10-14T11:00:17Z</time>
      </trkpt>
      <trkpt lat="46.5369" lon="5.97964">
        <ele>1001.3</ele>
        <time>2021-10-14T11:00:20Z</time>
      </trkpt>
      <trkpt lat="46.53689" lon="5.97971">
        <ele>1001.1</ele>
        <time>2021-10-14T11:00:24Z</time>
      </trkpt>
      <trkpt lat="46.53686" lon="5.97976">
        <ele>1000.9</ele>
        <time>2021-10-14T11:00:29Z</time>
      </trkpt>
      <trkpt lat="46.53683" lon="5.97982">
        <ele>1001.4</ele>
        <time>2021-10-14T11:00:35Z</time>
      </trkpt>
      <trkpt lat="46.53682" lon="5.97989">
        <ele>1001.6</ele>
        <time>2021-10-14T11:00:40Z</time>
      </trkpt>
      <trkpt lat="46.5368" lon="5.97996">
        <ele>1002.1</ele>
        <time>2021-10-14T11:00:44Z</time>
      </trkpt>
      <trkpt lat="46.53679" lon="5.98002">
        <ele>1002.7</ele>
        <time>2021-10-14T11:00:48Z</time>
      </trkpt>
      <trkpt lat="46.53676" lon="5.98009">
        <ele>1003.3</ele>
        <time>2021-10-14T11:00:52Z</time>
      </trkpt>
      <trkpt lat="46.53677" lon="5.98017">
        <ele>1004.2</ele>
        <time>2021-10-14T11:00:57Z</time>
      </trkpt>
      <trkpt lat="46.5368" lon="5.98024">
        <ele>1005.5</ele>
        <time>2021-10-14T11:01:01Z</time>
      </trkpt>
      <trkpt lat="46.53684" lon="5.98026">
        <ele>1006.8</ele>
        <time>2021-10-14T11:01:04Z</time>
      </trkpt>
      <trkpt lat="46.53688" lon="5.9803">
        <ele>1008.8</ele>
        <time>2021-10-14T11:01:12Z</time>
      </trkpt>
      <trkpt lat="46.53692" lon="5.98034">
        <ele>1008.8</ele>
        <time>2021-10-14T11:01:17Z</time>
      </trkpt>
      <trkpt lat="46.53696" lon="5.98038">
        <ele>1007.4</ele>
        <time>2021-10-14T11:01:23Z</time>
      </trkpt>
      <trkpt lat="46.53701" lon="5.98042">
        <ele>1003.7</ele>
        <time>2021-10-14T11:01:30Z</time>
      </trkpt>
      <trkpt lat="46.53705" lon="5.98043">
        <ele>1002.6</ele>
        <time>2021-10-14T11:01:33Z</time>
      </trkpt>
      <trkpt lat="46.53711" lon="5.98042">
        <ele>1002.7</ele>
        <time>2021-10-14T11:01:36Z</time>
      </trkpt>
      <trkpt lat="46.53715" lon="5.9804">
        <ele>1003.1</ele>
        <time>2021-10-14T11:01:39Z</time>
      </trkpt>
      <trkpt lat="46.53721" lon="5.9804">
        <ele>1004.1</ele>
        <time>2021-10-14T11:01:43Z</time>
      </trkpt>
      <trkpt lat="46.53725" lon="5.98042">
        <ele>1007</ele>
        <time>2021-10-14T11:01:50Z</time>
      </trkpt>
      <trkpt lat="46.53731" lon="5.98044">
        <ele>1010.3</ele>
        <time>2021-10-14T11:01:55Z</time>
      </trkpt>
      <trkpt lat="46.53736" lon="5.98047">
        <ele>1012.4</ele>
        <time>2021-10-14T11:01:59Z</time>
      </trkpt>
      <trkpt lat="46.53739" lon="5.98053">
        <ele>1014</ele>
        <time>2021-10-14T11:02:03Z</time>
      </trkpt>
      <trkpt lat="46.53742" lon="5.98059">
        <ele>1014.6</ele>
        <time>2021-10-14T11:02:10Z</time>
      </trkpt>
      <trkpt lat="46.53746" lon="5.98062">
        <ele>1014.6</ele>
        <time>2021-10-14T11:02:15Z</time>
      </trkpt>
      <trkpt lat="46.53751" lon="5.98065">
        <ele>1014.8</ele>
        <time>2021-10-14T11:02:19Z</time>
      </trkpt>
      <trkpt lat="46.53755" lon="5.98065">
        <ele>1014.9</ele>
        <time>2021-10-14T11:02:22Z</time>
      </trkpt>
      <trkpt lat="46.53761" lon="5.98067">
        <ele>1015.1</ele>
        <time>2021-10-14T11:02:26Z</time>
      </trkpt>
      <trkpt lat="46.53765" lon="5.98071">
        <ele>1015.4</ele>
        <time>2021-10-14T11:02:31Z</time>
      </trkpt>
      <trkpt lat="46.53768" lon="5.98077">
        <ele>1016.6</ele>
        <time>2021-10-14T11:02:36Z</time>
      </trkpt>
      <trkpt lat="46.53771" lon="5.98082">
        <ele>1017.4</ele>
        <time>2021-10-14T11:02:41Z</time>
      </trkpt>
      <trkpt lat="46.53776" lon="5.98084">
        <ele>1018.3</ele>
        <time>2021-10-14T11:02:47Z</time>
      </trkpt>
      <trkpt lat="46.53781" lon="5.98086">
        <ele>1018.3</ele>
        <time>2021-10-14T11:02:51Z</time>
      </trkpt>
      <trkpt lat="46.53787" lon="5.98089">
        <ele>1017.9</ele>
        <time>2021-10-14T11:02:55Z</time>
      </trkpt>
      <trkpt lat="46.53791" lon="5.98092">
        <ele>1017.6</ele>
        <time>2021-10-14T11:02:59Z</time>
      </trkpt>
      <trkpt lat="46.53794" lon="5.98097">
        <ele>1017.3</ele>
        <time>2021-10-14T11:03:03Z</time>
      </trkpt>
      <trkpt lat="46.53798" lon="5.98102">
        <ele>1017</ele>
        <time>2021-10-14T11:03:08Z</time>
      </trkpt>
      <trkpt lat="46.53802" lon="5.98106">
        <ele>1016.7</ele>
        <time>2021-10-14T11:03:12Z</time>
      </trkpt>
      <trkpt lat="46.53805" lon="5.98111">
        <ele>1015.4</ele>
        <time>2021-10-14T11:03:17Z</time>
      </trkpt>
      <trkpt lat="46.5381" lon="5.98116">
        <ele>1013.9</ele>
        <time>2021-10-14T11:03:24Z</time>
      </trkpt>
      <trkpt lat="46.53815" lon="5.98118">
        <ele>1013.7</ele>
        <time>2021-10-14T11:03:28Z</time>
      </trkpt>
      <trkpt lat="46.5382" lon="5.98121">
        <ele>1013.5</ele>
        <time>2021-10-14T11:03:32Z</time>
      </trkpt>
      <trkpt lat="46.53824" lon="5.98124">
        <ele>1012.9</ele>
        <time>2021-10-14T11:03:36Z</time>
      </trkpt>
      <trkpt lat="46.53828" lon="5.98129">
        <ele>1011.8</ele>
        <time>2021-10-14T11:03:42Z</time>
      </trkpt>
      <trkpt lat="46.53833" lon="5.98132">
        <ele>1011.5</ele>
        <time>2021-10-14T11:03:47Z</time>
      </trkpt>
      <trkpt lat="46.53838" lon="5.98137">
        <ele>1011.3</ele>
        <time>2021-10-14T11:03:51Z</time>
      </trkpt>
      <trkpt lat="46.53842" lon="5.98141">
        <ele>1011.4</ele>
        <time>2021-10-14T11:03:55Z</time>
      </trkpt>
      <trkpt lat="46.53846" lon="5.98145">
        <ele>1011.5</ele>
        <time>2021-10-14T11:03:59Z</time>
      </trkpt>
      <trkpt lat="46.53849" lon="5.9815">
        <ele>1010.8</ele>
        <time>2021-10-14T11:04:04Z</time>
      </trkpt>
      <trkpt lat="46.53847" lon="5.98158">
        <ele>1010</ele>
        <time>2021-10-14T11:04:09Z</time>
      </trkpt>
      <trkpt lat="46.5385" lon="5.98164">
        <ele>1009</ele>
        <time>2021-10-14T11:04:13Z</time>
      </trkpt>
      <trkpt lat="46.53852" lon="5.9817">
        <ele>1008.5</ele>
        <time>2021-10-14T11:04:16Z</time>
      </trkpt>
      <trkpt lat="46.53855" lon="5.98176">
        <ele>1009</ele>
        <time>2021-10-14T11:04:20Z</time>
      </trkpt>
      <trkpt lat="46.53857" lon="5.98184">
        <ele>1010.1</ele>
        <time>2021-10-14T11:04:25Z</time>
      </trkpt>
      <trkpt lat="46.53853" lon="5.98188">
        <ele>1010.7</ele>
        <time>2021-10-14T11:04:29Z</time>
      </trkpt>
      <trkpt lat="46.53851" lon="5.98195">
        <ele>1011.8</ele>
        <time>2021-10-14T11:04:35Z</time>
      </trkpt>
      <trkpt lat="46.53852" lon="5.98201">
        <ele>1012.9</ele>
        <time>2021-10-14T11:04:40Z</time>
      </trkpt>
      <trkpt lat="46.53855" lon="5.98207">
        <ele>1014.4</ele>
        <time>2021-10-14T11:04:44Z</time>
      </trkpt>
      <trkpt lat="46.53857" lon="5.98214">
        <ele>1016.8</ele>
        <time>2021-10-14T11:04:50Z</time>
      </trkpt>
      <trkpt lat="46.53857" lon="5.98221">
        <ele>1019.1</ele>
        <time>2021-10-14T11:04:56Z</time>
      </trkpt>
      <trkpt lat="46.53856" lon="5.98228">
        <ele>1020.3</ele>
        <time>2021-10-14T11:05:00Z</time>
      </trkpt>
      <trkpt lat="46.53852" lon="5.98234">
        <ele>1020.6</ele>
        <time>2021-10-14T11:05:03Z</time>
      </trkpt>
      <trkpt lat="46.53849" lon="5.9824">
        <ele>1021.1</ele>
        <time>2021-10-14T11:05:06Z</time>
      </trkpt>
      <trkpt lat="46.53847" lon="5.98246">
        <ele>1021.3</ele>
        <time>2021-10-14T11:05:10Z</time>
      </trkpt>
      <trkpt lat="46.53845" lon="5.98253">
        <ele>1021</ele>
        <time>2021-10-14T11:05:14Z</time>
      </trkpt>
      <trkpt lat="46.53843" lon="5.9826">
        <ele>1020.6</ele>
        <time>2021-10-14T11:05:18Z</time>
      </trkpt>
      <trkpt lat="46.53841" lon="5.98266">
        <ele>1020.3</ele>
        <time>2021-10-14T11:05:22Z</time>
      </trkpt>
      <trkpt lat="46.53838" lon="5.98272">
        <ele>1019.6</ele>
        <time>2021-10-14T11:05:28Z</time>
      </trkpt>
      <trkpt lat="46.53839" lon="5.98279">
        <ele>1018.2</ele>
        <time>2021-10-14T11:05:35Z</time>
      </trkpt>
      <trkpt lat="46.53838" lon="5.98286">
        <ele>1017</ele>
        <time>2021-10-14T11:05:41Z</time>
      </trkpt>
      <trkpt lat="46.53836" lon="5.98292">
        <ele>1016.5</ele>
        <time>2021-10-14T11:05:45Z</time>
      </trkpt>
      <trkpt lat="46.53833" lon="5.98298">
        <ele>1016.3</ele>
        <time>2021-10-14T11:05:49Z</time>
      </trkpt>
      <trkpt lat="46.53831" lon="5.98304">
        <ele>1016.8</ele>
        <time>2021-10-14T11:05:56Z</time>
      </trkpt>
      <trkpt lat="46.5383" lon="5.98311">
        <ele>1017.6</ele>
        <time>2021-10-14T11:06:00Z</time>
      </trkpt>
      <trkpt lat="46.53829" lon="5.98319">
        <ele>1018.7</ele>
        <time>2021-10-14T11:06:04Z</time>
      </trkpt>
      <trkpt lat="46.53828" lon="5.98326">
        <ele>1019.7</ele>
        <time>2021-10-14T11:06:08Z</time>
      </trkpt>
      <trkpt lat="46.53829" lon="5.98334">
        <ele>1020.8</ele>
        <time>2021-10-14T11:06:13Z</time>
      </trkpt>
      <trkpt lat="46.53828" lon="5.9834">
        <ele>1021.7</ele>
        <time>2021-10-14T11:06:18Z</time>
      </trkpt>
      <trkpt lat="46.53826" lon="5.98348">
        <ele>1023.1</ele>
        <time>2021-10-14T11:06:23Z</time>
      </trkpt>
      <trkpt lat="46.53825" lon="5.98355">
        <ele>1024.4</ele>
        <time>2021-10-14T11:06:28Z</time>
      </trkpt>
      <trkpt lat="46.53824" lon="5.98362">
        <ele>1025.4</ele>
        <time>2021-10-14T11:06:33Z</time>
      </trkpt>
      <trkpt lat="46.53822" lon="5.98369">
        <ele>1025.4</ele>
        <time>2021-10-14T11:06:38Z</time>
      </trkpt>
      <trkpt lat="46.53819" lon="5.98375">
        <ele>1024.6</ele>
        <time>2021-10-14T11:06:42Z</time>
      </trkpt>
      <trkpt lat="46.53816" lon="5.9838">
        <ele>1022.9</ele>
        <time>2021-10-14T11:06:48Z</time>
      </trkpt>
      <trkpt lat="46.53814" lon="5.98387">
        <ele>1022</ele>
        <time>2021-10-14T11:06:53Z</time>
      </trkpt>
      <trkpt lat="46.53812" lon="5.98393">
        <ele>1020.9</ele>
        <time>2021-10-14T11:06:58Z</time>
      </trkpt>
      <trkpt lat="46.53809" lon="5.98398">
        <ele>1020.1</ele>
        <time>2021-10-14T11:07:02Z</time>
      </trkpt>
      <trkpt lat="46.53806" lon="5.98405">
        <ele>1019.4</ele>
        <time>2021-10-14T11:07:07Z</time>
      </trkpt>
      <trkpt lat="46.53806" lon="5.98412">
        <ele>1019.1</ele>
        <time>2021-10-14T11:07:11Z</time>
      </trkpt>
      <trkpt lat="46.53805" lon="5.98419">
        <ele>1018.7</ele>
        <time>2021-10-14T11:07:14Z</time>
      </trkpt>
      <trkpt lat="46.53804" lon="5.98427">
        <ele>1018.2</ele>
        <time>2021-10-14T11:07:18Z</time>
      </trkpt>
      <trkpt lat="46.53802" lon="5.98434">
        <ele>1017</ele>
        <time>2021-10-14T11:07:25Z</time>
      </trkpt>
      <trkpt lat="46.53801" lon="5.98441">
        <ele>1015.4</ele>
        <time>2021-10-14T11:07:31Z</time>
      </trkpt>
      <trkpt lat="46.53801" lon="5.98449">
        <ele>1014</ele>
        <time>2021-10-14T11:07:37Z</time>
      </trkpt>
      <trkpt lat="46.53803" lon="5.98455">
        <ele>1013.7</ele>
        <time>2021-10-14T11:07:42Z</time>
      </trkpt>
      <trkpt lat="46.53803" lon="5.98462">
        <ele>1010.7</ele>
        <time>2021-10-14T11:07:50Z</time>
      </trkpt>
      <trkpt lat="46.53799" lon="5.98467">
        <ele>1011</ele>
        <time>2021-10-14T11:08:12Z</time>
      </trkpt>
      <trkpt lat="46.53795" lon="5.98473">
        <ele>1012.5</ele>
        <time>2021-10-14T11:08:16Z</time>
      </trkpt>
      <trkpt lat="46.53792" lon="5.98477">
        <ele>1013.3</ele>
        <time>2021-10-14T11:08:19Z</time>
      </trkpt>
      <trkpt lat="46.53788" lon="5.98482">
        <ele>1014</ele>
        <time>2021-10-14T11:08:23Z</time>
      </trkpt>
      <trkpt lat="46.53785" lon="5.98488">
        <ele>1014.1</ele>
        <time>2021-10-14T11:08:27Z</time>
      </trkpt>
      <trkpt lat="46.53785" lon="5.98495">
        <ele>1014.6</ele>
        <time>2021-10-14T11:08:31Z</time>
      </trkpt>
      <trkpt lat="46.53784" lon="5.98503">
        <ele>1016</ele>
        <time>2021-10-14T11:08:36Z</time>
      </trkpt>
      <trkpt lat="46.53782" lon="5.98511">
        <ele>1017.6</ele>
        <time>2021-10-14T11:08:40Z</time>
      </trkpt>
      <trkpt lat="46.53782" lon="5.98518">
        <ele>1019.1</ele>
        <time>2021-10-14T11:08:43Z</time>
      </trkpt>
      <trkpt lat="46.53781" lon="5.98526">
        <ele>1020.4</ele>
        <time>2021-10-14T11:08:47Z</time>
      </trkpt>
      <trkpt lat="46.5378" lon="5.98532">
        <ele>1020.8</ele>
        <time>2021-10-14T11:08:51Z</time>
      </trkpt>
      <trkpt lat="46.53781" lon="5.98539">
        <ele>1021.8</ele>
        <time>2021-10-14T11:08:59Z</time>
      </trkpt>
      <trkpt lat="46.53785" lon="5.98542">
        <ele>1021.3</ele>
        <time>2021-10-14T11:09:06Z</time>
      </trkpt>
      <trkpt lat="46.5379" lon="5.98544">
        <ele>1021.2</ele>
        <time>2021-10-14T11:09:10Z</time>
      </trkpt>
      <trkpt lat="46.53794" lon="5.98543">
        <ele>1020.8</ele>
        <time>2021-10-14T11:09:15Z</time>
      </trkpt>
      <trkpt lat="46.53799" lon="5.98541">
        <ele>1020.6</ele>
        <time>2021-10-14T11:09:20Z</time>
      </trkpt>
      <trkpt lat="46.53803" lon="5.98543">
        <ele>1020.6</ele>
        <time>2021-10-14T11:09:35Z</time>
      </trkpt>
      <trkpt lat="46.53808" lon="5.98543">
        <ele>1022.1</ele>
        <time>2021-10-14T11:09:43Z</time>
      </trkpt>
      <trkpt lat="46.53813" lon="5.98542">
        <ele>1023.3</ele>
        <time>2021-10-14T11:09:47Z</time>
      </trkpt>
      <trkpt lat="46.53818" lon="5.98542">
        <ele>1024.8</ele>
        <time>2021-10-14T11:09:52Z</time>
      </trkpt>
      <trkpt lat="46.53823" lon="5.98544">
        <ele>1026.2</ele>
        <time>2021-10-14T11:09:57Z</time>
      </trkpt>
      <trkpt lat="46.53828" lon="5.98547">
        <ele>1027.8</ele>
        <time>2021-10-14T11:10:03Z</time>
      </trkpt>
      <trkpt lat="46.53834" lon="5.98549">
        <ele>1029.1</ele>
        <time>2021-10-14T11:10:08Z</time>
      </trkpt>
      <trkpt lat="46.53839" lon="5.98549">
        <ele>1030.1</ele>
        <time>2021-10-14T11:10:12Z</time>
      </trkpt>
      <trkpt lat="46.53843" lon="5.98553">
        <ele>1031.3</ele>
        <time>2021-10-14T11:10:19Z</time>
      </trkpt>
      <trkpt lat="46.53847" lon="5.98558">
        <ele>1030.3</ele>
        <time>2021-10-14T11:10:24Z</time>
      </trkpt>
      <trkpt lat="46.53852" lon="5.98561">
        <ele>1029.2</ele>
        <time>2021-10-14T11:10:30Z</time>
      </trkpt>
      <trkpt lat="46.53855" lon="5.98566">
        <ele>1028.5</ele>
        <time>2021-10-14T11:10:35Z</time>
      </trkpt>
      <trkpt lat="46.53858" lon="5.98573">
        <ele>1027.1</ele>
        <time>2021-10-14T11:10:40Z</time>
      </trkpt>
      <trkpt lat="46.5386" lon="5.9858">
        <ele>1025.3</ele>
        <time>2021-10-14T11:10:44Z</time>
      </trkpt>
      <trkpt lat="46.53864" lon="5.98586">
        <ele>1023.5</ele>
        <time>2021-10-14T11:10:48Z</time>
      </trkpt>
      <trkpt lat="46.53868" lon="5.9859">
        <ele>1022.1</ele>
        <time>2021-10-14T11:10:52Z</time>
      </trkpt>
      <trkpt lat="46.53872" lon="5.98594">
        <ele>1021</ele>
        <time>2021-10-14T11:10:57Z</time>
      </trkpt>
      <trkpt lat="46.53876" lon="5.986">
        <ele>1019.4</ele>
        <time>2021-10-14T11:11:03Z</time>
      </trkpt>
      <trkpt lat="46.53879" lon="5.98604">
        <ele>1017.7</ele>
        <time>2021-10-14T11:11:08Z</time>
      </trkpt>
      <trkpt lat="46.53883" lon="5.98609">
        <ele>1015.9</ele>
        <time>2021-10-14T11:11:13Z</time>
      </trkpt>
      <trkpt lat="46.53884" lon="5.98615">
        <ele>1013.9</ele>
        <time>2021-10-14T11:11:19Z</time>
      </trkpt>
      <trkpt lat="46.53886" lon="5.98622">
        <ele>1012.6</ele>
        <time>2021-10-14T11:11:25Z</time>
      </trkpt>
      <trkpt lat="46.53885" lon="5.98629">
        <ele>1011.3</ele>
        <time>2021-10-14T11:11:29Z</time>
      </trkpt>
      <trkpt lat="46.53889" lon="5.98635">
        <ele>1010.1</ele>
        <time>2021-10-14T11:11:34Z</time>
      </trkpt>
      <trkpt lat="46.53893" lon="5.98639">
        <ele>1009.7</ele>
        <time>2021-10-14T11:11:37Z</time>
      </trkpt>
      <trkpt lat="46.53897" lon="5.98644">
        <ele>1009.4</ele>
        <time>2021-10-14T11:11:41Z</time>
      </trkpt>
      <trkpt lat="46.539" lon="5.98648">
        <ele>1009.1</ele>
        <time>2021-10-14T11:11:45Z</time>
      </trkpt>
      <trkpt lat="46.53904" lon="5.98653">
        <ele>1008.7</ele>
        <time>2021-10-14T11:11:49Z</time>
      </trkpt>
      <trkpt lat="46.53907" lon="5.98658">
        <ele>1008.2</ele>
        <time>2021-10-14T11:11:54Z</time>
      </trkpt>
      <trkpt lat="46.5391" lon="5.98664">
        <ele>1007.6</ele>
        <time>2021-10-14T11:12:00Z</time>
      </trkpt>
      <trkpt lat="46.53914" lon="5.98668">
        <ele>1008.2</ele>
        <time>2021-10-14T11:12:04Z</time>
      </trkpt>
      <trkpt lat="46.53918" lon="5.98671">
        <ele>1008.6</ele>
        <time>2021-10-14T11:12:08Z</time>
      </trkpt>
      <trkpt lat="46.53923" lon="5.98675">
        <ele>1009.3</ele>
        <time>2021-10-14T11:12:12Z</time>
      </trkpt>
      <trkpt lat="46.53926" lon="5.98679">
        <ele>1011.3</ele>
        <time>2021-10-14T11:12:21Z</time>
      </trkpt>
      <trkpt lat="46.53928" lon="5.98686">
        <ele>1012.3</ele>
        <time>2021-10-14T11:12:27Z</time>
      </trkpt>
      <trkpt lat="46.53931" lon="5.9869">
        <ele>1011.9</ele>
        <time>2021-10-14T11:12:32Z</time>
      </trkpt>
      <trkpt lat="46.53936" lon="5.98694">
        <ele>1011.1</ele>
        <time>2021-10-14T11:12:36Z</time>
      </trkpt>
      <trkpt lat="46.5394" lon="5.98698">
        <ele>1009.9</ele>
        <time>2021-10-14T11:12:41Z</time>
      </trkpt>
      <trkpt lat="46.53943" lon="5.98704">
        <ele>1009.2</ele>
        <time>2021-10-14T11:12:46Z</time>
      </trkpt>
      <trkpt lat="46.53946" lon="5.9871">
        <ele>1008.9</ele>
        <time>2021-10-14T11:12:50Z</time>
      </trkpt>
      <trkpt lat="46.53949" lon="5.98715">
        <ele>1007.9</ele>
        <time>2021-10-14T11:12:56Z</time>
      </trkpt>
      <trkpt lat="46.53953" lon="5.98721">
        <ele>1007.3</ele>
        <time>2021-10-14T11:13:02Z</time>
      </trkpt>
      <trkpt lat="46.53957" lon="5.98724">
        <ele>1007.3</ele>
        <time>2021-10-14T11:13:05Z</time>
      </trkpt>
      <trkpt lat="46.53962" lon="5.98725">
        <ele>1007.2</ele>
        <time>2021-10-14T11:13:09Z</time>
      </trkpt>
      <trkpt lat="46.53967" lon="5.98726">
        <ele>1007</ele>
        <time>2021-10-14T11:13:16Z</time>
      </trkpt>
      <trkpt lat="46.53972" lon="5.98725">
        <ele>1007.1</ele>
        <time>2021-10-14T11:13:20Z</time>
      </trkpt>
      <trkpt lat="46.53977" lon="5.98726">
        <ele>1007.1</ele>
        <time>2021-10-14T11:13:24Z</time>
      </trkpt>
      <trkpt lat="46.53982" lon="5.98728">
        <ele>1007.6</ele>
        <time>2021-10-14T11:13:29Z</time>
      </trkpt>
      <trkpt lat="46.53987" lon="5.98726">
        <ele>1008.4</ele>
        <time>2021-10-14T11:13:33Z</time>
      </trkpt>
      <trkpt lat="46.53992" lon="5.98728">
        <ele>1008.9</ele>
        <time>2021-10-14T11:13:37Z</time>
      </trkpt>
      <trkpt lat="46.53997" lon="5.98731">
        <ele>1009.2</ele>
        <time>2021-10-14T11:13:42Z</time>
      </trkpt>
      <trkpt lat="46.54001" lon="5.98733">
        <ele>1009.5</ele>
        <time>2021-10-14T11:13:46Z</time>
      </trkpt>
      <trkpt lat="46.54006" lon="5.98736">
        <ele>1009.5</ele>
        <time>2021-10-14T11:13:50Z</time>
      </trkpt>
      <trkpt lat="46.5401" lon="5.98738">
        <ele>1009.4</ele>
        <time>2021-10-14T11:13:54Z</time>
      </trkpt>
      <trkpt lat="46.54015" lon="5.9874">
        <ele>1009.2</ele>
        <time>2021-10-14T11:13:59Z</time>
      </trkpt>
      <trkpt lat="46.5402" lon="5.98744">
        <ele>1008.7</ele>
        <time>2021-10-14T11:14:04Z</time>
      </trkpt>
      <trkpt lat="46.54025" lon="5.98745">
        <ele>1008.5</ele>
        <time>2021-10-14T11:14:09Z</time>
      </trkpt>
      <trkpt lat="46.5403" lon="5.98746">
        <ele>1008.6</ele>
        <time>2021-10-14T11:14:13Z</time>
      </trkpt>
      <trkpt lat="46.54035" lon="5.98748">
        <ele>1008.7</ele>
        <time>2021-10-14T11:14:17Z</time>
      </trkpt>
      <trkpt lat="46.5404" lon="5.98748">
        <ele>1009.7</ele>
        <time>2021-10-14T11:14:22Z</time>
      </trkpt>
      <trkpt lat="46.54045" lon="5.9875">
        <ele>1010.8</ele>
        <time>2021-10-14T11:14:27Z</time>
      </trkpt>
      <trkpt lat="46.54049" lon="5.98754">
        <ele>1011.7</ele>
        <time>2021-10-14T11:14:31Z</time>
      </trkpt>
      <trkpt lat="46.54052" lon="5.98759">
        <ele>1012.6</ele>
        <time>2021-10-14T11:14:37Z</time>
      </trkpt>
      <trkpt lat="46.54057" lon="5.98762">
        <ele>1012.8</ele>
        <time>2021-10-14T11:14:43Z</time>
      </trkpt>
      <trkpt lat="46.54061" lon="5.98765">
        <ele>1012.4</ele>
        <time>2021-10-14T11:14:48Z</time>
      </trkpt>
      <trkpt lat="46.54066" lon="5.98768">
        <ele>1012.1</ele>
        <time>2021-10-14T11:14:52Z</time>
      </trkpt>
      <trkpt lat="46.5407" lon="5.98769">
        <ele>1012</ele>
        <time>2021-10-14T11:14:56Z</time>
      </trkpt>
      <trkpt lat="46.54073" lon="5.98774">
        <ele>1011.4</ele>
        <time>2021-10-14T11:15:02Z</time>
      </trkpt>
      <trkpt lat="46.54079" lon="5.98774">
        <ele>1011.3</ele>
        <time>2021-10-14T11:15:08Z</time>
      </trkpt>
      <trkpt lat="46.54083" lon="5.98773">
        <ele>1011.4</ele>
        <time>2021-10-14T11:15:13Z</time>
      </trkpt>
      <trkpt lat="46.54088" lon="5.98772">
        <ele>1012.1</ele>
        <time>2021-10-14T11:15:17Z</time>
      </trkpt>
      <trkpt lat="46.54093" lon="5.98771">
        <ele>1013.1</ele>
        <time>2021-10-14T11:15:21Z</time>
      </trkpt>
      <trkpt lat="46.54098" lon="5.98768">
        <ele>1013.8</ele>
        <time>2021-10-14T11:15:25Z</time>
      </trkpt>
      <trkpt lat="46.54103" lon="5.98765">
        <ele>1014.4</ele>
        <time>2021-10-14T11:15:29Z</time>
      </trkpt>
      <trkpt lat="46.54107" lon="5.98763">
        <ele>1014.7</ele>
        <time>2021-10-14T11:15:33Z</time>
      </trkpt>
      <trkpt lat="46.54112" lon="5.98761">
        <ele>1014.8</ele>
        <time>2021-10-14T11:15:37Z</time>
      </trkpt>
      <trkpt lat="46.54116" lon="5.98757">
        <ele>1014.7</ele>
        <time>2021-10-14T11:15:41Z</time>
      </trkpt>
      <trkpt lat="46.5412" lon="5.98753">
        <ele>1014.6</ele>
        <time>2021-10-14T11:15:48Z</time>
      </trkpt>
      <trkpt lat="46.54125" lon="5.98752">
        <ele>1014.9</ele>
        <time>2021-10-14T11:15:54Z</time>
      </trkpt>
      <trkpt lat="46.5413" lon="5.98752">
        <ele>1015.1</ele>
        <time>2021-10-14T11:15:58Z</time>
      </trkpt>
      <trkpt lat="46.54135" lon="5.98755">
        <ele>1014.4</ele>
        <time>2021-10-14T11:16:02Z</time>
      </trkpt>
      <trkpt lat="46.54139" lon="5.98759">
        <ele>1013.5</ele>
        <time>2021-10-14T11:16:06Z</time>
      </trkpt>
      <trkpt lat="46.54143" lon="5.98763">
        <ele>1012.6</ele>
        <time>2021-10-14T11:16:10Z</time>
      </trkpt>
      <trkpt lat="46.54145" lon="5.98769">
        <ele>1012.1</ele>
        <time>2021-10-14T11:16:14Z</time>
      </trkpt>
      <trkpt lat="46.54149" lon="5.98774">
        <ele>1012.5</ele>
        <time>2021-10-14T11:16:19Z</time>
      </trkpt>
      <trkpt lat="46.54154" lon="5.98778">
        <ele>1013.3</ele>
        <time>2021-10-14T11:16:24Z</time>
      </trkpt>
      <trkpt lat="46.54157" lon="5.98782">
        <ele>1014</ele>
        <time>2021-10-14T11:16:28Z</time>
      </trkpt>
      <trkpt lat="46.54162" lon="5.98788">
        <ele>1014.2</ele>
        <time>2021-10-14T11:16:32Z</time>
      </trkpt>
      <trkpt lat="46.54166" lon="5.98793">
        <ele>1013.5</ele>
        <time>2021-10-14T11:16:38Z</time>
      </trkpt>
      <trkpt lat="46.54169" lon="5.98797">
        <ele>1013.2</ele>
        <time>2021-10-14T11:16:42Z</time>
      </trkpt>
      <trkpt lat="46.54172" lon="5.98803">
        <ele>1013.6</ele>
        <time>2021-10-14T11:16:48Z</time>
      </trkpt>
      <trkpt lat="46.54174" lon="5.9881">
        <ele>1014</ele>
        <time>2021-10-14T11:16:54Z</time>
      </trkpt>
      <trkpt lat="46.54176" lon="5.98815">
        <ele>1014.2</ele>
        <time>2021-10-14T11:16:59Z</time>
      </trkpt>
      <trkpt lat="46.5418" lon="5.98821">
        <ele>1013.9</ele>
        <time>2021-10-14T11:17:04Z</time>
      </trkpt>
      <trkpt lat="46.54183" lon="5.98827">
        <ele>1013.7</ele>
        <time>2021-10-14T11:17:08Z</time>
      </trkpt>
      <trkpt lat="46.54186" lon="5.98833">
        <ele>1013.9</ele>
        <time>2021-10-14T11:17:13Z</time>
      </trkpt>
      <trkpt lat="46.5419" lon="5.98839">
        <ele>1014.1</ele>
        <time>2021-10-14T11:17:17Z</time>
      </trkpt>
      <trkpt lat="46.54194" lon="5.98844">
        <ele>1013.8</ele>
        <time>2021-10-14T11:17:22Z</time>
      </trkpt>
      <trkpt lat="46.54196" lon="5.98851">
        <ele>1013.6</ele>
        <time>2021-10-14T11:17:27Z</time>
      </trkpt>
      <trkpt lat="46.54198" lon="5.98858">
        <ele>1013</ele>
        <time>2021-10-14T11:17:31Z</time>
      </trkpt>
      <trkpt lat="46.54198" lon="5.98865">
        <ele>1010.9</ele>
        <time>2021-10-14T11:17:36Z</time>
      </trkpt>
      <trkpt lat="46.542" lon="5.98871">
        <ele>1007.7</ele>
        <time>2021-10-14T11:17:41Z</time>
      </trkpt>
      <trkpt lat="46.54201" lon="5.98878">
        <ele>1004</ele>
        <time>2021-10-14T11:17:49Z</time>
      </trkpt>
      <trkpt lat="46.54203" lon="5.98886">
        <ele>1002.1</ele>
        <time>2021-10-14T11:17:54Z</time>
      </trkpt>
      <trkpt lat="46.54207" lon="5.98891">
        <ele>1001.4</ele>
        <time>2021-10-14T11:17:57Z</time>
      </trkpt>
      <trkpt lat="46.5421" lon="5.98896">
        <ele>1000.8</ele>
        <time>2021-10-14T11:18:00Z</time>
      </trkpt>
      <trkpt lat="46.54213" lon="5.98901">
        <ele>1000.8</ele>
        <time>2021-10-14T11:18:04Z</time>
      </trkpt>
      <trkpt lat="46.54217" lon="5.98904">
        <ele>1001.4</ele>
        <time>2021-10-14T11:18:08Z</time>
      </trkpt>
      <trkpt lat="46.54223" lon="5.98904">
        <ele>1002</ele>
        <time>2021-10-14T11:18:12Z</time>
      </trkpt>
      <trkpt lat="46.54228" lon="5.98905">
        <ele>1002.6</ele>
        <time>2021-10-14T11:18:16Z</time>
      </trkpt>
      <trkpt lat="46.54233" lon="5.98906">
        <ele>1003.1</ele>
        <time>2021-10-14T11:18:20Z</time>
      </trkpt>
      <trkpt lat="46.54237" lon="5.98908">
        <ele>1003.8</ele>
        <time>2021-10-14T11:18:25Z</time>
      </trkpt>
      <trkpt lat="46.54242" lon="5.9891">
        <ele>1004.4</ele>
        <time>2021-10-14T11:18:31Z</time>
      </trkpt>
      <trkpt lat="46.54246" lon="5.98915">
        <ele>1005.2</ele>
        <time>2021-10-14T11:18:35Z</time>
      </trkpt>
      <trkpt lat="46.54249" lon="5.98919">
        <ele>1005.9</ele>
        <time>2021-10-14T11:18:41Z</time>
      </trkpt>
      <trkpt lat="46.54254" lon="5.98922">
        <ele>1006.2</ele>
        <time>2021-10-14T11:18:45Z</time>
      </trkpt>
      <trkpt lat="46.5426" lon="5.98925">
        <ele>1007</ele>
        <time>2021-10-14T11:18:49Z</time>
      </trkpt>
      <trkpt lat="46.54263" lon="5.98931">
        <ele>1007.7</ele>
        <time>2021-10-14T11:18:53Z</time>
      </trkpt>
      <trkpt lat="46.54267" lon="5.98934">
        <ele>1008.7</ele>
        <time>2021-10-14T11:18:57Z</time>
      </trkpt>
      <trkpt lat="46.54272" lon="5.98938">
        <ele>1010.2</ele>
        <time>2021-10-14T11:19:02Z</time>
      </trkpt>
      <trkpt lat="46.54275" lon="5.98943">
        <ele>1011.5</ele>
        <time>2021-10-14T11:19:07Z</time>
      </trkpt>
      <trkpt lat="46.54279" lon="5.98948">
        <ele>1012.1</ele>
        <time>2021-10-14T11:19:11Z</time>
      </trkpt>
      <trkpt lat="46.54281" lon="5.98955">
        <ele>1012.2</ele>
        <time>2021-10-14T11:19:15Z</time>
      </trkpt>
      <trkpt lat="46.54283" lon="5.9896">
        <ele>1012</ele>
        <time>2021-10-14T11:19:20Z</time>
      </trkpt>
      <trkpt lat="46.54287" lon="5.98966">
        <ele>1011.9</ele>
        <time>2021-10-14T11:19:25Z</time>
      </trkpt>
      <trkpt lat="46.54291" lon="5.98972">
        <ele>1011.8</ele>
        <time>2021-10-14T11:19:29Z</time>
      </trkpt>
      <trkpt lat="46.54294" lon="5.98976">
        <ele>1011.7</ele>
        <time>2021-10-14T11:19:33Z</time>
      </trkpt>
      <trkpt lat="46.54297" lon="5.98982">
        <ele>1010.5</ele>
        <time>2021-10-14T11:19:39Z</time>
      </trkpt>
      <trkpt lat="46.543" lon="5.98988">
        <ele>1010.2</ele>
        <time>2021-10-14T11:19:45Z</time>
      </trkpt>
      <trkpt lat="46.54303" lon="5.98993">
        <ele>1010.5</ele>
        <time>2021-10-14T11:19:50Z</time>
      </trkpt>
      <trkpt lat="46.54307" lon="5.98996">
        <ele>1011.1</ele>
        <time>2021-10-14T11:19:55Z</time>
      </trkpt>
      <trkpt lat="46.54311" lon="5.98999">
        <ele>1011.5</ele>
        <time>2021-10-14T11:20:01Z</time>
      </trkpt>
      <trkpt lat="46.54315" lon="5.99004">
        <ele>1011.8</ele>
        <time>2021-10-14T11:20:06Z</time>
      </trkpt>
      <trkpt lat="46.54318" lon="5.9901">
        <ele>1011.7</ele>
        <time>2021-10-14T11:20:11Z</time>
      </trkpt>
      <trkpt lat="46.54323" lon="5.99015">
        <ele>1011.4</ele>
        <time>2021-10-14T11:20:15Z</time>
      </trkpt>
      <trkpt lat="46.54326" lon="5.9902">
        <ele>1011.4</ele>
        <time>2021-10-14T11:20:19Z</time>
      </trkpt>
      <trkpt lat="46.54328" lon="5.99027">
        <ele>1010.9</ele>
        <time>2021-10-14T11:20:24Z</time>
      </trkpt>
      <trkpt lat="46.5433" lon="5.99033">
        <ele>1010.8</ele>
        <time>2021-10-14T11:20:28Z</time>
      </trkpt>
      <trkpt lat="46.54333" lon="5.99039">
        <ele>1010.8</ele>
        <time>2021-10-14T11:20:32Z</time>
      </trkpt>
      <trkpt lat="46.54337" lon="5.99042">
        <ele>1011</ele>
        <time>2021-10-14T11:20:35Z</time>
      </trkpt>
      <trkpt lat="46.54343" lon="5.99044">
        <ele>1011.1</ele>
        <time>2021-10-14T11:20:38Z</time>
      </trkpt>
      <trkpt lat="46.54349" lon="5.99045">
        <ele>1011.2</ele>
        <time>2021-10-14T11:20:41Z</time>
      </trkpt>
      <trkpt lat="46.54353" lon="5.99049">
        <ele>1011.7</ele>
        <time>2021-10-14T11:20:45Z</time>
      </trkpt>
      <trkpt lat="46.54357" lon="5.99055">
        <ele>1012.8</ele>
        <time>2021-10-14T11:20:50Z</time>
      </trkpt>
      <trkpt lat="46.5436" lon="5.99062">
        <ele>1013.3</ele>
        <time>2021-10-14T11:20:54Z</time>
      </trkpt>
      <trkpt lat="46.54362" lon="5.99067">
        <ele>1013.3</ele>
        <time>2021-10-14T11:20:58Z</time>
      </trkpt>
      <trkpt lat="46.54364" lon="5.99074">
        <ele>1013.5</ele>
        <time>2021-10-14T11:21:03Z</time>
      </trkpt>
      <trkpt lat="46.54365" lon="5.99081">
        <ele>1013.3</ele>
        <time>2021-10-14T11:21:07Z</time>
      </trkpt>
      <trkpt lat="46.54368" lon="5.99087">
        <ele>1012.8</ele>
        <time>2021-10-14T11:21:11Z</time>
      </trkpt>
      <trkpt lat="46.5437" lon="5.99094">
        <ele>1011.7</ele>
        <time>2021-10-14T11:21:16Z</time>
      </trkpt>
      <trkpt lat="46.54367" lon="5.99101">
        <ele>1011.1</ele>
        <time>2021-10-14T11:21:22Z</time>
      </trkpt>
      <trkpt lat="46.54365" lon="5.99107">
        <ele>1010.7</ele>
        <time>2021-10-14T11:21:27Z</time>
      </trkpt>
      <trkpt lat="46.54364" lon="5.99114">
        <ele>1010.7</ele>
        <time>2021-10-14T11:21:33Z</time>
      </trkpt>
      <trkpt lat="46.54364" lon="5.99121">
        <ele>1011.3</ele>
        <time>2021-10-14T11:21:38Z</time>
      </trkpt>
      <trkpt lat="46.54361" lon="5.99128">
        <ele>1011.7</ele>
        <time>2021-10-14T11:21:44Z</time>
      </trkpt>
      <trkpt lat="46.54358" lon="5.99133">
        <ele>1011.9</ele>
        <time>2021-10-14T11:21:48Z</time>
      </trkpt>
      <trkpt lat="46.54355" lon="5.99138">
        <ele>1012</ele>
        <time>2021-10-14T11:21:52Z</time>
      </trkpt>
      <trkpt lat="46.54352" lon="5.99145">
        <ele>1012.2</ele>
        <time>2021-10-14T11:21:56Z</time>
      </trkpt>
      <trkpt lat="46.5435" lon="5.99151">
        <ele>1012.6</ele>
        <time>2021-10-14T11:22:00Z</time>
      </trkpt>
      <trkpt lat="46.54348" lon="5.99157">
        <ele>1012.1</ele>
        <time>2021-10-14T11:22:05Z</time>
      </trkpt>
      <trkpt lat="46.54345" lon="5.99163">
        <ele>1011.7</ele>
        <time>2021-10-14T11:22:10Z</time>
      </trkpt>
      <trkpt lat="46.54343" lon="5.9917">
        <ele>1012.4</ele>
        <time>2021-10-14T11:22:16Z</time>
      </trkpt>
      <trkpt lat="46.54346" lon="5.99176">
        <ele>1013.3</ele>
        <time>2021-10-14T11:22:20Z</time>
      </trkpt>
      <trkpt lat="46.54347" lon="5.99182">
        <ele>1014.6</ele>
        <time>2021-10-14T11:22:25Z</time>
      </trkpt>
      <trkpt lat="46.54348" lon="5.99189">
        <ele>1015.2</ele>
        <time>2021-10-14T11:22:31Z</time>
      </trkpt>
      <trkpt lat="46.54347" lon="5.99196">
        <ele>1015.4</ele>
        <time>2021-10-14T11:22:37Z</time>
      </trkpt>
      <trkpt lat="46.54345" lon="5.99203">
        <ele>1015.6</ele>
        <time>2021-10-14T11:22:42Z</time>
      </trkpt>
      <trkpt lat="46.54341" lon="5.99208">
        <ele>1015.8</ele>
        <time>2021-10-14T11:22:47Z</time>
      </trkpt>
      <trkpt lat="46.54342" lon="5.99215">
        <ele>1016.1</ele>
        <time>2021-10-14T11:22:54Z</time>
      </trkpt>
      <trkpt lat="46.54342" lon="5.99221">
        <ele>1015.7</ele>
        <time>2021-10-14T11:22:59Z</time>
      </trkpt>
      <trkpt lat="46.54342" lon="5.99229">
        <ele>1014.6</ele>
        <time>2021-10-14T11:23:05Z</time>
      </trkpt>
      <trkpt lat="46.54343" lon="5.99236">
        <ele>1013.8</ele>
        <time>2021-10-14T11:23:11Z</time>
      </trkpt>
      <trkpt lat="46.54343" lon="5.99244">
        <ele>1013.6</ele>
        <time>2021-10-14T11:23:17Z</time>
      </trkpt>
      <trkpt lat="46.54347" lon="5.99252">
        <ele>1013.2</ele>
        <time>2021-10-14T11:23:45Z</time>
      </trkpt>
      <trkpt lat="46.54351" lon="5.99257">
        <ele>1012.8</ele>
        <time>2021-10-14T11:23:49Z</time>
      </trkpt>
      <trkpt lat="46.54345" lon="5.99257">
        <ele>1013.2</ele>
        <time>2021-10-14T11:24:32Z</time>
      </trkpt>
      <trkpt lat="46.54338" lon="5.99257">
        <ele>1012.9</ele>
        <time>2021-10-14T11:24:35Z</time>
      </trkpt>
      <trkpt lat="46.54333" lon="5.99258">
        <ele>1012.6</ele>
        <time>2021-10-14T11:24:38Z</time>
      </trkpt>
      <trkpt lat="46.54329" lon="5.99262">
        <ele>1011.8</ele>
        <time>2021-10-14T11:24:45Z</time>
      </trkpt>
      <trkpt lat="46.54327" lon="5.9927">
        <ele>1010.8</ele>
        <time>2021-10-14T11:24:50Z</time>
      </trkpt>
      <trkpt lat="46.54324" lon="5.99277">
        <ele>1010.6</ele>
        <time>2021-10-14T11:24:53Z</time>
      </trkpt>
      <trkpt lat="46.54322" lon="5.99283">
        <ele>1010.5</ele>
        <time>2021-10-14T11:24:56Z</time>
      </trkpt>
      <trkpt lat="46.5432" lon="5.99289">
        <ele>1010.6</ele>
        <time>2021-10-14T11:24:59Z</time>
      </trkpt>
      <trkpt lat="46.54318" lon="5.99295">
        <ele>1011.2</ele>
        <time>2021-10-14T11:25:04Z</time>
      </trkpt>
      <trkpt lat="46.54313" lon="5.99299">
        <ele>1010.5</ele>
        <time>2021-10-14T11:25:09Z</time>
      </trkpt>
      <trkpt lat="46.54308" lon="5.99304">
        <ele>1009.5</ele>
        <time>2021-10-14T11:25:13Z</time>
      </trkpt>
      <trkpt lat="46.54305" lon="5.9931">
        <ele>1008.2</ele>
        <time>2021-10-14T11:25:17Z</time>
      </trkpt>
      <trkpt lat="46.54305" lon="5.99318">
        <ele>1007.2</ele>
        <time>2021-10-14T11:25:21Z</time>
      </trkpt>
      <trkpt lat="46.54306" lon="5.99326">
        <ele>1006.8</ele>
        <time>2021-10-14T11:25:25Z</time>
      </trkpt>
      <trkpt lat="46.54309" lon="5.99333">
        <ele>1006.8</ele>
        <time>2021-10-14T11:25:28Z</time>
      </trkpt>
      <trkpt lat="46.54311" lon="5.99339">
        <ele>1007.2</ele>
        <time>2021-10-14T11:25:32Z</time>
      </trkpt>
      <trkpt lat="46.54312" lon="5.99346">
        <ele>1008.2</ele>
        <time>2021-10-14T11:25:37Z</time>
      </trkpt>
      <trkpt lat="46.54313" lon="5.99353">
        <ele>1009.3</ele>
        <time>2021-10-14T11:25:41Z</time>
      </trkpt>
      <trkpt lat="46.54315" lon="5.9936">
        <ele>1010.2</ele>
        <time>2021-10-14T11:25:45Z</time>
      </trkpt>
      <trkpt lat="46.54314" lon="5.99368">
        <ele>1010.4</ele>
        <time>2021-10-14T11:25:49Z</time>
      </trkpt>
      <trkpt lat="46.54313" lon="5.99375">
        <ele>1009.7</ele>
        <time>2021-10-14T11:25:54Z</time>
      </trkpt>
      <trkpt lat="46.54315" lon="5.99381">
        <ele>1009.2</ele>
        <time>2021-10-14T11:25:57Z</time>
      </trkpt>
      <trkpt lat="46.54319" lon="5.99386">
        <ele>1008.7</ele>
        <time>2021-10-14T11:26:00Z</time>
      </trkpt>
      <trkpt lat="46.54322" lon="5.99393">
        <ele>1008.5</ele>
        <time>2021-10-14T11:26:03Z</time>
      </trkpt>
      <trkpt lat="46.54322" lon="5.994">
        <ele>1008</ele>
        <time>2021-10-14T11:26:06Z</time>
      </trkpt>
      <trkpt lat="46.54321" lon="5.99408">
        <ele>1006.8</ele>
        <time>2021-10-14T11:26:10Z</time>
      </trkpt>
      <trkpt lat="46.54323" lon="5.99415">
        <ele>1005.4</ele>
        <time>2021-10-14T11:26:14Z</time>
      </trkpt>
      <trkpt lat="46.54324" lon="5.99422">
        <ele>1004.2</ele>
        <time>2021-10-14T11:26:18Z</time>
      </trkpt>
      <trkpt lat="46.54325" lon="5.99429">
        <ele>1003.4</ele>
        <time>2021-10-14T11:26:22Z</time>
      </trkpt>
      <trkpt lat="46.54325" lon="5.99436">
        <ele>1002.7</ele>
        <time>2021-10-14T11:26:26Z</time>
      </trkpt>
      <trkpt lat="46.54323" lon="5.99442">
        <ele>1001.9</ele>
        <time>2021-10-14T11:26:30Z</time>
      </trkpt>
      <trkpt lat="46.5432" lon="5.99449">
        <ele>1000.9</ele>
        <time>2021-10-14T11:26:35Z</time>
      </trkpt>
      <trkpt lat="46.54318" lon="5.99455">
        <ele>1000.2</ele>
        <time>2021-10-14T11:26:40Z</time>
      </trkpt>
      <trkpt lat="46.54316" lon="5.99462">
        <ele>998.9</ele>
        <time>2021-10-14T11:26:45Z</time>
      </trkpt>
      <trkpt lat="46.54315" lon="5.99469">
        <ele>997.9</ele>
        <time>2021-10-14T11:26:49Z</time>
      </trkpt>
      <trkpt lat="46.54315" lon="5.99476">
        <ele>996.7</ele>
        <time>2021-10-14T11:26:54Z</time>
      </trkpt>
      <trkpt lat="46.54315" lon="5.99483">
        <ele>995.3</ele>
        <time>2021-10-14T11:27:01Z</time>
      </trkpt>
      <trkpt lat="46.54315" lon="5.9949">
        <ele>994.1</ele>
        <time>2021-10-14T11:27:05Z</time>
      </trkpt>
      <trkpt lat="46.54315" lon="5.99497">
        <ele>993.8</ele>
        <time>2021-10-14T11:27:08Z</time>
      </trkpt>
      <trkpt lat="46.54315" lon="5.99505">
        <ele>993.7</ele>
        <time>2021-10-14T11:27:11Z</time>
      </trkpt>
      <trkpt lat="46.54316" lon="5.99512">
        <ele>994.1</ele>
        <time>2021-10-14T11:27:14Z</time>
      </trkpt>
      <trkpt lat="46.54317" lon="5.99519">
        <ele>994.6</ele>
        <time>2021-10-14T11:27:17Z</time>
      </trkpt>
      <trkpt lat="46.54317" lon="5.99527">
        <ele>995.4</ele>
        <time>2021-10-14T11:27:21Z</time>
      </trkpt>
      <trkpt lat="46.54316" lon="5.99533">
        <ele>996.6</ele>
        <time>2021-10-14T11:27:25Z</time>
      </trkpt>
      <trkpt lat="46.54316" lon="5.9954">
        <ele>997.7</ele>
        <time>2021-10-14T11:27:29Z</time>
      </trkpt>
      <trkpt lat="46.54317" lon="5.99547">
        <ele>998.3</ele>
        <time>2021-10-14T11:27:35Z</time>
      </trkpt>
      <trkpt lat="46.54318" lon="5.99554">
        <ele>999.1</ele>
        <time>2021-10-14T11:27:41Z</time>
      </trkpt>
      <trkpt lat="46.54319" lon="5.99561">
        <ele>999.4</ele>
        <time>2021-10-14T11:27:46Z</time>
      </trkpt>
      <trkpt lat="46.54321" lon="5.99567">
        <ele>999.3</ele>
        <time>2021-10-14T11:27:51Z</time>
      </trkpt>
      <trkpt lat="46.54323" lon="5.99574">
        <ele>999.8</ele>
        <time>2021-10-14T11:27:55Z</time>
      </trkpt>
      <trkpt lat="46.54324" lon="5.9958">
        <ele>1000.7</ele>
        <time>2021-10-14T11:27:58Z</time>
      </trkpt>
      <trkpt lat="46.54328" lon="5.99585">
        <ele>1002</ele>
        <time>2021-10-14T11:28:02Z</time>
      </trkpt>
      <trkpt lat="46.54332" lon="5.99591">
        <ele>1003.4</ele>
        <time>2021-10-14T11:28:06Z</time>
      </trkpt>
      <trkpt lat="46.54334" lon="5.99597">
        <ele>1005.8</ele>
        <time>2021-10-14T11:28:13Z</time>
      </trkpt>
      <trkpt lat="46.54335" lon="5.99605">
        <ele>1007.4</ele>
        <time>2021-10-14T11:28:22Z</time>
      </trkpt>
      <trkpt lat="46.54338" lon="5.9961">
        <ele>1007.9</ele>
        <time>2021-10-14T11:28:28Z</time>
      </trkpt>
      <trkpt lat="46.54342" lon="5.99615">
        <ele>1008.2</ele>
        <time>2021-10-14T11:28:33Z</time>
      </trkpt>
      <trkpt lat="46.54346" lon="5.99618">
        <ele>1008.3</ele>
        <time>2021-10-14T11:28:37Z</time>
      </trkpt>
      <trkpt lat="46.5435" lon="5.99622">
        <ele>1008.5</ele>
        <time>2021-10-14T11:28:41Z</time>
      </trkpt>
      <trkpt lat="46.54353" lon="5.99627">
        <ele>1008.6</ele>
        <time>2021-10-14T11:28:46Z</time>
      </trkpt>
      <trkpt lat="46.54355" lon="5.99634">
        <ele>1008.5</ele>
        <time>2021-10-14T11:28:51Z</time>
      </trkpt>
      <trkpt lat="46.54357" lon="5.9964">
        <ele>1008</ele>
        <time>2021-10-14T11:28:58Z</time>
      </trkpt>
      <trkpt lat="46.54362" lon="5.99645">
        <ele>1008</ele>
        <time>2021-10-14T11:29:06Z</time>
      </trkpt>
      <trkpt lat="46.54364" lon="5.9965">
        <ele>1008</ele>
        <time>2021-10-14T11:29:11Z</time>
      </trkpt>
      <trkpt lat="46.54368" lon="5.99656">
        <ele>1008.7</ele>
        <time>2021-10-14T11:29:17Z</time>
      </trkpt>
      <trkpt lat="46.54371" lon="5.99661">
        <ele>1010.5</ele>
        <time>2021-10-14T11:29:23Z</time>
      </trkpt>
      <trkpt lat="46.54375" lon="5.99665">
        <ele>1013.8</ele>
        <time>2021-10-14T11:29:32Z</time>
      </trkpt>
      <trkpt lat="46.54381" lon="5.99666">
        <ele>1014.9</ele>
        <time>2021-10-14T11:29:37Z</time>
      </trkpt>
      <trkpt lat="46.54386" lon="5.99667">
        <ele>1015.5</ele>
        <time>2021-10-14T11:29:41Z</time>
      </trkpt>
      <trkpt lat="46.5439" lon="5.99671">
        <ele>1016.1</ele>
        <time>2021-10-14T11:29:46Z</time>
      </trkpt>
      <trkpt lat="46.5439" lon="5.99679">
        <ele>1016.6</ele>
        <time>2021-10-14T11:29:51Z</time>
      </trkpt>
      <trkpt lat="46.54391" lon="5.99685">
        <ele>1016.8</ele>
        <time>2021-10-14T11:29:56Z</time>
      </trkpt>
      <trkpt lat="46.54392" lon="5.99692">
        <ele>1017</ele>
        <time>2021-10-14T11:30:01Z</time>
      </trkpt>
      <trkpt lat="46.54393" lon="5.99699">
        <ele>1017.8</ele>
        <time>2021-10-14T11:30:07Z</time>
      </trkpt>
      <trkpt lat="46.54394" lon="5.99705">
        <ele>1018.2</ele>
        <time>2021-10-14T11:30:13Z</time>
      </trkpt>
      <trkpt lat="46.54397" lon="5.99712">
        <ele>1018.1</ele>
        <time>2021-10-14T11:30:18Z</time>
      </trkpt>
      <trkpt lat="46.54399" lon="5.99718">
        <ele>1017.6</ele>
        <time>2021-10-14T11:30:23Z</time>
      </trkpt>
      <trkpt lat="46.54401" lon="5.99725">
        <ele>1017.2</ele>
        <time>2021-10-14T11:30:30Z</time>
      </trkpt>
      <trkpt lat="46.54403" lon="5.9973">
        <ele>1014.1</ele>
        <time>2021-10-14T11:30:53Z</time>
      </trkpt>
      <trkpt lat="46.54398" lon="5.99731">
        <ele>1013.8</ele>
        <time>2021-10-14T11:31:01Z</time>
      </trkpt>
      <trkpt lat="46.54395" lon="5.99736">
        <ele>1013.8</ele>
        <time>2021-10-14T11:31:12Z</time>
      </trkpt>
      <trkpt lat="46.54394" lon="5.99743">
        <ele>1013.8</ele>
        <time>2021-10-14T11:31:17Z</time>
      </trkpt>
      <trkpt lat="46.54393" lon="5.9975">
        <ele>1012.9</ele>
        <time>2021-10-14T11:31:28Z</time>
      </trkpt>
      <trkpt lat="46.54391" lon="5.99756">
        <ele>1012.8</ele>
        <time>2021-10-14T11:31:34Z</time>
      </trkpt>
      <trkpt lat="46.54388" lon="5.99763">
        <ele>1013.3</ele>
        <time>2021-10-14T11:31:40Z</time>
      </trkpt>
      <trkpt lat="46.5439" lon="5.9977">
        <ele>1010.4</ele>
        <time>2021-10-14T11:32:19Z</time>
      </trkpt>
      <trkpt lat="46.54389" lon="5.99777">
        <ele>1010.4</ele>
        <time>2021-10-14T11:32:24Z</time>
      </trkpt>
      <trkpt lat="46.54387" lon="5.99784">
        <ele>1011.1</ele>
        <time>2021-10-14T11:32:30Z</time>
      </trkpt>
      <trkpt lat="46.54386" lon="5.99791">
        <ele>1011.3</ele>
        <time>2021-10-14T11:32:39Z</time>
      </trkpt>
      <trkpt lat="46.54383" lon="5.99797">
        <ele>1011.1</ele>
        <time>2021-10-14T11:32:45Z</time>
      </trkpt>
      <trkpt lat="46.54383" lon="5.99804">
        <ele>1011.5</ele>
        <time>2021-10-14T11:32:51Z</time>
      </trkpt>
      <trkpt lat="46.54383" lon="5.99811">
        <ele>1011.6</ele>
        <time>2021-10-14T11:33:01Z</time>
      </trkpt>
      <trkpt lat="46.54382" lon="5.99818">
        <ele>1011.7</ele>
        <time>2021-10-14T11:33:08Z</time>
      </trkpt>
      <trkpt lat="46.5438" lon="5.99824">
        <ele>1011.6</ele>
        <time>2021-10-14T11:33:15Z</time>
      </trkpt>
      <trkpt lat="46.5438" lon="5.99831">
        <ele>1010.1</ele>
        <time>2021-10-14T11:33:23Z</time>
      </trkpt>
      <trkpt lat="46.5438" lon="5.99838">
        <ele>1008.2</ele>
        <time>2021-10-14T11:33:29Z</time>
      </trkpt>
      <trkpt lat="46.5438" lon="5.99845">
        <ele>1005.8</ele>
        <time>2021-10-14T11:33:35Z</time>
      </trkpt>
      <trkpt lat="46.54382" lon="5.99851">
        <ele>1003.6</ele>
        <time>2021-10-14T11:33:41Z</time>
      </trkpt>
      <trkpt lat="46.54384" lon="5.99857">
        <ele>1003</ele>
        <time>2021-10-14T11:33:45Z</time>
      </trkpt>
      <trkpt lat="46.54385" lon="5.99864">
        <ele>1002.5</ele>
        <time>2021-10-14T11:33:50Z</time>
      </trkpt>
      <trkpt lat="46.54385" lon="5.99871">
        <ele>1002.2</ele>
        <time>2021-10-14T11:33:55Z</time>
      </trkpt>
      <trkpt lat="46.54386" lon="5.99879">
        <ele>1001.3</ele>
        <time>2021-10-14T11:34:00Z</time>
      </trkpt>
      <trkpt lat="46.54388" lon="5.99886">
        <ele>1000.4</ele>
        <time>2021-10-14T11:34:04Z</time>
      </trkpt>
      <trkpt lat="46.5439" lon="5.99893">
        <ele>999.6</ele>
        <time>2021-10-14T11:34:08Z</time>
      </trkpt>
      <trkpt lat="46.54391" lon="5.999">
        <ele>998.9</ele>
        <time>2021-10-14T11:34:13Z</time>
      </trkpt>
      <trkpt lat="46.54394" lon="5.99906">
        <ele>998.2</ele>
        <time>2021-10-14T11:34:20Z</time>
      </trkpt>
      <trkpt lat="46.54397" lon="5.99911">
        <ele>997.1</ele>
        <time>2021-10-14T11:34:27Z</time>
      </trkpt>
      <trkpt lat="46.54401" lon="5.99916">
        <ele>996.1</ele>
        <time>2021-10-14T11:34:32Z</time>
      </trkpt>
      <trkpt lat="46.544" lon="5.99923">
        <ele>993.8</ele>
        <time>2021-10-14T11:34:40Z</time>
      </trkpt>
      <trkpt lat="46.54402" lon="5.9993">
        <ele>991.6</ele>
        <time>2021-10-14T11:34:46Z</time>
      </trkpt>
      <trkpt lat="46.54406" lon="5.99933">
        <ele>990.6</ele>
        <time>2021-10-14T11:34:49Z</time>
      </trkpt>
      <trkpt lat="46.54411" lon="5.99937">
        <ele>989.6</ele>
        <time>2021-10-14T11:34:52Z</time>
      </trkpt>
      <trkpt lat="46.54415" lon="5.99942">
        <ele>988.9</ele>
        <time>2021-10-14T11:34:55Z</time>
      </trkpt>
      <trkpt lat="46.54418" lon="5.99948">
        <ele>988</ele>
        <time>2021-10-14T11:34:59Z</time>
      </trkpt>
      <trkpt lat="46.54422" lon="5.99953">
        <ele>987.4</ele>
        <time>2021-10-14T11:35:04Z</time>
      </trkpt>
      <trkpt lat="46.54426" lon="5.99957">
        <ele>987.2</ele>
        <time>2021-10-14T11:35:11Z</time>
      </trkpt>
      <trkpt lat="46.5443" lon="5.99961">
        <ele>987.3</ele>
        <time>2021-10-14T11:35:16Z</time>
      </trkpt>
      <trkpt lat="46.54434" lon="5.99963">
        <ele>987.5</ele>
        <time>2021-10-14T11:35:20Z</time>
      </trkpt>
      <trkpt lat="46.54439" lon="5.99964">
        <ele>988</ele>
        <time>2021-10-14T11:35:25Z</time>
      </trkpt>
      <trkpt lat="46.54444" lon="5.99963">
        <ele>988.7</ele>
        <time>2021-10-14T11:35:31Z</time>
      </trkpt>
      <trkpt lat="46.54449" lon="5.99964">
        <ele>989.3</ele>
        <time>2021-10-14T11:35:35Z</time>
      </trkpt>
      <trkpt lat="46.54453" lon="5.99967">
        <ele>989.8</ele>
        <time>2021-10-14T11:35:39Z</time>
      </trkpt>
      <trkpt lat="46.54457" lon="5.99971">
        <ele>990.1</ele>
        <time>2021-10-14T11:35:43Z</time>
      </trkpt>
      <trkpt lat="46.5446" lon="5.99977">
        <ele>990</ele>
        <time>2021-10-14T11:35:48Z</time>
      </trkpt>
      <trkpt lat="46.54462" lon="5.99984">
        <ele>989.6</ele>
        <time>2021-10-14T11:35:53Z</time>
      </trkpt>
      <trkpt lat="46.54463" lon="5.99991">
        <ele>989.4</ele>
        <time>2021-10-14T11:35:58Z</time>
      </trkpt>
      <trkpt lat="46.54464" lon="5.99998">
        <ele>989.3</ele>
        <time>2021-10-14T11:36:03Z</time>
      </trkpt>
      <trkpt lat="46.54463" lon="6.00004">
        <ele>989.2</ele>
        <time>2021-10-14T11:36:08Z</time>
      </trkpt>
      <trkpt lat="46.54461" lon="6.00011">
        <ele>989.4</ele>
        <time>2021-10-14T11:36:14Z</time>
      </trkpt>
      <trkpt lat="46.54459" lon="6.00017">
        <ele>989.6</ele>
        <time>2021-10-14T11:36:20Z</time>
      </trkpt>
      <trkpt lat="46.54457" lon="6.00023">
        <ele>989</ele>
        <time>2021-10-14T11:36:26Z</time>
      </trkpt>
      <trkpt lat="46.54454" lon="6.0003">
        <ele>988.6</ele>
        <time>2021-10-14T11:36:31Z</time>
      </trkpt>
      <trkpt lat="46.54452" lon="6.00036">
        <ele>988.1</ele>
        <time>2021-10-14T11:36:37Z</time>
      </trkpt>
      <trkpt lat="46.5445" lon="6.00042">
        <ele>988.5</ele>
        <time>2021-10-14T11:36:43Z</time>
      </trkpt>
      <trkpt lat="46.54447" lon="6.00048">
        <ele>988.1</ele>
        <time>2021-10-14T11:36:48Z</time>
      </trkpt>
      <trkpt lat="46.54444" lon="6.00054">
        <ele>987.4</ele>
        <time>2021-10-14T11:36:53Z</time>
      </trkpt>
      <trkpt lat="46.54441" lon="6.00059">
        <ele>986.4</ele>
        <time>2021-10-14T11:37:00Z</time>
      </trkpt>
      <trkpt lat="46.5444" lon="6.00066">
        <ele>984.3</ele>
        <time>2021-10-14T11:37:08Z</time>
      </trkpt>
      <trkpt lat="46.5444" lon="6.00074">
        <ele>982.3</ele>
        <time>2021-10-14T11:37:15Z</time>
      </trkpt>
      <trkpt lat="46.54441" lon="6.00081">
        <ele>981.2</ele>
        <time>2021-10-14T11:37:21Z</time>
      </trkpt>
      <trkpt lat="46.54441" lon="6.00088">
        <ele>980.5</ele>
        <time>2021-10-14T11:37:27Z</time>
      </trkpt>
      <trkpt lat="46.5444" lon="6.00095">
        <ele>979.6</ele>
        <time>2021-10-14T11:37:33Z</time>
      </trkpt>
      <trkpt lat="46.54444" lon="6.00099">
        <ele>978.7</ele>
        <time>2021-10-14T11:37:44Z</time>
      </trkpt>
      <trkpt lat="46.54442" lon="6.00092">
        <ele>983</ele>
        <time>2021-10-14T11:38:41Z</time>
      </trkpt>
      <trkpt lat="46.54442" lon="6.00084">
        <ele>982.3</ele>
        <time>2021-10-14T11:38:45Z</time>
      </trkpt>
      <trkpt lat="46.54443" lon="6.00077">
        <ele>981.6</ele>
        <time>2021-10-14T11:38:48Z</time>
      </trkpt>
      <trkpt lat="46.54446" lon="6.00071">
        <ele>981.1</ele>
        <time>2021-10-14T11:38:52Z</time>
      </trkpt>
      <trkpt lat="46.54448" lon="6.00065">
        <ele>980.6</ele>
        <time>2021-10-14T11:38:58Z</time>
      </trkpt>
      <trkpt lat="46.54449" lon="6.00058">
        <ele>979.8</ele>
        <time>2021-10-14T11:39:05Z</time>
      </trkpt>
      <trkpt lat="46.54452" lon="6.00053">
        <ele>979.7</ele>
        <time>2021-10-14T11:39:10Z</time>
      </trkpt>
      <trkpt lat="46.54455" lon="6.00048">
        <ele>980.7</ele>
        <time>2021-10-14T11:39:15Z</time>
      </trkpt>
      <trkpt lat="46.54457" lon="6.00041">
        <ele>983.6</ele>
        <time>2021-10-14T11:39:27Z</time>
      </trkpt>
      <trkpt lat="46.5446" lon="6.00035">
        <ele>984.1</ele>
        <time>2021-10-14T11:39:31Z</time>
      </trkpt>
      <trkpt lat="46.54465" lon="6.00031">
        <ele>984.3</ele>
        <time>2021-10-14T11:39:36Z</time>
      </trkpt>
      <trkpt lat="46.54469" lon="6.00027">
        <ele>984</ele>
        <time>2021-10-14T11:39:39Z</time>
      </trkpt>
      <trkpt lat="46.54473" lon="6.00024">
        <ele>983.8</ele>
        <time>2021-10-14T11:39:44Z</time>
      </trkpt>
      <trkpt lat="46.54478" lon="6.00021">
        <ele>983.6</ele>
        <time>2021-10-14T11:39:53Z</time>
      </trkpt>
      <trkpt lat="46.54481" lon="6.00016">
        <ele>983.8</ele>
        <time>2021-10-14T11:40:00Z</time>
      </trkpt>
      <trkpt lat="46.54485" lon="6.00011">
        <ele>984.4</ele>
        <time>2021-10-14T11:40:10Z</time>
      </trkpt>
      <trkpt lat="46.5449" lon="6.00009">
        <ele>985.5</ele>
        <time>2021-10-14T11:40:16Z</time>
      </trkpt>
      <trkpt lat="46.54494" lon="6.00004">
        <ele>986.4</ele>
        <time>2021-10-14T11:40:23Z</time>
      </trkpt>
      <trkpt lat="46.54498" lon="6">
        <ele>986.1</ele>
        <time>2021-10-14T11:40:28Z</time>
      </trkpt>
      <trkpt lat="46.54501" lon="5.99995">
        <ele>986.4</ele>
        <time>2021-10-14T11:40:33Z</time>
      </trkpt>
      <trkpt lat="46.54504" lon="5.99989">
        <ele>987.4</ele>
        <time>2021-10-14T11:40:39Z</time>
      </trkpt>
      <trkpt lat="46.54504" lon="5.99982">
        <ele>990.2</ele>
        <time>2021-10-14T11:40:46Z</time>
      </trkpt>
      <trkpt lat="46.54506" lon="5.99976">
        <ele>992.4</ele>
        <time>2021-10-14T11:40:53Z</time>
      </trkpt>
      <trkpt lat="46.54509" lon="5.99972">
        <ele>993.1</ele>
        <time>2021-10-14T11:40:57Z</time>
      </trkpt>
      <trkpt lat="46.54514" lon="5.99967">
        <ele>993.1</ele>
        <time>2021-10-14T11:41:01Z</time>
      </trkpt>
      <trkpt lat="46.54518" lon="5.99963">
        <ele>991.9</ele>
        <time>2021-10-14T11:41:09Z</time>
      </trkpt>
      <trkpt lat="46.54519" lon="5.99957">
        <ele>991.3</ele>
        <time>2021-10-14T11:41:16Z</time>
      </trkpt>
      <trkpt lat="46.5452" lon="5.9995">
        <ele>992.2</ele>
        <time>2021-10-14T11:41:22Z</time>
      </trkpt>
      <trkpt lat="46.5452" lon="5.99943">
        <ele>993.1</ele>
        <time>2021-10-14T11:41:27Z</time>
      </trkpt>
      <trkpt lat="46.54524" lon="5.99937">
        <ele>994.9</ele>
        <time>2021-10-14T11:41:33Z</time>
      </trkpt>
      <trkpt lat="46.54529" lon="5.99933">
        <ele>996</ele>
        <time>2021-10-14T11:41:37Z</time>
      </trkpt>
      <trkpt lat="46.54532" lon="5.99929">
        <ele>997</ele>
        <time>2021-10-14T11:41:41Z</time>
      </trkpt>
      <trkpt lat="46.54536" lon="5.99924">
        <ele>997.4</ele>
        <time>2021-10-14T11:41:47Z</time>
      </trkpt>
      <trkpt lat="46.54538" lon="5.99917">
        <ele>998</ele>
        <time>2021-10-14T11:41:52Z</time>
      </trkpt>
      <trkpt lat="46.54538" lon="5.9991">
        <ele>998.6</ele>
        <time>2021-10-14T11:41:59Z</time>
      </trkpt>
      <trkpt lat="46.5454" lon="5.99904">
        <ele>998.8</ele>
        <time>2021-10-14T11:42:04Z</time>
      </trkpt>
      <trkpt lat="46.54541" lon="5.99897">
        <ele>999.3</ele>
        <time>2021-10-14T11:42:08Z</time>
      </trkpt>
      <trkpt lat="46.5454" lon="5.99889">
        <ele>1001.1</ele>
        <time>2021-10-14T11:42:15Z</time>
      </trkpt>
      <trkpt lat="46.54539" lon="5.99882">
        <ele>1005.5</ele>
        <time>2021-10-14T11:42:29Z</time>
      </trkpt>
      <trkpt lat="46.54538" lon="5.99875">
        <ele>1006.8</ele>
        <time>2021-10-14T11:42:35Z</time>
      </trkpt>
      <trkpt lat="46.54541" lon="5.99869">
        <ele>1008.6</ele>
        <time>2021-10-14T11:42:43Z</time>
      </trkpt>
      <trkpt lat="46.54544" lon="5.99865">
        <ele>1009.3</ele>
        <time>2021-10-14T11:42:46Z</time>
      </trkpt>
      <trkpt lat="46.54548" lon="5.9986">
        <ele>1010.1</ele>
        <time>2021-10-14T11:42:49Z</time>
      </trkpt>
      <trkpt lat="46.54547" lon="5.99854">
        <ele>1011.4</ele>
        <time>2021-10-14T11:42:56Z</time>
      </trkpt>
      <trkpt lat="46.54546" lon="5.99847">
        <ele>1011.9</ele>
        <time>2021-10-14T11:43:06Z</time>
      </trkpt>
      <trkpt lat="46.54545" lon="5.9984">
        <ele>1011.3</ele>
        <time>2021-10-14T11:43:15Z</time>
      </trkpt>
      <trkpt lat="46.54543" lon="5.99833">
        <ele>1010.6</ele>
        <time>2021-10-14T11:43:20Z</time>
      </trkpt>
      <trkpt lat="46.54543" lon="5.99824">
        <ele>1009.9</ele>
        <time>2021-10-14T11:43:24Z</time>
      </trkpt>
      <trkpt lat="46.54546" lon="5.99819">
        <ele>1008.4</ele>
        <time>2021-10-14T11:43:29Z</time>
      </trkpt>
      <trkpt lat="46.54551" lon="5.99817">
        <ele>1007.3</ele>
        <time>2021-10-14T11:43:37Z</time>
      </trkpt>
      <trkpt lat="46.54556" lon="5.99815">
        <ele>1007.2</ele>
        <time>2021-10-14T11:43:42Z</time>
      </trkpt>
      <trkpt lat="46.5456" lon="5.99814">
        <ele>1007.4</ele>
        <time>2021-10-14T11:43:45Z</time>
      </trkpt>
      <trkpt lat="46.54567" lon="5.99812">
        <ele>1007.6</ele>
        <time>2021-10-14T11:43:48Z</time>
      </trkpt>
      <trkpt lat="46.54571" lon="5.9981">
        <ele>1008</ele>
        <time>2021-10-14T11:43:51Z</time>
      </trkpt>
      <trkpt lat="46.54575" lon="5.99805">
        <ele>1009.1</ele>
        <time>2021-10-14T11:43:56Z</time>
      </trkpt>
      <trkpt lat="46.54579" lon="5.99802">
        <ele>1010.6</ele>
        <time>2021-10-14T11:44:01Z</time>
      </trkpt>
      <trkpt lat="46.54582" lon="5.99795">
        <ele>1012.1</ele>
        <time>2021-10-14T11:44:07Z</time>
      </trkpt>
      <trkpt lat="46.54586" lon="5.99791">
        <ele>1012.9</ele>
        <time>2021-10-14T11:44:12Z</time>
      </trkpt>
      <trkpt lat="46.54591" lon="5.99788">
        <ele>1013.6</ele>
        <time>2021-10-14T11:44:19Z</time>
      </trkpt>
      <trkpt lat="46.5459" lon="5.99782">
        <ele>1014.1</ele>
        <time>2021-10-14T11:44:24Z</time>
      </trkpt>
      <trkpt lat="46.54591" lon="5.99775">
        <ele>1014.4</ele>
        <time>2021-10-14T11:44:30Z</time>
      </trkpt>
      <trkpt lat="46.54589" lon="5.99768">
        <ele>1012.8</ele>
        <time>2021-10-14T11:44:49Z</time>
      </trkpt>
      <trkpt lat="46.54585" lon="5.99764">
        <ele>1014.8</ele>
        <time>2021-10-14T11:44:59Z</time>
      </trkpt>
      <trkpt lat="46.54591" lon="5.99766">
        <ele>1015.5</ele>
        <time>2021-10-14T11:45:06Z</time>
      </trkpt>
      <trkpt lat="46.54596" lon="5.99768">
        <ele>1015.9</ele>
        <time>2021-10-14T11:45:09Z</time>
      </trkpt>
      <trkpt lat="46.546" lon="5.99766">
        <ele>1016.3</ele>
        <time>2021-10-14T11:45:15Z</time>
      </trkpt>
      <trkpt lat="46.54602" lon="5.9976">
        <ele>1017.7</ele>
        <time>2021-10-14T11:45:20Z</time>
      </trkpt>
      <trkpt lat="46.54605" lon="5.99755">
        <ele>1019.8</ele>
        <time>2021-10-14T11:45:26Z</time>
      </trkpt>
      <trkpt lat="46.54606" lon="5.99748">
        <ele>1021.7</ele>
        <time>2021-10-14T11:45:31Z</time>
      </trkpt>
      <trkpt lat="46.54608" lon="5.99742">
        <ele>1024.4</ele>
        <time>2021-10-14T11:45:39Z</time>
      </trkpt>
      <trkpt lat="46.54608" lon="5.99735">
        <ele>1026.4</ele>
        <time>2021-10-14T11:45:49Z</time>
      </trkpt>
      <trkpt lat="46.54611" lon="5.99729">
        <ele>1028</ele>
        <time>2021-10-14T11:45:56Z</time>
      </trkpt>
      <trkpt lat="46.54614" lon="5.99722">
        <ele>1029.5</ele>
        <time>2021-10-14T11:45:59Z</time>
      </trkpt>
      <trkpt lat="46.54616" lon="5.99715">
        <ele>1031.7</ele>
        <time>2021-10-14T11:46:04Z</time>
      </trkpt>
      <trkpt lat="46.54616" lon="5.99708">
        <ele>1034</ele>
        <time>2021-10-14T11:46:10Z</time>
      </trkpt>
      <trkpt lat="46.54616" lon="5.99701">
        <ele>1035.2</ele>
        <time>2021-10-14T11:46:18Z</time>
      </trkpt>
      <trkpt lat="46.54617" lon="5.99694">
        <ele>1036.3</ele>
        <time>2021-10-14T11:46:26Z</time>
      </trkpt>
      <trkpt lat="46.54616" lon="5.99688">
        <ele>1035.9</ele>
        <time>2021-10-14T11:46:31Z</time>
      </trkpt>
      <trkpt lat="46.5462" lon="5.99681">
        <ele>1035</ele>
        <time>2021-10-14T11:46:35Z</time>
      </trkpt>
      <trkpt lat="46.54624" lon="5.99675">
        <ele>1033.9</ele>
        <time>2021-10-14T11:46:39Z</time>
      </trkpt>
      <trkpt lat="46.54627" lon="5.99669">
        <ele>1032.7</ele>
        <time>2021-10-14T11:46:43Z</time>
      </trkpt>
      <trkpt lat="46.54631" lon="5.99664">
        <ele>1031.4</ele>
        <time>2021-10-14T11:46:47Z</time>
      </trkpt>
      <trkpt lat="46.54635" lon="5.99659">
        <ele>1030.5</ele>
        <time>2021-10-14T11:46:51Z</time>
      </trkpt>
      <trkpt lat="46.54639" lon="5.99654">
        <ele>1029.6</ele>
        <time>2021-10-14T11:46:55Z</time>
      </trkpt>
      <trkpt lat="46.54643" lon="5.9965">
        <ele>1028.6</ele>
        <time>2021-10-14T11:47:00Z</time>
      </trkpt>
      <trkpt lat="46.54644" lon="5.99643">
        <ele>1027.6</ele>
        <time>2021-10-14T11:47:06Z</time>
      </trkpt>
      <trkpt lat="46.54647" lon="5.99637">
        <ele>1026.3</ele>
        <time>2021-10-14T11:47:15Z</time>
      </trkpt>
      <trkpt lat="46.54651" lon="5.99633">
        <ele>1023.6</ele>
        <time>2021-10-14T11:47:25Z</time>
      </trkpt>
      <trkpt lat="46.54652" lon="5.99625">
        <ele>1021.7</ele>
        <time>2021-10-14T11:47:31Z</time>
      </trkpt>
      <trkpt lat="46.54654" lon="5.99618">
        <ele>1020.6</ele>
        <time>2021-10-14T11:47:35Z</time>
      </trkpt>
      <trkpt lat="46.54654" lon="5.99611">
        <ele>1020</ele>
        <time>2021-10-14T11:47:39Z</time>
      </trkpt>
      <trkpt lat="46.54656" lon="5.99605">
        <ele>1019.7</ele>
        <time>2021-10-14T11:47:43Z</time>
      </trkpt>
      <trkpt lat="46.54661" lon="5.99601">
        <ele>1020.1</ele>
        <time>2021-10-14T11:47:47Z</time>
      </trkpt>
      <trkpt lat="46.54664" lon="5.99595">
        <ele>1021.2</ele>
        <time>2021-10-14T11:47:51Z</time>
      </trkpt>
      <trkpt lat="46.54665" lon="5.99588">
        <ele>1023.1</ele>
        <time>2021-10-14T11:47:57Z</time>
      </trkpt>
      <trkpt lat="46.54665" lon="5.99581">
        <ele>1025</ele>
        <time>2021-10-14T11:48:02Z</time>
      </trkpt>
      <trkpt lat="46.54669" lon="5.99575">
        <ele>1026.5</ele>
        <time>2021-10-14T11:48:09Z</time>
      </trkpt>
      <trkpt lat="46.54673" lon="5.99571">
        <ele>1027.6</ele>
        <time>2021-10-14T11:48:15Z</time>
      </trkpt>
      <trkpt lat="46.54677" lon="5.99566">
        <ele>1028.7</ele>
        <time>2021-10-14T11:48:20Z</time>
      </trkpt>
      <trkpt lat="46.5468" lon="5.99561">
        <ele>1029.8</ele>
        <time>2021-10-14T11:48:25Z</time>
      </trkpt>
      <trkpt lat="46.54684" lon="5.99556">
        <ele>1030.4</ele>
        <time>2021-10-14T11:48:29Z</time>
      </trkpt>
      <trkpt lat="46.54687" lon="5.99552">
        <ele>1031</ele>
        <time>2021-10-14T11:48:34Z</time>
      </trkpt>
      <trkpt lat="46.5469" lon="5.99547">
        <ele>1032.3</ele>
        <time>2021-10-14T11:48:43Z</time>
      </trkpt>
      <trkpt lat="46.54694" lon="5.99543">
        <ele>1033.5</ele>
        <time>2021-10-14T11:48:48Z</time>
      </trkpt>
      <trkpt lat="46.54699" lon="5.99539">
        <ele>1034</ele>
        <time>2021-10-14T11:48:52Z</time>
      </trkpt>
      <trkpt lat="46.54702" lon="5.99534">
        <ele>1034.7</ele>
        <time>2021-10-14T11:48:57Z</time>
      </trkpt>
      <trkpt lat="46.54706" lon="5.99531">
        <ele>1036</ele>
        <time>2021-10-14T11:49:06Z</time>
      </trkpt>
      <trkpt lat="46.54711" lon="5.99529">
        <ele>1037.5</ele>
        <time>2021-10-14T11:49:12Z</time>
      </trkpt>
      <trkpt lat="46.54714" lon="5.99524">
        <ele>1038.9</ele>
        <time>2021-10-14T11:49:31Z</time>
      </trkpt>
      <trkpt lat="46.5472" lon="5.99522">
        <ele>1039.4</ele>
        <time>2021-10-14T11:49:51Z</time>
      </trkpt>
      <trkpt lat="46.54725" lon="5.99524">
        <ele>1039.3</ele>
        <time>2021-10-14T11:49:56Z</time>
      </trkpt>
      <trkpt lat="46.5473" lon="5.99524">
        <ele>1039.3</ele>
        <time>2021-10-14T11:50:02Z</time>
      </trkpt>
      <trkpt lat="46.54734" lon="5.9952">
        <ele>1039</ele>
        <time>2021-10-14T11:50:28Z</time>
      </trkpt>
      <trkpt lat="46.54738" lon="5.99523">
        <ele>1038.7</ele>
        <time>2021-10-14T11:50:32Z</time>
      </trkpt>
      <trkpt lat="46.54742" lon="5.99528">
        <ele>1038.1</ele>
        <time>2021-10-14T11:50:36Z</time>
      </trkpt>
      <trkpt lat="46.54744" lon="5.99534">
        <ele>1037.4</ele>
        <time>2021-10-14T11:50:40Z</time>
      </trkpt>
      <trkpt lat="46.54748" lon="5.99539">
        <ele>1036.8</ele>
        <time>2021-10-14T11:50:44Z</time>
      </trkpt>
      <trkpt lat="46.5475" lon="5.99546">
        <ele>1036</ele>
        <time>2021-10-14T11:50:48Z</time>
      </trkpt>
      <trkpt lat="46.54751" lon="5.99552">
        <ele>1034.9</ele>
        <time>2021-10-14T11:50:54Z</time>
      </trkpt>
      <trkpt lat="46.54755" lon="5.99556">
        <ele>1033.9</ele>
        <time>2021-10-14T11:50:59Z</time>
      </trkpt>
      <trkpt lat="46.5476" lon="5.99562">
        <ele>1033.1</ele>
        <time>2021-10-14T11:51:22Z</time>
      </trkpt>
      <trkpt lat="46.54758" lon="5.99556">
        <ele>1038.4</ele>
        <time>2021-10-14T11:51:44Z</time>
      </trkpt>
      <trkpt lat="46.54762" lon="5.99562">
        <ele>1039.6</ele>
        <time>2021-10-14T11:51:59Z</time>
      </trkpt>
      <trkpt lat="46.54766" lon="5.99564">
        <ele>1040.8</ele>
        <time>2021-10-14T11:52:11Z</time>
      </trkpt>
      <trkpt lat="46.54771" lon="5.99563">
        <ele>1042.7</ele>
        <time>2021-10-14T11:52:19Z</time>
      </trkpt>
      <trkpt lat="46.54767" lon="5.99565">
        <ele>1043.2</ele>
        <time>2021-10-14T11:52:47Z</time>
      </trkpt>
      <trkpt lat="46.54762" lon="5.99569">
        <ele>1043.1</ele>
        <time>2021-10-14T11:52:50Z</time>
      </trkpt>
      <trkpt lat="46.54758" lon="5.9957">
        <ele>1043</ele>
        <time>2021-10-14T11:52:56Z</time>
      </trkpt>
      <trkpt lat="46.54763" lon="5.9957">
        <ele>1044.1</ele>
        <time>2021-10-14T11:53:19Z</time>
      </trkpt>
      <trkpt lat="46.54767" lon="5.99565">
        <ele>1043.9</ele>
        <time>2021-10-14T11:53:22Z</time>
      </trkpt>
      <trkpt lat="46.5477" lon="5.99561">
        <ele>1043</ele>
        <time>2021-10-14T11:53:26Z</time>
      </trkpt>
      <trkpt lat="46.54769" lon="5.99568">
        <ele>1041</ele>
        <time>2021-10-14T11:53:52Z</time>
      </trkpt>
      <trkpt lat="46.54773" lon="5.99572">
        <ele>1040.1</ele>
        <time>2021-10-14T11:53:58Z</time>
      </trkpt>
      <trkpt lat="46.54777" lon="5.9957">
        <ele>1039.1</ele>
        <time>2021-10-14T11:54:50Z</time>
      </trkpt>
      <trkpt lat="46.54772" lon="5.99568">
        <ele>1037.7</ele>
        <time>2021-10-14T11:55:30Z</time>
      </trkpt>
      <trkpt lat="46.54767" lon="5.99568">
        <ele>1037.7</ele>
        <time>2021-10-14T11:55:34Z</time>
      </trkpt>
      <trkpt lat="46.5476" lon="5.99567">
        <ele>1037.8</ele>
        <time>2021-10-14T11:55:48Z</time>
      </trkpt>
      <trkpt lat="46.54756" lon="5.99571">
        <ele>1038.7</ele>
        <time>2021-10-14T11:55:53Z</time>
      </trkpt>
      <trkpt lat="46.54754" lon="5.99564">
        <ele>1039.8</ele>
        <time>2021-10-14T11:56:04Z</time>
      </trkpt>
      <trkpt lat="46.54752" lon="5.99558">
        <ele>1039.5</ele>
        <time>2021-10-14T11:56:10Z</time>
      </trkpt>
      <trkpt lat="46.54749" lon="5.99552">
        <ele>1038.8</ele>
        <time>2021-10-14T11:56:17Z</time>
      </trkpt>
      <trkpt lat="46.54746" lon="5.99547">
        <ele>1037.9</ele>
        <time>2021-10-14T11:56:24Z</time>
      </trkpt>
      <trkpt lat="46.54743" lon="5.99541">
        <ele>1036.3</ele>
        <time>2021-10-14T11:56:31Z</time>
      </trkpt>
      <trkpt lat="46.54742" lon="5.99534">
        <ele>1035</ele>
        <time>2021-10-14T11:56:37Z</time>
      </trkpt>
      <trkpt lat="46.54745" lon="5.99529">
        <ele>1034.4</ele>
        <time>2021-10-14T11:56:42Z</time>
      </trkpt>
      <trkpt lat="46.54748" lon="5.99522">
        <ele>1034</ele>
        <time>2021-10-14T11:56:47Z</time>
      </trkpt>
      <trkpt lat="46.54748" lon="5.99515">
        <ele>1035.1</ele>
        <time>2021-10-14T11:57:04Z</time>
      </trkpt>
      <trkpt lat="46.54745" lon="5.99509">
        <ele>1035.4</ele>
        <time>2021-10-14T11:57:08Z</time>
      </trkpt>
      <trkpt lat="46.5475" lon="5.9951">
        <ele>1036.8</ele>
        <time>2021-10-14T11:57:48Z</time>
      </trkpt>
      <trkpt lat="46.54755" lon="5.99512">
        <ele>1036.9</ele>
        <time>2021-10-14T11:57:53Z</time>
      </trkpt>
      <trkpt lat="46.54759" lon="5.9951">
        <ele>1036.7</ele>
        <time>2021-10-14T11:57:58Z</time>
      </trkpt>
      <trkpt lat="46.54763" lon="5.99506">
        <ele>1035.6</ele>
        <time>2021-10-14T11:58:04Z</time>
      </trkpt>
      <trkpt lat="46.54767" lon="5.99501">
        <ele>1033.2</ele>
        <time>2021-10-14T11:58:13Z</time>
      </trkpt>
      <trkpt lat="46.54771" lon="5.99498">
        <ele>1030.8</ele>
        <time>2021-10-14T11:58:20Z</time>
      </trkpt>
      <trkpt lat="46.54776" lon="5.99496">
        <ele>1029.5</ele>
        <time>2021-10-14T11:58:25Z</time>
      </trkpt>
      <trkpt lat="46.54781" lon="5.99495">
        <ele>1029.2</ele>
        <time>2021-10-14T11:58:29Z</time>
      </trkpt>
      <trkpt lat="46.54787" lon="5.99497">
        <ele>1029.9</ele>
        <time>2021-10-14T11:58:34Z</time>
      </trkpt>
      <trkpt lat="46.54791" lon="5.99499">
        <ele>1031.5</ele>
        <time>2021-10-14T11:58:39Z</time>
      </trkpt>
      <trkpt lat="46.54794" lon="5.99504">
        <ele>1033</ele>
        <time>2021-10-14T11:58:47Z</time>
      </trkpt>
      <trkpt lat="46.54798" lon="5.99509">
        <ele>1032.4</ele>
        <time>2021-10-14T11:59:02Z</time>
      </trkpt>
      <trkpt lat="46.54796" lon="5.99517">
        <ele>1035.2</ele>
        <time>2021-10-14T11:59:40Z</time>
      </trkpt>
      <trkpt lat="46.54797" lon="5.99525">
        <ele>1036.1</ele>
        <time>2021-10-14T11:59:44Z</time>
      </trkpt>
      <trkpt lat="46.54798" lon="5.99533">
        <ele>1036.6</ele>
        <time>2021-10-14T11:59:52Z</time>
      </trkpt>
      <trkpt lat="46.548" lon="5.99539">
        <ele>1036.4</ele>
        <time>2021-10-14T11:59:56Z</time>
      </trkpt>
      <trkpt lat="46.54801" lon="5.99546">
        <ele>1036</ele>
        <time>2021-10-14T12:00:00Z</time>
      </trkpt>
      <trkpt lat="46.54802" lon="5.99554">
        <ele>1035.6</ele>
        <time>2021-10-14T12:00:05Z</time>
      </trkpt>
      <trkpt lat="46.54804" lon="5.9956">
        <ele>1035.4</ele>
        <time>2021-10-14T12:00:09Z</time>
      </trkpt>
      <trkpt lat="46.54806" lon="5.99567">
        <ele>1035</ele>
        <time>2021-10-14T12:00:13Z</time>
      </trkpt>
      <trkpt lat="46.54807" lon="5.99575">
        <ele>1034.3</ele>
        <time>2021-10-14T12:00:19Z</time>
      </trkpt>
      <trkpt lat="46.54811" lon="5.99581">
        <ele>1033.8</ele>
        <time>2021-10-14T12:00:24Z</time>
      </trkpt>
      <trkpt lat="46.54814" lon="5.99587">
        <ele>1033.4</ele>
        <time>2021-10-14T12:00:28Z</time>
      </trkpt>
      <trkpt lat="46.54815" lon="5.99595">
        <ele>1033.3</ele>
        <time>2021-10-14T12:00:34Z</time>
      </trkpt>
      <trkpt lat="46.54815" lon="5.99603">
        <ele>1033.6</ele>
        <time>2021-10-14T12:00:38Z</time>
      </trkpt>
      <trkpt lat="46.54814" lon="5.9961">
        <ele>1034.2</ele>
        <time>2021-10-14T12:00:43Z</time>
      </trkpt>
      <trkpt lat="46.54814" lon="5.99618">
        <ele>1034.3</ele>
        <time>2021-10-14T12:00:48Z</time>
      </trkpt>
      <trkpt lat="46.54815" lon="5.99626">
        <ele>1034.5</ele>
        <time>2021-10-14T12:00:52Z</time>
      </trkpt>
      <trkpt lat="46.54814" lon="5.99634">
        <ele>1034.5</ele>
        <time>2021-10-14T12:00:56Z</time>
      </trkpt>
      <trkpt lat="46.54814" lon="5.99642">
        <ele>1034.4</ele>
        <time>2021-10-14T12:01:00Z</time>
      </trkpt>
      <trkpt lat="46.54812" lon="5.99647">
        <ele>1033.8</ele>
        <time>2021-10-14T12:01:04Z</time>
      </trkpt>
      <trkpt lat="46.54808" lon="5.99652">
        <ele>1033.5</ele>
        <time>2021-10-14T12:01:09Z</time>
      </trkpt>
      <trkpt lat="46.54806" lon="5.99658">
        <ele>1033.8</ele>
        <time>2021-10-14T12:01:14Z</time>
      </trkpt>
      <trkpt lat="46.54805" lon="5.99665">
        <ele>1034.2</ele>
        <time>2021-10-14T12:01:19Z</time>
      </trkpt>
      <trkpt lat="46.548" lon="5.99669">
        <ele>1034.4</ele>
        <time>2021-10-14T12:01:25Z</time>
      </trkpt>
      <trkpt lat="46.54798" lon="5.99674">
        <ele>1034.7</ele>
        <time>2021-10-14T12:01:30Z</time>
      </trkpt>
      <trkpt lat="46.54796" lon="5.99681">
        <ele>1034.9</ele>
        <time>2021-10-14T12:01:35Z</time>
      </trkpt>
      <trkpt lat="46.54795" lon="5.99688">
        <ele>1034.9</ele>
        <time>2021-10-14T12:01:40Z</time>
      </trkpt>
      <trkpt lat="46.54795" lon="5.99695">
        <ele>1034.9</ele>
        <time>2021-10-14T12:01:45Z</time>
      </trkpt>
      <trkpt lat="46.54795" lon="5.99701">
        <ele>1035</ele>
        <time>2021-10-14T12:01:52Z</time>
      </trkpt>
      <trkpt lat="46.54796" lon="5.99708">
        <ele>1034.7</ele>
        <time>2021-10-14T12:01:56Z</time>
      </trkpt>
      <trkpt lat="46.54795" lon="5.99716">
        <ele>1034.3</ele>
        <time>2021-10-14T12:02:01Z</time>
      </trkpt>
      <trkpt lat="46.54795" lon="5.99722">
        <ele>1033.8</ele>
        <time>2021-10-14T12:02:05Z</time>
      </trkpt>
      <trkpt lat="46.54795" lon="5.99729">
        <ele>1033</ele>
        <time>2021-10-14T12:02:11Z</time>
      </trkpt>
      <trkpt lat="46.54794" lon="5.99736">
        <ele>1031.6</ele>
        <time>2021-10-14T12:02:17Z</time>
      </trkpt>
      <trkpt lat="46.54794" lon="5.99744">
        <ele>1030.5</ele>
        <time>2021-10-14T12:02:23Z</time>
      </trkpt>
      <trkpt lat="46.54794" lon="5.9975">
        <ele>1029.7</ele>
        <time>2021-10-14T12:02:28Z</time>
      </trkpt>
      <trkpt lat="46.54793" lon="5.99757">
        <ele>1028.4</ele>
        <time>2021-10-14T12:02:34Z</time>
      </trkpt>
      <trkpt lat="46.54793" lon="5.99764">
        <ele>1027.1</ele>
        <time>2021-10-14T12:02:39Z</time>
      </trkpt>
      <trkpt lat="46.54792" lon="5.99771">
        <ele>1025.2</ele>
        <time>2021-10-14T12:02:48Z</time>
      </trkpt>
      <trkpt lat="46.54791" lon="5.99778">
        <ele>1024</ele>
        <time>2021-10-14T12:02:53Z</time>
      </trkpt>
      <trkpt lat="46.54792" lon="5.99784">
        <ele>1022.7</ele>
        <time>2021-10-14T12:02:58Z</time>
      </trkpt>
      <trkpt lat="46.54792" lon="5.99791">
        <ele>1021.6</ele>
        <time>2021-10-14T12:03:03Z</time>
      </trkpt>
      <trkpt lat="46.54792" lon="5.99798">
        <ele>1020.9</ele>
        <time>2021-10-14T12:03:08Z</time>
      </trkpt>
      <trkpt lat="46.5479" lon="5.99805">
        <ele>1020.4</ele>
        <time>2021-10-14T12:03:13Z</time>
      </trkpt>
      <trkpt lat="46.54788" lon="5.99812">
        <ele>1020.6</ele>
        <time>2021-10-14T12:03:17Z</time>
      </trkpt>
      <trkpt lat="46.54787" lon="5.99818">
        <ele>1021</ele>
        <time>2021-10-14T12:03:21Z</time>
      </trkpt>
      <trkpt lat="46.54786" lon="5.99826">
        <ele>1020.9</ele>
        <time>2021-10-14T12:03:26Z</time>
      </trkpt>
      <trkpt lat="46.54784" lon="5.99832">
        <ele>1020.2</ele>
        <time>2021-10-14T12:03:31Z</time>
      </trkpt>
      <trkpt lat="46.54782" lon="5.99838">
        <ele>1019.8</ele>
        <time>2021-10-14T12:03:36Z</time>
      </trkpt>
      <trkpt lat="46.5478" lon="5.99845">
        <ele>1019</ele>
        <time>2021-10-14T12:03:41Z</time>
      </trkpt>
      <trkpt lat="46.54781" lon="5.99852">
        <ele>1017.8</ele>
        <time>2021-10-14T12:03:46Z</time>
      </trkpt>
      <trkpt lat="46.54784" lon="5.99859">
        <ele>1016.5</ele>
        <time>2021-10-14T12:03:51Z</time>
      </trkpt>
      <trkpt lat="46.54781" lon="5.99865">
        <ele>1015.6</ele>
        <time>2021-10-14T12:03:56Z</time>
      </trkpt>
      <trkpt lat="46.54778" lon="5.9987">
        <ele>1015.5</ele>
        <time>2021-10-14T12:04:00Z</time>
      </trkpt>
      <trkpt lat="46.54775" lon="5.99875">
        <ele>1015.7</ele>
        <time>2021-10-14T12:04:04Z</time>
      </trkpt>
      <trkpt lat="46.54771" lon="5.9988">
        <ele>1016</ele>
        <time>2021-10-14T12:04:08Z</time>
      </trkpt>
      <trkpt lat="46.54769" lon="5.99886">
        <ele>1016.2</ele>
        <time>2021-10-14T12:04:12Z</time>
      </trkpt>
      <trkpt lat="46.54765" lon="5.9989">
        <ele>1016.6</ele>
        <time>2021-10-14T12:04:17Z</time>
      </trkpt>
      <trkpt lat="46.54761" lon="5.99893">
        <ele>1016.2</ele>
        <time>2021-10-14T12:04:21Z</time>
      </trkpt>
      <trkpt lat="46.54756" lon="5.99897">
        <ele>1015.8</ele>
        <time>2021-10-14T12:04:26Z</time>
      </trkpt>
      <trkpt lat="46.54754" lon="5.99904">
        <ele>1014.5</ele>
        <time>2021-10-14T12:04:34Z</time>
      </trkpt>
      <trkpt lat="46.54751" lon="5.9991">
        <ele>1013.8</ele>
        <time>2021-10-14T12:04:39Z</time>
      </trkpt>
      <trkpt lat="46.54748" lon="5.99915">
        <ele>1013.6</ele>
        <time>2021-10-14T12:04:43Z</time>
      </trkpt>
      <trkpt lat="46.54745" lon="5.9992">
        <ele>1013.4</ele>
        <time>2021-10-14T12:04:47Z</time>
      </trkpt>
      <trkpt lat="46.54742" lon="5.99924">
        <ele>1013</ele>
        <time>2021-10-14T12:04:51Z</time>
      </trkpt>
      <trkpt lat="46.5474" lon="5.99931">
        <ele>1012.3</ele>
        <time>2021-10-14T12:04:57Z</time>
      </trkpt>
      <trkpt lat="46.54739" lon="5.99938">
        <ele>1012.1</ele>
        <time>2021-10-14T12:05:04Z</time>
      </trkpt>
      <trkpt lat="46.54737" lon="5.99945">
        <ele>1012.6</ele>
        <time>2021-10-14T12:05:08Z</time>
      </trkpt>
      <trkpt lat="46.54737" lon="5.99953">
        <ele>1013.3</ele>
        <time>2021-10-14T12:05:12Z</time>
      </trkpt>
      <trkpt lat="46.54737" lon="5.99961">
        <ele>1013.4</ele>
        <time>2021-10-14T12:05:16Z</time>
      </trkpt>
      <trkpt lat="46.54735" lon="5.99967">
        <ele>1012.7</ele>
        <time>2021-10-14T12:05:21Z</time>
      </trkpt>
      <trkpt lat="46.5473" lon="5.99968">
        <ele>1011.4</ele>
        <time>2021-10-14T12:05:25Z</time>
      </trkpt>
      <trkpt lat="46.54726" lon="5.99972">
        <ele>1010.3</ele>
        <time>2021-10-14T12:05:32Z</time>
      </trkpt>
      <trkpt lat="46.54722" lon="5.99975">
        <ele>1009.7</ele>
        <time>2021-10-14T12:05:36Z</time>
      </trkpt>
      <trkpt lat="46.54717" lon="5.99977">
        <ele>1009.1</ele>
        <time>2021-10-14T12:05:40Z</time>
      </trkpt>
      <trkpt lat="46.54712" lon="5.9998">
        <ele>1007.5</ele>
        <time>2021-10-14T12:05:46Z</time>
      </trkpt>
      <trkpt lat="46.54708" lon="5.99983">
        <ele>1006.4</ele>
        <time>2021-10-14T12:05:52Z</time>
      </trkpt>
      <trkpt lat="46.54705" lon="5.99987">
        <ele>1005.6</ele>
        <time>2021-10-14T12:05:58Z</time>
      </trkpt>
      <trkpt lat="46.54702" lon="5.99992">
        <ele>1005.5</ele>
        <time>2021-10-14T12:06:05Z</time>
      </trkpt>
      <trkpt lat="46.54697" lon="5.99996">
        <ele>1005.9</ele>
        <time>2021-10-14T12:06:09Z</time>
      </trkpt>
      <trkpt lat="46.54693" lon="6.00001">
        <ele>1006.8</ele>
        <time>2021-10-14T12:06:13Z</time>
      </trkpt>
      <trkpt lat="46.54689" lon="6.00004">
        <ele>1007.4</ele>
        <time>2021-10-14T12:06:17Z</time>
      </trkpt>
      <trkpt lat="46.54685" lon="6.00008">
        <ele>1007.4</ele>
        <time>2021-10-14T12:06:22Z</time>
      </trkpt>
      <trkpt lat="46.5468" lon="6.00009">
        <ele>1007.4</ele>
        <time>2021-10-14T12:06:28Z</time>
      </trkpt>
      <trkpt lat="46.54676" lon="6.00012">
        <ele>1007.8</ele>
        <time>2021-10-14T12:06:34Z</time>
      </trkpt>
      <trkpt lat="46.54672" lon="6.00015">
        <ele>1007.8</ele>
        <time>2021-10-14T12:06:40Z</time>
      </trkpt>
      <trkpt lat="46.54669" lon="6.00021">
        <ele>1007.6</ele>
        <time>2021-10-14T12:06:46Z</time>
      </trkpt>
      <trkpt lat="46.54666" lon="6.00025">
        <ele>1014.9</ele>
        <time>2021-10-14T12:07:15Z</time>
      </trkpt>
      <trkpt lat="46.54661" lon="6.00025">
        <ele>1016.1</ele>
        <time>2021-10-14T12:07:20Z</time>
      </trkpt>
      <trkpt lat="46.54658" lon="6.00031">
        <ele>1016.3</ele>
        <time>2021-10-14T12:07:30Z</time>
      </trkpt>
      <trkpt lat="46.54654" lon="6.00033">
        <ele>1015.5</ele>
        <time>2021-10-14T12:07:37Z</time>
      </trkpt>
      <trkpt lat="46.54649" lon="6.00036">
        <ele>1015.4</ele>
        <time>2021-10-14T12:07:44Z</time>
      </trkpt>
      <trkpt lat="46.54644" lon="6.00038">
        <ele>1016.1</ele>
        <time>2021-10-14T12:07:50Z</time>
      </trkpt>
      <trkpt lat="46.5464" lon="6.0004">
        <ele>1017</ele>
        <time>2021-10-14T12:07:56Z</time>
      </trkpt>
      <trkpt lat="46.54635" lon="6.00042">
        <ele>1016.5</ele>
        <time>2021-10-14T12:08:04Z</time>
      </trkpt>
      <trkpt lat="46.54631" lon="6.00046">
        <ele>1015.2</ele>
        <time>2021-10-14T12:08:11Z</time>
      </trkpt>
      <trkpt lat="46.54627" lon="6.0005">
        <ele>1013.7</ele>
        <time>2021-10-14T12:08:19Z</time>
      </trkpt>
      <trkpt lat="46.54624" lon="6.00055">
        <ele>1011.3</ele>
        <time>2021-10-14T12:08:26Z</time>
      </trkpt>
      <trkpt lat="46.54623" lon="6.00062">
        <ele>1009.2</ele>
        <time>2021-10-14T12:08:31Z</time>
      </trkpt>
      <trkpt lat="46.5462" lon="6.00068">
        <ele>1006.7</ele>
        <time>2021-10-14T12:08:37Z</time>
      </trkpt>
      <trkpt lat="46.54618" lon="6.00074">
        <ele>1002.8</ele>
        <time>2021-10-14T12:08:42Z</time>
      </trkpt>
      <trkpt lat="46.54615" lon="6.0008">
        <ele>997.5</ele>
        <time>2021-10-14T12:08:50Z</time>
      </trkpt>
      <trkpt lat="46.54613" lon="6.00086">
        <ele>994.7</ele>
        <time>2021-10-14T12:08:55Z</time>
      </trkpt>
      <trkpt lat="46.5461" lon="6.00092">
        <ele>991.4</ele>
        <time>2021-10-14T12:09:01Z</time>
      </trkpt>
      <trkpt lat="46.54608" lon="6.00099">
        <ele>988.8</ele>
        <time>2021-10-14T12:09:07Z</time>
      </trkpt>
      <trkpt lat="46.54608" lon="6.00106">
        <ele>986.4</ele>
        <time>2021-10-14T12:09:13Z</time>
      </trkpt>
      <trkpt lat="46.54606" lon="6.00113">
        <ele>984.8</ele>
        <time>2021-10-14T12:09:18Z</time>
      </trkpt>
      <trkpt lat="46.54604" lon="6.00119">
        <ele>983.5</ele>
        <time>2021-10-14T12:09:24Z</time>
      </trkpt>
      <trkpt lat="46.54601" lon="6.00125">
        <ele>982.6</ele>
        <time>2021-10-14T12:09:30Z</time>
      </trkpt>
      <trkpt lat="46.54596" lon="6.00128">
        <ele>981.8</ele>
        <time>2021-10-14T12:09:36Z</time>
      </trkpt>
      <trkpt lat="46.54593" lon="6.00135">
        <ele>981.2</ele>
        <time>2021-10-14T12:09:42Z</time>
      </trkpt>
      <trkpt lat="46.5459" lon="6.00141">
        <ele>980.5</ele>
        <time>2021-10-14T12:09:47Z</time>
      </trkpt>
      <trkpt lat="46.54588" lon="6.00147">
        <ele>979.9</ele>
        <time>2021-10-14T12:09:52Z</time>
      </trkpt>
      <trkpt lat="46.54586" lon="6.00153">
        <ele>979.3</ele>
        <time>2021-10-14T12:09:57Z</time>
      </trkpt>
      <trkpt lat="46.54582" lon="6.00158">
        <ele>978.5</ele>
        <time>2021-10-14T12:10:04Z</time>
      </trkpt>
      <trkpt lat="46.54579" lon="6.00164">
        <ele>978.7</ele>
        <time>2021-10-14T12:10:11Z</time>
      </trkpt>
      <trkpt lat="46.54578" lon="6.00171">
        <ele>979.2</ele>
        <time>2021-10-14T12:10:17Z</time>
      </trkpt>
      <trkpt lat="46.54575" lon="6.00177">
        <ele>979.4</ele>
        <time>2021-10-14T12:10:21Z</time>
      </trkpt>
      <trkpt lat="46.54576" lon="6.00185">
        <ele>979.4</ele>
        <time>2021-10-14T12:10:25Z</time>
      </trkpt>
      <trkpt lat="46.54575" lon="6.00191">
        <ele>978.9</ele>
        <time>2021-10-14T12:10:29Z</time>
      </trkpt>
      <trkpt lat="46.54571" lon="6.00195">
        <ele>978.4</ele>
        <time>2021-10-14T12:10:33Z</time>
      </trkpt>
      <trkpt lat="46.54567" lon="6.00199">
        <ele>978.3</ele>
        <time>2021-10-14T12:10:36Z</time>
      </trkpt>
      <trkpt lat="46.54563" lon="6.00203">
        <ele>978</ele>
        <time>2021-10-14T12:10:40Z</time>
      </trkpt>
      <trkpt lat="46.5456" lon="6.0021">
        <ele>977.8</ele>
        <time>2021-10-14T12:10:44Z</time>
      </trkpt>
      <trkpt lat="46.54557" lon="6.00215">
        <ele>978.1</ele>
        <time>2021-10-14T12:10:49Z</time>
      </trkpt>
      <trkpt lat="46.54554" lon="6.0022">
        <ele>978.5</ele>
        <time>2021-10-14T12:10:55Z</time>
      </trkpt>
      <trkpt lat="46.54552" lon="6.00227">
        <ele>978.6</ele>
        <time>2021-10-14T12:11:01Z</time>
      </trkpt>
      <trkpt lat="46.54549" lon="6.00232">
        <ele>978.7</ele>
        <time>2021-10-14T12:11:07Z</time>
      </trkpt>
      <trkpt lat="46.54544" lon="6.00236">
        <ele>979.2</ele>
        <time>2021-10-14T12:11:13Z</time>
      </trkpt>
      <trkpt lat="46.54542" lon="6.00243">
        <ele>979.6</ele>
        <time>2021-10-14T12:11:19Z</time>
      </trkpt>
      <trkpt lat="46.54542" lon="6.00251">
        <ele>979.5</ele>
        <time>2021-10-14T12:11:25Z</time>
      </trkpt>
      <trkpt lat="46.5454" lon="6.00257">
        <ele>978.9</ele>
        <time>2021-10-14T12:11:30Z</time>
      </trkpt>
      <trkpt lat="46.54538" lon="6.00264">
        <ele>978</ele>
        <time>2021-10-14T12:11:34Z</time>
      </trkpt>
      <trkpt lat="46.54536" lon="6.0027">
        <ele>977.2</ele>
        <time>2021-10-14T12:11:40Z</time>
      </trkpt>
      <trkpt lat="46.54534" lon="6.00277">
        <ele>975.7</ele>
        <time>2021-10-14T12:11:47Z</time>
      </trkpt>
      <trkpt lat="46.54533" lon="6.00284">
        <ele>974.3</ele>
        <time>2021-10-14T12:11:52Z</time>
      </trkpt>
      <trkpt lat="46.54532" lon="6.00291">
        <ele>973.5</ele>
        <time>2021-10-14T12:11:56Z</time>
      </trkpt>
      <trkpt lat="46.54534" lon="6.00299">
        <ele>972.5</ele>
        <time>2021-10-14T12:12:00Z</time>
      </trkpt>
      <trkpt lat="46.54535" lon="6.00305">
        <ele>971.8</ele>
        <time>2021-10-14T12:12:04Z</time>
      </trkpt>
      <trkpt lat="46.54535" lon="6.00313">
        <ele>971.2</ele>
        <time>2021-10-14T12:12:09Z</time>
      </trkpt>
      <trkpt lat="46.54539" lon="6.00318">
        <ele>971</ele>
        <time>2021-10-14T12:12:15Z</time>
      </trkpt>
      <trkpt lat="46.54543" lon="6.00321">
        <ele>970.8</ele>
        <time>2021-10-14T12:12:19Z</time>
      </trkpt>
      <trkpt lat="46.54547" lon="6.00325">
        <ele>970.1</ele>
        <time>2021-10-14T12:12:23Z</time>
      </trkpt>
      <trkpt lat="46.5455" lon="6.0033">
        <ele>969</ele>
        <time>2021-10-14T12:12:29Z</time>
      </trkpt>
      <trkpt lat="46.54552" lon="6.00337">
        <ele>968.9</ele>
        <time>2021-10-14T12:12:36Z</time>
      </trkpt>
      <trkpt lat="46.54552" lon="6.00344">
        <ele>969.1</ele>
        <time>2021-10-14T12:12:41Z</time>
      </trkpt>
      <trkpt lat="46.54555" lon="6.0035">
        <ele>969.4</ele>
        <time>2021-10-14T12:12:47Z</time>
      </trkpt>
      <trkpt lat="46.54555" lon="6.00357">
        <ele>969.7</ele>
        <time>2021-10-14T12:12:52Z</time>
      </trkpt>
      <trkpt lat="46.54554" lon="6.00363">
        <ele>970.6</ele>
        <time>2021-10-14T12:12:57Z</time>
      </trkpt>
      <trkpt lat="46.54554" lon="6.0037">
        <ele>971</ele>
        <time>2021-10-14T12:13:03Z</time>
      </trkpt>
      <trkpt lat="46.54556" lon="6.00376">
        <ele>971.1</ele>
        <time>2021-10-14T12:13:09Z</time>
      </trkpt>
      <trkpt lat="46.54558" lon="6.00383">
        <ele>970.4</ele>
        <time>2021-10-14T12:13:15Z</time>
      </trkpt>
      <trkpt lat="46.54558" lon="6.0039">
        <ele>969.6</ele>
        <time>2021-10-14T12:13:19Z</time>
      </trkpt>
      <trkpt lat="46.54556" lon="6.00397">
        <ele>968.4</ele>
        <time>2021-10-14T12:13:25Z</time>
      </trkpt>
      <trkpt lat="46.54552" lon="6.00402">
        <ele>967.3</ele>
        <time>2021-10-14T12:13:30Z</time>
      </trkpt>
      <trkpt lat="46.54549" lon="6.00408">
        <ele>966.4</ele>
        <time>2021-10-14T12:13:37Z</time>
      </trkpt>
      <trkpt lat="46.54545" lon="6.00412">
        <ele>965.7</ele>
        <time>2021-10-14T12:13:43Z</time>
      </trkpt>
      <trkpt lat="46.54544" lon="6.0042">
        <ele>964.8</ele>
        <time>2021-10-14T12:13:49Z</time>
      </trkpt>
      <trkpt lat="46.54543" lon="6.00427">
        <ele>964.5</ele>
        <time>2021-10-14T12:13:53Z</time>
      </trkpt>
      <trkpt lat="46.54541" lon="6.00433">
        <ele>963.9</ele>
        <time>2021-10-14T12:13:57Z</time>
      </trkpt>
      <trkpt lat="46.54539" lon="6.00439">
        <ele>963.3</ele>
        <time>2021-10-14T12:14:01Z</time>
      </trkpt>
      <trkpt lat="46.54537" lon="6.00445">
        <ele>962.6</ele>
        <time>2021-10-14T12:14:05Z</time>
      </trkpt>
      <trkpt lat="46.54535" lon="6.00453">
        <ele>961.6</ele>
        <time>2021-10-14T12:14:10Z</time>
      </trkpt>
      <trkpt lat="46.54531" lon="6.00458">
        <ele>960.3</ele>
        <time>2021-10-14T12:14:15Z</time>
      </trkpt>
      <trkpt lat="46.54528" lon="6.00464">
        <ele>958.8</ele>
        <time>2021-10-14T12:14:20Z</time>
      </trkpt>
      <trkpt lat="46.54525" lon="6.0047">
        <ele>957.5</ele>
        <time>2021-10-14T12:14:26Z</time>
      </trkpt>
      <trkpt lat="46.54523" lon="6.00477">
        <ele>956.6</ele>
        <time>2021-10-14T12:14:32Z</time>
      </trkpt>
      <trkpt lat="46.54521" lon="6.00484">
        <ele>956.3</ele>
        <time>2021-10-14T12:14:36Z</time>
      </trkpt>
      <trkpt lat="46.54519" lon="6.0049">
        <ele>956.2</ele>
        <time>2021-10-14T12:14:41Z</time>
      </trkpt>
      <trkpt lat="46.54516" lon="6.00496">
        <ele>955.4</ele>
        <time>2021-10-14T12:14:46Z</time>
      </trkpt>
      <trkpt lat="46.54517" lon="6.00502">
        <ele>955.1</ele>
        <time>2021-10-14T12:14:51Z</time>
      </trkpt>
      <trkpt lat="46.54515" lon="6.00509">
        <ele>954.6</ele>
        <time>2021-10-14T12:14:57Z</time>
      </trkpt>
      <trkpt lat="46.54514" lon="6.00515">
        <ele>953.9</ele>
        <time>2021-10-14T12:15:02Z</time>
      </trkpt>
      <trkpt lat="46.54513" lon="6.00522">
        <ele>953.5</ele>
        <time>2021-10-14T12:15:07Z</time>
      </trkpt>
      <trkpt lat="46.54511" lon="6.0053">
        <ele>953.7</ele>
        <time>2021-10-14T12:15:12Z</time>
      </trkpt>
      <trkpt lat="46.5451" lon="6.00537">
        <ele>954.1</ele>
        <time>2021-10-14T12:15:16Z</time>
      </trkpt>
      <trkpt lat="46.54508" lon="6.00544">
        <ele>954.5</ele>
        <time>2021-10-14T12:15:23Z</time>
      </trkpt>
      <trkpt lat="46.54507" lon="6.0055">
        <ele>954.9</ele>
        <time>2021-10-14T12:15:29Z</time>
      </trkpt>
      <trkpt lat="46.54508" lon="6.00559">
        <ele>954.4</ele>
        <time>2021-10-14T12:15:33Z</time>
      </trkpt>
      <trkpt lat="46.54507" lon="6.00566">
        <ele>954.1</ele>
        <time>2021-10-14T12:15:37Z</time>
      </trkpt>
      <trkpt lat="46.54505" lon="6.00573">
        <ele>954.5</ele>
        <time>2021-10-14T12:15:42Z</time>
      </trkpt>
      <trkpt lat="46.54501" lon="6.00577">
        <ele>954.8</ele>
        <time>2021-10-14T12:15:46Z</time>
      </trkpt>
      <trkpt lat="46.54498" lon="6.00583">
        <ele>954.9</ele>
        <time>2021-10-14T12:15:49Z</time>
      </trkpt>
      <trkpt lat="46.54495" lon="6.00589">
        <ele>955.1</ele>
        <time>2021-10-14T12:15:52Z</time>
      </trkpt>
      <trkpt lat="46.54491" lon="6.00595">
        <ele>955.5</ele>
        <time>2021-10-14T12:15:56Z</time>
      </trkpt>
      <trkpt lat="46.54489" lon="6.00602">
        <ele>956</ele>
        <time>2021-10-14T12:16:00Z</time>
      </trkpt>
      <trkpt lat="46.54489" lon="6.00609">
        <ele>955.9</ele>
        <time>2021-10-14T12:16:05Z</time>
      </trkpt>
      <trkpt lat="46.54485" lon="6.00613">
        <ele>955.6</ele>
        <time>2021-10-14T12:16:10Z</time>
      </trkpt>
      <trkpt lat="46.54481" lon="6.00616">
        <ele>954.8</ele>
        <time>2021-10-14T12:16:16Z</time>
      </trkpt>
      <trkpt lat="46.54476" lon="6.00617">
        <ele>954.3</ele>
        <time>2021-10-14T12:16:21Z</time>
      </trkpt>
      <trkpt lat="46.54471" lon="6.00618">
        <ele>954</ele>
        <time>2021-10-14T12:16:26Z</time>
      </trkpt>
      <trkpt lat="46.54467" lon="6.00619">
        <ele>954</ele>
        <time>2021-10-14T12:16:30Z</time>
      </trkpt>
      <trkpt lat="46.54462" lon="6.00621">
        <ele>953.5</ele>
        <time>2021-10-14T12:16:38Z</time>
      </trkpt>
      <trkpt lat="46.54457" lon="6.00623">
        <ele>953.6</ele>
        <time>2021-10-14T12:16:42Z</time>
      </trkpt>
      <trkpt lat="46.54453" lon="6.00628">
        <ele>953.9</ele>
        <time>2021-10-14T12:16:47Z</time>
      </trkpt>
      <trkpt lat="46.54451" lon="6.00634">
        <ele>953.5</ele>
        <time>2021-10-14T12:16:52Z</time>
      </trkpt>
      <trkpt lat="46.54448" lon="6.0064">
        <ele>952.7</ele>
        <time>2021-10-14T12:16:57Z</time>
      </trkpt>
      <trkpt lat="46.54447" lon="6.00647">
        <ele>951.8</ele>
        <time>2021-10-14T12:17:01Z</time>
      </trkpt>
      <trkpt lat="46.54444" lon="6.00655">
        <ele>950.8</ele>
        <time>2021-10-14T12:17:05Z</time>
      </trkpt>
      <trkpt lat="46.54443" lon="6.00662">
        <ele>949.6</ele>
        <time>2021-10-14T12:17:10Z</time>
      </trkpt>
      <trkpt lat="46.54441" lon="6.00669">
        <ele>948.2</ele>
        <time>2021-10-14T12:17:15Z</time>
      </trkpt>
      <trkpt lat="46.54439" lon="6.00675">
        <ele>947.3</ele>
        <time>2021-10-14T12:17:19Z</time>
      </trkpt>
      <trkpt lat="46.54436" lon="6.00682">
        <ele>946.5</ele>
        <time>2021-10-14T12:17:23Z</time>
      </trkpt>
      <trkpt lat="46.54434" lon="6.00688">
        <ele>946</ele>
        <time>2021-10-14T12:17:27Z</time>
      </trkpt>
      <trkpt lat="46.54432" lon="6.00695">
        <ele>946.1</ele>
        <time>2021-10-14T12:17:33Z</time>
      </trkpt>
      <trkpt lat="46.5443" lon="6.00702">
        <ele>946.5</ele>
        <time>2021-10-14T12:17:39Z</time>
      </trkpt>
      <trkpt lat="46.54426" lon="6.00708">
        <ele>946.2</ele>
        <time>2021-10-14T12:17:45Z</time>
      </trkpt>
      <trkpt lat="46.5442" lon="6.00709">
        <ele>945.7</ele>
        <time>2021-10-14T12:17:49Z</time>
      </trkpt>
      <trkpt lat="46.54418" lon="6.00715">
        <ele>944.7</ele>
        <time>2021-10-14T12:17:55Z</time>
      </trkpt>
      <trkpt lat="46.54412" lon="6.00719">
        <ele>943.6</ele>
        <time>2021-10-14T12:18:00Z</time>
      </trkpt>
      <trkpt lat="46.5441" lon="6.00726">
        <ele>941.9</ele>
        <time>2021-10-14T12:18:05Z</time>
      </trkpt>
      <trkpt lat="46.54408" lon="6.00732">
        <ele>940.7</ele>
        <time>2021-10-14T12:18:09Z</time>
      </trkpt>
      <trkpt lat="46.54405" lon="6.00738">
        <ele>939.6</ele>
        <time>2021-10-14T12:18:13Z</time>
      </trkpt>
      <trkpt lat="46.54401" lon="6.00742">
        <ele>938.5</ele>
        <time>2021-10-14T12:18:17Z</time>
      </trkpt>
      <trkpt lat="46.54399" lon="6.00748">
        <ele>937.4</ele>
        <time>2021-10-14T12:18:23Z</time>
      </trkpt>
      <trkpt lat="46.54399" lon="6.00756">
        <ele>936.8</ele>
        <time>2021-10-14T12:18:29Z</time>
      </trkpt>
      <trkpt lat="46.54396" lon="6.00761">
        <ele>936.1</ele>
        <time>2021-10-14T12:18:34Z</time>
      </trkpt>
      <trkpt lat="46.54394" lon="6.00768">
        <ele>935.6</ele>
        <time>2021-10-14T12:18:39Z</time>
      </trkpt>
      <trkpt lat="46.54393" lon="6.00775">
        <ele>934.6</ele>
        <time>2021-10-14T12:18:44Z</time>
      </trkpt>
      <trkpt lat="46.5439" lon="6.00782">
        <ele>933.5</ele>
        <time>2021-10-14T12:18:49Z</time>
      </trkpt>
      <trkpt lat="46.54387" lon="6.00787">
        <ele>933.2</ele>
        <time>2021-10-14T12:18:53Z</time>
      </trkpt>
      <trkpt lat="46.54384" lon="6.00793">
        <ele>932.8</ele>
        <time>2021-10-14T12:18:58Z</time>
      </trkpt>
      <trkpt lat="46.54381" lon="6.008">
        <ele>932.4</ele>
        <time>2021-10-14T12:19:03Z</time>
      </trkpt>
      <trkpt lat="46.54379" lon="6.00805">
        <ele>932.3</ele>
        <time>2021-10-14T12:19:08Z</time>
      </trkpt>
      <trkpt lat="46.54376" lon="6.00811">
        <ele>932.2</ele>
        <time>2021-10-14T12:19:13Z</time>
      </trkpt>
      <trkpt lat="46.54373" lon="6.00818">
        <ele>932.2</ele>
        <time>2021-10-14T12:19:18Z</time>
      </trkpt>
      <trkpt lat="46.5437" lon="6.00822">
        <ele>932.3</ele>
        <time>2021-10-14T12:19:23Z</time>
      </trkpt>
      <trkpt lat="46.54367" lon="6.00829">
        <ele>932.4</ele>
        <time>2021-10-14T12:19:30Z</time>
      </trkpt>
      <trkpt lat="46.54364" lon="6.00834">
        <ele>931.7</ele>
        <time>2021-10-14T12:19:35Z</time>
      </trkpt>
      <trkpt lat="46.54362" lon="6.00841">
        <ele>930.8</ele>
        <time>2021-10-14T12:19:40Z</time>
      </trkpt>
      <trkpt lat="46.54361" lon="6.00848">
        <ele>929.9</ele>
        <time>2021-10-14T12:19:45Z</time>
      </trkpt>
      <trkpt lat="46.5436" lon="6.00855">
        <ele>928.9</ele>
        <time>2021-10-14T12:19:50Z</time>
      </trkpt>
      <trkpt lat="46.54357" lon="6.00861">
        <ele>928.1</ele>
        <time>2021-10-14T12:19:54Z</time>
      </trkpt>
      <trkpt lat="46.54355" lon="6.00868">
        <ele>927.2</ele>
        <time>2021-10-14T12:20:00Z</time>
      </trkpt>
      <trkpt lat="46.54352" lon="6.00873">
        <ele>925.9</ele>
        <time>2021-10-14T12:20:06Z</time>
      </trkpt>
      <trkpt lat="46.54351" lon="6.0088">
        <ele>925.2</ele>
        <time>2021-10-14T12:20:11Z</time>
      </trkpt>
      <trkpt lat="46.54348" lon="6.00886">
        <ele>923.5</ele>
        <time>2021-10-14T12:20:17Z</time>
      </trkpt>
      <trkpt lat="46.54345" lon="6.00892">
        <ele>921.5</ele>
        <time>2021-10-14T12:20:23Z</time>
      </trkpt>
      <trkpt lat="46.54342" lon="6.00897">
        <ele>920.1</ele>
        <time>2021-10-14T12:20:28Z</time>
      </trkpt>
      <trkpt lat="46.5434" lon="6.00903">
        <ele>919</ele>
        <time>2021-10-14T12:20:32Z</time>
      </trkpt>
      <trkpt lat="46.54337" lon="6.00908">
        <ele>918.2</ele>
        <time>2021-10-14T12:20:36Z</time>
      </trkpt>
      <trkpt lat="46.54334" lon="6.00914">
        <ele>917.3</ele>
        <time>2021-10-14T12:20:41Z</time>
      </trkpt>
      <trkpt lat="46.54332" lon="6.0092">
        <ele>916.5</ele>
        <time>2021-10-14T12:20:46Z</time>
      </trkpt>
      <trkpt lat="46.54329" lon="6.00926">
        <ele>915.5</ele>
        <time>2021-10-14T12:20:52Z</time>
      </trkpt>
      <trkpt lat="46.54326" lon="6.00932">
        <ele>914.8</ele>
        <time>2021-10-14T12:21:01Z</time>
      </trkpt>
      <trkpt lat="46.54321" lon="6.00937">
        <ele>914.6</ele>
        <time>2021-10-14T12:21:06Z</time>
      </trkpt>
      <trkpt lat="46.54318" lon="6.00942">
        <ele>914.2</ele>
        <time>2021-10-14T12:21:10Z</time>
      </trkpt>
      <trkpt lat="46.54314" lon="6.00947">
        <ele>913.3</ele>
        <time>2021-10-14T12:21:15Z</time>
      </trkpt>
      <trkpt lat="46.54312" lon="6.00952">
        <ele>912.4</ele>
        <time>2021-10-14T12:21:20Z</time>
      </trkpt>
      <trkpt lat="46.54308" lon="6.00956">
        <ele>911.9</ele>
        <time>2021-10-14T12:21:25Z</time>
      </trkpt>
      <trkpt lat="46.54305" lon="6.00961">
        <ele>911.2</ele>
        <time>2021-10-14T12:21:29Z</time>
      </trkpt>
      <trkpt lat="46.54301" lon="6.00966">
        <ele>910.8</ele>
        <time>2021-10-14T12:21:34Z</time>
      </trkpt>
      <trkpt lat="46.54298" lon="6.00971">
        <ele>910.6</ele>
        <time>2021-10-14T12:21:40Z</time>
      </trkpt>
      <trkpt lat="46.54293" lon="6.00974">
        <ele>910.3</ele>
        <time>2021-10-14T12:21:44Z</time>
      </trkpt>
      <trkpt lat="46.54288" lon="6.00977">
        <ele>909.5</ele>
        <time>2021-10-14T12:21:48Z</time>
      </trkpt>
      <trkpt lat="46.54284" lon="6.00981">
        <ele>908.6</ele>
        <time>2021-10-14T12:21:53Z</time>
      </trkpt>
      <trkpt lat="46.54281" lon="6.00987">
        <ele>907.9</ele>
        <time>2021-10-14T12:21:58Z</time>
      </trkpt>
      <trkpt lat="46.54279" lon="6.00994">
        <ele>906.8</ele>
        <time>2021-10-14T12:22:03Z</time>
      </trkpt>
      <trkpt lat="46.54276" lon="6.01">
        <ele>905.7</ele>
        <time>2021-10-14T12:22:08Z</time>
      </trkpt>
      <trkpt lat="46.54274" lon="6.01006">
        <ele>905.6</ele>
        <time>2021-10-14T12:22:13Z</time>
      </trkpt>
      <trkpt lat="46.54272" lon="6.01014">
        <ele>905.2</ele>
        <time>2021-10-14T12:22:18Z</time>
      </trkpt>
      <trkpt lat="46.54269" lon="6.01019">
        <ele>904.6</ele>
        <time>2021-10-14T12:22:22Z</time>
      </trkpt>
      <trkpt lat="46.54267" lon="6.01026">
        <ele>903.7</ele>
        <time>2021-10-14T12:22:27Z</time>
      </trkpt>
      <trkpt lat="46.54264" lon="6.01032">
        <ele>902.5</ele>
        <time>2021-10-14T12:22:33Z</time>
      </trkpt>
      <trkpt lat="46.54261" lon="6.01038">
        <ele>901.5</ele>
        <time>2021-10-14T12:22:38Z</time>
      </trkpt>
      <trkpt lat="46.54259" lon="6.01044">
        <ele>900.8</ele>
        <time>2021-10-14T12:22:43Z</time>
      </trkpt>
      <trkpt lat="46.54257" lon="6.01051">
        <ele>900</ele>
        <time>2021-10-14T12:22:48Z</time>
      </trkpt>
      <trkpt lat="46.54256" lon="6.01058">
        <ele>899.5</ele>
        <time>2021-10-14T12:22:52Z</time>
      </trkpt>
      <trkpt lat="46.54255" lon="6.01064">
        <ele>898.9</ele>
        <time>2021-10-14T12:22:56Z</time>
      </trkpt>
      <trkpt lat="46.54252" lon="6.0107">
        <ele>898</ele>
        <time>2021-10-14T12:23:00Z</time>
      </trkpt>
      <trkpt lat="46.5425" lon="6.01076">
        <ele>896.8</ele>
        <time>2021-10-14T12:23:04Z</time>
      </trkpt>
      <trkpt lat="46.54248" lon="6.01083">
        <ele>895.5</ele>
        <time>2021-10-14T12:23:09Z</time>
      </trkpt>
      <trkpt lat="46.54248" lon="6.0109">
        <ele>894.5</ele>
        <time>2021-10-14T12:23:14Z</time>
      </trkpt>
      <trkpt lat="46.54247" lon="6.01098">
        <ele>894</ele>
        <time>2021-10-14T12:23:19Z</time>
      </trkpt>
      <trkpt lat="46.54247" lon="6.01104">
        <ele>894.3</ele>
        <time>2021-10-14T12:23:23Z</time>
      </trkpt>
      <trkpt lat="46.54244" lon="6.0111">
        <ele>894.9</ele>
        <time>2021-10-14T12:23:28Z</time>
      </trkpt>
      <trkpt lat="46.54241" lon="6.01115">
        <ele>896.9</ele>
        <time>2021-10-14T12:23:36Z</time>
      </trkpt>
      <trkpt lat="46.54236" lon="6.01117">
        <ele>898.7</ele>
        <time>2021-10-14T12:23:43Z</time>
      </trkpt>
      <trkpt lat="46.54231" lon="6.01118">
        <ele>900</ele>
        <time>2021-10-14T12:23:47Z</time>
      </trkpt>
      <trkpt lat="46.54225" lon="6.01118">
        <ele>901.2</ele>
        <time>2021-10-14T12:23:51Z</time>
      </trkpt>
      <trkpt lat="46.54221" lon="6.01115">
        <ele>902</ele>
        <time>2021-10-14T12:23:56Z</time>
      </trkpt>
      <trkpt lat="46.54216" lon="6.01117">
        <ele>903.1</ele>
        <time>2021-10-14T12:24:01Z</time>
      </trkpt>
      <trkpt lat="46.54211" lon="6.01119">
        <ele>903.7</ele>
        <time>2021-10-14T12:24:11Z</time>
      </trkpt>
      <trkpt lat="46.54205" lon="6.01118">
        <ele>902.4</ele>
        <time>2021-10-14T12:24:22Z</time>
      </trkpt>
      <trkpt lat="46.54201" lon="6.01119">
        <ele>902.2</ele>
        <time>2021-10-14T12:24:27Z</time>
      </trkpt>
      <trkpt lat="46.54195" lon="6.01119">
        <ele>902.7</ele>
        <time>2021-10-14T12:24:32Z</time>
      </trkpt>
      <trkpt lat="46.5419" lon="6.0112">
        <ele>904.1</ele>
        <time>2021-10-14T12:24:37Z</time>
      </trkpt>
      <trkpt lat="46.54186" lon="6.01121">
        <ele>905.9</ele>
        <time>2021-10-14T12:24:41Z</time>
      </trkpt>
      <trkpt lat="46.54181" lon="6.01124">
        <ele>906.5</ele>
        <time>2021-10-14T12:24:45Z</time>
      </trkpt>
      <trkpt lat="46.54177" lon="6.01129">
        <ele>905.4</ele>
        <time>2021-10-14T12:24:50Z</time>
      </trkpt>
      <trkpt lat="46.54172" lon="6.0113">
        <ele>904.5</ele>
        <time>2021-10-14T12:24:54Z</time>
      </trkpt>
      <trkpt lat="46.54168" lon="6.01133">
        <ele>904</ele>
        <time>2021-10-14T12:24:59Z</time>
      </trkpt>
      <trkpt lat="46.54163" lon="6.01135">
        <ele>902.8</ele>
        <time>2021-10-14T12:25:04Z</time>
      </trkpt>
      <trkpt lat="46.54158" lon="6.01135">
        <ele>900.6</ele>
        <time>2021-10-14T12:25:09Z</time>
      </trkpt>
      <trkpt lat="46.54153" lon="6.01136">
        <ele>899.2</ele>
        <time>2021-10-14T12:25:13Z</time>
      </trkpt>
      <trkpt lat="46.54149" lon="6.01139">
        <ele>898.3</ele>
        <time>2021-10-14T12:25:19Z</time>
      </trkpt>
      <trkpt lat="46.54145" lon="6.01144">
        <ele>897.4</ele>
        <time>2021-10-14T12:25:26Z</time>
      </trkpt>
      <trkpt lat="46.54142" lon="6.0115">
        <ele>897.1</ele>
        <time>2021-10-14T12:25:30Z</time>
      </trkpt>
      <trkpt lat="46.54138" lon="6.01155">
        <ele>897</ele>
        <time>2021-10-14T12:25:35Z</time>
      </trkpt>
      <trkpt lat="46.54133" lon="6.01158">
        <ele>897</ele>
        <time>2021-10-14T12:25:40Z</time>
      </trkpt>
      <trkpt lat="46.54128" lon="6.01159">
        <ele>896.5</ele>
        <time>2021-10-14T12:25:44Z</time>
      </trkpt>
      <trkpt lat="46.54123" lon="6.01156">
        <ele>895.5</ele>
        <time>2021-10-14T12:25:50Z</time>
      </trkpt>
      <trkpt lat="46.54119" lon="6.01151">
        <ele>894.8</ele>
        <time>2021-10-14T12:25:58Z</time>
      </trkpt>
      <trkpt lat="46.54116" lon="6.01146">
        <ele>894.4</ele>
        <time>2021-10-14T12:26:05Z</time>
      </trkpt>
      <trkpt lat="46.54112" lon="6.01141">
        <ele>894</ele>
        <time>2021-10-14T12:26:20Z</time>
      </trkpt>
      <trkpt lat="46.54108" lon="6.01136">
        <ele>893.4</ele>
        <time>2021-10-14T12:26:26Z</time>
      </trkpt>
      <trkpt lat="46.54105" lon="6.01131">
        <ele>892.9</ele>
        <time>2021-10-14T12:26:30Z</time>
      </trkpt>
      <trkpt lat="46.541" lon="6.01127">
        <ele>892.9</ele>
        <time>2021-10-14T12:26:34Z</time>
      </trkpt>
      <trkpt lat="46.54096" lon="6.01125">
        <ele>893</ele>
        <time>2021-10-14T12:26:37Z</time>
      </trkpt>
      <trkpt lat="46.54091" lon="6.01122">
        <ele>893.5</ele>
        <time>2021-10-14T12:26:40Z</time>
      </trkpt>
      <trkpt lat="46.54086" lon="6.0112">
        <ele>894</ele>
        <time>2021-10-14T12:26:43Z</time>
      </trkpt>
      <trkpt lat="46.54082" lon="6.01118">
        <ele>894.8</ele>
        <time>2021-10-14T12:26:47Z</time>
      </trkpt>
      <trkpt lat="46.54077" lon="6.01115">
        <ele>895.8</ele>
        <time>2021-10-14T12:26:51Z</time>
      </trkpt>
      <trkpt lat="46.54072" lon="6.01116">
        <ele>896.7</ele>
        <time>2021-10-14T12:26:56Z</time>
      </trkpt>
      <trkpt lat="46.54068" lon="6.01119">
        <ele>897</ele>
        <time>2021-10-14T12:27:03Z</time>
      </trkpt>
      <trkpt lat="46.54063" lon="6.01119">
        <ele>897.1</ele>
        <time>2021-10-14T12:27:08Z</time>
      </trkpt>
      <trkpt lat="46.54058" lon="6.01122">
        <ele>897.5</ele>
        <time>2021-10-14T12:27:12Z</time>
      </trkpt>
      <trkpt lat="46.54054" lon="6.01125">
        <ele>898.9</ele>
        <time>2021-10-14T12:27:19Z</time>
      </trkpt>
      <trkpt lat="46.5405" lon="6.01124">
        <ele>899.4</ele>
        <time>2021-10-14T12:27:40Z</time>
      </trkpt>
      <trkpt lat="46.54045" lon="6.01124">
        <ele>900.4</ele>
        <time>2021-10-14T12:27:46Z</time>
      </trkpt>
      <trkpt lat="46.5404" lon="6.01126">
        <ele>901.1</ele>
        <time>2021-10-14T12:27:51Z</time>
      </trkpt>
      <trkpt lat="46.54035" lon="6.01128">
        <ele>902.2</ele>
        <time>2021-10-14T12:27:55Z</time>
      </trkpt>
      <trkpt lat="46.54032" lon="6.01132">
        <ele>904</ele>
        <time>2021-10-14T12:28:00Z</time>
      </trkpt>
      <trkpt lat="46.54027" lon="6.01134">
        <ele>905</ele>
        <time>2021-10-14T12:28:07Z</time>
      </trkpt>
      <trkpt lat="46.54023" lon="6.01137">
        <ele>905.8</ele>
        <time>2021-10-14T12:28:11Z</time>
      </trkpt>
      <trkpt lat="46.54019" lon="6.01142">
        <ele>906.6</ele>
        <time>2021-10-14T12:28:15Z</time>
      </trkpt>
      <trkpt lat="46.54017" lon="6.01148">
        <ele>907.4</ele>
        <time>2021-10-14T12:28:20Z</time>
      </trkpt>
      <trkpt lat="46.54018" lon="6.01155">
        <ele>907.7</ele>
        <time>2021-10-14T12:28:27Z</time>
      </trkpt>
      <trkpt lat="46.54019" lon="6.01162">
        <ele>908.1</ele>
        <time>2021-10-14T12:28:34Z</time>
      </trkpt>
      <trkpt lat="46.54021" lon="6.01169">
        <ele>908.4</ele>
        <time>2021-10-14T12:28:40Z</time>
      </trkpt>
      <trkpt lat="46.54021" lon="6.01176">
        <ele>908.9</ele>
        <time>2021-10-14T12:28:48Z</time>
      </trkpt>
      <trkpt lat="46.54021" lon="6.01182">
        <ele>911.9</ele>
        <time>2021-10-14T12:29:37Z</time>
      </trkpt>
      <trkpt lat="46.5402" lon="6.01176">
        <ele>911</ele>
        <time>2021-10-14T12:29:51Z</time>
      </trkpt>
      <trkpt lat="46.54017" lon="6.01171">
        <ele>910.7</ele>
        <time>2021-10-14T12:29:56Z</time>
      </trkpt>
      <trkpt lat="46.54018" lon="6.01178">
        <ele>906.8</ele>
        <time>2021-10-14T12:30:41Z</time>
      </trkpt>
      <trkpt lat="46.54023" lon="6.0118">
        <ele>908.7</ele>
        <time>2021-10-14T12:32:40Z</time>
      </trkpt>
      <trkpt lat="46.54027" lon="6.01175">
        <ele>910.7</ele>
        <time>2021-10-14T12:33:00Z</time>
      </trkpt>
      <trkpt lat="46.54031" lon="6.01172">
        <ele>913.3</ele>
        <time>2021-10-14T12:33:46Z</time>
      </trkpt>
      <trkpt lat="46.54033" lon="6.01166">
        <ele>912.6</ele>
        <time>2021-10-14T12:35:50Z</time>
      </trkpt>
      <trkpt lat="46.54036" lon="6.0117">
        <ele>912.3</ele>
        <time>2021-10-14T12:37:38Z</time>
      </trkpt>
      <trkpt lat="46.54038" lon="6.01177">
        <ele>911.9</ele>
        <time>2021-10-14T12:37:45Z</time>
      </trkpt>
      <trkpt lat="46.54042" lon="6.01181">
        <ele>911.3</ele>
        <time>2021-10-14T12:37:59Z</time>
      </trkpt>
      <trkpt lat="46.54046" lon="6.01184">
        <ele>910.7</ele>
        <time>2021-10-14T12:38:10Z</time>
      </trkpt>
      <trkpt lat="46.5405" lon="6.01189">
        <ele>910.6</ele>
        <time>2021-10-14T12:38:16Z</time>
      </trkpt>
      <trkpt lat="46.54054" lon="6.01193">
        <ele>910.5</ele>
        <time>2021-10-14T12:38:22Z</time>
      </trkpt>
      <trkpt lat="46.54059" lon="6.01196">
        <ele>910.2</ele>
        <time>2021-10-14T12:38:28Z</time>
      </trkpt>
      <trkpt lat="46.54064" lon="6.01199">
        <ele>909.9</ele>
        <time>2021-10-14T12:38:33Z</time>
      </trkpt>
      <trkpt lat="46.54069" lon="6.012">
        <ele>909.1</ele>
        <time>2021-10-14T12:38:39Z</time>
      </trkpt>
      <trkpt lat="46.54074" lon="6.01202">
        <ele>907.9</ele>
        <time>2021-10-14T12:38:46Z</time>
      </trkpt>
      <trkpt lat="46.54078" lon="6.01202">
        <ele>907.1</ele>
        <time>2021-10-14T12:38:50Z</time>
      </trkpt>
      <trkpt lat="46.54083" lon="6.01202">
        <ele>906.5</ele>
        <time>2021-10-14T12:38:55Z</time>
      </trkpt>
      <trkpt lat="46.54087" lon="6.01206">
        <ele>906.5</ele>
        <time>2021-10-14T12:39:02Z</time>
      </trkpt>
      <trkpt lat="46.54092" lon="6.01209">
        <ele>906.5</ele>
        <time>2021-10-14T12:39:17Z</time>
      </trkpt>
      <trkpt lat="46.54096" lon="6.01212">
        <ele>907.2</ele>
        <time>2021-10-14T12:39:24Z</time>
      </trkpt>
      <trkpt lat="46.54101" lon="6.01212">
        <ele>906.9</ele>
        <time>2021-10-14T12:39:32Z</time>
      </trkpt>
      <trkpt lat="46.54102" lon="6.01218">
        <ele>905.7</ele>
        <time>2021-10-14T12:39:44Z</time>
      </trkpt>
      <trkpt lat="46.541" lon="6.01225">
        <ele>904.9</ele>
        <time>2021-10-14T12:39:48Z</time>
      </trkpt>
      <trkpt lat="46.54097" lon="6.0123">
        <ele>904.1</ele>
        <time>2021-10-14T12:39:52Z</time>
      </trkpt>
      <trkpt lat="46.54094" lon="6.01236">
        <ele>903.6</ele>
        <time>2021-10-14T12:39:56Z</time>
      </trkpt>
      <trkpt lat="46.54091" lon="6.0124">
        <ele>903.1</ele>
        <time>2021-10-14T12:39:59Z</time>
      </trkpt>
      <trkpt lat="46.54087" lon="6.01245">
        <ele>902</ele>
        <time>2021-10-14T12:40:04Z</time>
      </trkpt>
      <trkpt lat="46.54083" lon="6.01249">
        <ele>900.8</ele>
        <time>2021-10-14T12:40:09Z</time>
      </trkpt>
      <trkpt lat="46.54079" lon="6.01253">
        <ele>899.1</ele>
        <time>2021-10-14T12:40:16Z</time>
      </trkpt>
      <trkpt lat="46.54075" lon="6.01255">
        <ele>898.1</ele>
        <time>2021-10-14T12:40:24Z</time>
      </trkpt>
      <trkpt lat="46.5407" lon="6.01259">
        <ele>897.9</ele>
        <time>2021-10-14T12:40:28Z</time>
      </trkpt>
      <trkpt lat="46.54067" lon="6.01263">
        <ele>897.9</ele>
        <time>2021-10-14T12:40:31Z</time>
      </trkpt>
      <trkpt lat="46.54063" lon="6.01266">
        <ele>898.2</ele>
        <time>2021-10-14T12:40:36Z</time>
      </trkpt>
      <trkpt lat="46.54058" lon="6.01267">
        <ele>898.9</ele>
        <time>2021-10-14T12:40:42Z</time>
      </trkpt>
      <trkpt lat="46.54053" lon="6.0127">
        <ele>898.9</ele>
        <time>2021-10-14T12:40:47Z</time>
      </trkpt>
      <trkpt lat="46.54049" lon="6.01274">
        <ele>899</ele>
        <time>2021-10-14T12:40:52Z</time>
      </trkpt>
      <trkpt lat="46.54046" lon="6.0128">
        <ele>898.7</ele>
        <time>2021-10-14T12:40:58Z</time>
      </trkpt>
      <trkpt lat="46.54041" lon="6.01283">
        <ele>898.2</ele>
        <time>2021-10-14T12:41:02Z</time>
      </trkpt>
      <trkpt lat="46.54036" lon="6.01283">
        <ele>898.3</ele>
        <time>2021-10-14T12:41:06Z</time>
      </trkpt>
      <trkpt lat="46.54029" lon="6.01283">
        <ele>900.3</ele>
        <time>2021-10-14T12:41:13Z</time>
      </trkpt>
      <trkpt lat="46.54025" lon="6.01292">
        <ele>901.4</ele>
        <time>2021-10-14T12:41:16Z</time>
      </trkpt>
      <trkpt lat="46.54025" lon="6.01284">
        <ele>902.2</ele>
        <time>2021-10-14T12:41:25Z</time>
      </trkpt>
      <trkpt lat="46.54021" lon="6.0128">
        <ele>902.3</ele>
        <time>2021-10-14T12:41:30Z</time>
      </trkpt>
      <trkpt lat="46.54015" lon="6.01281">
        <ele>906.4</ele>
        <time>2021-10-14T12:41:42Z</time>
      </trkpt>
      <trkpt lat="46.54008" lon="6.01282">
        <ele>906</ele>
        <time>2021-10-14T12:41:45Z</time>
      </trkpt>
      <trkpt lat="46.54" lon="6.01281">
        <ele>904.4</ele>
        <time>2021-10-14T12:41:48Z</time>
      </trkpt>
      <trkpt lat="46.53994" lon="6.01281">
        <ele>902.1</ele>
        <time>2021-10-14T12:41:51Z</time>
      </trkpt>
      <trkpt lat="46.5399" lon="6.01281">
        <ele>898.6</ele>
        <time>2021-10-14T12:41:56Z</time>
      </trkpt>
      <trkpt lat="46.53985" lon="6.01277">
        <ele>894.3</ele>
        <time>2021-10-14T12:42:03Z</time>
      </trkpt>
      <trkpt lat="46.5398" lon="6.01273">
        <ele>891.8</ele>
        <time>2021-10-14T12:42:09Z</time>
      </trkpt>
      <trkpt lat="46.53975" lon="6.01272">
        <ele>890.9</ele>
        <time>2021-10-14T12:42:14Z</time>
      </trkpt>
      <trkpt lat="46.5397" lon="6.01272">
        <ele>890.7</ele>
        <time>2021-10-14T12:42:18Z</time>
      </trkpt>
      <trkpt lat="46.53965" lon="6.01274">
        <ele>890.5</ele>
        <time>2021-10-14T12:42:22Z</time>
      </trkpt>
      <trkpt lat="46.5396" lon="6.01277">
        <ele>890.3</ele>
        <time>2021-10-14T12:42:26Z</time>
      </trkpt>
      <trkpt lat="46.53955" lon="6.01281">
        <ele>890.1</ele>
        <time>2021-10-14T12:42:31Z</time>
      </trkpt>
      <trkpt lat="46.53951" lon="6.01283">
        <ele>889.6</ele>
        <time>2021-10-14T12:42:36Z</time>
      </trkpt>
      <trkpt lat="46.53946" lon="6.0128">
        <ele>889</ele>
        <time>2021-10-14T12:42:40Z</time>
      </trkpt>
      <trkpt lat="46.53943" lon="6.01275">
        <ele>888.3</ele>
        <time>2021-10-14T12:42:45Z</time>
      </trkpt>
      <trkpt lat="46.5394" lon="6.01269">
        <ele>888</ele>
        <time>2021-10-14T12:42:51Z</time>
      </trkpt>
      <trkpt lat="46.53936" lon="6.01263">
        <ele>887.9</ele>
        <time>2021-10-14T12:42:55Z</time>
      </trkpt>
      <trkpt lat="46.53933" lon="6.01259">
        <ele>887.6</ele>
        <time>2021-10-14T12:42:58Z</time>
      </trkpt>
      <trkpt lat="46.53929" lon="6.01254">
        <ele>887.5</ele>
        <time>2021-10-14T12:43:02Z</time>
      </trkpt>
      <trkpt lat="46.53926" lon="6.01249">
        <ele>887.9</ele>
        <time>2021-10-14T12:43:06Z</time>
      </trkpt>
      <trkpt lat="46.53923" lon="6.01243">
        <ele>888.6</ele>
        <time>2021-10-14T12:43:10Z</time>
      </trkpt>
      <trkpt lat="46.53921" lon="6.01237">
        <ele>889.2</ele>
        <time>2021-10-14T12:43:14Z</time>
      </trkpt>
      <trkpt lat="46.53919" lon="6.0123">
        <ele>890</ele>
        <time>2021-10-14T12:43:18Z</time>
      </trkpt>
      <trkpt lat="46.53916" lon="6.01224">
        <ele>890.5</ele>
        <time>2021-10-14T12:43:23Z</time>
      </trkpt>
      <trkpt lat="46.53913" lon="6.01218">
        <ele>890.7</ele>
        <time>2021-10-14T12:43:28Z</time>
      </trkpt>
      <trkpt lat="46.5391" lon="6.01212">
        <ele>890.5</ele>
        <time>2021-10-14T12:43:32Z</time>
      </trkpt>
      <trkpt lat="46.53905" lon="6.01208">
        <ele>889.8</ele>
        <time>2021-10-14T12:43:37Z</time>
      </trkpt>
      <trkpt lat="46.53902" lon="6.01203">
        <ele>889</ele>
        <time>2021-10-14T12:43:41Z</time>
      </trkpt>
      <trkpt lat="46.53898" lon="6.01198">
        <ele>887.1</ele>
        <time>2021-10-14T12:43:46Z</time>
      </trkpt>
      <trkpt lat="46.53894" lon="6.01194">
        <ele>885.8</ele>
        <time>2021-10-14T12:43:50Z</time>
      </trkpt>
      <trkpt lat="46.5389" lon="6.01189">
        <ele>883.5</ele>
        <time>2021-10-14T12:43:56Z</time>
      </trkpt>
      <trkpt lat="46.53886" lon="6.01186">
        <ele>882.8</ele>
        <time>2021-10-14T12:44:00Z</time>
      </trkpt>
      <trkpt lat="46.53881" lon="6.01183">
        <ele>882.6</ele>
        <time>2021-10-14T12:44:04Z</time>
      </trkpt>
      <trkpt lat="46.53876" lon="6.01182">
        <ele>882.7</ele>
        <time>2021-10-14T12:44:08Z</time>
      </trkpt>
      <trkpt lat="46.53871" lon="6.01179">
        <ele>882.7</ele>
        <time>2021-10-14T12:44:13Z</time>
      </trkpt>
      <trkpt lat="46.53866" lon="6.01177">
        <ele>883</ele>
        <time>2021-10-14T12:44:17Z</time>
      </trkpt>
      <trkpt lat="46.53861" lon="6.01176">
        <ele>884.3</ele>
        <time>2021-10-14T12:44:22Z</time>
      </trkpt>
      <trkpt lat="46.53856" lon="6.01175">
        <ele>885.5</ele>
        <time>2021-10-14T12:44:26Z</time>
      </trkpt>
      <trkpt lat="46.5385" lon="6.01172">
        <ele>886.1</ele>
        <time>2021-10-14T12:44:30Z</time>
      </trkpt>
      <trkpt lat="46.53846" lon="6.0117">
        <ele>886.3</ele>
        <time>2021-10-14T12:44:34Z</time>
      </trkpt>
      <trkpt lat="46.53841" lon="6.01167">
        <ele>886.6</ele>
        <time>2021-10-14T12:44:39Z</time>
      </trkpt>
      <trkpt lat="46.53836" lon="6.01165">
        <ele>886.7</ele>
        <time>2021-10-14T12:44:43Z</time>
      </trkpt>
      <trkpt lat="46.53832" lon="6.01163">
        <ele>886.3</ele>
        <time>2021-10-14T12:44:47Z</time>
      </trkpt>
      <trkpt lat="46.53827" lon="6.01161">
        <ele>885.7</ele>
        <time>2021-10-14T12:44:53Z</time>
      </trkpt>
      <trkpt lat="46.53823" lon="6.01155">
        <ele>885.7</ele>
        <time>2021-10-14T12:44:58Z</time>
      </trkpt>
      <trkpt lat="46.5382" lon="6.01149">
        <ele>886.3</ele>
        <time>2021-10-14T12:45:03Z</time>
      </trkpt>
      <trkpt lat="46.53818" lon="6.01142">
        <ele>887.1</ele>
        <time>2021-10-14T12:45:07Z</time>
      </trkpt>
      <trkpt lat="46.53817" lon="6.01135">
        <ele>887.8</ele>
        <time>2021-10-14T12:45:12Z</time>
      </trkpt>
      <trkpt lat="46.53814" lon="6.01129">
        <ele>888.3</ele>
        <time>2021-10-14T12:45:17Z</time>
      </trkpt>
      <trkpt lat="46.53811" lon="6.01123">
        <ele>888.1</ele>
        <time>2021-10-14T12:45:21Z</time>
      </trkpt>
      <trkpt lat="46.53811" lon="6.01115">
        <ele>887.1</ele>
        <time>2021-10-14T12:45:26Z</time>
      </trkpt>
      <trkpt lat="46.5381" lon="6.01108">
        <ele>886.4</ele>
        <time>2021-10-14T12:45:30Z</time>
      </trkpt>
      <trkpt lat="46.53811" lon="6.011">
        <ele>885.5</ele>
        <time>2021-10-14T12:45:35Z</time>
      </trkpt>
      <trkpt lat="46.53812" lon="6.01093">
        <ele>885</ele>
        <time>2021-10-14T12:45:40Z</time>
      </trkpt>
      <trkpt lat="46.53811" lon="6.01086">
        <ele>884.4</ele>
        <time>2021-10-14T12:45:50Z</time>
      </trkpt>
      <trkpt lat="46.53811" lon="6.01078">
        <ele>885</ele>
        <time>2021-10-14T12:45:55Z</time>
      </trkpt>
      <trkpt lat="46.53811" lon="6.0107">
        <ele>886</ele>
        <time>2021-10-14T12:45:59Z</time>
      </trkpt>
      <trkpt lat="46.53812" lon="6.01063">
        <ele>886.9</ele>
        <time>2021-10-14T12:46:03Z</time>
      </trkpt>
      <trkpt lat="46.53812" lon="6.01055">
        <ele>888.1</ele>
        <time>2021-10-14T12:46:08Z</time>
      </trkpt>
      <trkpt lat="46.53814" lon="6.0105">
        <ele>889.2</ele>
        <time>2021-10-14T12:46:13Z</time>
      </trkpt>
      <trkpt lat="46.53817" lon="6.01044">
        <ele>889.6</ele>
        <time>2021-10-14T12:46:18Z</time>
      </trkpt>
      <trkpt lat="46.5382" lon="6.01039">
        <ele>886.3</ele>
        <time>2021-10-14T12:46:32Z</time>
      </trkpt>
      <trkpt lat="46.53821" lon="6.01032">
        <ele>882.4</ele>
        <time>2021-10-14T12:46:43Z</time>
      </trkpt>
      <trkpt lat="46.53824" lon="6.01026">
        <ele>880.1</ele>
        <time>2021-10-14T12:46:58Z</time>
      </trkpt>
      <trkpt lat="46.53827" lon="6.01021">
        <ele>879.2</ele>
        <time>2021-10-14T12:47:04Z</time>
      </trkpt>
      <trkpt lat="46.5383" lon="6.01015">
        <ele>877.4</ele>
        <time>2021-10-14T12:47:13Z</time>
      </trkpt>
      <trkpt lat="46.53833" lon="6.01009">
        <ele>877.4</ele>
        <time>2021-10-14T12:47:19Z</time>
      </trkpt>
      <trkpt lat="46.53835" lon="6.01003">
        <ele>877.4</ele>
        <time>2021-10-14T12:47:24Z</time>
      </trkpt>
      <trkpt lat="46.53838" lon="6.00997">
        <ele>877.8</ele>
        <time>2021-10-14T12:47:29Z</time>
      </trkpt>
      <trkpt lat="46.53841" lon="6.00992">
        <ele>878.5</ele>
        <time>2021-10-14T12:47:34Z</time>
      </trkpt>
      <trkpt lat="46.53843" lon="6.00986">
        <ele>877.7</ele>
        <time>2021-10-14T12:47:40Z</time>
      </trkpt>
      <trkpt lat="46.53845" lon="6.0098">
        <ele>876</ele>
        <time>2021-10-14T12:47:46Z</time>
      </trkpt>
      <trkpt lat="46.53847" lon="6.00973">
        <ele>874.6</ele>
        <time>2021-10-14T12:47:51Z</time>
      </trkpt>
      <trkpt lat="46.53848" lon="6.00966">
        <ele>873.9</ele>
        <time>2021-10-14T12:47:55Z</time>
      </trkpt>
      <trkpt lat="46.53846" lon="6.00959">
        <ele>874</ele>
        <time>2021-10-14T12:47:59Z</time>
      </trkpt>
      <trkpt lat="46.53845" lon="6.00951">
        <ele>874.7</ele>
        <time>2021-10-14T12:48:03Z</time>
      </trkpt>
      <trkpt lat="46.53842" lon="6.00945">
        <ele>875.4</ele>
        <time>2021-10-14T12:48:06Z</time>
      </trkpt>
      <trkpt lat="46.5384" lon="6.00939">
        <ele>876.1</ele>
        <time>2021-10-14T12:48:10Z</time>
      </trkpt>
      <trkpt lat="46.53838" lon="6.00933">
        <ele>877</ele>
        <time>2021-10-14T12:48:14Z</time>
      </trkpt>
      <trkpt lat="46.53836" lon="6.00926">
        <ele>878.7</ele>
        <time>2021-10-14T12:48:19Z</time>
      </trkpt>
      <trkpt lat="46.53831" lon="6.00923">
        <ele>880.3</ele>
        <time>2021-10-14T12:48:23Z</time>
      </trkpt>
      <trkpt lat="46.53827" lon="6.00918">
        <ele>881.7</ele>
        <time>2021-10-14T12:48:29Z</time>
      </trkpt>
      <trkpt lat="46.53822" lon="6.00915">
        <ele>882.2</ele>
        <time>2021-10-14T12:48:33Z</time>
      </trkpt>
      <trkpt lat="46.53817" lon="6.00914">
        <ele>882.3</ele>
        <time>2021-10-14T12:48:37Z</time>
      </trkpt>
      <trkpt lat="46.53811" lon="6.00914">
        <ele>882</ele>
        <time>2021-10-14T12:48:40Z</time>
      </trkpt>
      <trkpt lat="46.53806" lon="6.00916">
        <ele>881.3</ele>
        <time>2021-10-14T12:48:44Z</time>
      </trkpt>
      <trkpt lat="46.53802" lon="6.00917">
        <ele>880.9</ele>
        <time>2021-10-14T12:48:49Z</time>
      </trkpt>
      <trkpt lat="46.53797" lon="6.00916">
        <ele>880.4</ele>
        <time>2021-10-14T12:48:54Z</time>
      </trkpt>
      <trkpt lat="46.53792" lon="6.00916">
        <ele>880.1</ele>
        <time>2021-10-14T12:48:59Z</time>
      </trkpt>
      <trkpt lat="46.53787" lon="6.00917">
        <ele>880</ele>
        <time>2021-10-14T12:49:04Z</time>
      </trkpt>
      <trkpt lat="46.53782" lon="6.00917">
        <ele>879.8</ele>
        <time>2021-10-14T12:49:10Z</time>
      </trkpt>
      <trkpt lat="46.53776" lon="6.00919">
        <ele>879.1</ele>
        <time>2021-10-14T12:49:16Z</time>
      </trkpt>
      <trkpt lat="46.53771" lon="6.00923">
        <ele>877.9</ele>
        <time>2021-10-14T12:49:22Z</time>
      </trkpt>
      <trkpt lat="46.53768" lon="6.00927">
        <ele>877</ele>
        <time>2021-10-14T12:49:28Z</time>
      </trkpt>
      <trkpt lat="46.53763" lon="6.00929">
        <ele>876.6</ele>
        <time>2021-10-14T12:49:35Z</time>
      </trkpt>
      <trkpt lat="46.53758" lon="6.00933">
        <ele>875.6</ele>
        <time>2021-10-14T12:49:40Z</time>
      </trkpt>
      <trkpt lat="46.53754" lon="6.00938">
        <ele>874.5</ele>
        <time>2021-10-14T12:49:44Z</time>
      </trkpt>
      <trkpt lat="46.53751" lon="6.00945">
        <ele>873.6</ele>
        <time>2021-10-14T12:49:48Z</time>
      </trkpt>
      <trkpt lat="46.53748" lon="6.00951">
        <ele>871.8</ele>
        <time>2021-10-14T12:49:53Z</time>
      </trkpt>
      <trkpt lat="46.53745" lon="6.00958">
        <ele>870.9</ele>
        <time>2021-10-14T12:49:57Z</time>
      </trkpt>
      <trkpt lat="46.53742" lon="6.00962">
        <ele>869.7</ele>
        <time>2021-10-14T12:50:01Z</time>
      </trkpt>
      <trkpt lat="46.53741" lon="6.00969">
        <ele>867.8</ele>
        <time>2021-10-14T12:50:07Z</time>
      </trkpt>
      <trkpt lat="46.53741" lon="6.00977">
        <ele>866.8</ele>
        <time>2021-10-14T12:50:12Z</time>
      </trkpt>
      <trkpt lat="46.5374" lon="6.00984">
        <ele>865.8</ele>
        <time>2021-10-14T12:50:17Z</time>
      </trkpt>
      <trkpt lat="46.53737" lon="6.00991">
        <ele>864.9</ele>
        <time>2021-10-14T12:50:22Z</time>
      </trkpt>
      <trkpt lat="46.53733" lon="6.00995">
        <ele>864.2</ele>
        <time>2021-10-14T12:50:26Z</time>
      </trkpt>
      <trkpt lat="46.53729" lon="6.01">
        <ele>863.8</ele>
        <time>2021-10-14T12:50:30Z</time>
      </trkpt>
      <trkpt lat="46.53726" lon="6.01006">
        <ele>863.7</ele>
        <time>2021-10-14T12:50:35Z</time>
      </trkpt>
      <trkpt lat="46.53722" lon="6.01011">
        <ele>863.7</ele>
        <time>2021-10-14T12:50:40Z</time>
      </trkpt>
      <trkpt lat="46.53721" lon="6.01018">
        <ele>862.7</ele>
        <time>2021-10-14T12:50:47Z</time>
      </trkpt>
      <trkpt lat="46.53721" lon="6.01025">
        <ele>860.7</ele>
        <time>2021-10-14T12:50:54Z</time>
      </trkpt>
      <trkpt lat="46.53721" lon="6.01032">
        <ele>859.9</ele>
        <time>2021-10-14T12:51:00Z</time>
      </trkpt>
      <trkpt lat="46.53723" lon="6.0104">
        <ele>860.1</ele>
        <time>2021-10-14T12:51:06Z</time>
      </trkpt>
      <trkpt lat="46.53724" lon="6.01047">
        <ele>860.3</ele>
        <time>2021-10-14T12:51:10Z</time>
      </trkpt>
      <trkpt lat="46.53726" lon="6.01055">
        <ele>861.2</ele>
        <time>2021-10-14T12:51:15Z</time>
      </trkpt>
      <trkpt lat="46.53729" lon="6.01061">
        <ele>861.4</ele>
        <time>2021-10-14T12:51:19Z</time>
      </trkpt>
      <trkpt lat="46.53732" lon="6.01067">
        <ele>861.3</ele>
        <time>2021-10-14T12:51:23Z</time>
      </trkpt>
      <trkpt lat="46.53735" lon="6.01073">
        <ele>861.4</ele>
        <time>2021-10-14T12:51:27Z</time>
      </trkpt>
      <trkpt lat="46.53738" lon="6.01079">
        <ele>861.5</ele>
        <time>2021-10-14T12:51:31Z</time>
      </trkpt>
      <trkpt lat="46.53741" lon="6.01085">
        <ele>860.7</ele>
        <time>2021-10-14T12:51:35Z</time>
      </trkpt>
      <trkpt lat="46.53743" lon="6.01092">
        <ele>859.5</ele>
        <time>2021-10-14T12:51:40Z</time>
      </trkpt>
      <trkpt lat="46.53746" lon="6.01098">
        <ele>858</ele>
        <time>2021-10-14T12:51:47Z</time>
      </trkpt>
      <trkpt lat="46.53748" lon="6.01106">
        <ele>856.8</ele>
        <time>2021-10-14T12:51:54Z</time>
      </trkpt>
      <trkpt lat="46.5375" lon="6.01112">
        <ele>856.1</ele>
        <time>2021-10-14T12:51:58Z</time>
      </trkpt>
      <trkpt lat="46.5375" lon="6.01119">
        <ele>855.7</ele>
        <time>2021-10-14T12:52:01Z</time>
      </trkpt>
      <trkpt lat="46.5375" lon="6.01126">
        <ele>855.5</ele>
        <time>2021-10-14T12:52:05Z</time>
      </trkpt>
      <trkpt lat="46.53751" lon="6.01133">
        <ele>855.3</ele>
        <time>2021-10-14T12:52:10Z</time>
      </trkpt>
      <trkpt lat="46.53752" lon="6.0114">
        <ele>854.6</ele>
        <time>2021-10-14T12:52:15Z</time>
      </trkpt>
      <trkpt lat="46.53754" lon="6.01146">
        <ele>854.7</ele>
        <time>2021-10-14T12:52:20Z</time>
      </trkpt>
      <trkpt lat="46.53753" lon="6.01153">
        <ele>857.2</ele>
        <time>2021-10-14T12:52:34Z</time>
      </trkpt>
      <trkpt lat="46.53753" lon="6.0116">
        <ele>856.5</ele>
        <time>2021-10-14T12:52:39Z</time>
      </trkpt>
      <trkpt lat="46.53753" lon="6.01168">
        <ele>855.8</ele>
        <time>2021-10-14T12:52:45Z</time>
      </trkpt>
      <trkpt lat="46.53752" lon="6.01176">
        <ele>855.3</ele>
        <time>2021-10-14T12:52:50Z</time>
      </trkpt>
      <trkpt lat="46.53752" lon="6.01183">
        <ele>855.2</ele>
        <time>2021-10-14T12:52:54Z</time>
      </trkpt>
      <trkpt lat="46.53753" lon="6.01191">
        <ele>854.9</ele>
        <time>2021-10-14T12:52:59Z</time>
      </trkpt>
      <trkpt lat="46.53752" lon="6.01198">
        <ele>853.7</ele>
        <time>2021-10-14T12:53:04Z</time>
      </trkpt>
      <trkpt lat="46.53753" lon="6.01205">
        <ele>852.6</ele>
        <time>2021-10-14T12:53:08Z</time>
      </trkpt>
      <trkpt lat="46.53755" lon="6.01211">
        <ele>851.4</ele>
        <time>2021-10-14T12:53:12Z</time>
      </trkpt>
      <trkpt lat="46.53758" lon="6.01217">
        <ele>849.8</ele>
        <time>2021-10-14T12:53:17Z</time>
      </trkpt>
      <trkpt lat="46.5376" lon="6.01224">
        <ele>848.8</ele>
        <time>2021-10-14T12:53:22Z</time>
      </trkpt>
      <trkpt lat="46.53762" lon="6.0123">
        <ele>848</ele>
        <time>2021-10-14T12:53:27Z</time>
      </trkpt>
      <trkpt lat="46.53765" lon="6.01236">
        <ele>847.8</ele>
        <time>2021-10-14T12:53:32Z</time>
      </trkpt>
      <trkpt lat="46.53769" lon="6.01242">
        <ele>847.1</ele>
        <time>2021-10-14T12:53:38Z</time>
      </trkpt>
      <trkpt lat="46.53773" lon="6.01246">
        <ele>846.3</ele>
        <time>2021-10-14T12:53:42Z</time>
      </trkpt>
      <trkpt lat="46.53777" lon="6.01251">
        <ele>845.6</ele>
        <time>2021-10-14T12:53:46Z</time>
      </trkpt>
      <trkpt lat="46.5378" lon="6.01257">
        <ele>845.5</ele>
        <time>2021-10-14T12:53:50Z</time>
      </trkpt>
      <trkpt lat="46.53781" lon="6.01264">
        <ele>845.9</ele>
        <time>2021-10-14T12:53:54Z</time>
      </trkpt>
      <trkpt lat="46.53784" lon="6.0127">
        <ele>845.1</ele>
        <time>2021-10-14T12:53:59Z</time>
      </trkpt>
      <trkpt lat="46.53787" lon="6.01275">
        <ele>844.2</ele>
        <time>2021-10-14T12:54:04Z</time>
      </trkpt>
      <trkpt lat="46.53791" lon="6.01278">
        <ele>844.3</ele>
        <time>2021-10-14T12:54:07Z</time>
      </trkpt>
      <trkpt lat="46.53795" lon="6.01283">
        <ele>844.6</ele>
        <time>2021-10-14T12:54:11Z</time>
      </trkpt>
      <trkpt lat="46.53799" lon="6.01289">
        <ele>845.1</ele>
        <time>2021-10-14T12:54:15Z</time>
      </trkpt>
      <trkpt lat="46.53802" lon="6.01295">
        <ele>845.5</ele>
        <time>2021-10-14T12:54:19Z</time>
      </trkpt>
      <trkpt lat="46.53802" lon="6.01301">
        <ele>846.3</ele>
        <time>2021-10-14T12:54:23Z</time>
      </trkpt>
      <trkpt lat="46.53804" lon="6.01308">
        <ele>847.5</ele>
        <time>2021-10-14T12:54:28Z</time>
      </trkpt>
      <trkpt lat="46.53807" lon="6.01315">
        <ele>847.9</ele>
        <time>2021-10-14T12:54:32Z</time>
      </trkpt>
      <trkpt lat="46.53808" lon="6.01323">
        <ele>848.3</ele>
        <time>2021-10-14T12:54:36Z</time>
      </trkpt>
      <trkpt lat="46.5381" lon="6.01329">
        <ele>848.8</ele>
        <time>2021-10-14T12:54:40Z</time>
      </trkpt>
      <trkpt lat="46.53813" lon="6.01334">
        <ele>849.4</ele>
        <time>2021-10-14T12:54:45Z</time>
      </trkpt>
      <trkpt lat="46.53816" lon="6.0134">
        <ele>849.3</ele>
        <time>2021-10-14T12:54:50Z</time>
      </trkpt>
      <trkpt lat="46.53821" lon="6.01344">
        <ele>849</ele>
        <time>2021-10-14T12:54:54Z</time>
      </trkpt>
      <trkpt lat="46.53824" lon="6.01348">
        <ele>848.5</ele>
        <time>2021-10-14T12:54:58Z</time>
      </trkpt>
      <trkpt lat="46.53828" lon="6.01352">
        <ele>848</ele>
        <time>2021-10-14T12:55:03Z</time>
      </trkpt>
      <trkpt lat="46.53833" lon="6.01354">
        <ele>847.4</ele>
        <time>2021-10-14T12:55:08Z</time>
      </trkpt>
      <trkpt lat="46.53835" lon="6.01361">
        <ele>846.1</ele>
        <time>2021-10-14T12:55:18Z</time>
      </trkpt>
      <trkpt lat="46.53835" lon="6.01369">
        <ele>845.7</ele>
        <time>2021-10-14T12:55:24Z</time>
      </trkpt>
      <trkpt lat="46.53834" lon="6.01376">
        <ele>846</ele>
        <time>2021-10-14T12:55:30Z</time>
      </trkpt>
      <trkpt lat="46.53838" lon="6.0138">
        <ele>845.1</ele>
        <time>2021-10-14T12:55:42Z</time>
      </trkpt>
      <trkpt lat="46.53841" lon="6.01374">
        <ele>845.4</ele>
        <time>2021-10-14T12:55:58Z</time>
      </trkpt>
      <trkpt lat="46.53845" lon="6.01374">
        <ele>844.9</ele>
        <time>2021-10-14T12:56:04Z</time>
      </trkpt>
      <trkpt lat="46.5385" lon="6.01374">
        <ele>844.3</ele>
        <time>2021-10-14T12:56:11Z</time>
      </trkpt>
      <trkpt lat="46.53856" lon="6.01374">
        <ele>843.6</ele>
        <time>2021-10-14T12:56:21Z</time>
      </trkpt>
      <trkpt lat="46.5386" lon="6.01372">
        <ele>844.2</ele>
        <time>2021-10-14T12:56:36Z</time>
      </trkpt>
      <trkpt lat="46.53865" lon="6.01376">
        <ele>845.7</ele>
        <time>2021-10-14T12:56:45Z</time>
      </trkpt>
      <trkpt lat="46.53868" lon="6.0138">
        <ele>845.9</ele>
        <time>2021-10-14T12:56:50Z</time>
      </trkpt>
      <trkpt lat="46.53872" lon="6.01386">
        <ele>845.8</ele>
        <time>2021-10-14T12:56:56Z</time>
      </trkpt>
      <trkpt lat="46.53875" lon="6.01392">
        <ele>845.8</ele>
        <time>2021-10-14T12:57:01Z</time>
      </trkpt>
      <trkpt lat="46.53879" lon="6.01398">
        <ele>845.7</ele>
        <time>2021-10-14T12:57:06Z</time>
      </trkpt>
      <trkpt lat="46.53884" lon="6.014">
        <ele>845.3</ele>
        <time>2021-10-14T12:57:11Z</time>
      </trkpt>
      <trkpt lat="46.53888" lon="6.01404">
        <ele>844.7</ele>
        <time>2021-10-14T12:57:15Z</time>
      </trkpt>
      <trkpt lat="46.53891" lon="6.01409">
        <ele>843.9</ele>
        <time>2021-10-14T12:57:21Z</time>
      </trkpt>
      <trkpt lat="46.53895" lon="6.01414">
        <ele>843.5</ele>
        <time>2021-10-14T12:57:26Z</time>
      </trkpt>
      <trkpt lat="46.53899" lon="6.01419">
        <ele>843.1</ele>
        <time>2021-10-14T12:57:30Z</time>
      </trkpt>
      <trkpt lat="46.53902" lon="6.01424">
        <ele>843.1</ele>
        <time>2021-10-14T12:57:34Z</time>
      </trkpt>
      <trkpt lat="46.53906" lon="6.0143">
        <ele>843.4</ele>
        <time>2021-10-14T12:57:39Z</time>
      </trkpt>
      <trkpt lat="46.5391" lon="6.01436">
        <ele>843.1</ele>
        <time>2021-10-14T12:57:44Z</time>
      </trkpt>
      <trkpt lat="46.53913" lon="6.01441">
        <ele>842.7</ele>
        <time>2021-10-14T12:57:48Z</time>
      </trkpt>
      <trkpt lat="46.53916" lon="6.01447">
        <ele>842</ele>
        <time>2021-10-14T12:57:52Z</time>
      </trkpt>
      <trkpt lat="46.5392" lon="6.01451">
        <ele>841</ele>
        <time>2021-10-14T12:57:57Z</time>
      </trkpt>
      <trkpt lat="46.53924" lon="6.01455">
        <ele>840.1</ele>
        <time>2021-10-14T12:58:02Z</time>
      </trkpt>
      <trkpt lat="46.53928" lon="6.0146">
        <ele>839.6</ele>
        <time>2021-10-14T12:58:07Z</time>
      </trkpt>
      <trkpt lat="46.53932" lon="6.01465">
        <ele>839.4</ele>
        <time>2021-10-14T12:58:11Z</time>
      </trkpt>
      <trkpt lat="46.53936" lon="6.0147">
        <ele>839.6</ele>
        <time>2021-10-14T12:58:15Z</time>
      </trkpt>
      <trkpt lat="46.5394" lon="6.01475">
        <ele>839.8</ele>
        <time>2021-10-14T12:58:20Z</time>
      </trkpt>
      <trkpt lat="46.53943" lon="6.01482">
        <ele>839.1</ele>
        <time>2021-10-14T12:58:25Z</time>
      </trkpt>
      <trkpt lat="46.53946" lon="6.01488">
        <ele>837.9</ele>
        <time>2021-10-14T12:58:30Z</time>
      </trkpt>
      <trkpt lat="46.53948" lon="6.01495">
        <ele>835.7</ele>
        <time>2021-10-14T12:58:36Z</time>
      </trkpt>
      <trkpt lat="46.53947" lon="6.01502">
        <ele>833.9</ele>
        <time>2021-10-14T12:58:40Z</time>
      </trkpt>
      <trkpt lat="46.53949" lon="6.01509">
        <ele>832.8</ele>
        <time>2021-10-14T12:58:44Z</time>
      </trkpt>
      <trkpt lat="46.5395" lon="6.01517">
        <ele>832.4</ele>
        <time>2021-10-14T12:58:48Z</time>
      </trkpt>
      <trkpt lat="46.53951" lon="6.01524">
        <ele>832.4</ele>
        <time>2021-10-14T12:58:52Z</time>
      </trkpt>
      <trkpt lat="46.53952" lon="6.01532">
        <ele>832.7</ele>
        <time>2021-10-14T12:58:56Z</time>
      </trkpt>
      <trkpt lat="46.53951" lon="6.0154">
        <ele>833.4</ele>
        <time>2021-10-14T12:59:01Z</time>
      </trkpt>
      <trkpt lat="46.53949" lon="6.01547">
        <ele>834.6</ele>
        <time>2021-10-14T12:59:06Z</time>
      </trkpt>
      <trkpt lat="46.53947" lon="6.01554">
        <ele>835.5</ele>
        <time>2021-10-14T12:59:11Z</time>
      </trkpt>
      <trkpt lat="46.53944" lon="6.01559">
        <ele>836.4</ele>
        <time>2021-10-14T12:59:15Z</time>
      </trkpt>
      <trkpt lat="46.53942" lon="6.01565">
        <ele>837.3</ele>
        <time>2021-10-14T12:59:19Z</time>
      </trkpt>
      <trkpt lat="46.53939" lon="6.01571">
        <ele>838.7</ele>
        <time>2021-10-14T12:59:24Z</time>
      </trkpt>
      <trkpt lat="46.53935" lon="6.01576">
        <ele>839.9</ele>
        <time>2021-10-14T12:59:29Z</time>
      </trkpt>
      <trkpt lat="46.53932" lon="6.01582">
        <ele>840.7</ele>
        <time>2021-10-14T12:59:33Z</time>
      </trkpt>
      <trkpt lat="46.53929" lon="6.01589">
        <ele>841.3</ele>
        <time>2021-10-14T12:59:37Z</time>
      </trkpt>
      <trkpt lat="46.53926" lon="6.01596">
        <ele>840.8</ele>
        <time>2021-10-14T12:59:42Z</time>
      </trkpt>
      <trkpt lat="46.53922" lon="6.016">
        <ele>840.3</ele>
        <time>2021-10-14T12:59:46Z</time>
      </trkpt>
      <trkpt lat="46.53918" lon="6.01604">
        <ele>839.7</ele>
        <time>2021-10-14T12:59:50Z</time>
      </trkpt>
      <trkpt lat="46.53914" lon="6.01607">
        <ele>839.5</ele>
        <time>2021-10-14T12:59:54Z</time>
      </trkpt>
      <trkpt lat="46.5391" lon="6.01611">
        <ele>839.5</ele>
        <time>2021-10-14T12:59:58Z</time>
      </trkpt>
      <trkpt lat="46.53906" lon="6.01615">
        <ele>839.5</ele>
        <time>2021-10-14T13:00:02Z</time>
      </trkpt>
      <trkpt lat="46.53902" lon="6.01616">
        <ele>840</ele>
        <time>2021-10-14T13:00:05Z</time>
      </trkpt>
      <trkpt lat="46.53897" lon="6.01616">
        <ele>840.6</ele>
        <time>2021-10-14T13:00:09Z</time>
      </trkpt>
      <trkpt lat="46.53891" lon="6.01616">
        <ele>841.9</ele>
        <time>2021-10-14T13:00:15Z</time>
      </trkpt>
      <trkpt lat="46.53886" lon="6.01614">
        <ele>843.1</ele>
        <time>2021-10-14T13:00:18Z</time>
      </trkpt>
      <trkpt lat="46.53882" lon="6.01612">
        <ele>844</ele>
        <time>2021-10-14T13:00:21Z</time>
      </trkpt>
      <trkpt lat="46.53876" lon="6.0161">
        <ele>845.6</ele>
        <time>2021-10-14T13:00:25Z</time>
      </trkpt>
      <trkpt lat="46.53872" lon="6.01608">
        <ele>847.5</ele>
        <time>2021-10-14T13:00:30Z</time>
      </trkpt>
      <trkpt lat="46.53867" lon="6.01605">
        <ele>849.4</ele>
        <time>2021-10-14T13:00:35Z</time>
      </trkpt>
      <trkpt lat="46.53864" lon="6.016">
        <ele>850.9</ele>
        <time>2021-10-14T13:00:39Z</time>
      </trkpt>
      <trkpt lat="46.5386" lon="6.01595">
        <ele>852</ele>
        <time>2021-10-14T13:00:44Z</time>
      </trkpt>
      <trkpt lat="46.53855" lon="6.01594">
        <ele>852.1</ele>
        <time>2021-10-14T13:00:49Z</time>
      </trkpt>
      <trkpt lat="46.5385" lon="6.01593">
        <ele>851.2</ele>
        <time>2021-10-14T13:00:56Z</time>
      </trkpt>
      <trkpt lat="46.53845" lon="6.01594">
        <ele>849.9</ele>
        <time>2021-10-14T13:01:02Z</time>
      </trkpt>
      <trkpt lat="46.53841" lon="6.01596">
        <ele>849.5</ele>
        <time>2021-10-14T13:01:05Z</time>
      </trkpt>
      <trkpt lat="46.53835" lon="6.01597">
        <ele>848.8</ele>
        <time>2021-10-14T13:01:09Z</time>
      </trkpt>
      <trkpt lat="46.5383" lon="6.01597">
        <ele>848.1</ele>
        <time>2021-10-14T13:01:16Z</time>
      </trkpt>
      <trkpt lat="46.53825" lon="6.01597">
        <ele>847.7</ele>
        <time>2021-10-14T13:01:22Z</time>
      </trkpt>
      <trkpt lat="46.5382" lon="6.01597">
        <ele>847.1</ele>
        <time>2021-10-14T13:01:28Z</time>
      </trkpt>
      <trkpt lat="46.53815" lon="6.01598">
        <ele>846.8</ele>
        <time>2021-10-14T13:01:32Z</time>
      </trkpt>
      <trkpt lat="46.5381" lon="6.01598">
        <ele>846.7</ele>
        <time>2021-10-14T13:01:37Z</time>
      </trkpt>
      <trkpt lat="46.53805" lon="6.01601">
        <ele>847.3</ele>
        <time>2021-10-14T13:01:41Z</time>
      </trkpt>
      <trkpt lat="46.538" lon="6.01602">
        <ele>848.2</ele>
        <time>2021-10-14T13:01:46Z</time>
      </trkpt>
      <trkpt lat="46.53795" lon="6.01605">
        <ele>848.6</ele>
        <time>2021-10-14T13:01:51Z</time>
      </trkpt>
      <trkpt lat="46.5379" lon="6.01604">
        <ele>848.6</ele>
        <time>2021-10-14T13:01:58Z</time>
      </trkpt>
      <trkpt lat="46.53785" lon="6.01606">
        <ele>848.8</ele>
        <time>2021-10-14T13:02:02Z</time>
      </trkpt>
      <trkpt lat="46.53781" lon="6.01611">
        <ele>849</ele>
        <time>2021-10-14T13:02:05Z</time>
      </trkpt>
      <trkpt lat="46.53777" lon="6.01613">
        <ele>849</ele>
        <time>2021-10-14T13:02:08Z</time>
      </trkpt>
      <trkpt lat="46.53772" lon="6.01616">
        <ele>849</ele>
        <time>2021-10-14T13:02:13Z</time>
      </trkpt>
      <trkpt lat="46.53768" lon="6.01613">
        <ele>847.2</ele>
        <time>2021-10-14T13:02:21Z</time>
      </trkpt>
      <trkpt lat="46.53762" lon="6.01613">
        <ele>845.9</ele>
        <time>2021-10-14T13:02:27Z</time>
      </trkpt>
      <trkpt lat="46.53757" lon="6.01613">
        <ele>844.3</ele>
        <time>2021-10-14T13:02:32Z</time>
      </trkpt>
      <trkpt lat="46.53752" lon="6.01614">
        <ele>843.5</ele>
        <time>2021-10-14T13:02:35Z</time>
      </trkpt>
      <trkpt lat="46.53746" lon="6.01617">
        <ele>842.8</ele>
        <time>2021-10-14T13:02:38Z</time>
      </trkpt>
      <trkpt lat="46.53741" lon="6.0162">
        <ele>842.2</ele>
        <time>2021-10-14T13:02:41Z</time>
      </trkpt>
      <trkpt lat="46.53737" lon="6.01622">
        <ele>841.5</ele>
        <time>2021-10-14T13:02:45Z</time>
      </trkpt>
      <trkpt lat="46.53732" lon="6.0162">
        <ele>840.1</ele>
        <time>2021-10-14T13:02:54Z</time>
      </trkpt>
      <trkpt lat="46.53728" lon="6.01619">
        <ele>839.1</ele>
        <time>2021-10-14T13:03:00Z</time>
      </trkpt>
      <trkpt lat="46.53722" lon="6.01616">
        <ele>838</ele>
        <time>2021-10-14T13:03:05Z</time>
      </trkpt>
      <trkpt lat="46.53717" lon="6.01615">
        <ele>836.8</ele>
        <time>2021-10-14T13:03:11Z</time>
      </trkpt>
      <trkpt lat="46.53713" lon="6.01613">
        <ele>836.5</ele>
        <time>2021-10-14T13:03:15Z</time>
      </trkpt>
      <trkpt lat="46.53708" lon="6.01611">
        <ele>836.3</ele>
        <time>2021-10-14T13:03:19Z</time>
      </trkpt>
      <trkpt lat="46.53703" lon="6.01609">
        <ele>836</ele>
        <time>2021-10-14T13:03:24Z</time>
      </trkpt>
      <trkpt lat="46.53699" lon="6.01607">
        <ele>835.6</ele>
        <time>2021-10-14T13:03:29Z</time>
      </trkpt>
      <trkpt lat="46.53694" lon="6.01607">
        <ele>835.4</ele>
        <time>2021-10-14T13:03:32Z</time>
      </trkpt>
      <trkpt lat="46.53689" lon="6.01607">
        <ele>834.9</ele>
        <time>2021-10-14T13:03:36Z</time>
      </trkpt>
      <trkpt lat="46.53685" lon="6.01603">
        <ele>834</ele>
        <time>2021-10-14T13:03:42Z</time>
      </trkpt>
      <trkpt lat="46.5368" lon="6.01601">
        <ele>833.4</ele>
        <time>2021-10-14T13:03:48Z</time>
      </trkpt>
      <trkpt lat="46.53675" lon="6.016">
        <ele>833.6</ele>
        <time>2021-10-14T13:03:54Z</time>
      </trkpt>
      <trkpt lat="46.5367" lon="6.01599">
        <ele>834</ele>
        <time>2021-10-14T13:04:00Z</time>
      </trkpt>
      <trkpt lat="46.53665" lon="6.01598">
        <ele>834.7</ele>
        <time>2021-10-14T13:04:05Z</time>
      </trkpt>
      <trkpt lat="46.5366" lon="6.01597">
        <ele>835.4</ele>
        <time>2021-10-14T13:04:09Z</time>
      </trkpt>
      <trkpt lat="46.53655" lon="6.01596">
        <ele>836.2</ele>
        <time>2021-10-14T13:04:14Z</time>
      </trkpt>
      <trkpt lat="46.53649" lon="6.01595">
        <ele>837</ele>
        <time>2021-10-14T13:04:19Z</time>
      </trkpt>
      <trkpt lat="46.53644" lon="6.01595">
        <ele>837.6</ele>
        <time>2021-10-14T13:04:23Z</time>
      </trkpt>
      <trkpt lat="46.5364" lon="6.01595">
        <ele>837.9</ele>
        <time>2021-10-14T13:04:28Z</time>
      </trkpt>
      <trkpt lat="46.53635" lon="6.01594">
        <ele>837.9</ele>
        <time>2021-10-14T13:04:33Z</time>
      </trkpt>
      <trkpt lat="46.53629" lon="6.01593">
        <ele>837.4</ele>
        <time>2021-10-14T13:04:38Z</time>
      </trkpt>
      <trkpt lat="46.53624" lon="6.01596">
        <ele>836.1</ele>
        <time>2021-10-14T13:04:43Z</time>
      </trkpt>
      <trkpt lat="46.5362" lon="6.01598">
        <ele>835.2</ele>
        <time>2021-10-14T13:04:46Z</time>
      </trkpt>
      <trkpt lat="46.53615" lon="6.016">
        <ele>834.1</ele>
        <time>2021-10-14T13:04:50Z</time>
      </trkpt>
      <trkpt lat="46.5361" lon="6.016">
        <ele>833.2</ele>
        <time>2021-10-14T13:04:54Z</time>
      </trkpt>
      <trkpt lat="46.53605" lon="6.016">
        <ele>832.5</ele>
        <time>2021-10-14T13:04:58Z</time>
      </trkpt>
      <trkpt lat="46.53601" lon="6.01597">
        <ele>832.4</ele>
        <time>2021-10-14T13:05:03Z</time>
      </trkpt>
      <trkpt lat="46.53597" lon="6.01592">
        <ele>832</ele>
        <time>2021-10-14T13:05:09Z</time>
      </trkpt>
      <trkpt lat="46.53593" lon="6.01587">
        <ele>831.8</ele>
        <time>2021-10-14T13:05:17Z</time>
      </trkpt>
      <trkpt lat="46.53588" lon="6.01586">
        <ele>831.9</ele>
        <time>2021-10-14T13:05:21Z</time>
      </trkpt>
      <trkpt lat="46.53583" lon="6.01586">
        <ele>831.5</ele>
        <time>2021-10-14T13:05:26Z</time>
      </trkpt>
      <trkpt lat="46.53578" lon="6.01585">
        <ele>830.7</ele>
        <time>2021-10-14T13:05:30Z</time>
      </trkpt>
      <trkpt lat="46.53576" lon="6.01579">
        <ele>829.7</ele>
        <time>2021-10-14T13:05:34Z</time>
      </trkpt>
      <trkpt lat="46.53575" lon="6.01573">
        <ele>828.5</ele>
        <time>2021-10-14T13:05:39Z</time>
      </trkpt>
      <trkpt lat="46.53573" lon="6.01566">
        <ele>827.4</ele>
        <time>2021-10-14T13:05:43Z</time>
      </trkpt>
      <trkpt lat="46.5357" lon="6.01561">
        <ele>825.8</ele>
        <time>2021-10-14T13:05:47Z</time>
      </trkpt>
      <trkpt lat="46.53565" lon="6.01557">
        <ele>824</ele>
        <time>2021-10-14T13:05:51Z</time>
      </trkpt>
      <trkpt lat="46.5356" lon="6.01554">
        <ele>822.7</ele>
        <time>2021-10-14T13:05:55Z</time>
      </trkpt>
      <trkpt lat="46.53556" lon="6.0155">
        <ele>821.9</ele>
        <time>2021-10-14T13:05:59Z</time>
      </trkpt>
      <trkpt lat="46.53552" lon="6.01545">
        <ele>821.6</ele>
        <time>2021-10-14T13:06:03Z</time>
      </trkpt>
      <trkpt lat="46.53548" lon="6.01541">
        <ele>821.7</ele>
        <time>2021-10-14T13:06:07Z</time>
      </trkpt>
      <trkpt lat="46.53545" lon="6.01536">
        <ele>821.5</ele>
        <time>2021-10-14T13:06:12Z</time>
      </trkpt>
      <trkpt lat="46.53542" lon="6.0153">
        <ele>821.8</ele>
        <time>2021-10-14T13:06:17Z</time>
      </trkpt>
      <trkpt lat="46.5354" lon="6.01525">
        <ele>823.7</ele>
        <time>2021-10-14T13:06:26Z</time>
      </trkpt>
    </trkseg>
  </trk>
</gpx>